<?xml version='1.0' encoding='UTF-8'?><gpx version="1.1" creator="JPX - https://github.com/jenetics/jpx" xmlns="http://www.topografix.com/GPX/1/1"><trk><trkseg><trkpt lat="45.35845397953678" lon="9.221556784348191"><ele>99.0</ele><time>2026-04-06T06:29:58Z</time></trkpt><trkpt lat="45.35837025618957" lon="9.22161404688109"><ele>99.0</ele><time>2026-04-06T06:30:00Z</time></trkpt><trkpt lat="45.358293268582706" lon="9.221683117893209"><ele>99.0</ele><time>2026-04-06T06:30:02Z</time></trkpt><trkpt lat="45.35821095647546" lon="9.221746998575684"><ele>99.0</ele><time>2026-04-06T06:30:04Z</time></trkpt><trkpt lat="45.35813511010515" lon="9.221810241446898"><ele>99.0</ele><time>2026-04-06T06:30:06Z</time></trkpt><trkpt lat="45.35806019843471" lon="9.221862931441901"><ele>99.0</ele><time>2026-04-06T06:30:08Z</time></trkpt><trkpt lat="45.35797794320533" lon="9.221917016668936"><ele>99.0</ele><time>2026-04-06T06:30:10Z</time></trkpt><trkpt lat="45.357900243755935" lon="9.221979081410037"><ele>99.0</ele><time>2026-04-06T06:30:12Z</time></trkpt><trkpt lat="45.35782419822615" lon="9.222042277411633"><ele>99.0</ele><time>2026-04-06T06:30:14Z</time></trkpt><trkpt lat="45.35774389044039" lon="9.222105156759973"><ele>99.0</ele><time>2026-04-06T06:30:16Z</time></trkpt><trkpt lat="45.35766275053472" lon="9.222160586494278"><ele>99.0</ele><time>2026-04-06T06:30:18Z</time></trkpt><trkpt lat="45.35758218398015" lon="9.222233310210425"><ele>99.0</ele><time>2026-04-06T06:30:20Z</time></trkpt><trkpt lat="45.35750916325236" lon="9.222293167515346"><ele>99.0</ele><time>2026-04-06T06:30:22Z</time></trkpt><trkpt lat="45.35742645891453" lon="9.22234804724716"><ele>99.0</ele><time>2026-04-06T06:30:24Z</time></trkpt><trkpt lat="45.35733682148553" lon="9.222407710241566"><ele>99.0</ele><time>2026-04-06T06:30:26Z</time></trkpt><trkpt lat="45.35724926011755" lon="9.222454658042226"><ele>99.0</ele><time>2026-04-06T06:30:28Z</time></trkpt><trkpt lat="45.35718647352804" lon="9.222508675123159"><ele>99.0</ele><time>2026-04-06T06:30:30Z</time></trkpt><trkpt lat="45.35711679567072" lon="9.222561302621735"><ele>99.0</ele><time>2026-04-06T06:30:32Z</time></trkpt><trkpt lat="45.35705351955658" lon="9.222630138164691"><ele>99.0</ele><time>2026-04-06T06:30:34Z</time></trkpt><trkpt lat="45.35698023400373" lon="9.222698169704556"><ele>99.0</ele><time>2026-04-06T06:30:36Z</time></trkpt><trkpt lat="45.35689887122148" lon="9.222775093411144"><ele>99.0</ele><time>2026-04-06T06:30:38Z</time></trkpt><trkpt lat="45.356808218398974" lon="9.222845736021721"><ele>99.0</ele><time>2026-04-06T06:30:40Z</time></trkpt><trkpt lat="45.35672047023187" lon="9.222928372967814"><ele>99.0</ele><time>2026-04-06T06:30:42Z</time></trkpt><trkpt lat="45.356619594925796" lon="9.223016981999523"><ele>99.0</ele><time>2026-04-06T06:30:44Z</time></trkpt><trkpt lat="45.35652346100354" lon="9.223084608527897"><ele>99.0</ele><time>2026-04-06T06:30:46Z</time></trkpt><trkpt lat="45.35643440590518" lon="9.223154574686491"><ele>99.0</ele><time>2026-04-06T06:30:48Z</time></trkpt><trkpt lat="45.35634993831693" lon="9.223216828502489"><ele>99.0</ele><time>2026-04-06T06:30:50Z</time></trkpt><trkpt lat="45.35626882355796" lon="9.223278482993535"><ele>98.0</ele><time>2026-04-06T06:30:52Z</time></trkpt><trkpt lat="45.356191682066765" lon="9.22334915791879"><ele>97.0</ele><time>2026-04-06T06:30:54Z</time></trkpt><trkpt lat="45.35611061345911" lon="9.223416021738094"><ele>96.0</ele><time>2026-04-06T06:30:56Z</time></trkpt><trkpt lat="45.35603310424988" lon="9.223480816282645"><ele>95.0</ele><time>2026-04-06T06:30:58Z</time></trkpt><trkpt lat="45.35595356369259" lon="9.223548390730876"><ele>94.0</ele><time>2026-04-06T06:31:00Z</time></trkpt><trkpt lat="45.355880677356616" lon="9.223619356643397"><ele>94.0</ele><time>2026-04-06T06:31:02Z</time></trkpt><trkpt lat="45.35579961631985" lon="9.223684667132083"><ele>94.0</ele><time>2026-04-06T06:31:04Z</time></trkpt><trkpt lat="45.35571645551835" lon="9.223751703548398"><ele>94.0</ele><time>2026-04-06T06:31:06Z</time></trkpt><trkpt lat="45.35563005643615" lon="9.223808109214826"><ele>94.0</ele><time>2026-04-06T06:31:08Z</time></trkpt><trkpt lat="45.355551302007065" lon="9.223875506197967"><ele>94.0</ele><time>2026-04-06T06:31:10Z</time></trkpt><trkpt lat="45.35547246305085" lon="9.223937779877007"><ele>94.2</ele><time>2026-04-06T06:31:12Z</time></trkpt><trkpt lat="45.355394123063704" lon="9.22400649901687"><ele>94.4</ele><time>2026-04-06T06:31:14Z</time></trkpt><trkpt lat="45.35532700704653" lon="9.22407033257151"><ele>94.6</ele><time>2026-04-06T06:31:16Z</time></trkpt><trkpt lat="45.35524156686377" lon="9.224139839155901"><ele>94.8</ele><time>2026-04-06T06:31:18Z</time></trkpt><trkpt lat="45.35515843352112" lon="9.224205997577355"><ele>95.0</ele><time>2026-04-06T06:31:20Z</time></trkpt><trkpt lat="45.35507834071258" lon="9.22428116971906"><ele>95.0</ele><time>2026-04-06T06:31:22Z</time></trkpt><trkpt lat="45.35498865302404" lon="9.224344613145549"><ele>95.0</ele><time>2026-04-06T06:31:24Z</time></trkpt><trkpt lat="45.35490473408902" lon="9.22441979475958"><ele>95.0</ele><time>2026-04-06T06:31:26Z</time></trkpt><trkpt lat="45.35481481263084" lon="9.224489230687556"><ele>95.0</ele><time>2026-04-06T06:31:28Z</time></trkpt><trkpt lat="45.35472708090017" lon="9.224564222259344"><ele>95.0</ele><time>2026-04-06T06:31:30Z</time></trkpt><trkpt lat="45.35463927975275" lon="9.224631987256615"><ele>95.2</ele><time>2026-04-06T06:31:32Z</time></trkpt><trkpt lat="45.354552883715094" lon="9.224703202942308"><ele>95.4</ele><time>2026-04-06T06:31:34Z</time></trkpt><trkpt lat="45.35446742201653" lon="9.224774372489778"><ele>95.6</ele><time>2026-04-06T06:31:36Z</time></trkpt><trkpt lat="45.3543798997233" lon="9.224846508580606"><ele>95.8</ele><time>2026-04-06T06:31:38Z</time></trkpt><trkpt lat="45.35429559739126" lon="9.224919138159967"><ele>96.0</ele><time>2026-04-06T06:31:40Z</time></trkpt><trkpt lat="45.35420628309872" lon="9.224988754436175"><ele>96.0</ele><time>2026-04-06T06:31:42Z</time></trkpt><trkpt lat="45.35412111339364" lon="9.225062403418066"><ele>96.0</ele><time>2026-04-06T06:31:44Z</time></trkpt><trkpt lat="45.35402948747471" lon="9.225131295603878"><ele>96.0</ele><time>2026-04-06T06:31:46Z</time></trkpt><trkpt lat="45.353943396736106" lon="9.225200756624762"><ele>96.0</ele><time>2026-04-06T06:31:48Z</time></trkpt><trkpt lat="45.35385758667246" lon="9.22527081397441"><ele>96.0</ele><time>2026-04-06T06:31:50Z</time></trkpt><trkpt lat="45.35377977410655" lon="9.225341513255477"><ele>96.0</ele><time>2026-04-06T06:31:52Z</time></trkpt><trkpt lat="45.353701710757996" lon="9.225414772625331"><ele>96.0</ele><time>2026-04-06T06:31:54Z</time></trkpt><trkpt lat="45.35362221962342" lon="9.225496401458797"><ele>96.0</ele><time>2026-04-06T06:31:56Z</time></trkpt><trkpt lat="45.353541353543925" lon="9.225582181667525"><ele>96.0</ele><time>2026-04-06T06:31:58Z</time></trkpt><trkpt lat="45.353464766008976" lon="9.225648635579365"><ele>96.0</ele><time>2026-04-06T06:32:00Z</time></trkpt><trkpt lat="45.35337116865281" lon="9.225687237565095"><ele>96.0</ele><time>2026-04-06T06:32:02Z</time></trkpt><trkpt lat="45.353275941240184" lon="9.225717913477892"><ele>96.0</ele><time>2026-04-06T06:32:04Z</time></trkpt><trkpt lat="45.35318793877126" lon="9.225768049558148"><ele>96.0</ele><time>2026-04-06T06:32:06Z</time></trkpt><trkpt lat="45.353120467935845" lon="9.225880467599568"><ele>96.0</ele><time>2026-04-06T06:32:08Z</time></trkpt><trkpt lat="45.353063866597296" lon="9.225989724823862"><ele>96.0</ele><time>2026-04-06T06:32:10Z</time></trkpt><trkpt lat="45.352995246601985" lon="9.226084298561009"><ele>96.0</ele><time>2026-04-06T06:32:12Z</time></trkpt><trkpt lat="45.35291353659381" lon="9.226161667162776"><ele>96.0</ele><time>2026-04-06T06:32:14Z</time></trkpt><trkpt lat="45.352825045883506" lon="9.22622672217362"><ele>96.0</ele><time>2026-04-06T06:32:16Z</time></trkpt><trkpt lat="45.352737315046866" lon="9.22629955627849"><ele>96.0</ele><time>2026-04-06T06:32:18Z</time></trkpt><trkpt lat="45.352646876049626" lon="9.226371908587328"><ele>96.0</ele><time>2026-04-06T06:32:20Z</time></trkpt><trkpt lat="45.35255767669389" lon="9.226442272731779"><ele>95.8</ele><time>2026-04-06T06:32:22Z</time></trkpt><trkpt lat="45.35246996161163" lon="9.226514620758412"><ele>95.6</ele><time>2026-04-06T06:32:24Z</time></trkpt><trkpt lat="45.35238216573108" lon="9.22658573261799"><ele>95.4</ele><time>2026-04-06T06:32:26Z</time></trkpt><trkpt lat="45.35229004221599" lon="9.226667908842897"><ele>95.2</ele><time>2026-04-06T06:32:28Z</time></trkpt><trkpt lat="45.35221596857082" lon="9.226757235332098"><ele>95.0</ele><time>2026-04-06T06:32:30Z</time></trkpt><trkpt lat="45.35211781892272" lon="9.226827598135577"><ele>95.0</ele><time>2026-04-06T06:32:32Z</time></trkpt><trkpt lat="45.35203057131735" lon="9.22690992741966"><ele>95.0</ele><time>2026-04-06T06:32:34Z</time></trkpt><trkpt lat="45.35194482153365" lon="9.226984071693222"><ele>95.0</ele><time>2026-04-06T06:32:36Z</time></trkpt><trkpt lat="45.35186385873399" lon="9.227061940113982"><ele>95.0</ele><time>2026-04-06T06:32:38Z</time></trkpt><trkpt lat="45.35178215580534" lon="9.227137755241898"><ele>95.0</ele><time>2026-04-06T06:32:40Z</time></trkpt><trkpt lat="45.35170058696449" lon="9.22721244642815"><ele>95.0</ele><time>2026-04-06T06:32:42Z</time></trkpt><trkpt lat="45.351617643930794" lon="9.22729381362324"><ele>95.0</ele><time>2026-04-06T06:32:44Z</time></trkpt><trkpt lat="45.35153672641911" lon="9.227368181322714"><ele>95.0</ele><time>2026-04-06T06:32:46Z</time></trkpt><trkpt lat="45.35145626650515" lon="9.227444391975425"><ele>95.0</ele><time>2026-04-06T06:32:48Z</time></trkpt><trkpt lat="45.351374912204456" lon="9.227518532195294"><ele>95.0</ele><time>2026-04-06T06:32:50Z</time></trkpt><trkpt lat="45.35129450992717" lon="9.227590590023405"><ele>95.0</ele><time>2026-04-06T06:32:52Z</time></trkpt><trkpt lat="45.35122010999046" lon="9.22765642670437"><ele>95.0</ele><time>2026-04-06T06:32:54Z</time></trkpt><trkpt lat="45.351136274795095" lon="9.227740592530747"><ele>95.0</ele><time>2026-04-06T06:32:56Z</time></trkpt><trkpt lat="45.35105112809024" lon="9.227824876708738"><ele>95.0</ele><time>2026-04-06T06:32:58Z</time></trkpt><trkpt lat="45.35096133265888" lon="9.227908100829831"><ele>95.0</ele><time>2026-04-06T06:33:00Z</time></trkpt><trkpt lat="45.35087028485132" lon="9.227988648087159"><ele>95.0</ele><time>2026-04-06T06:33:02Z</time></trkpt><trkpt lat="45.350790574725096" lon="9.228072419042583"><ele>95.0</ele><time>2026-04-06T06:33:04Z</time></trkpt><trkpt lat="45.35070695756157" lon="9.228149223946376"><ele>95.0</ele><time>2026-04-06T06:33:06Z</time></trkpt><trkpt lat="45.350624255784325" lon="9.22822683110531"><ele>95.0</ele><time>2026-04-06T06:33:08Z</time></trkpt><trkpt lat="45.350539205339295" lon="9.228306017721474"><ele>95.0</ele><time>2026-04-06T06:33:10Z</time></trkpt><trkpt lat="45.35045558310057" lon="9.228384496375579"><ele>95.0</ele><time>2026-04-06T06:33:12Z</time></trkpt><trkpt lat="45.35037514454829" lon="9.228467007211833"><ele>95.0</ele><time>2026-04-06T06:33:14Z</time></trkpt><trkpt lat="45.3502970964457" lon="9.228552208035868"><ele>95.0</ele><time>2026-04-06T06:33:16Z</time></trkpt><trkpt lat="45.35022492212647" lon="9.228644147907223"><ele>95.0</ele><time>2026-04-06T06:33:18Z</time></trkpt><trkpt lat="45.3501590664416" lon="9.228748789983344"><ele>95.0</ele><time>2026-04-06T06:33:20Z</time></trkpt><trkpt lat="45.35006443456873" lon="9.22882149660616"><ele>95.0</ele><time>2026-04-06T06:33:22Z</time></trkpt><trkpt lat="45.34996826283839" lon="9.228870479055788"><ele>95.0</ele><time>2026-04-06T06:33:24Z</time></trkpt><trkpt lat="45.34987187596481" lon="9.22893706601004"><ele>95.0</ele><time>2026-04-06T06:33:26Z</time></trkpt><trkpt lat="45.349784771663344" lon="9.229029541255382"><ele>95.0</ele><time>2026-04-06T06:33:28Z</time></trkpt><trkpt lat="45.34969088084158" lon="9.229109866692466"><ele>95.0</ele><time>2026-04-06T06:33:30Z</time></trkpt><trkpt lat="45.34960036006073" lon="9.229192163142917"><ele>94.4</ele><time>2026-04-06T06:33:32Z</time></trkpt><trkpt lat="45.34951479087177" lon="9.229283865527004"><ele>93.8</ele><time>2026-04-06T06:33:34Z</time></trkpt><trkpt lat="45.3494259147576" lon="9.229369811854397"><ele>93.19999999999999</ele><time>2026-04-06T06:33:36Z</time></trkpt><trkpt lat="45.34933629136426" lon="9.229450317468457"><ele>92.6</ele><time>2026-04-06T06:33:38Z</time></trkpt><trkpt lat="45.34924161336949" lon="9.229521105275676"><ele>92.0</ele><time>2026-04-06T06:33:40Z</time></trkpt><trkpt lat="45.34915233084948" lon="9.229590822158846"><ele>92.0</ele><time>2026-04-06T06:33:42Z</time></trkpt><trkpt lat="45.34905868917353" lon="9.229660428744246"><ele>92.0</ele><time>2026-04-06T06:33:44Z</time></trkpt><trkpt lat="45.34896348667702" lon="9.229728379309705"><ele>92.0</ele><time>2026-04-06T06:33:46Z</time></trkpt><trkpt lat="45.3488663790879" lon="9.229792168303254"><ele>92.0</ele><time>2026-04-06T06:33:48Z</time></trkpt><trkpt lat="45.348772626062264" lon="9.229858583935744"><ele>92.0</ele><time>2026-04-06T06:33:50Z</time></trkpt><trkpt lat="45.34867537201615" lon="9.229921005748706"><ele>92.19999999999999</ele><time>2026-04-06T06:33:52Z</time></trkpt><trkpt lat="45.348586407422516" lon="9.22999498805556"><ele>92.4</ele><time>2026-04-06T06:33:54Z</time></trkpt><trkpt lat="45.34849293696448" lon="9.230061109480664"><ele>92.6</ele><time>2026-04-06T06:33:56Z</time></trkpt><trkpt lat="45.34839682715347" lon="9.230124275189878"><ele>92.80000000000001</ele><time>2026-04-06T06:33:58Z</time></trkpt><trkpt lat="45.34830314334809" lon="9.23019370505239"><ele>93.0</ele><time>2026-04-06T06:34:00Z</time></trkpt><trkpt lat="45.34821007564735" lon="9.230259145544268"><ele>93.0</ele><time>2026-04-06T06:34:02Z</time></trkpt><trkpt lat="45.34811843874103" lon="9.230325676322877"><ele>93.0</ele><time>2026-04-06T06:34:04Z</time></trkpt><trkpt lat="45.34802774805571" lon="9.230396599048019"><ele>93.0</ele><time>2026-04-06T06:34:06Z</time></trkpt><trkpt lat="45.34793723201438" lon="9.23046959744529"><ele>93.0</ele><time>2026-04-06T06:34:08Z</time></trkpt><trkpt lat="45.347851093072904" lon="9.230544588759352"><ele>93.0</ele><time>2026-04-06T06:34:10Z</time></trkpt><trkpt lat="45.34776269044633" lon="9.230613528205446"><ele>93.0</ele><time>2026-04-06T06:34:12Z</time></trkpt><trkpt lat="45.347680515321045" lon="9.230690219261687"><ele>93.0</ele><time>2026-04-06T06:34:14Z</time></trkpt><trkpt lat="45.34758887358584" lon="9.230761701335414"><ele>93.0</ele><time>2026-04-06T06:34:16Z</time></trkpt><trkpt lat="45.3475048207902" lon="9.230836008202552"><ele>93.0</ele><time>2026-04-06T06:34:18Z</time></trkpt><trkpt lat="45.34742279549559" lon="9.230911049214317"><ele>93.0</ele><time>2026-04-06T06:34:20Z</time></trkpt><trkpt lat="45.34733682183224" lon="9.230985994162888"><ele>93.0</ele><time>2026-04-06T06:34:22Z</time></trkpt><trkpt lat="45.347248229829745" lon="9.23105277803565"><ele>93.0</ele><time>2026-04-06T06:34:24Z</time></trkpt><trkpt lat="45.34716574588377" lon="9.2311314029521"><ele>93.0</ele><time>2026-04-06T06:34:26Z</time></trkpt><trkpt lat="45.34707779887138" lon="9.231199796520139"><ele>93.0</ele><time>2026-04-06T06:34:28Z</time></trkpt><trkpt lat="45.34699188782719" lon="9.231276895437983"><ele>93.0</ele><time>2026-04-06T06:34:30Z</time></trkpt><trkpt lat="45.34690425120104" lon="9.231349144882294"><ele>93.0</ele><time>2026-04-06T06:34:32Z</time></trkpt><trkpt lat="45.34682029085375" lon="9.231430860365828"><ele>93.0</ele><time>2026-04-06T06:34:34Z</time></trkpt><trkpt lat="45.34673196094143" lon="9.231502691847291"><ele>93.0</ele><time>2026-04-06T06:34:36Z</time></trkpt><trkpt lat="45.34664491043512" lon="9.231581029679072"><ele>93.0</ele><time>2026-04-06T06:34:38Z</time></trkpt><trkpt lat="45.34655967428399" lon="9.231664236744656"><ele>93.0</ele><time>2026-04-06T06:34:40Z</time></trkpt><trkpt lat="45.34647631091555" lon="9.231746654464926"><ele>93.0</ele><time>2026-04-06T06:34:42Z</time></trkpt><trkpt lat="45.3463913310549" lon="9.231824198376483"><ele>93.0</ele><time>2026-04-06T06:34:44Z</time></trkpt><trkpt lat="45.34630885867587" lon="9.231904727651157"><ele>93.0</ele><time>2026-04-06T06:34:46Z</time></trkpt><trkpt lat="45.34622555937723" lon="9.231982443357355"><ele>93.0</ele><time>2026-04-06T06:34:48Z</time></trkpt><trkpt lat="45.34614434591594" lon="9.232056365126777"><ele>93.0</ele><time>2026-04-06T06:34:50Z</time></trkpt><trkpt lat="45.34605887410311" lon="9.232131068222698"><ele>93.0</ele><time>2026-04-06T06:34:52Z</time></trkpt><trkpt lat="45.34596805133964" lon="9.232191439529487"><ele>93.0</ele><time>2026-04-06T06:34:54Z</time></trkpt><trkpt lat="45.3458813719594" lon="9.232264137302431"><ele>93.0</ele><time>2026-04-06T06:34:56Z</time></trkpt><trkpt lat="45.345794358125715" lon="9.232333042974984"><ele>93.0</ele><time>2026-04-06T06:34:58Z</time></trkpt><trkpt lat="45.3457095286242" lon="9.232405445655921"><ele>93.0</ele><time>2026-04-06T06:35:00Z</time></trkpt><trkpt lat="45.34562035906149" lon="9.232473142991985"><ele>93.0</ele><time>2026-04-06T06:35:02Z</time></trkpt><trkpt lat="45.34553314568259" lon="9.232544215733608"><ele>93.0</ele><time>2026-04-06T06:35:04Z</time></trkpt><trkpt lat="45.34544432976747" lon="9.232613133022715"><ele>93.0</ele><time>2026-04-06T06:35:06Z</time></trkpt><trkpt lat="45.34535781061099" lon="9.232680104827251"><ele>93.0</ele><time>2026-04-06T06:35:08Z</time></trkpt><trkpt lat="45.3452707397571" lon="9.232743485954868"><ele>93.0</ele><time>2026-04-06T06:35:10Z</time></trkpt><trkpt lat="45.345185121079474" lon="9.232812764221286"><ele>93.0</ele><time>2026-04-06T06:35:12Z</time></trkpt><trkpt lat="45.34509940970718" lon="9.232881516558843"><ele>93.0</ele><time>2026-04-06T06:35:14Z</time></trkpt><trkpt lat="45.34501165547999" lon="9.23295125401222"><ele>93.0</ele><time>2026-04-06T06:35:16Z</time></trkpt><trkpt lat="45.34492199531672" lon="9.233023452871928"><ele>93.0</ele><time>2026-04-06T06:35:18Z</time></trkpt><trkpt lat="45.344832864005994" lon="9.233092897593547"><ele>93.0</ele><time>2026-04-06T06:35:20Z</time></trkpt><trkpt lat="45.344737121901304" lon="9.23317233623611"><ele>92.80000000000001</ele><time>2026-04-06T06:35:22Z</time></trkpt><trkpt lat="45.34465822845967" lon="9.233236483933739"><ele>92.6</ele><time>2026-04-06T06:35:24Z</time></trkpt><trkpt lat="45.34457441041437" lon="9.233285318444093"><ele>92.4</ele><time>2026-04-06T06:35:26Z</time></trkpt><trkpt lat="45.34448753284617" lon="9.233356007686973"><ele>92.19999999999999</ele><time>2026-04-06T06:35:28Z</time></trkpt><trkpt lat="45.344395403715936" lon="9.233438276689316"><ele>92.0</ele><time>2026-04-06T06:35:30Z</time></trkpt><trkpt lat="45.344302769654455" lon="9.233533647846748"><ele>92.0</ele><time>2026-04-06T06:35:32Z</time></trkpt><trkpt lat="45.344206338495916" lon="9.233630752799767"><ele>92.0</ele><time>2026-04-06T06:35:34Z</time></trkpt><trkpt lat="45.34411451878051" lon="9.23373630457075"><ele>92.0</ele><time>2026-04-06T06:35:36Z</time></trkpt><trkpt lat="45.344019145812034" lon="9.233830266718757"><ele>92.0</ele><time>2026-04-06T06:35:38Z</time></trkpt><trkpt lat="45.34392763259384" lon="9.233920520368715"><ele>92.39999999999999</ele><time>2026-04-06T06:35:40Z</time></trkpt><trkpt lat="45.343835363026315" lon="9.234007250554228"><ele>92.8</ele><time>2026-04-06T06:35:42Z</time></trkpt><trkpt lat="45.343747132860265" lon="9.234100380451277"><ele>93.2</ele><time>2026-04-06T06:35:44Z</time></trkpt><trkpt lat="45.34365651460618" lon="9.23418106749553"><ele>93.6</ele><time>2026-04-06T06:35:46Z</time></trkpt><trkpt lat="45.343563168470695" lon="9.234258373743556"><ele>94.0</ele><time>2026-04-06T06:35:48Z</time></trkpt><trkpt lat="45.34347007884878" lon="9.23433087066604"><ele>94.0</ele><time>2026-04-06T06:35:50Z</time></trkpt><trkpt lat="45.34338190308785" lon="9.234379910063293"><ele>94.0</ele><time>2026-04-06T06:35:52Z</time></trkpt><trkpt lat="45.343282009790215" lon="9.23445274825719"><ele>94.0</ele><time>2026-04-06T06:35:54Z</time></trkpt><trkpt lat="45.343189632687526" lon="9.2345202850138"><ele>94.0</ele><time>2026-04-06T06:35:56Z</time></trkpt><trkpt lat="45.34309484789079" lon="9.234579377695729"><ele>94.0</ele><time>2026-04-06T06:35:58Z</time></trkpt><trkpt lat="45.34300279037912" lon="9.23463917610512"><ele>93.80000000000001</ele><time>2026-04-06T06:36:00Z</time></trkpt><trkpt lat="45.34290947511808" lon="9.234699812988584"><ele>93.60000000000001</ele><time>2026-04-06T06:36:02Z</time></trkpt><trkpt lat="45.34281444404026" lon="9.23475489359441"><ele>93.4</ele><time>2026-04-06T06:36:04Z</time></trkpt><trkpt lat="45.34272129518969" lon="9.23480820917613"><ele>93.2</ele><time>2026-04-06T06:36:06Z</time></trkpt><trkpt lat="45.34262585305094" lon="9.234865016516723"><ele>93.0</ele><time>2026-04-06T06:36:08Z</time></trkpt><trkpt lat="45.34253133884922" lon="9.234935217541068"><ele>92.80000000000001</ele><time>2026-04-06T06:36:10Z</time></trkpt><trkpt lat="45.34244154293143" lon="9.235013341107887"><ele>92.6</ele><time>2026-04-06T06:36:12Z</time></trkpt><trkpt lat="45.34235323018763" lon="9.23510025579237"><ele>92.4</ele><time>2026-04-06T06:36:14Z</time></trkpt><trkpt lat="45.3422603905304" lon="9.23516808942469"><ele>92.19999999999999</ele><time>2026-04-06T06:36:16Z</time></trkpt><trkpt lat="45.34216863951815" lon="9.235239070300373"><ele>92.0</ele><time>2026-04-06T06:36:18Z</time></trkpt><trkpt lat="45.34208229221851" lon="9.235316789467463"><ele>91.8</ele><time>2026-04-06T06:36:20Z</time></trkpt><trkpt lat="45.34199434607505" lon="9.23539372586936"><ele>91.6</ele><time>2026-04-06T06:36:22Z</time></trkpt><trkpt lat="45.3419061460897" lon="9.235469550149045"><ele>91.39999999999999</ele><time>2026-04-06T06:36:24Z</time></trkpt><trkpt lat="45.341820026736734" lon="9.235549683963828"><ele>91.19999999999999</ele><time>2026-04-06T06:36:26Z</time></trkpt><trkpt lat="45.34173467695077" lon="9.235628532986919"><ele>91.0</ele><time>2026-04-06T06:36:28Z</time></trkpt><trkpt lat="45.34164768047821" lon="9.235700488765678"><ele>90.8</ele><time>2026-04-06T06:36:30Z</time></trkpt><trkpt lat="45.341561443870724" lon="9.235782597960856"><ele>90.6</ele><time>2026-04-06T06:36:32Z</time></trkpt><trkpt lat="45.34147585350039" lon="9.235864368601248"><ele>90.4</ele><time>2026-04-06T06:36:34Z</time></trkpt><trkpt lat="45.34139195856273" lon="9.235946895569983"><ele>90.2</ele><time>2026-04-06T06:36:36Z</time></trkpt><trkpt lat="45.34130451601901" lon="9.236019142107278"><ele>90.0</ele><time>2026-04-06T06:36:38Z</time></trkpt><trkpt lat="45.34121714739699" lon="9.23609561053129"><ele>89.8</ele><time>2026-04-06T06:36:40Z</time></trkpt><trkpt lat="45.341136841286236" lon="9.236177743630265"><ele>89.6</ele><time>2026-04-06T06:36:42Z</time></trkpt><trkpt lat="45.341051070360045" lon="9.2362514401423"><ele>89.4</ele><time>2026-04-06T06:36:44Z</time></trkpt><trkpt lat="45.340964642702936" lon="9.236325236894036"><ele>89.2</ele><time>2026-04-06T06:36:46Z</time></trkpt><trkpt lat="45.34088015520377" lon="9.236393463043997"><ele>89.0</ele><time>2026-04-06T06:36:48Z</time></trkpt><trkpt lat="45.340800514784476" lon="9.23647037130926"><ele>89.0</ele><time>2026-04-06T06:36:50Z</time></trkpt><trkpt lat="45.340716802744254" lon="9.236542681891548"><ele>89.0</ele><time>2026-04-06T06:36:52Z</time></trkpt><trkpt lat="45.340629914345236" lon="9.236615976326004"><ele>89.0</ele><time>2026-04-06T06:36:54Z</time></trkpt><trkpt lat="45.34053758660464" lon="9.236691139066117"><ele>89.0</ele><time>2026-04-06T06:36:56Z</time></trkpt><trkpt lat="45.34044507249416" lon="9.236772339870132"><ele>89.0</ele><time>2026-04-06T06:36:58Z</time></trkpt><trkpt lat="45.340353230536266" lon="9.236841740271684"><ele>89.0</ele><time>2026-04-06T06:37:00Z</time></trkpt><trkpt lat="45.34025807691259" lon="9.236923036156766"><ele>89.0</ele><time>2026-04-06T06:37:02Z</time></trkpt><trkpt lat="45.34016063058444" lon="9.237006430378688"><ele>89.0</ele><time>2026-04-06T06:37:04Z</time></trkpt><trkpt lat="45.340060572330444" lon="9.237100990646093"><ele>89.0</ele><time>2026-04-06T06:37:06Z</time></trkpt><trkpt lat="45.339967869047946" lon="9.237203518535718"><ele>89.0</ele><time>2026-04-06T06:37:08Z</time></trkpt><trkpt lat="45.339871906979475" lon="9.237285352869435"><ele>89.0</ele><time>2026-04-06T06:37:10Z</time></trkpt><trkpt lat="45.33978009060119" lon="9.237366095064385"><ele>89.0</ele><time>2026-04-06T06:37:12Z</time></trkpt><trkpt lat="45.339688209454266" lon="9.237442517439648"><ele>89.0</ele><time>2026-04-06T06:37:14Z</time></trkpt><trkpt lat="45.33960343834975" lon="9.237527596148311"><ele>89.0</ele><time>2026-04-06T06:37:16Z</time></trkpt><trkpt lat="45.33951344675829" lon="9.237606236097722"><ele>89.4</ele><time>2026-04-06T06:37:18Z</time></trkpt><trkpt lat="45.33942908429648" lon="9.237688922375739"><ele>89.80000000000001</ele><time>2026-04-06T06:37:20Z</time></trkpt><trkpt lat="45.33934372167208" lon="9.237774184767819"><ele>90.19999999999999</ele><time>2026-04-06T06:37:22Z</time></trkpt><trkpt lat="45.339252902794016" lon="9.237849464023302"><ele>90.6</ele><time>2026-04-06T06:37:24Z</time></trkpt><trkpt lat="45.33916754778617" lon="9.237922408970265"><ele>91.0</ele><time>2026-04-06T06:37:26Z</time></trkpt><trkpt lat="45.339081055964904" lon="9.23800321528718"><ele>91.0</ele><time>2026-04-06T06:37:28Z</time></trkpt><trkpt lat="45.3389951977629" lon="9.238071395236108"><ele>91.0</ele><time>2026-04-06T06:37:30Z</time></trkpt><trkpt lat="45.33890834455728" lon="9.23814216898352"><ele>91.0</ele><time>2026-04-06T06:37:32Z</time></trkpt><trkpt lat="45.33882210136971" lon="9.238210685104505"><ele>91.0</ele><time>2026-04-06T06:37:34Z</time></trkpt><trkpt lat="45.338737243496105" lon="9.238282985329821"><ele>91.0</ele><time>2026-04-06T06:37:36Z</time></trkpt><trkpt lat="45.33865122745201" lon="9.238352278291154"><ele>91.0</ele><time>2026-04-06T06:37:38Z</time></trkpt><trkpt lat="45.338567554355194" lon="9.238429354354857"><ele>91.0</ele><time>2026-04-06T06:37:40Z</time></trkpt><trkpt lat="45.338481109171816" lon="9.238497562996622"><ele>91.0</ele><time>2026-04-06T06:37:42Z</time></trkpt><trkpt lat="45.33839751794304" lon="9.23857064136915"><ele>91.0</ele><time>2026-04-06T06:37:44Z</time></trkpt><trkpt lat="45.33831086928047" lon="9.238640722001726"><ele>91.0</ele><time>2026-04-06T06:37:46Z</time></trkpt><trkpt lat="45.33822522166341" lon="9.238715801731873"><ele>91.0</ele><time>2026-04-06T06:37:48Z</time></trkpt><trkpt lat="45.338136025358" lon="9.238785472802038"><ele>91.0</ele><time>2026-04-06T06:37:50Z</time></trkpt><trkpt lat="45.33804893629164" lon="9.238861027965614"><ele>91.0</ele><time>2026-04-06T06:37:52Z</time></trkpt><trkpt lat="45.33796017631984" lon="9.238927863372272"><ele>91.0</ele><time>2026-04-06T06:37:54Z</time></trkpt><trkpt lat="45.33787168782466" lon="9.238997591929461"><ele>91.0</ele><time>2026-04-06T06:37:56Z</time></trkpt><trkpt lat="45.33778673721387" lon="9.239074527988754"><ele>91.0</ele><time>2026-04-06T06:37:58Z</time></trkpt><trkpt lat="45.33769770195016" lon="9.239140491205294"><ele>91.0</ele><time>2026-04-06T06:38:00Z</time></trkpt><trkpt lat="45.33760901336857" lon="9.23921119134777"><ele>91.0</ele><time>2026-04-06T06:38:02Z</time></trkpt><trkpt lat="45.33751950457056" lon="9.239275438450957"><ele>91.0</ele><time>2026-04-06T06:38:04Z</time></trkpt><trkpt lat="45.337433063614675" lon="9.2393484964738"><ele>91.0</ele><time>2026-04-06T06:38:06Z</time></trkpt><trkpt lat="45.337344790636635" lon="9.239415090729356"><ele>91.0</ele><time>2026-04-06T06:38:08Z</time></trkpt><trkpt lat="45.33725591451189" lon="9.239482211428275"><ele>91.0</ele><time>2026-04-06T06:38:10Z</time></trkpt><trkpt lat="45.33716825390252" lon="9.239547649982207"><ele>91.0</ele><time>2026-04-06T06:38:12Z</time></trkpt><trkpt lat="45.33708270822492" lon="9.23961582697836"><ele>91.0</ele><time>2026-04-06T06:38:14Z</time></trkpt><trkpt lat="45.33699734730272" lon="9.239684288658555"><ele>91.0</ele><time>2026-04-06T06:38:16Z</time></trkpt><trkpt lat="45.33691263967037" lon="9.239751983949926"><ele>91.0</ele><time>2026-04-06T06:38:18Z</time></trkpt><trkpt lat="45.33682815268612" lon="9.239819019967143"><ele>91.0</ele><time>2026-04-06T06:38:20Z</time></trkpt><trkpt lat="45.33674645744109" lon="9.239890574016561"><ele>91.0</ele><time>2026-04-06T06:38:22Z</time></trkpt><trkpt lat="45.33666287600961" lon="9.239957336385864"><ele>91.0</ele><time>2026-04-06T06:38:24Z</time></trkpt><trkpt lat="45.33657914624381" lon="9.24002565250363"><ele>91.0</ele><time>2026-04-06T06:38:26Z</time></trkpt><trkpt lat="45.336496418527545" lon="9.240091725545712"><ele>91.0</ele><time>2026-04-06T06:38:28Z</time></trkpt><trkpt lat="45.336411214237636" lon="9.240158241564156"><ele>91.0</ele><time>2026-04-06T06:38:30Z</time></trkpt><trkpt lat="45.336325813862" lon="9.24022715965603"><ele>91.0</ele><time>2026-04-06T06:38:32Z</time></trkpt><trkpt lat="45.336244756764614" lon="9.240298934929758"><ele>91.0</ele><time>2026-04-06T06:38:34Z</time></trkpt><trkpt lat="45.33616136294388" lon="9.240363960756312"><ele>91.0</ele><time>2026-04-06T06:38:36Z</time></trkpt><trkpt lat="45.336077122719935" lon="9.240430306756364"><ele>91.0</ele><time>2026-04-06T06:38:38Z</time></trkpt><trkpt lat="45.33599471914849" lon="9.240501348807932"><ele>91.0</ele><time>2026-04-06T06:38:40Z</time></trkpt><trkpt lat="45.335911420279864" lon="9.240570740252487"><ele>91.0</ele><time>2026-04-06T06:38:42Z</time></trkpt><trkpt lat="45.335828950872134" lon="9.24064029215242"><ele>91.0</ele><time>2026-04-06T06:38:44Z</time></trkpt><trkpt lat="45.33574415968536" lon="9.24070224404706"><ele>91.0</ele><time>2026-04-06T06:38:46Z</time></trkpt><trkpt lat="45.33566068896714" lon="9.24077258858436"><ele>90.8</ele><time>2026-04-06T06:38:48Z</time></trkpt><trkpt lat="45.33557908545367" lon="9.240839418247756"><ele>90.6</ele><time>2026-04-06T06:38:50Z</time></trkpt><trkpt lat="45.33549697811715" lon="9.240906511024557"><ele>90.4</ele><time>2026-04-06T06:38:52Z</time></trkpt><trkpt lat="45.33541515344408" lon="9.240977230989785"><ele>90.2</ele><time>2026-04-06T06:38:54Z</time></trkpt><trkpt lat="45.33533365603824" lon="9.241046938458332"><ele>90.0</ele><time>2026-04-06T06:38:56Z</time></trkpt><trkpt lat="45.33525326910298" lon="9.241108858542797"><ele>90.0</ele><time>2026-04-06T06:38:58Z</time></trkpt><trkpt lat="45.335176757351455" lon="9.241173881367422"><ele>90.0</ele><time>2026-04-06T06:39:00Z</time></trkpt><trkpt lat="45.33510026033625" lon="9.2412398371986"><ele>90.0</ele><time>2026-04-06T06:39:02Z</time></trkpt><trkpt lat="45.335019982795494" lon="9.241305804928512"><ele>90.0</ele><time>2026-04-06T06:39:04Z</time></trkpt><trkpt lat="45.334935246338276" lon="9.241371356575966"><ele>90.0</ele><time>2026-04-06T06:39:06Z</time></trkpt><trkpt lat="45.334845356055204" lon="9.241442279762683"><ele>90.0</ele><time>2026-04-06T06:39:08Z</time></trkpt><trkpt lat="45.334750433622034" lon="9.241533203843414"><ele>90.0</ele><time>2026-04-06T06:39:10Z</time></trkpt><trkpt lat="45.334645567129165" lon="9.241628729563649"><ele>90.0</ele><time>2026-04-06T06:39:12Z</time></trkpt><trkpt lat="45.33454209690961" lon="9.241727109922833"><ele>90.0</ele><time>2026-04-06T06:39:14Z</time></trkpt><trkpt lat="45.33444542681603" lon="9.241825192823613"><ele>90.0</ele><time>2026-04-06T06:39:16Z</time></trkpt><trkpt lat="45.33434516193976" lon="9.241917708054174"><ele>90.0</ele><time>2026-04-06T06:39:18Z</time></trkpt><trkpt lat="45.334250177848844" lon="9.24200650119203"><ele>90.0</ele><time>2026-04-06T06:39:20Z</time></trkpt><trkpt lat="45.3341550094649" lon="9.24209707982584"><ele>90.0</ele><time>2026-04-06T06:39:22Z</time></trkpt><trkpt lat="45.33407188286572" lon="9.242176243725488"><ele>90.0</ele><time>2026-04-06T06:39:24Z</time></trkpt><trkpt lat="45.3340001297396" lon="9.242234627121096"><ele>90.0</ele><time>2026-04-06T06:39:26Z</time></trkpt><trkpt lat="45.333937640880414" lon="9.242270887383562"><ele>90.0</ele><time>2026-04-06T06:39:28Z</time></trkpt><trkpt lat="45.33387322829927" lon="9.24230438449914"><ele>90.0</ele><time>2026-04-06T06:39:31Z</time></trkpt><trkpt lat="45.3338160932734" lon="9.242350322041107"><ele>90.0</ele><time>2026-04-06T06:39:34Z</time></trkpt><trkpt lat="45.333756261438474" lon="9.242411689182646"><ele>90.0</ele><time>2026-04-06T06:39:36Z</time></trkpt><trkpt lat="45.33372174809136" lon="9.242524712054847"><ele>90.0</ele><time>2026-04-06T06:39:38Z</time></trkpt><trkpt lat="45.33363384786096" lon="9.24260902815045"><ele>90.4</ele><time>2026-04-06T06:39:40Z</time></trkpt><trkpt lat="45.333540280443984" lon="9.242682470207663"><ele>90.8</ele><time>2026-04-06T06:39:42Z</time></trkpt><trkpt lat="45.33344617767753" lon="9.24275956235476"><ele>91.19999999999999</ele><time>2026-04-06T06:39:44Z</time></trkpt><trkpt lat="45.33335058400212" lon="9.242837999040468"><ele>91.6</ele><time>2026-04-06T06:39:46Z</time></trkpt><trkpt lat="45.33324627233288" lon="9.24292123485949"><ele>92.0</ele><time>2026-04-06T06:39:48Z</time></trkpt><trkpt lat="45.333144534623514" lon="9.243008206954578"><ele>91.75</ele><time>2026-04-06T06:39:50Z</time></trkpt><trkpt lat="45.33304444857204" lon="9.243088985933861"><ele>91.5</ele><time>2026-04-06T06:39:52Z</time></trkpt><trkpt lat="45.33293938691359" lon="9.243174551599623"><ele>91.25</ele><time>2026-04-06T06:39:54Z</time></trkpt><trkpt lat="45.332833641447294" lon="9.243264924846407"><ele>91.0</ele><time>2026-04-06T06:39:56Z</time></trkpt><trkpt lat="45.33272952715104" lon="9.24335278213707"><ele>91.0</ele><time>2026-04-06T06:39:58Z</time></trkpt><trkpt lat="45.332632943641755" lon="9.243437708125716"><ele>91.0</ele><time>2026-04-06T06:40:00Z</time></trkpt><trkpt lat="45.33253117333684" lon="9.243517416281806"><ele>91.0</ele><time>2026-04-06T06:40:02Z</time></trkpt><trkpt lat="45.332431970452205" lon="9.243601921029654"><ele>91.0</ele><time>2026-04-06T06:40:04Z</time></trkpt><trkpt lat="45.33233308670771" lon="9.243696258802563"><ele>91.0</ele><time>2026-04-06T06:40:06Z</time></trkpt><trkpt lat="45.3322287138688" lon="9.243780421645784"><ele>91.0</ele><time>2026-04-06T06:40:08Z</time></trkpt><trkpt lat="45.33212621364071" lon="9.243875602035061"><ele>91.0</ele><time>2026-04-06T06:40:10Z</time></trkpt><trkpt lat="45.33206912403491" lon="9.24392078240559"><ele>91.0</ele><time>2026-04-06T06:40:11Z</time></trkpt><trkpt lat="45.33196254058583" lon="9.244011886642282"><ele>91.0</ele><time>2026-04-06T06:40:13Z</time></trkpt><trkpt lat="45.33190882243018" lon="9.24406003244213"><ele>90.83333333333333</ele><time>2026-04-06T06:40:14Z</time></trkpt><trkpt lat="45.33185516548026" lon="9.244107200002924"><ele>90.66666666666666</ele><time>2026-04-06T06:40:15Z</time></trkpt><trkpt lat="45.33179975248845" lon="9.24415831095216"><ele>90.5</ele><time>2026-04-06T06:40:16Z</time></trkpt><trkpt lat="45.331741065695866" lon="9.244205086220864"><ele>90.33333333333333</ele><time>2026-04-06T06:40:17Z</time></trkpt><trkpt lat="45.33168798283928" lon="9.244257115740565"><ele>90.16666666666667</ele><time>2026-04-06T06:40:18Z</time></trkpt><trkpt lat="45.33158457704758" lon="9.244352536213421"><ele>90.0</ele><time>2026-04-06T06:40:20Z</time></trkpt><trkpt lat="45.33148469368425" lon="9.244439249933425"><ele>90.0</ele><time>2026-04-06T06:40:22Z</time></trkpt><trkpt lat="45.33142919024056" lon="9.244486367329442"><ele>90.0</ele><time>2026-04-06T06:40:23Z</time></trkpt><trkpt lat="45.33132901986809" lon="9.244565405794393"><ele>90.0</ele><time>2026-04-06T06:40:25Z</time></trkpt><trkpt lat="45.3312295753654" lon="9.244647461620037"><ele>90.0</ele><time>2026-04-06T06:40:27Z</time></trkpt><trkpt lat="45.33113244471339" lon="9.244727302068435"><ele>90.0</ele><time>2026-04-06T06:40:29Z</time></trkpt><trkpt lat="45.33104090481253" lon="9.244801335358144"><ele>89.83333333333333</ele><time>2026-04-06T06:40:31Z</time></trkpt><trkpt lat="45.33096228395859" lon="9.244867358288205"><ele>89.66666666666667</ele><time>2026-04-06T06:40:33Z</time></trkpt><trkpt lat="45.33091595289367" lon="9.2449522741013"><ele>89.5</ele><time>2026-04-06T06:40:35Z</time></trkpt><trkpt lat="45.33094595568226" lon="9.245067754177498"><ele>89.33333333333334</ele><time>2026-04-06T06:40:37Z</time></trkpt><trkpt lat="45.330962805697574" lon="9.24516746174033"><ele>89.16666666666667</ele><time>2026-04-06T06:40:39Z</time></trkpt><trkpt lat="45.330919939842964" lon="9.245262465459813"><ele>89.0</ele><time>2026-04-06T06:40:41Z</time></trkpt><trkpt lat="45.33092785025804" lon="9.245398525749978"><ele>89.0</ele><time>2026-04-06T06:40:43Z</time></trkpt><trkpt lat="45.33097252126038" lon="9.245465110130937"><ele>89.0</ele><time>2026-04-06T06:40:44Z</time></trkpt><trkpt lat="45.331039710325484" lon="9.245597996929364"><ele>89.0</ele><time>2026-04-06T06:40:46Z</time></trkpt><trkpt lat="45.33108982152969" lon="9.245732099368093"><ele>89.0</ele><time>2026-04-06T06:40:48Z</time></trkpt><trkpt lat="45.33113633028401" lon="9.245855205866837"><ele>89.0</ele><time>2026-04-06T06:40:50Z</time></trkpt><trkpt lat="45.331162912048036" lon="9.245959800867917"><ele>89.2</ele><time>2026-04-06T06:40:52Z</time></trkpt><trkpt lat="45.331169300333" lon="9.246060279218568"><ele>89.4</ele><time>2026-04-06T06:40:54Z</time></trkpt><trkpt lat="45.33122049672264" lon="9.246175126016803"><ele>89.6</ele><time>2026-04-06T06:40:56Z</time></trkpt><trkpt lat="45.33127458333175" lon="9.246301005128865"><ele>89.8</ele><time>2026-04-06T06:40:58Z</time></trkpt><trkpt lat="45.33133150575659" lon="9.246437485154386"><ele>90.0</ele><time>2026-04-06T06:41:00Z</time></trkpt><trkpt lat="45.33137743446932" lon="9.246558943718545"><ele>89.83333333333333</ele><time>2026-04-06T06:41:02Z</time></trkpt><trkpt lat="45.33142219878949" lon="9.246659563616547"><ele>89.66666666666667</ele><time>2026-04-06T06:41:04Z</time></trkpt><trkpt lat="45.33145663419907" lon="9.246755202226076"><ele>89.5</ele><time>2026-04-06T06:41:06Z</time></trkpt><trkpt lat="45.3314993866743" lon="9.24685490597815"><ele>89.33333333333334</ele><time>2026-04-06T06:41:08Z</time></trkpt><trkpt lat="45.33153538730048" lon="9.246957952214057"><ele>89.16666666666667</ele><time>2026-04-06T06:41:10Z</time></trkpt><trkpt lat="45.33157591462694" lon="9.24706321722011"><ele>89.0</ele><time>2026-04-06T06:41:12Z</time></trkpt><trkpt lat="45.33161520485397" lon="9.247166888979574"><ele>89.0</ele><time>2026-04-06T06:41:14Z</time></trkpt><trkpt lat="45.331657317757205" lon="9.247274808951307"><ele>89.0</ele><time>2026-04-06T06:41:16Z</time></trkpt><trkpt lat="45.331694132039225" lon="9.24737475266762"><ele>89.0</ele><time>2026-04-06T06:41:18Z</time></trkpt><trkpt lat="45.331732853160226" lon="9.247469710679143"><ele>89.0</ele><time>2026-04-06T06:41:20Z</time></trkpt><trkpt lat="45.331770013784194" lon="9.247576939245027"><ele>89.0</ele><time>2026-04-06T06:41:22Z</time></trkpt><trkpt lat="45.331792006626145" lon="9.247699431557983"><ele>89.0</ele><time>2026-04-06T06:41:24Z</time></trkpt><trkpt lat="45.331813344195375" lon="9.247832179498918"><ele>89.2</ele><time>2026-04-06T06:41:26Z</time></trkpt><trkpt lat="45.331844519611764" lon="9.247963518249996"><ele>89.4</ele><time>2026-04-06T06:41:28Z</time></trkpt><trkpt lat="45.331879526286194" lon="9.24808483691004"><ele>89.6</ele><time>2026-04-06T06:41:30Z</time></trkpt><trkpt lat="45.33192471555034" lon="9.248202407407774"><ele>89.8</ele><time>2026-04-06T06:41:32Z</time></trkpt><trkpt lat="45.331976900448275" lon="9.248311061241843"><ele>90.0</ele><time>2026-04-06T06:41:34Z</time></trkpt><trkpt lat="45.332033152353084" lon="9.248421241109503"><ele>90.0</ele><time>2026-04-06T06:41:36Z</time></trkpt><trkpt lat="45.332085413749375" lon="9.2485218290319"><ele>90.0</ele><time>2026-04-06T06:41:38Z</time></trkpt><trkpt lat="45.33213820955109" lon="9.248625430434467"><ele>90.0</ele><time>2026-04-06T06:41:40Z</time></trkpt><trkpt lat="45.33219809765821" lon="9.248732385014764"><ele>90.0</ele><time>2026-04-06T06:41:42Z</time></trkpt><trkpt lat="45.33225696807397" lon="9.248841576806635"><ele>90.0</ele><time>2026-04-06T06:41:44Z</time></trkpt><trkpt lat="45.33231461409845" lon="9.248950482313152"><ele>90.16666666666667</ele><time>2026-04-06T06:41:46Z</time></trkpt><trkpt lat="45.332370272133765" lon="9.249055364648239"><ele>90.33333333333333</ele><time>2026-04-06T06:41:48Z</time></trkpt><trkpt lat="45.33242538935029" lon="9.249160330683132"><ele>90.5</ele><time>2026-04-06T06:41:50Z</time></trkpt><trkpt lat="45.33247913844782" lon="9.249259784303241"><ele>90.66666666666666</ele><time>2026-04-06T06:41:52Z</time></trkpt><trkpt lat="45.332533433038556" lon="9.249353345580364"><ele>90.83333333333333</ele><time>2026-04-06T06:41:54Z</time></trkpt><trkpt lat="45.332591439011466" lon="9.249447434577764"><ele>91.0</ele><time>2026-04-06T06:41:56Z</time></trkpt><trkpt lat="45.33264595160434" lon="9.249540104077042"><ele>91.0</ele><time>2026-04-06T06:41:58Z</time></trkpt><trkpt lat="45.33270486924193" lon="9.249629327202463"><ele>91.0</ele><time>2026-04-06T06:42:00Z</time></trkpt><trkpt lat="45.33276218951522" lon="9.249728366490032"><ele>91.0</ele><time>2026-04-06T06:42:02Z</time></trkpt><trkpt lat="45.33281401059652" lon="9.24980164528646"><ele>91.0</ele><time>2026-04-06T06:42:03Z</time></trkpt><trkpt lat="45.33285995542921" lon="9.249879945277614"><ele>91.0</ele><time>2026-04-06T06:42:05Z</time></trkpt><trkpt lat="45.332917292729526" lon="9.249979161956944"><ele>91.0</ele><time>2026-04-06T06:42:07Z</time></trkpt><trkpt lat="45.33297801562736" lon="9.250073160634061"><ele>91.0</ele><time>2026-04-06T06:42:09Z</time></trkpt><trkpt lat="45.33303778377081" lon="9.250173596102204"><ele>91.0</ele><time>2026-04-06T06:42:11Z</time></trkpt><trkpt lat="45.33310006621816" lon="9.250273060295894"><ele>91.0</ele><time>2026-04-06T06:42:13Z</time></trkpt><trkpt lat="45.333165730623676" lon="9.25037337932813"><ele>91.0</ele><time>2026-04-06T06:42:15Z</time></trkpt><trkpt lat="45.333231731859904" lon="9.250470449450273"><ele>91.0</ele><time>2026-04-06T06:42:17Z</time></trkpt><trkpt lat="45.333303567991905" lon="9.250570760875673"><ele>91.4</ele><time>2026-04-06T06:42:19Z</time></trkpt><trkpt lat="45.333371419361164" lon="9.250684414496066"><ele>91.8</ele><time>2026-04-06T06:42:21Z</time></trkpt><trkpt lat="45.33342634266621" lon="9.25079949968546"><ele>92.2</ele><time>2026-04-06T06:42:23Z</time></trkpt><trkpt lat="45.33347174629632" lon="9.250927748374556"><ele>92.60000000000001</ele><time>2026-04-06T06:42:25Z</time></trkpt><trkpt lat="45.33354903790491" lon="9.251031928251837"><ele>93.0</ele><time>2026-04-06T06:42:27Z</time></trkpt><trkpt lat="45.333614604746664" lon="9.251141662273096"><ele>93.0</ele><time>2026-04-06T06:42:29Z</time></trkpt><trkpt lat="45.3336692883104" lon="9.251263650478442"><ele>93.0</ele><time>2026-04-06T06:42:31Z</time></trkpt><trkpt lat="45.33372771273776" lon="9.251385558015592"><ele>93.0</ele><time>2026-04-06T06:42:33Z</time></trkpt><trkpt lat="45.3337903598966" lon="9.251503549507719"><ele>93.0</ele><time>2026-04-06T06:42:35Z</time></trkpt><trkpt lat="45.333852123455" lon="9.251619957734395"><ele>93.0</ele><time>2026-04-06T06:42:37Z</time></trkpt><trkpt lat="45.33392661538708" lon="9.251723860754726"><ele>92.60000000000001</ele><time>2026-04-06T06:42:39Z</time></trkpt><trkpt lat="45.3340010477234" lon="9.25183259864539"><ele>92.2</ele><time>2026-04-06T06:42:41Z</time></trkpt><trkpt lat="45.33406839546236" lon="9.251954686874743"><ele>91.8</ele><time>2026-04-06T06:42:43Z</time></trkpt><trkpt lat="45.33413574792794" lon="9.252088733285156"><ele>91.4</ele><time>2026-04-06T06:42:45Z</time></trkpt><trkpt lat="45.33420261513491" lon="9.252215606989372"><ele>91.0</ele><time>2026-04-06T06:42:47Z</time></trkpt><trkpt lat="45.334280602288715" lon="9.252343802526996"><ele>91.0</ele><time>2026-04-06T06:42:49Z</time></trkpt><trkpt lat="45.3343593919068" lon="9.252464170387112"><ele>91.0</ele><time>2026-04-06T06:42:51Z</time></trkpt><trkpt lat="45.334434517006855" lon="9.252587850034695"><ele>91.0</ele><time>2026-04-06T06:42:53Z</time></trkpt><trkpt lat="45.334515971154545" lon="9.25271957982383"><ele>91.0</ele><time>2026-04-06T06:42:55Z</time></trkpt><trkpt lat="45.33460360465801" lon="9.252849490708572"><ele>91.0</ele><time>2026-04-06T06:42:57Z</time></trkpt><trkpt lat="45.33464777018174" lon="9.25291680667187"><ele>91.0</ele><time>2026-04-06T06:42:58Z</time></trkpt><trkpt lat="45.33472241273697" lon="9.253062842927779"><ele>91.0</ele><time>2026-04-06T06:43:00Z</time></trkpt><trkpt lat="45.33476698004864" lon="9.253128929605584"><ele>91.0</ele><time>2026-04-06T06:43:01Z</time></trkpt><trkpt lat="45.334816267773775" lon="9.253190508510139"><ele>91.0</ele><time>2026-04-06T06:43:02Z</time></trkpt><trkpt lat="45.334870052244355" lon="9.25325381299861"><ele>91.0</ele><time>2026-04-06T06:43:03Z</time></trkpt><trkpt lat="45.33491802858771" lon="9.25332161327544"><ele>91.28571428571429</ele><time>2026-04-06T06:43:04Z</time></trkpt><trkpt lat="45.33496321300991" lon="9.25339695335207"><ele>91.57142857142857</ele><time>2026-04-06T06:43:05Z</time></trkpt><trkpt lat="45.33500337825122" lon="9.253477602521205"><ele>91.85714285714286</ele><time>2026-04-06T06:43:06Z</time></trkpt><trkpt lat="45.33504255011616" lon="9.253556308554256"><ele>92.14285714285714</ele><time>2026-04-06T06:43:07Z</time></trkpt><trkpt lat="45.33508723108338" lon="9.253631614022671"><ele>92.42857142857143</ele><time>2026-04-06T06:43:08Z</time></trkpt><trkpt lat="45.33513132567646" lon="9.25370355096262"><ele>92.71428571428572</ele><time>2026-04-06T06:43:09Z</time></trkpt><trkpt lat="45.33517597998327" lon="9.253780713697155"><ele>93.0</ele><time>2026-04-06T06:43:10Z</time></trkpt><trkpt lat="45.335213567416865" lon="9.253857768127002"><ele>93.00000000000001</ele><time>2026-04-06T06:43:11Z</time></trkpt><trkpt lat="45.33525324461764" lon="9.253938843404987"><ele>93.0</ele><time>2026-04-06T06:43:12Z</time></trkpt><trkpt lat="45.33529741327852" lon="9.25402343843672"><ele>93.0</ele><time>2026-04-06T06:43:13Z</time></trkpt><trkpt lat="45.33534050032516" lon="9.254107297391508"><ele>93.0</ele><time>2026-04-06T06:43:14Z</time></trkpt><trkpt lat="45.33537169291447" lon="9.254206558570308"><ele>93.0</ele><time>2026-04-06T06:43:15Z</time></trkpt><trkpt lat="45.335392387509536" lon="9.254299599352448"><ele>93.00000000000001</ele><time>2026-04-06T06:43:16Z</time></trkpt><trkpt lat="45.335415597118704" lon="9.254391264190692"><ele>93.0</ele><time>2026-04-06T06:43:17Z</time></trkpt><trkpt lat="45.33544421419098" lon="9.254476748054064"><ele>92.75</ele><time>2026-04-06T06:43:18Z</time></trkpt><trkpt lat="45.335486859445965" lon="9.25463918922635"><ele>92.5</ele><time>2026-04-06T06:43:20Z</time></trkpt><trkpt lat="45.335530174352236" lon="9.254791171975137"><ele>92.25</ele><time>2026-04-06T06:43:22Z</time></trkpt><trkpt lat="45.3355698320173" lon="9.254939700435584"><ele>92.0</ele><time>2026-04-06T06:43:24Z</time></trkpt><trkpt lat="45.33561312942971" lon="9.255089568261337"><ele>91.25</ele><time>2026-04-06T06:43:26Z</time></trkpt><trkpt lat="45.335654158168595" lon="9.255245022707296"><ele>90.5</ele><time>2026-04-06T06:43:28Z</time></trkpt><trkpt lat="45.33569972034871" lon="9.255397644866388"><ele>89.75</ele><time>2026-04-06T06:43:30Z</time></trkpt><trkpt lat="45.3357383885779" lon="9.255551860223148"><ele>89.0</ele><time>2026-04-06T06:43:32Z</time></trkpt><trkpt lat="45.335779348412075" lon="9.255707515705085"><ele>89.0</ele><time>2026-04-06T06:43:34Z</time></trkpt><trkpt lat="45.335825565654396" lon="9.255851722239361"><ele>89.0</ele><time>2026-04-06T06:43:36Z</time></trkpt><trkpt lat="45.3358654226323" lon="9.256000519666117"><ele>89.0</ele><time>2026-04-06T06:43:38Z</time></trkpt><trkpt lat="45.335909238803424" lon="9.256143977709378"><ele>89.0</ele><time>2026-04-06T06:43:40Z</time></trkpt><trkpt lat="45.33595053998023" lon="9.256284747278862"><ele>89.0</ele><time>2026-04-06T06:43:42Z</time></trkpt><trkpt lat="45.335989616320056" lon="9.256435633934483"><ele>89.0</ele><time>2026-04-06T06:43:44Z</time></trkpt><trkpt lat="45.33602952463827" lon="9.256589089079853"><ele>89.0</ele><time>2026-04-06T06:43:46Z</time></trkpt><trkpt lat="45.33607449242561" lon="9.256737446419322"><ele>89.0</ele><time>2026-04-06T06:43:48Z</time></trkpt><trkpt lat="45.3361144799123" lon="9.256889631943567"><ele>89.0</ele><time>2026-04-06T06:43:50Z</time></trkpt><trkpt lat="45.33615703811546" lon="9.257041675241188"><ele>89.0</ele><time>2026-04-06T06:43:52Z</time></trkpt><trkpt lat="45.33619682759206" lon="9.257195124435695"><ele>89.0</ele><time>2026-04-06T06:43:54Z</time></trkpt><trkpt lat="45.336240856843474" lon="9.257346550425876"><ele>89.0</ele><time>2026-04-06T06:43:56Z</time></trkpt><trkpt lat="45.33628057735353" lon="9.25750015273722"><ele>89.0</ele><time>2026-04-06T06:43:58Z</time></trkpt><trkpt lat="45.33632447406884" lon="9.257651223855092"><ele>89.0</ele><time>2026-04-06T06:44:00Z</time></trkpt><trkpt lat="45.33636401899694" lon="9.257802034259115"><ele>89.0</ele><time>2026-04-06T06:44:02Z</time></trkpt><trkpt lat="45.33640333968006" lon="9.257952663922813"><ele>89.0</ele><time>2026-04-06T06:44:04Z</time></trkpt><trkpt lat="45.33644219733703" lon="9.258098906071403"><ele>89.0</ele><time>2026-04-06T06:44:06Z</time></trkpt><trkpt lat="45.3364835283585" lon="9.258241967444407"><ele>89.0</ele><time>2026-04-06T06:44:08Z</time></trkpt><trkpt lat="45.336522805022405" lon="9.25838495328596"><ele>89.2</ele><time>2026-04-06T06:44:10Z</time></trkpt><trkpt lat="45.33655992543727" lon="9.258530598921958"><ele>89.4</ele><time>2026-04-06T06:44:12Z</time></trkpt><trkpt lat="45.33660874639285" lon="9.258674212575837"><ele>89.6</ele><time>2026-04-06T06:44:14Z</time></trkpt><trkpt lat="45.33667599813704" lon="9.25880114909628"><ele>89.8</ele><time>2026-04-06T06:44:16Z</time></trkpt><trkpt lat="45.33673472081867" lon="9.258931188964908"><ele>90.0</ele><time>2026-04-06T06:44:18Z</time></trkpt><trkpt lat="45.33679663803131" lon="9.259067823864227"><ele>90.2</ele><time>2026-04-06T06:44:20Z</time></trkpt><trkpt lat="45.336856281374196" lon="9.259200189753933"><ele>90.4</ele><time>2026-04-06T06:44:22Z</time></trkpt><trkpt lat="45.336922085045835" lon="9.259328415939997"><ele>90.6</ele><time>2026-04-06T06:44:24Z</time></trkpt><trkpt lat="45.33698247048495" lon="9.259459595882188"><ele>90.8</ele><time>2026-04-06T06:44:26Z</time></trkpt><trkpt lat="45.33704533449296" lon="9.25959200398203"><ele>91.0</ele><time>2026-04-06T06:44:28Z</time></trkpt><trkpt lat="45.33710741658234" lon="9.259721367759484"><ele>90.8</ele><time>2026-04-06T06:44:30Z</time></trkpt><trkpt lat="45.337169803718275" lon="9.25985148585379"><ele>90.6</ele><time>2026-04-06T06:44:32Z</time></trkpt><trkpt lat="45.3372282151883" lon="9.259984279114848"><ele>90.4</ele><time>2026-04-06T06:44:34Z</time></trkpt><trkpt lat="45.33729186844134" lon="9.260115077979538"><ele>90.2</ele><time>2026-04-06T06:44:36Z</time></trkpt><trkpt lat="45.33736170856188" lon="9.260241937345667"><ele>90.0</ele><time>2026-04-06T06:44:38Z</time></trkpt><trkpt lat="45.33743455803172" lon="9.260365110677537"><ele>90.0</ele><time>2026-04-06T06:44:40Z</time></trkpt><trkpt lat="45.337509079600125" lon="9.2604850975089"><ele>90.0</ele><time>2026-04-06T06:44:42Z</time></trkpt><trkpt lat="45.337579642984345" lon="9.260610646983618"><ele>90.0</ele><time>2026-04-06T06:44:44Z</time></trkpt><trkpt lat="45.33764879062639" lon="9.260737733174029"><ele>90.0</ele><time>2026-04-06T06:44:46Z</time></trkpt><trkpt lat="45.337720046009316" lon="9.260868853150559"><ele>90.25</ele><time>2026-04-06T06:44:48Z</time></trkpt><trkpt lat="45.33779165586151" lon="9.26099914183018"><ele>90.5</ele><time>2026-04-06T06:44:50Z</time></trkpt><trkpt lat="45.337864348683595" lon="9.261126409404211"><ele>90.75</ele><time>2026-04-06T06:44:52Z</time></trkpt><trkpt lat="45.33793189273275" lon="9.261256505244654"><ele>91.0</ele><time>2026-04-06T06:44:54Z</time></trkpt><trkpt lat="45.33800248722516" lon="9.261383047453535"><ele>90.6</ele><time>2026-04-06T06:44:56Z</time></trkpt><trkpt lat="45.338068194074694" lon="9.26151472666475"><ele>90.19999999999999</ele><time>2026-04-06T06:44:58Z</time></trkpt><trkpt lat="45.33812921341634" lon="9.26164921005163"><ele>89.80000000000001</ele><time>2026-04-06T06:45:00Z</time></trkpt><trkpt lat="45.33818459064091" lon="9.26178609506894"><ele>89.4</ele><time>2026-04-06T06:45:02Z</time></trkpt><trkpt lat="45.33823567098029" lon="9.261921880448138"><ele>89.0</ele><time>2026-04-06T06:45:04Z</time></trkpt><trkpt lat="45.33826630731259" lon="9.262074456137793"><ele>89.0</ele><time>2026-04-06T06:45:06Z</time></trkpt><trkpt lat="45.338300264855654" lon="9.262222516144863"><ele>89.0</ele><time>2026-04-06T06:45:08Z</time></trkpt><trkpt lat="45.3383415122106" lon="9.262378497920817"><ele>89.0</ele><time>2026-04-06T06:45:10Z</time></trkpt><trkpt lat="45.338401231405236" lon="9.262523959225353"><ele>89.0</ele><time>2026-04-06T06:45:12Z</time></trkpt><trkpt lat="45.33845711411448" lon="9.262660383556538"><ele>88.80000000000001</ele><time>2026-04-06T06:45:14Z</time></trkpt><trkpt lat="45.33850898448018" lon="9.26279728108381"><ele>88.60000000000001</ele><time>2026-04-06T06:45:16Z</time></trkpt><trkpt lat="45.3385585795399" lon="9.262930485925878"><ele>88.4</ele><time>2026-04-06T06:45:18Z</time></trkpt><trkpt lat="45.33860122874586" lon="9.26306878802543"><ele>88.2</ele><time>2026-04-06T06:45:20Z</time></trkpt><trkpt lat="45.338646437504835" lon="9.263204229245279"><ele>88.0</ele><time>2026-04-06T06:45:22Z</time></trkpt><trkpt lat="45.33868858100207" lon="9.263343018317027"><ele>88.0</ele><time>2026-04-06T06:45:24Z</time></trkpt><trkpt lat="45.33873700069984" lon="9.263484029952199"><ele>88.0</ele><time>2026-04-06T06:45:26Z</time></trkpt><trkpt lat="45.33878381108471" lon="9.263626655233592"><ele>88.0</ele><time>2026-04-06T06:45:28Z</time></trkpt><trkpt lat="45.33882839585309" lon="9.263767293529591"><ele>88.0</ele><time>2026-04-06T06:45:30Z</time></trkpt><trkpt lat="45.338869901182626" lon="9.263911298583224"><ele>88.0</ele><time>2026-04-06T06:45:32Z</time></trkpt><trkpt lat="45.33891078087302" lon="9.264059407689324"><ele>88.0</ele><time>2026-04-06T06:45:34Z</time></trkpt><trkpt lat="45.33895569451034" lon="9.264193784222996"><ele>88.0</ele><time>2026-04-06T06:45:36Z</time></trkpt><trkpt lat="45.33899400248443" lon="9.264326188691317"><ele>88.0</ele><time>2026-04-06T06:45:38Z</time></trkpt><trkpt lat="45.33903551080631" lon="9.264465555105094"><ele>88.0</ele><time>2026-04-06T06:45:40Z</time></trkpt><trkpt lat="45.33907805116017" lon="9.264605845302055"><ele>88.0</ele><time>2026-04-06T06:45:42Z</time></trkpt><trkpt lat="45.33912180914166" lon="9.264749237821254"><ele>88.0</ele><time>2026-04-06T06:45:44Z</time></trkpt><trkpt lat="45.33916552157099" lon="9.264898302837677"><ele>88.0</ele><time>2026-04-06T06:45:46Z</time></trkpt><trkpt lat="45.33921575309322" lon="9.265036233332655"><ele>88.0</ele><time>2026-04-06T06:45:48Z</time></trkpt><trkpt lat="45.33926258360721" lon="9.265180363036217"><ele>88.0</ele><time>2026-04-06T06:45:50Z</time></trkpt><trkpt lat="45.339321440227515" lon="9.265318001097832"><ele>88.0</ele><time>2026-04-06T06:45:52Z</time></trkpt><trkpt lat="45.33937904090276" lon="9.265465160477834"><ele>88.0</ele><time>2026-04-06T06:45:54Z</time></trkpt><trkpt lat="45.339440647764796" lon="9.26560118723449"><ele>88.0</ele><time>2026-04-06T06:45:56Z</time></trkpt><trkpt lat="45.33950890632651" lon="9.26573129591026"><ele>88.0</ele><time>2026-04-06T06:45:58Z</time></trkpt><trkpt lat="45.33957740097405" lon="9.265833813074433"><ele>88.0</ele><time>2026-04-06T06:46:00Z</time></trkpt><trkpt lat="45.33964013102747" lon="9.26597533187544"><ele>88.0</ele><time>2026-04-06T06:46:02Z</time></trkpt><trkpt lat="45.33968773057898" lon="9.266117459748292"><ele>87.80000000000001</ele><time>2026-04-06T06:46:04Z</time></trkpt><trkpt lat="45.339738261785094" lon="9.26625757490571"><ele>87.6</ele><time>2026-04-06T06:46:06Z</time></trkpt><trkpt lat="45.33978262534936" lon="9.266395142837732"><ele>87.4</ele><time>2026-04-06T06:46:08Z</time></trkpt><trkpt lat="45.339824131519016" lon="9.266535734579705"><ele>87.19999999999999</ele><time>2026-04-06T06:46:10Z</time></trkpt><trkpt lat="45.339858108194264" lon="9.266676856494879"><ele>87.0</ele><time>2026-04-06T06:46:12Z</time></trkpt><trkpt lat="45.339889820845904" lon="9.26681541142702"><ele>87.19999999999999</ele><time>2026-04-06T06:46:14Z</time></trkpt><trkpt lat="45.33992176209216" lon="9.26695795281276"><ele>87.4</ele><time>2026-04-06T06:46:16Z</time></trkpt><trkpt lat="45.33995553973577" lon="9.267102152207213"><ele>87.6</ele><time>2026-04-06T06:46:18Z</time></trkpt><trkpt lat="45.33999022568679" lon="9.267246175259972"><ele>87.80000000000001</ele><time>2026-04-06T06:46:20Z</time></trkpt><trkpt lat="45.34003951049966" lon="9.267383432205449"><ele>88.0</ele><time>2026-04-06T06:46:22Z</time></trkpt><trkpt lat="45.34007518882079" lon="9.26745758669108"><ele>88.0</ele><time>2026-04-06T06:46:23Z</time></trkpt><trkpt lat="45.34014767672326" lon="9.267586949541377"><ele>88.0</ele><time>2026-04-06T06:46:25Z</time></trkpt><trkpt lat="45.34022251625061" lon="9.267717879064781"><ele>88.0</ele><time>2026-04-06T06:46:27Z</time></trkpt><trkpt lat="45.34030042489479" lon="9.26784541339732"><ele>88.0</ele><time>2026-04-06T06:46:29Z</time></trkpt><trkpt lat="45.340380467709345" lon="9.267980409512178"><ele>88.2</ele><time>2026-04-06T06:46:31Z</time></trkpt><trkpt lat="45.340460969364436" lon="9.268110520496483"><ele>88.4</ele><time>2026-04-06T06:46:33Z</time></trkpt><trkpt lat="45.34054093448155" lon="9.268246068023547"><ele>88.60000000000001</ele><time>2026-04-06T06:46:35Z</time></trkpt><trkpt lat="45.340613939055295" lon="9.268390868435775"><ele>88.80000000000001</ele><time>2026-04-06T06:46:37Z</time></trkpt><trkpt lat="45.34063339900513" lon="9.268476732813358"><ele>89.0</ele><time>2026-04-06T06:46:38Z</time></trkpt><trkpt lat="45.340665870712144" lon="9.268634260651796"><ele>89.2</ele><time>2026-04-06T06:46:40Z</time></trkpt><trkpt lat="45.34067984989965" lon="9.268810552775033"><ele>89.4</ele><time>2026-04-06T06:46:42Z</time></trkpt><trkpt lat="45.34069232255486" lon="9.268898358952542"><ele>89.6</ele><time>2026-04-06T06:46:43Z</time></trkpt><trkpt lat="45.34070280802712" lon="9.268986958437893"><ele>89.8</ele><time>2026-04-06T06:46:44Z</time></trkpt><trkpt lat="45.340722175111466" lon="9.269168689703216"><ele>90.0</ele><time>2026-04-06T06:46:46Z</time></trkpt><trkpt lat="45.34074165743764" lon="9.269344322858466"><ele>90.25</ele><time>2026-04-06T06:46:48Z</time></trkpt><trkpt lat="45.340765411304716" lon="9.269517317879178"><ele>90.5</ele><time>2026-04-06T06:46:50Z</time></trkpt><trkpt lat="45.34077866949186" lon="9.269696660325753"><ele>90.75</ele><time>2026-04-06T06:46:52Z</time></trkpt><trkpt lat="45.340808872710056" lon="9.269861784889903"><ele>91.0</ele><time>2026-04-06T06:46:54Z</time></trkpt><trkpt lat="45.34082659337571" lon="9.270029138324661"><ele>91.19999999999999</ele><time>2026-04-06T06:46:56Z</time></trkpt><trkpt lat="45.34084474585856" lon="9.270196003862752"><ele>91.39999999999999</ele><time>2026-04-06T06:46:58Z</time></trkpt><trkpt lat="45.3408601549223" lon="9.270284341850823"><ele>91.6</ele><time>2026-04-06T06:46:59Z</time></trkpt><trkpt lat="45.34088730141739" lon="9.270453432627185"><ele>91.8</ele><time>2026-04-06T06:47:01Z</time></trkpt><trkpt lat="45.340907908506374" lon="9.270620512183283"><ele>92.0</ele><time>2026-04-06T06:47:03Z</time></trkpt><trkpt lat="45.340940159666474" lon="9.270779564011299"><ele>91.6</ele><time>2026-04-06T06:47:05Z</time></trkpt><trkpt lat="45.340965181776525" lon="9.27094392490703"><ele>91.19999999999999</ele><time>2026-04-06T06:47:07Z</time></trkpt><trkpt lat="45.341014090792285" lon="9.271086883157706"><ele>90.8</ele><time>2026-04-06T06:47:09Z</time></trkpt><trkpt lat="45.3411038215089" lon="9.271141541362956"><ele>90.4</ele><time>2026-04-06T06:47:11Z</time></trkpt><trkpt lat="45.34112220555296" lon="9.271259108797123"><ele>90.0</ele><time>2026-04-06T06:47:14Z</time></trkpt><trkpt lat="45.3411302796542" lon="9.271378181990181"><ele>90.2</ele><time>2026-04-06T06:47:16Z</time></trkpt><trkpt lat="45.341152005059335" lon="9.271510202018634"><ele>90.4</ele><time>2026-04-06T06:47:18Z</time></trkpt><trkpt lat="45.341171937611534" lon="9.271632287207325"><ele>90.6</ele><time>2026-04-06T06:47:20Z</time></trkpt><trkpt lat="45.34118683366365" lon="9.271763972015707"><ele>90.8</ele><time>2026-04-06T06:47:22Z</time></trkpt><trkpt lat="45.341202027670356" lon="9.271902095589612"><ele>91.0</ele><time>2026-04-06T06:47:24Z</time></trkpt><trkpt lat="45.34119315629873" lon="9.27201297630991"><ele>91.0</ele><time>2026-04-06T06:47:26Z</time></trkpt><trkpt lat="45.34113761892299" lon="9.27205654618609"><ele>91.0</ele><time>2026-04-06T06:47:28Z</time></trkpt><trkpt lat="45.34113222177853" lon="9.272147364720729"><ele>91.0</ele><time>2026-04-06T06:47:33Z</time></trkpt><trkpt lat="45.34118953825626" lon="9.272219689165855"><ele>91.0</ele><time>2026-04-06T06:47:37Z</time></trkpt><trkpt lat="45.34113062295859" lon="9.272359052834434"><ele>91.0</ele><time>2026-04-06T06:47:39Z</time></trkpt><trkpt lat="45.341087317807165" lon="9.272503966886504"><ele>91.0</ele><time>2026-04-06T06:47:41Z</time></trkpt><trkpt lat="45.3410592502991" lon="9.272662635171013"><ele>91.0</ele><time>2026-04-06T06:47:43Z</time></trkpt><trkpt lat="45.34102445707131" lon="9.272811714625176"><ele>91.0</ele><time>2026-04-06T06:47:45Z</time></trkpt><trkpt lat="45.34098367432322" lon="9.272950409244583"><ele>91.0</ele><time>2026-04-06T06:47:47Z</time></trkpt><trkpt lat="45.34092852566824" lon="9.27306787423373"><ele>91.0</ele><time>2026-04-06T06:47:49Z</time></trkpt><trkpt lat="45.34086670508914" lon="9.273176226772685"><ele>91.0</ele><time>2026-04-06T06:47:51Z</time></trkpt><trkpt lat="45.340814132216664" lon="9.273282716011499"><ele>91.0</ele><time>2026-04-06T06:47:53Z</time></trkpt><trkpt lat="45.340760337110055" lon="9.273382963614676"><ele>91.0</ele><time>2026-04-06T06:47:55Z</time></trkpt><trkpt lat="45.34070421442909" lon="9.273487123155121"><ele>91.0</ele><time>2026-04-06T06:47:57Z</time></trkpt><trkpt lat="45.34065380073065" lon="9.27359366627121"><ele>91.0</ele><time>2026-04-06T06:47:59Z</time></trkpt><trkpt lat="45.340594437460126" lon="9.27369728910084"><ele>91.0</ele><time>2026-04-06T06:48:01Z</time></trkpt><trkpt lat="45.340534936802975" lon="9.273788684280792"><ele>91.0</ele><time>2026-04-06T06:48:03Z</time></trkpt><trkpt lat="45.34047668044451" lon="9.27384591368452"><ele>91.0</ele><time>2026-04-06T06:48:05Z</time></trkpt><trkpt lat="45.34041216941711" lon="9.273881410979813"><ele>91.0</ele><time>2026-04-06T06:48:09Z</time></trkpt><trkpt lat="45.3403171932245" lon="9.273924739273989"><ele>91.0</ele><time>2026-04-06T06:48:12Z</time></trkpt><trkpt lat="45.34023459668461" lon="9.273926637755983"><ele>91.0</ele><time>2026-04-06T06:48:14Z</time></trkpt><trkpt lat="45.34014398416308" lon="9.273967110742676"><ele>91.0</ele><time>2026-04-06T06:48:16Z</time></trkpt><trkpt lat="45.34005419510891" lon="9.273977814685308"><ele>91.0</ele><time>2026-04-06T06:48:18Z</time></trkpt><trkpt lat="45.339983263153776" lon="9.274014779900348"><ele>91.0</ele><time>2026-04-06T06:48:20Z</time></trkpt><trkpt lat="45.33991675529195" lon="9.274053373571917"><ele>91.0</ele><time>2026-04-06T06:48:22Z</time></trkpt><trkpt lat="45.33984548903452" lon="9.274100920063255"><ele>91.0</ele><time>2026-04-06T06:48:24Z</time></trkpt><trkpt lat="45.33977256545971" lon="9.274163910868163"><ele>91.0</ele><time>2026-04-06T06:48:26Z</time></trkpt><trkpt lat="45.3396881471069" lon="9.274232528615913"><ele>91.0</ele><time>2026-04-06T06:48:28Z</time></trkpt><trkpt lat="45.33960874349461" lon="9.27430550402731"><ele>90.6</ele><time>2026-04-06T06:48:30Z</time></trkpt><trkpt lat="45.33953139094223" lon="9.274387576446921"><ele>90.19999999999999</ele><time>2026-04-06T06:48:32Z</time></trkpt><trkpt lat="45.339455519487714" lon="9.274473567079113"><ele>89.80000000000001</ele><time>2026-04-06T06:48:34Z</time></trkpt><trkpt lat="45.33937542222375" lon="9.27456531834072"><ele>89.4</ele><time>2026-04-06T06:48:36Z</time></trkpt><trkpt lat="45.3393048299819" lon="9.274672401833511"><ele>89.0</ele><time>2026-04-06T06:48:38Z</time></trkpt><trkpt lat="45.33924684473278" lon="9.274766388465391"><ele>89.4</ele><time>2026-04-06T06:48:40Z</time></trkpt><trkpt lat="45.339197330511226" lon="9.2748465734008"><ele>89.80000000000001</ele><time>2026-04-06T06:48:42Z</time></trkpt><trkpt lat="45.33914971066874" lon="9.274944223441352"><ele>90.19999999999999</ele><time>2026-04-06T06:48:44Z</time></trkpt><trkpt lat="45.339090338024064" lon="9.275041431723865"><ele>90.6</ele><time>2026-04-06T06:48:46Z</time></trkpt><trkpt lat="45.33902881450386" lon="9.27515703772164"><ele>91.0</ele><time>2026-04-06T06:48:48Z</time></trkpt><trkpt lat="45.338971712925485" lon="9.275277436095037"><ele>91.0</ele><time>2026-04-06T06:48:50Z</time></trkpt><trkpt lat="45.33891644493982" lon="9.275404647101606"><ele>91.0</ele><time>2026-04-06T06:48:52Z</time></trkpt><trkpt lat="45.338868541092694" lon="9.27554511667618"><ele>91.0</ele><time>2026-04-06T06:48:54Z</time></trkpt><trkpt lat="45.33882238886002" lon="9.275689355403795"><ele>91.0</ele><time>2026-04-06T06:48:56Z</time></trkpt><trkpt lat="45.338773241116655" lon="9.275830421464734"><ele>91.0</ele><time>2026-04-06T06:48:58Z</time></trkpt><trkpt lat="45.33872571120049" lon="9.27597175789288"><ele>90.6</ele><time>2026-04-06T06:49:00Z</time></trkpt><trkpt lat="45.33868161043374" lon="9.276128222215409"><ele>90.19999999999999</ele><time>2026-04-06T06:49:02Z</time></trkpt><trkpt lat="45.33863992714658" lon="9.27628576081491"><ele>89.80000000000001</ele><time>2026-04-06T06:49:04Z</time></trkpt><trkpt lat="45.33858057071918" lon="9.276438790171282"><ele>89.4</ele><time>2026-04-06T06:49:06Z</time></trkpt><trkpt lat="45.33855426657273" lon="9.276522851227105"><ele>89.0</ele><time>2026-04-06T06:49:07Z</time></trkpt><trkpt lat="45.338529362085694" lon="9.276607364270626"><ele>89.0</ele><time>2026-04-06T06:49:08Z</time></trkpt><trkpt lat="45.33847860606476" lon="9.276769427991995"><ele>89.0</ele><time>2026-04-06T06:49:10Z</time></trkpt><trkpt lat="45.33842899855432" lon="9.276926246187958"><ele>89.0</ele><time>2026-04-06T06:49:12Z</time></trkpt><trkpt lat="45.33838289528509" lon="9.277082915018385"><ele>89.0</ele><time>2026-04-06T06:49:14Z</time></trkpt><trkpt lat="45.33835160432519" lon="9.277169090460948"><ele>89.0</ele><time>2026-04-06T06:49:15Z</time></trkpt><trkpt lat="45.338299900538686" lon="9.277315703372512"><ele>89.0</ele><time>2026-04-06T06:49:17Z</time></trkpt><trkpt lat="45.33824819742808" lon="9.277467566807866"><ele>89.0</ele><time>2026-04-06T06:49:19Z</time></trkpt><trkpt lat="45.33819956174636" lon="9.277615389042044"><ele>89.0</ele><time>2026-04-06T06:49:21Z</time></trkpt><trkpt lat="45.33814858857526" lon="9.277763124099106"><ele>89.0</ele><time>2026-04-06T06:49:23Z</time></trkpt><trkpt lat="45.33809424924112" lon="9.277910019713705"><ele>89.0</ele><time>2026-04-06T06:49:25Z</time></trkpt><trkpt lat="45.33803755957359" lon="9.278051716326065"><ele>89.0</ele><time>2026-04-06T06:49:27Z</time></trkpt><trkpt lat="45.337959303091935" lon="9.278172597294828"><ele>89.0</ele><time>2026-04-06T06:49:29Z</time></trkpt><trkpt lat="45.33796130756001" lon="9.278305666027697"><ele>89.0</ele><time>2026-04-06T06:49:31Z</time></trkpt><trkpt lat="45.338073364524824" lon="9.278368730020075"><ele>89.0</ele><time>2026-04-06T06:49:33Z</time></trkpt><trkpt lat="45.33818103753684" lon="9.278415920161256"><ele>89.25</ele><time>2026-04-06T06:49:35Z</time></trkpt><trkpt lat="45.338256997149266" lon="9.278545858162964"><ele>89.5</ele><time>2026-04-06T06:49:37Z</time></trkpt><trkpt lat="45.33834442614283" lon="9.278660120650041"><ele>89.75</ele><time>2026-04-06T06:49:39Z</time></trkpt><trkpt lat="45.338431601195325" lon="9.278782071327663"><ele>90.0</ele><time>2026-04-06T06:49:41Z</time></trkpt><trkpt lat="45.33852156646702" lon="9.27890184497011"><ele>90.0</ele><time>2026-04-06T06:49:43Z</time></trkpt><trkpt lat="45.33860796356402" lon="9.27903261404528"><ele>90.0</ele><time>2026-04-06T06:49:45Z</time></trkpt><trkpt lat="45.338654914294715" lon="9.279100233515845"><ele>90.0</ele><time>2026-04-06T06:49:46Z</time></trkpt><trkpt lat="45.3387502000531" lon="9.279224864484323"><ele>90.0</ele><time>2026-04-06T06:49:48Z</time></trkpt><trkpt lat="45.33883603621541" lon="9.279348177238113"><ele>90.0</ele><time>2026-04-06T06:49:50Z</time></trkpt><trkpt lat="45.33892316221883" lon="9.279468953644114"><ele>90.0</ele><time>2026-04-06T06:49:52Z</time></trkpt><trkpt lat="45.33901107648557" lon="9.279584468224439"><ele>90.0</ele><time>2026-04-06T06:49:54Z</time></trkpt><trkpt lat="45.33909970583255" lon="9.279704451239397"><ele>90.0</ele><time>2026-04-06T06:49:56Z</time></trkpt><trkpt lat="45.339188511778296" lon="9.27982204983798"><ele>90.0</ele><time>2026-04-06T06:49:58Z</time></trkpt><trkpt lat="45.33927641124261" lon="9.279943505179046"><ele>89.75</ele><time>2026-04-06T06:50:00Z</time></trkpt><trkpt lat="45.3393648899" lon="9.280067385264678"><ele>89.5</ele><time>2026-04-06T06:50:02Z</time></trkpt><trkpt lat="45.33944737278442" lon="9.280190987073706"><ele>89.25</ele><time>2026-04-06T06:50:04Z</time></trkpt><trkpt lat="45.33953639930573" lon="9.280310385549633"><ele>89.0</ele><time>2026-04-06T06:50:06Z</time></trkpt><trkpt lat="45.339627787410244" lon="9.28042926744857"><ele>89.0</ele><time>2026-04-06T06:50:08Z</time></trkpt><trkpt lat="45.33971550368409" lon="9.280549580130584"><ele>89.0</ele><time>2026-04-06T06:50:10Z</time></trkpt><trkpt lat="45.339801277553526" lon="9.280669594341907"><ele>89.0</ele><time>2026-04-06T06:50:12Z</time></trkpt><trkpt lat="45.33988888834592" lon="9.280789861925621"><ele>89.0</ele><time>2026-04-06T06:50:14Z</time></trkpt><trkpt lat="45.33998436633114" lon="9.280910191994929"><ele>88.83333333333334</ele><time>2026-04-06T06:50:16Z</time></trkpt><trkpt lat="45.340070759477925" lon="9.28103578141208"><ele>88.66666666666667</ele><time>2026-04-06T06:50:18Z</time></trkpt><trkpt lat="45.34011841556168" lon="9.281096008206237"><ele>88.5</ele><time>2026-04-06T06:50:19Z</time></trkpt><trkpt lat="45.34020698107698" lon="9.281216855979604"><ele>88.33333333333333</ele><time>2026-04-06T06:50:21Z</time></trkpt><trkpt lat="45.340249007403585" lon="9.281285089670307"><ele>88.16666666666666</ele><time>2026-04-06T06:50:22Z</time></trkpt><trkpt lat="45.34029565186176" lon="9.281346737803329"><ele>88.0</ele><time>2026-04-06T06:50:23Z</time></trkpt><trkpt lat="45.34033835782744" lon="9.281412550874652"><ele>88.0</ele><time>2026-04-06T06:50:24Z</time></trkpt><trkpt lat="45.34038133530813" lon="9.281576158812936"><ele>88.0</ele><time>2026-04-06T06:50:26Z</time></trkpt><trkpt lat="45.34039358559031" lon="9.281664913967383"><ele>88.0</ele><time>2026-04-06T06:50:27Z</time></trkpt><trkpt lat="45.340454772825545" lon="9.281819122605153"><ele>88.0</ele><time>2026-04-06T06:50:29Z</time></trkpt><trkpt lat="45.34048684104811" lon="9.281899635541226"><ele>88.0</ele><time>2026-04-06T06:50:30Z</time></trkpt><trkpt lat="45.340567119334544" lon="9.282028520868616"><ele>88.0</ele><time>2026-04-06T06:50:32Z</time></trkpt><trkpt lat="45.34060947906279" lon="9.282112965223988"><ele>88.0</ele><time>2026-04-06T06:50:33Z</time></trkpt><trkpt lat="45.34064694701765" lon="9.282192212423201"><ele>88.0</ele><time>2026-04-06T06:50:34Z</time></trkpt><trkpt lat="45.34068743777646" lon="9.28227724823817"><ele>88.0</ele><time>2026-04-06T06:50:35Z</time></trkpt><trkpt lat="45.34072353274084" lon="9.282359180959766"><ele>88.0</ele><time>2026-04-06T06:50:36Z</time></trkpt><trkpt lat="45.34076403158662" lon="9.28243532509984"><ele>88.0</ele><time>2026-04-06T06:50:37Z</time></trkpt><trkpt lat="45.34080040978488" lon="9.282518354825907"><ele>88.0</ele><time>2026-04-06T06:50:38Z</time></trkpt><trkpt lat="45.34083951585228" lon="9.28260083868239"><ele>88.0</ele><time>2026-04-06T06:50:39Z</time></trkpt><trkpt lat="45.34087906088397" lon="9.282678787835351"><ele>88.0</ele><time>2026-04-06T06:50:40Z</time></trkpt><trkpt lat="45.34091813356393" lon="9.282760155820883"><ele>88.0</ele><time>2026-04-06T06:50:41Z</time></trkpt><trkpt lat="45.34095680926063" lon="9.282843394052556"><ele>88.0</ele><time>2026-04-06T06:50:42Z</time></trkpt><trkpt lat="45.34099666769465" lon="9.282924744209348"><ele>88.0</ele><time>2026-04-06T06:50:43Z</time></trkpt><trkpt lat="45.341035816034896" lon="9.28300536584076"><ele>88.0</ele><time>2026-04-06T06:50:44Z</time></trkpt><trkpt lat="45.34107381034995" lon="9.283089059673005"><ele>88.0</ele><time>2026-04-06T06:50:45Z</time></trkpt><trkpt lat="45.3411127170778" lon="9.283168618382964"><ele>88.0</ele><time>2026-04-06T06:50:46Z</time></trkpt><trkpt lat="45.34115112293957" lon="9.283247201074694"><ele>88.0</ele><time>2026-04-06T06:50:47Z</time></trkpt><trkpt lat="45.341190045990395" lon="9.283329037428942"><ele>88.0</ele><time>2026-04-06T06:50:48Z</time></trkpt><trkpt lat="45.34122847933093" lon="9.283408825621072"><ele>88.0</ele><time>2026-04-06T06:50:49Z</time></trkpt><trkpt lat="45.34126445402978" lon="9.28348590346489"><ele>88.0</ele><time>2026-04-06T06:50:50Z</time></trkpt><trkpt lat="45.34130348276128" lon="9.283558705810107"><ele>88.0</ele><time>2026-04-06T06:50:51Z</time></trkpt><trkpt lat="45.34137908636011" lon="9.283699557017929"><ele>88.0</ele><time>2026-04-06T06:50:53Z</time></trkpt><trkpt lat="45.34146057941324" lon="9.283829057410136"><ele>88.0</ele><time>2026-04-06T06:50:55Z</time></trkpt><trkpt lat="45.34154666907567" lon="9.283952703579867"><ele>88.0</ele><time>2026-04-06T06:50:57Z</time></trkpt><trkpt lat="45.341627074867155" lon="9.28407681458925"><ele>88.0</ele><time>2026-04-06T06:50:59Z</time></trkpt><trkpt lat="45.34170357383156" lon="9.284191886836794"><ele>88.0</ele><time>2026-04-06T06:51:01Z</time></trkpt><trkpt lat="45.341774337094165" lon="9.284311566572917"><ele>88.0</ele><time>2026-04-06T06:51:03Z</time></trkpt><trkpt lat="45.34184530168948" lon="9.284432296316512"><ele>88.0</ele><time>2026-04-06T06:51:05Z</time></trkpt><trkpt lat="45.34192139063711" lon="9.28455373706789"><ele>88.0</ele><time>2026-04-06T06:51:07Z</time></trkpt><trkpt lat="45.34199747655708" lon="9.284675624671586"><ele>88.0</ele><time>2026-04-06T06:51:09Z</time></trkpt><trkpt lat="45.34207534421333" lon="9.284798607177082"><ele>88.25</ele><time>2026-04-06T06:51:11Z</time></trkpt><trkpt lat="45.342155860009605" lon="9.284916139574813"><ele>88.5</ele><time>2026-04-06T06:51:13Z</time></trkpt><trkpt lat="45.34224124695919" lon="9.285036487600768"><ele>88.75</ele><time>2026-04-06T06:51:15Z</time></trkpt><trkpt lat="45.342324814223495" lon="9.285164185880275"><ele>89.0</ele><time>2026-04-06T06:51:17Z</time></trkpt><trkpt lat="45.3424163133536" lon="9.285278764292674"><ele>89.0</ele><time>2026-04-06T06:51:19Z</time></trkpt><trkpt lat="45.342501364445184" lon="9.285403799434443"><ele>89.0</ele><time>2026-04-06T06:51:21Z</time></trkpt><trkpt lat="45.34254615216088" lon="9.285468448684052"><ele>89.0</ele><time>2026-04-06T06:51:22Z</time></trkpt><trkpt lat="45.342590775628416" lon="9.285531686676178"><ele>89.0</ele><time>2026-04-06T06:51:23Z</time></trkpt><trkpt lat="45.34268354656459" lon="9.285650762772303"><ele>89.0</ele><time>2026-04-06T06:51:25Z</time></trkpt><trkpt lat="45.342763872248156" lon="9.285779606383853"><ele>89.25</ele><time>2026-04-06T06:51:27Z</time></trkpt><trkpt lat="45.342852060064146" lon="9.285903764276512"><ele>89.5</ele><time>2026-04-06T06:51:29Z</time></trkpt><trkpt lat="45.34293429575724" lon="9.286031949828883"><ele>89.75</ele><time>2026-04-06T06:51:31Z</time></trkpt><trkpt lat="45.343024028622445" lon="9.286148933971962"><ele>90.0</ele><time>2026-04-06T06:51:33Z</time></trkpt><trkpt lat="45.343107855711764" lon="9.286269677029651"><ele>90.0</ele><time>2026-04-06T06:51:35Z</time></trkpt><trkpt lat="45.343184797711174" lon="9.286403267694805"><ele>90.0</ele><time>2026-04-06T06:51:37Z</time></trkpt><trkpt lat="45.34326469071332" lon="9.286523390879546"><ele>90.0</ele><time>2026-04-06T06:51:39Z</time></trkpt><trkpt lat="45.34334244395146" lon="9.286646026277657"><ele>90.0</ele><time>2026-04-06T06:51:41Z</time></trkpt><trkpt lat="45.3434246399879" lon="9.286766636517951"><ele>90.0</ele><time>2026-04-06T06:51:43Z</time></trkpt><trkpt lat="45.34349515052689" lon="9.286887934424206"><ele>90.0</ele><time>2026-04-06T06:51:45Z</time></trkpt><trkpt lat="45.343565741121346" lon="9.287012391393661"><ele>90.0</ele><time>2026-04-06T06:51:47Z</time></trkpt><trkpt lat="45.34363778717489" lon="9.287137256417571"><ele>90.0</ele><time>2026-04-06T06:51:49Z</time></trkpt><trkpt lat="45.34371316437348" lon="9.28726163725989"><ele>89.75</ele><time>2026-04-06T06:51:51Z</time></trkpt><trkpt lat="45.34378317903857" lon="9.287391115792877"><ele>89.5</ele><time>2026-04-06T06:51:53Z</time></trkpt><trkpt lat="45.34385656665347" lon="9.287515965681093"><ele>89.25</ele><time>2026-04-06T06:51:55Z</time></trkpt><trkpt lat="45.34394071702445" lon="9.287621385169162"><ele>89.0</ele><time>2026-04-06T06:51:57Z</time></trkpt><trkpt lat="45.34405500260653" lon="9.287650060277718"><ele>89.0</ele><time>2026-04-06T06:51:59Z</time></trkpt><trkpt lat="45.34417214099236" lon="9.287579818441966"><ele>89.0</ele><time>2026-04-06T06:52:01Z</time></trkpt><trkpt lat="45.34422905095091" lon="9.2875393252492"><ele>89.0</ele><time>2026-04-06T06:52:02Z</time></trkpt><trkpt lat="45.344337245978615" lon="9.287467622789581"><ele>89.0</ele><time>2026-04-06T06:52:04Z</time></trkpt><trkpt lat="45.34445798622692" lon="9.287467801985512"><ele>89.0</ele><time>2026-04-06T06:52:06Z</time></trkpt><trkpt lat="45.34450664183975" lon="9.287535604263404"><ele>89.0</ele><time>2026-04-06T06:52:07Z</time></trkpt><trkpt lat="45.34453978398523" lon="9.287614388382988"><ele>89.0</ele><time>2026-04-06T06:52:08Z</time></trkpt><trkpt lat="45.344606037346786" lon="9.287746624410294"><ele>89.0</ele><time>2026-04-06T06:52:10Z</time></trkpt><trkpt lat="45.34464007433436" lon="9.287822558554604"><ele>89.0</ele><time>2026-04-06T06:52:11Z</time></trkpt><trkpt lat="45.344713723841025" lon="9.287965419906733"><ele>89.0</ele><time>2026-04-06T06:52:13Z</time></trkpt><trkpt lat="45.34479185314094" lon="9.288099960949838"><ele>89.16666666666667</ele><time>2026-04-06T06:52:15Z</time></trkpt><trkpt lat="45.34486496791392" lon="9.288245491387293"><ele>89.33333333333334</ele><time>2026-04-06T06:52:17Z</time></trkpt><trkpt lat="45.34490232501789" lon="9.288320657795017"><ele>89.5</ele><time>2026-04-06T06:52:18Z</time></trkpt><trkpt lat="45.34494292719531" lon="9.288395909057284"><ele>89.66666666666667</ele><time>2026-04-06T06:52:19Z</time></trkpt><trkpt lat="45.344981928767204" lon="9.28847013747439"><ele>89.83333333333333</ele><time>2026-04-06T06:52:20Z</time></trkpt><trkpt lat="45.34501905183406" lon="9.288545536514135"><ele>90.0</ele><time>2026-04-06T06:52:21Z</time></trkpt><trkpt lat="45.345054434011125" lon="9.288619701148834"><ele>90.0</ele><time>2026-04-06T06:52:22Z</time></trkpt><trkpt lat="45.34509192416612" lon="9.288698408960121"><ele>90.0</ele><time>2026-04-06T06:52:23Z</time></trkpt><trkpt lat="45.34512957510259" lon="9.288777697158038"><ele>90.0</ele><time>2026-04-06T06:52:24Z</time></trkpt><trkpt lat="45.34516658680674" lon="9.288860579597394"><ele>90.0</ele><time>2026-04-06T06:52:25Z</time></trkpt><trkpt lat="45.345239212686636" lon="9.289008328111166"><ele>90.0</ele><time>2026-04-06T06:52:27Z</time></trkpt><trkpt lat="45.34530549932155" lon="9.28916482190241"><ele>90.0</ele><time>2026-04-06T06:52:29Z</time></trkpt><trkpt lat="45.34533988575701" lon="9.289246043802802"><ele>90.0</ele><time>2026-04-06T06:52:30Z</time></trkpt><trkpt lat="45.34537423639371" lon="9.289321711907737"><ele>90.0</ele><time>2026-04-06T06:52:31Z</time></trkpt><trkpt lat="45.345434821818195" lon="9.289470265127473"><ele>90.0</ele><time>2026-04-06T06:52:33Z</time></trkpt><trkpt lat="45.345500454028" lon="9.289609774105756"><ele>90.0</ele><time>2026-04-06T06:52:35Z</time></trkpt><trkpt lat="45.345570932242175" lon="9.289738544500311"><ele>90.0</ele><time>2026-04-06T06:52:37Z</time></trkpt><trkpt lat="45.34563441639792" lon="9.28985963168501"><ele>90.0</ele><time>2026-04-06T06:52:39Z</time></trkpt><trkpt lat="45.3456978039104" lon="9.28996884088608"><ele>90.0</ele><time>2026-04-06T06:52:41Z</time></trkpt><trkpt lat="45.34575566502155" lon="9.290085365966178"><ele>90.0</ele><time>2026-04-06T06:52:43Z</time></trkpt><trkpt lat="45.345818028771156" lon="9.290202070227116"><ele>90.0</ele><time>2026-04-06T06:52:45Z</time></trkpt><trkpt lat="45.34588318073694" lon="9.290316412388782"><ele>90.0</ele><time>2026-04-06T06:52:47Z</time></trkpt><trkpt lat="45.3459447443586" lon="9.29043404047183"><ele>90.0</ele><time>2026-04-06T06:52:49Z</time></trkpt><trkpt lat="45.34600433042429" lon="9.290551744835259"><ele>90.0</ele><time>2026-04-06T06:52:51Z</time></trkpt><trkpt lat="45.34606271622665" lon="9.290676566008395"><ele>90.0</ele><time>2026-04-06T06:52:53Z</time></trkpt><trkpt lat="45.34613220214393" lon="9.290789752111767"><ele>90.0</ele><time>2026-04-06T06:52:55Z</time></trkpt><trkpt lat="45.346191251234806" lon="9.290912781719127"><ele>90.0</ele><time>2026-04-06T06:52:57Z</time></trkpt><trkpt lat="45.34624575522262" lon="9.291038468616403"><ele>90.0</ele><time>2026-04-06T06:52:59Z</time></trkpt><trkpt lat="45.34630655088371" lon="9.29115953682143"><ele>90.0</ele><time>2026-04-06T06:53:01Z</time></trkpt><trkpt lat="45.34636919188906" lon="9.291276952484221"><ele>90.0</ele><time>2026-04-06T06:53:03Z</time></trkpt><trkpt lat="45.34642679742858" lon="9.291392477383692"><ele>90.0</ele><time>2026-04-06T06:53:05Z</time></trkpt><trkpt lat="45.34648530713872" lon="9.291508631840875"><ele>89.8</ele><time>2026-04-06T06:53:07Z</time></trkpt><trkpt lat="45.34654371844435" lon="9.291630801242677"><ele>89.6</ele><time>2026-04-06T06:53:09Z</time></trkpt><trkpt lat="45.34660274235657" lon="9.291748470824855"><ele>89.4</ele><time>2026-04-06T06:53:11Z</time></trkpt><trkpt lat="45.34665797154021" lon="9.291871070470354"><ele>89.2</ele><time>2026-04-06T06:53:13Z</time></trkpt><trkpt lat="45.34667843119927" lon="9.292019522328088"><ele>89.0</ele><time>2026-04-06T06:53:15Z</time></trkpt><trkpt lat="45.346688148553724" lon="9.292178229763579"><ele>89.0</ele><time>2026-04-06T06:53:17Z</time></trkpt><trkpt lat="45.34671746463226" lon="9.292334255528557"><ele>89.0</ele><time>2026-04-06T06:53:19Z</time></trkpt><trkpt lat="45.34675455459785" lon="9.292484773097906"><ele>89.0</ele><time>2026-04-06T06:53:21Z</time></trkpt><trkpt lat="45.346788122280195" lon="9.292636181460399"><ele>89.0</ele><time>2026-04-06T06:53:23Z</time></trkpt><trkpt lat="45.34682341921511" lon="9.29278755801722"><ele>89.0</ele><time>2026-04-06T06:53:25Z</time></trkpt><trkpt lat="45.346861497451414" lon="9.292937125408042"><ele>89.25</ele><time>2026-04-06T06:53:27Z</time></trkpt><trkpt lat="45.34689491431795" lon="9.293091923485928"><ele>89.5</ele><time>2026-04-06T06:53:29Z</time></trkpt><trkpt lat="45.34692902344738" lon="9.29324737306891"><ele>89.75</ele><time>2026-04-06T06:53:31Z</time></trkpt><trkpt lat="45.3469648182304" lon="9.293397746135518"><ele>90.0</ele><time>2026-04-06T06:53:33Z</time></trkpt><trkpt lat="45.346999510087365" lon="9.293546933025972"><ele>90.0</ele><time>2026-04-06T06:53:35Z</time></trkpt><trkpt lat="45.34702805648608" lon="9.29369888719187"><ele>90.0</ele><time>2026-04-06T06:53:37Z</time></trkpt><trkpt lat="45.34705716946716" lon="9.293843544926384"><ele>90.0</ele><time>2026-04-06T06:53:39Z</time></trkpt><trkpt lat="45.34709096886644" lon="9.29398286784183"><ele>90.0</ele><time>2026-04-06T06:53:41Z</time></trkpt><trkpt lat="45.347127488671475" lon="9.294121953053667"><ele>90.0</ele><time>2026-04-06T06:53:43Z</time></trkpt><trkpt lat="45.34715829240471" lon="9.294264194482194"><ele>90.0</ele><time>2026-04-06T06:53:45Z</time></trkpt><trkpt lat="45.34718802020473" lon="9.294408195366973"><ele>90.0</ele><time>2026-04-06T06:53:47Z</time></trkpt><trkpt lat="45.347221763777405" lon="9.294551504216416"><ele>90.0</ele><time>2026-04-06T06:53:49Z</time></trkpt><trkpt lat="45.34725804283033" lon="9.294690008765683"><ele>90.0</ele><time>2026-04-06T06:53:51Z</time></trkpt><trkpt lat="45.34729257666818" lon="9.294827808741832"><ele>90.0</ele><time>2026-04-06T06:53:53Z</time></trkpt><trkpt lat="45.34732000220723" lon="9.294968386117286"><ele>89.8</ele><time>2026-04-06T06:53:55Z</time></trkpt><trkpt lat="45.34736937706027" lon="9.295100978629428"><ele>89.6</ele><time>2026-04-06T06:53:57Z</time></trkpt><trkpt lat="45.34741912639343" lon="9.29523351946296"><ele>89.4</ele><time>2026-04-06T06:53:59Z</time></trkpt><trkpt lat="45.347479111745294" lon="9.295354729751645"><ele>89.2</ele><time>2026-04-06T06:54:01Z</time></trkpt><trkpt lat="45.347543947901364" lon="9.295466209019628"><ele>89.0</ele><time>2026-04-06T06:54:03Z</time></trkpt><trkpt lat="45.347606870438405" lon="9.295578794896727"><ele>89.2</ele><time>2026-04-06T06:54:05Z</time></trkpt><trkpt lat="45.34766961259789" lon="9.295686661343996"><ele>89.4</ele><time>2026-04-06T06:54:07Z</time></trkpt><trkpt lat="45.3477300193354" lon="9.295799629194113"><ele>89.6</ele><time>2026-04-06T06:54:09Z</time></trkpt><trkpt lat="45.347801013215225" lon="9.295894765555857"><ele>89.8</ele><time>2026-04-06T06:54:11Z</time></trkpt><trkpt lat="45.34787198895292" lon="9.295990908400404"><ele>90.0</ele><time>2026-04-06T06:54:13Z</time></trkpt><trkpt lat="45.34794233893672" lon="9.296096237007196"><ele>90.0</ele><time>2026-04-06T06:54:15Z</time></trkpt><trkpt lat="45.34799665827286" lon="9.296214318856618"><ele>90.0</ele><time>2026-04-06T06:54:17Z</time></trkpt><trkpt lat="45.34804378023133" lon="9.296340954028894"><ele>90.0</ele><time>2026-04-06T06:54:19Z</time></trkpt><trkpt lat="45.348081531528386" lon="9.296469182657512"><ele>90.0</ele><time>2026-04-06T06:54:21Z</time></trkpt><trkpt lat="45.3481265052218" lon="9.296594752900974"><ele>90.0</ele><time>2026-04-06T06:54:23Z</time></trkpt><trkpt lat="45.34816991403237" lon="9.296712563989947"><ele>90.0</ele><time>2026-04-06T06:54:25Z</time></trkpt><trkpt lat="45.34820184940773" lon="9.296828866361622"><ele>90.0</ele><time>2026-04-06T06:54:27Z</time></trkpt><trkpt lat="45.34819597772576" lon="9.29695209924563"><ele>90.0</ele><time>2026-04-06T06:54:29Z</time></trkpt><trkpt lat="45.348127592120946" lon="9.297055556527107"><ele>90.0</ele><time>2026-04-06T06:54:31Z</time></trkpt><trkpt lat="45.34803706236885" lon="9.297119973103937"><ele>90.0</ele><time>2026-04-06T06:54:33Z</time></trkpt><trkpt lat="45.34795432073254" lon="9.29718910772677"><ele>90.0</ele><time>2026-04-06T06:54:35Z</time></trkpt><trkpt lat="45.347873035489876" lon="9.297264788334294"><ele>90.0</ele><time>2026-04-06T06:54:37Z</time></trkpt><trkpt lat="45.34778677593352" lon="9.297332570665358"><ele>90.0</ele><time>2026-04-06T06:54:39Z</time></trkpt><trkpt lat="45.34769980544635" lon="9.297401493274323"><ele>90.0</ele><time>2026-04-06T06:54:41Z</time></trkpt><trkpt lat="45.34761509703369" lon="9.297467917652446"><ele>90.0</ele><time>2026-04-06T06:54:43Z</time></trkpt><trkpt lat="45.347531729435325" lon="9.297535022108216"><ele>90.0</ele><time>2026-04-06T06:54:45Z</time></trkpt><trkpt lat="45.34745245091657" lon="9.29760931201038"><ele>90.0</ele><time>2026-04-06T06:54:47Z</time></trkpt><trkpt lat="45.34739525611312" lon="9.297716617598514"><ele>90.0</ele><time>2026-04-06T06:54:49Z</time></trkpt><trkpt lat="45.347386308043944" lon="9.297853946342762"><ele>90.0</ele><time>2026-04-06T06:54:51Z</time></trkpt><trkpt lat="45.34739064232623" lon="9.297992421117762"><ele>90.0</ele><time>2026-04-06T06:54:53Z</time></trkpt><trkpt lat="45.34739454378529" lon="9.298133757994547"><ele>89.8</ele><time>2026-04-06T06:54:55Z</time></trkpt><trkpt lat="45.347392505084656" lon="9.298279257246993"><ele>89.6</ele><time>2026-04-06T06:54:57Z</time></trkpt><trkpt lat="45.347389612511854" lon="9.29842551582809"><ele>89.4</ele><time>2026-04-06T06:54:59Z</time></trkpt><trkpt lat="45.34738803057736" lon="9.298571285170329"><ele>89.2</ele><time>2026-04-06T06:55:01Z</time></trkpt><trkpt lat="45.347390132503904" lon="9.29871328567715"><ele>89.0</ele><time>2026-04-06T06:55:03Z</time></trkpt><trkpt lat="45.34738961628063" lon="9.298851878375524"><ele>89.2</ele><time>2026-04-06T06:55:05Z</time></trkpt><trkpt lat="45.34739591242934" lon="9.298988984444302"><ele>89.4</ele><time>2026-04-06T06:55:07Z</time></trkpt><trkpt lat="45.34739485899112" lon="9.299125429816788"><ele>89.6</ele><time>2026-04-06T06:55:09Z</time></trkpt><trkpt lat="45.34740174003027" lon="9.299311577501864"><ele>89.8</ele><time>2026-04-06T06:55:12Z</time></trkpt><trkpt lat="45.3473992173836" lon="9.299456301077262"><ele>90.0</ele><time>2026-04-06T06:55:14Z</time></trkpt><trkpt lat="45.34739775872282" lon="9.299596192917141"><ele>90.0</ele><time>2026-04-06T06:55:16Z</time></trkpt><trkpt lat="45.347394804044654" lon="9.299738739107806"><ele>90.0</ele><time>2026-04-06T06:55:18Z</time></trkpt><trkpt lat="45.347395150204754" lon="9.29987909135609"><ele>90.0</ele><time>2026-04-06T06:55:20Z</time></trkpt><trkpt lat="45.3473897584285" lon="9.300018882876918"><ele>90.0</ele><time>2026-04-06T06:55:22Z</time></trkpt><trkpt lat="45.347393951921916" lon="9.300161177644322"><ele>90.0</ele><time>2026-04-06T06:55:24Z</time></trkpt><trkpt lat="45.34740483026333" lon="9.300303419118393"><ele>90.0</ele><time>2026-04-06T06:55:26Z</time></trkpt><trkpt lat="45.34743082667911" lon="9.300441634721668"><ele>90.0</ele><time>2026-04-06T06:55:28Z</time></trkpt><trkpt lat="45.347471123460004" lon="9.300566175695716"><ele>90.0</ele><time>2026-04-06T06:55:30Z</time></trkpt><trkpt lat="45.347508961477004" lon="9.300686983627518"><ele>90.0</ele><time>2026-04-06T06:55:32Z</time></trkpt><trkpt lat="45.34754599696145" lon="9.300809295229756"><ele>90.0</ele><time>2026-04-06T06:55:34Z</time></trkpt><trkpt lat="45.34758979762816" lon="9.300929694371789"><ele>90.0</ele><time>2026-04-06T06:55:36Z</time></trkpt><trkpt lat="45.34763086681418" lon="9.30104931946403"><ele>90.0</ele><time>2026-04-06T06:55:38Z</time></trkpt><trkpt lat="45.34767695914492" lon="9.301167068633712"><ele>90.0</ele><time>2026-04-06T06:55:40Z</time></trkpt><trkpt lat="45.347719999875636" lon="9.301285203996011"><ele>90.0</ele><time>2026-04-06T06:55:42Z</time></trkpt><trkpt lat="45.347768172535474" lon="9.301405373704549"><ele>90.0</ele><time>2026-04-06T06:55:44Z</time></trkpt><trkpt lat="45.34781477421782" lon="9.30152584702852"><ele>89.8</ele><time>2026-04-06T06:55:46Z</time></trkpt><trkpt lat="45.34786386872225" lon="9.301643912761433"><ele>89.6</ele><time>2026-04-06T06:55:48Z</time></trkpt><trkpt lat="45.34790986547176" lon="9.301766064872536"><ele>89.4</ele><time>2026-04-06T06:55:50Z</time></trkpt><trkpt lat="45.347957410345266" lon="9.301885441879922"><ele>89.2</ele><time>2026-04-06T06:55:52Z</time></trkpt><trkpt lat="45.348002234522035" lon="9.302003453171512"><ele>89.0</ele><time>2026-04-06T06:55:54Z</time></trkpt><trkpt lat="45.34804585302798" lon="9.302124442593112"><ele>89.0</ele><time>2026-04-06T06:55:56Z</time></trkpt><trkpt lat="45.3480957208181" lon="9.302244064608047"><ele>89.0</ele><time>2026-04-06T06:55:58Z</time></trkpt><trkpt lat="45.348138835535906" lon="9.302363514760422"><ele>89.0</ele><time>2026-04-06T06:56:00Z</time></trkpt><trkpt lat="45.34818313528975" lon="9.302484845132827"><ele>89.0</ele><time>2026-04-06T06:56:02Z</time></trkpt><trkpt lat="45.34822739649964" lon="9.302608183207967"><ele>89.0</ele><time>2026-04-06T06:56:04Z</time></trkpt><trkpt lat="45.34827525076792" lon="9.302726304058996"><ele>89.2</ele><time>2026-04-06T06:56:06Z</time></trkpt><trkpt lat="45.34833921655606" lon="9.302829986018244"><ele>89.4</ele><time>2026-04-06T06:56:08Z</time></trkpt><trkpt lat="45.348407762543005" lon="9.302928178272547"><ele>89.6</ele><time>2026-04-06T06:56:10Z</time></trkpt><trkpt lat="45.34848194092805" lon="9.303018036751016"><ele>89.8</ele><time>2026-04-06T06:56:12Z</time></trkpt><trkpt lat="45.34855586967473" lon="9.3031056855683"><ele>90.0</ele><time>2026-04-06T06:56:14Z</time></trkpt><trkpt lat="45.348619524040785" lon="9.303210422170498"><ele>90.16666666666667</ele><time>2026-04-06T06:56:16Z</time></trkpt><trkpt lat="45.34867388277065" lon="9.303311511543225"><ele>90.33333333333333</ele><time>2026-04-06T06:56:18Z</time></trkpt><trkpt lat="45.348723019323266" lon="9.303415014170566"><ele>90.5</ele><time>2026-04-06T06:56:20Z</time></trkpt><trkpt lat="45.34876609296838" lon="9.303515036840889"><ele>90.66666666666666</ele><time>2026-04-06T06:56:22Z</time></trkpt><trkpt lat="45.348815803957635" lon="9.303604586899253"><ele>90.83333333333333</ele><time>2026-04-06T06:56:24Z</time></trkpt><trkpt lat="45.34885815763744" lon="9.303714776816014"><ele>91.0</ele><time>2026-04-06T06:56:26Z</time></trkpt><trkpt lat="45.34889108841089" lon="9.30384484504489"><ele>91.16666666666666</ele><time>2026-04-06T06:56:28Z</time></trkpt><trkpt lat="45.34892911042422" lon="9.30397111107865"><ele>91.33333333333333</ele><time>2026-04-06T06:56:30Z</time></trkpt><trkpt lat="45.348961715144114" lon="9.304111670957639"><ele>91.5</ele><time>2026-04-06T06:56:32Z</time></trkpt><trkpt lat="45.34900311297939" lon="9.304201511398336"><ele>91.66666666666667</ele><time>2026-04-06T06:56:34Z</time></trkpt><trkpt lat="45.34903831844291" lon="9.304290380278387"><ele>91.83333333333334</ele><time>2026-04-06T06:56:37Z</time></trkpt><trkpt lat="45.34905142279095" lon="9.304391691205906"><ele>92.0</ele><time>2026-04-06T06:56:41Z</time></trkpt><trkpt lat="45.34905712004664" lon="9.304509590364193"><ele>92.0</ele><time>2026-04-06T06:56:43Z</time></trkpt><trkpt lat="45.349076393558896" lon="9.304641528051935"><ele>92.0</ele><time>2026-04-06T06:56:45Z</time></trkpt><trkpt lat="45.34914444144946" lon="9.304736544758558"><ele>92.0</ele><time>2026-04-06T06:56:47Z</time></trkpt><trkpt lat="45.349233804831016" lon="9.304776414568815"><ele>92.0</ele><time>2026-04-06T06:56:49Z</time></trkpt><trkpt lat="45.34932216052712" lon="9.304813662101543"><ele>92.0</ele><time>2026-04-06T06:56:51Z</time></trkpt><trkpt lat="45.34940395151786" lon="9.304892238078585"><ele>91.75</ele><time>2026-04-06T06:56:53Z</time></trkpt><trkpt lat="45.34947699790169" lon="9.3049991800711"><ele>91.5</ele><time>2026-04-06T06:56:55Z</time></trkpt><trkpt lat="45.349560342184034" lon="9.305117455434164"><ele>91.25</ele><time>2026-04-06T06:56:57Z</time></trkpt><trkpt lat="45.34963618529869" lon="9.305257054860437"><ele>91.0</ele><time>2026-04-06T06:56:59Z</time></trkpt><trkpt lat="45.34969832026283" lon="9.305405866302005"><ele>90.5</ele><time>2026-04-06T06:57:01Z</time></trkpt><trkpt lat="45.34975901118017" lon="9.305555462354928"><ele>90.0</ele><time>2026-04-06T06:57:03Z</time></trkpt><trkpt lat="45.349828627687835" lon="9.305700319358174"><ele>89.5</ele><time>2026-04-06T06:57:05Z</time></trkpt><trkpt lat="45.34989197250956" lon="9.30583951075049"><ele>89.0</ele><time>2026-04-06T06:57:07Z</time></trkpt><trkpt lat="45.34998324257659" lon="9.305958315797332"><ele>89.0</ele><time>2026-04-06T06:57:09Z</time></trkpt><trkpt lat="45.35008397108063" lon="9.30606652531757"><ele>89.0</ele><time>2026-04-06T06:57:11Z</time></trkpt><trkpt lat="45.35016799492848" lon="9.306199790061635"><ele>89.0</ele><time>2026-04-06T06:57:13Z</time></trkpt><trkpt lat="45.35023147584399" lon="9.30635217520997"><ele>89.0</ele><time>2026-04-06T06:57:15Z</time></trkpt><trkpt lat="45.3502843420222" lon="9.306503217709878"><ele>89.16666666666667</ele><time>2026-04-06T06:57:17Z</time></trkpt><trkpt lat="45.35032323046928" lon="9.306646781399964"><ele>89.33333333333334</ele><time>2026-04-06T06:57:19Z</time></trkpt><trkpt lat="45.35036122576437" lon="9.30675663832424"><ele>89.5</ele><time>2026-04-06T06:57:21Z</time></trkpt><trkpt lat="45.35040299294431" lon="9.306853579899467"><ele>89.66666666666667</ele><time>2026-04-06T06:57:23Z</time></trkpt><trkpt lat="45.350440810919324" lon="9.306936845678242"><ele>89.83333333333333</ele><time>2026-04-06T06:57:25Z</time></trkpt><trkpt lat="45.35048721169336" lon="9.307008777618703"><ele>90.0</ele><time>2026-04-06T06:57:27Z</time></trkpt><trkpt lat="45.35053133061805" lon="9.307073600729272"><ele>90.0</ele><time>2026-04-06T06:57:29Z</time></trkpt><trkpt lat="45.350575291668896" lon="9.307147867512686"><ele>90.0</ele><time>2026-04-06T06:57:31Z</time></trkpt><trkpt lat="45.350632823418024" lon="9.30725582949169"><ele>90.0</ele><time>2026-04-06T06:57:34Z</time></trkpt><trkpt lat="45.35067804774891" lon="9.307329913482253"><ele>90.0</ele><time>2026-04-06T06:57:36Z</time></trkpt><trkpt lat="45.350739575671845" lon="9.30742615756297"><ele>90.0</ele><time>2026-04-06T06:57:39Z</time></trkpt><trkpt lat="45.350774774719845" lon="9.30751016806927"><ele>90.0</ele><time>2026-04-06T06:57:41Z</time></trkpt><trkpt lat="45.35082008844486" lon="9.307575119424218"><ele>90.0</ele><time>2026-04-06T06:57:43Z</time></trkpt><trkpt lat="45.35087384350453" lon="9.307675324813259"><ele>90.0</ele><time>2026-04-06T06:57:46Z</time></trkpt><trkpt lat="45.350919110972654" lon="9.30774348630596"><ele>90.0</ele><time>2026-04-06T06:57:48Z</time></trkpt><trkpt lat="45.35096595870216" lon="9.307812054019863"><ele>90.0</ele><time>2026-04-06T06:57:50Z</time></trkpt><trkpt lat="45.35101306696668" lon="9.307886405053482"><ele>90.0</ele><time>2026-04-06T06:57:52Z</time></trkpt><trkpt lat="45.35105845966025" lon="9.30796414106728"><ele>90.0</ele><time>2026-04-06T06:57:54Z</time></trkpt><trkpt lat="45.35110574174089" lon="9.308034178032255"><ele>90.0</ele><time>2026-04-06T06:57:56Z</time></trkpt><trkpt lat="45.35115056811257" lon="9.308119721345667"><ele>90.16666666666667</ele><time>2026-04-06T06:57:58Z</time></trkpt><trkpt lat="45.35120141020889" lon="9.308200099863305"><ele>90.33333333333333</ele><time>2026-04-06T06:58:00Z</time></trkpt><trkpt lat="45.351250051725444" lon="9.308285655843283"><ele>90.5</ele><time>2026-04-06T06:58:02Z</time></trkpt><trkpt lat="45.35129962779405" lon="9.308369184678245"><ele>90.66666666666666</ele><time>2026-04-06T06:58:04Z</time></trkpt><trkpt lat="45.35133732409201" lon="9.308464907256178"><ele>90.83333333333333</ele><time>2026-04-06T06:58:06Z</time></trkpt><trkpt lat="45.351377483354966" lon="9.30857920209341"><ele>91.0</ele><time>2026-04-06T06:58:08Z</time></trkpt><trkpt lat="45.35141783148217" lon="9.308702580577835"><ele>91.0</ele><time>2026-04-06T06:58:10Z</time></trkpt><trkpt lat="45.35145902712583" lon="9.308852149079682"><ele>91.0</ele><time>2026-04-06T06:58:12Z</time></trkpt><trkpt lat="45.35149720607407" lon="9.309026776606911"><ele>91.0</ele><time>2026-04-06T06:58:14Z</time></trkpt><trkpt lat="45.35151895132288" lon="9.309116774318118"><ele>91.0</ele><time>2026-04-06T06:58:15Z</time></trkpt><trkpt lat="45.35154160441989" lon="9.309209454618914"><ele>91.0</ele><time>2026-04-06T06:58:16Z</time></trkpt><trkpt lat="45.351563307083076" lon="9.309309990989865"><ele>91.0</ele><time>2026-04-06T06:58:17Z</time></trkpt><trkpt lat="45.35158458035669" lon="9.309410919989997"><ele>91.0</ele><time>2026-04-06T06:58:18Z</time></trkpt><trkpt lat="45.351611944822885" lon="9.309515518920849"><ele>91.0</ele><time>2026-04-06T06:58:19Z</time></trkpt><trkpt lat="45.35164267647056" lon="9.30962284536395"><ele>91.0</ele><time>2026-04-06T06:58:20Z</time></trkpt><trkpt lat="45.35167840724536" lon="9.30972718483292"><ele>91.0</ele><time>2026-04-06T06:58:21Z</time></trkpt><trkpt lat="45.35171364508173" lon="9.30983716911859"><ele>91.0</ele><time>2026-04-06T06:58:22Z</time></trkpt><trkpt lat="45.35175131757673" lon="9.309939995884697"><ele>90.83333333333333</ele><time>2026-04-06T06:58:23Z</time></trkpt><trkpt lat="45.35179287940582" lon="9.310046796646482"><ele>90.66666666666666</ele><time>2026-04-06T06:58:24Z</time></trkpt><trkpt lat="45.35183252544235" lon="9.31014824460526"><ele>90.5</ele><time>2026-04-06T06:58:25Z</time></trkpt><trkpt lat="45.35187401676864" lon="9.310248900224034"><ele>90.33333333333333</ele><time>2026-04-06T06:58:26Z</time></trkpt><trkpt lat="45.35191478979597" lon="9.31034672948244"><ele>90.16666666666667</ele><time>2026-04-06T06:58:27Z</time></trkpt><trkpt lat="45.35195834589245" lon="9.310440896965236"><ele>90.0</ele><time>2026-04-06T06:58:28Z</time></trkpt><trkpt lat="45.35199591547926" lon="9.310529184026967"><ele>90.14285714285714</ele><time>2026-04-06T06:58:29Z</time></trkpt><trkpt lat="45.352031346597734" lon="9.310618053342507"><ele>90.28571428571429</ele><time>2026-04-06T06:58:30Z</time></trkpt><trkpt lat="45.352071080199714" lon="9.31070503735569"><ele>90.42857142857143</ele><time>2026-04-06T06:58:31Z</time></trkpt><trkpt lat="45.352109587867204" lon="9.31078334924698"><ele>90.57142857142857</ele><time>2026-04-06T06:58:32Z</time></trkpt><trkpt lat="45.35213786612778" lon="9.310865937026847"><ele>90.71428571428572</ele><time>2026-04-06T06:58:33Z</time></trkpt><trkpt lat="45.352162400323756" lon="9.310949003108503"><ele>90.85714285714286</ele><time>2026-04-06T06:58:34Z</time></trkpt><trkpt lat="45.35219550429232" lon="9.311025438835996"><ele>91.0</ele><time>2026-04-06T06:58:35Z</time></trkpt><trkpt lat="45.35226109039306" lon="9.311166835717572"><ele>91.0</ele><time>2026-04-06T06:58:37Z</time></trkpt><trkpt lat="45.352322297915144" lon="9.311309768373185"><ele>91.0</ele><time>2026-04-06T06:58:39Z</time></trkpt><trkpt lat="45.35237541329787" lon="9.311451870546101"><ele>91.0</ele><time>2026-04-06T06:58:41Z</time></trkpt><trkpt lat="45.35242972081249" lon="9.311577278043965"><ele>91.0</ele><time>2026-04-06T06:58:43Z</time></trkpt><trkpt lat="45.35248290099775" lon="9.311701619136725"><ele>91.0</ele><time>2026-04-06T06:58:45Z</time></trkpt><trkpt lat="45.352548156448286" lon="9.311810971486123"><ele>91.16666666666666</ele><time>2026-04-06T06:58:47Z</time></trkpt><trkpt lat="45.35259311222905" lon="9.311915326627018"><ele>91.33333333333333</ele><time>2026-04-06T06:58:49Z</time></trkpt><trkpt lat="45.352628515846625" lon="9.312026253339988"><ele>91.5</ele><time>2026-04-06T06:58:51Z</time></trkpt><trkpt lat="45.35266773825278" lon="9.312133106260957"><ele>91.66666666666667</ele><time>2026-04-06T06:58:53Z</time></trkpt><trkpt lat="45.35270977454352" lon="9.312249182839809"><ele>91.83333333333334</ele><time>2026-04-06T06:58:55Z</time></trkpt><trkpt lat="45.35276713377932" lon="9.312363238818941"><ele>92.0</ele><time>2026-04-06T06:58:57Z</time></trkpt><trkpt lat="45.352816970934754" lon="9.312479729977195"><ele>91.8</ele><time>2026-04-06T06:58:59Z</time></trkpt><trkpt lat="45.35287490462077" lon="9.31259940040306"><ele>91.6</ele><time>2026-04-06T06:59:01Z</time></trkpt><trkpt lat="45.352932341754425" lon="9.312724621206867"><ele>91.39999999999999</ele><time>2026-04-06T06:59:03Z</time></trkpt><trkpt lat="45.35297967846065" lon="9.312873889893279"><ele>91.19999999999999</ele><time>2026-04-06T06:59:05Z</time></trkpt><trkpt lat="45.35302714848887" lon="9.312996098782886"><ele>91.0</ele><time>2026-04-06T06:59:07Z</time></trkpt><trkpt lat="45.35305991414406" lon="9.31307881534837"><ele>91.0</ele><time>2026-04-06T06:59:08Z</time></trkpt><trkpt lat="45.353119281927" lon="9.31321545723353"><ele>91.0</ele><time>2026-04-06T06:59:10Z</time></trkpt><trkpt lat="45.35317926677964" lon="9.313341559804016"><ele>91.0</ele><time>2026-04-06T06:59:12Z</time></trkpt><trkpt lat="45.353226268565294" lon="9.313481030969973"><ele>91.0</ele><time>2026-04-06T06:59:14Z</time></trkpt><trkpt lat="45.35327589027701" lon="9.313614657130175"><ele>91.0</ele><time>2026-04-06T06:59:16Z</time></trkpt><trkpt lat="45.35333701678506" lon="9.313744620255003"><ele>91.0</ele><time>2026-04-06T06:59:18Z</time></trkpt><trkpt lat="45.35339597267775" lon="9.313893956162927"><ele>91.0</ele><time>2026-04-06T06:59:20Z</time></trkpt><trkpt lat="45.35345655513615" lon="9.314034625139074"><ele>91.0</ele><time>2026-04-06T06:59:22Z</time></trkpt><trkpt lat="45.35348391416072" lon="9.314117839846423"><ele>91.0</ele><time>2026-04-06T06:59:23Z</time></trkpt><trkpt lat="45.353517698227435" lon="9.314195257388752"><ele>91.0</ele><time>2026-04-06T06:59:24Z</time></trkpt><trkpt lat="45.35355735341091" lon="9.314268404730027"><ele>91.0</ele><time>2026-04-06T06:59:25Z</time></trkpt><trkpt lat="45.35361295941904" lon="9.314418721374338"><ele>91.0</ele><time>2026-04-06T06:59:27Z</time></trkpt><trkpt lat="45.353666684673065" lon="9.314569055918843"><ele>91.0</ele><time>2026-04-06T06:59:29Z</time></trkpt><trkpt lat="45.35373290202646" lon="9.314715935923354"><ele>91.0</ele><time>2026-04-06T06:59:31Z</time></trkpt><trkpt lat="45.3537809290784" lon="9.314858219791727"><ele>91.0</ele><time>2026-04-06T06:59:33Z</time></trkpt><trkpt lat="45.35383239927149" lon="9.314989093450963"><ele>91.0</ele><time>2026-04-06T06:59:35Z</time></trkpt><trkpt lat="45.353884246265906" lon="9.315118209526553"><ele>91.0</ele><time>2026-04-06T06:59:37Z</time></trkpt><trkpt lat="45.35392769066235" lon="9.315253289210236"><ele>91.0</ele><time>2026-04-06T06:59:39Z</time></trkpt><trkpt lat="45.353973817847766" lon="9.315370083977665"><ele>91.0</ele><time>2026-04-06T06:59:41Z</time></trkpt><trkpt lat="45.354008445118204" lon="9.315485117990784"><ele>91.0</ele><time>2026-04-06T06:59:43Z</time></trkpt><trkpt lat="45.354042282823016" lon="9.315584913131646"><ele>91.0</ele><time>2026-04-06T06:59:45Z</time></trkpt><trkpt lat="45.35408631063948" lon="9.315691432016896"><ele>91.0</ele><time>2026-04-06T06:59:47Z</time></trkpt><trkpt lat="45.35412972212092" lon="9.31580271065708"><ele>91.0</ele><time>2026-04-06T06:59:49Z</time></trkpt><trkpt lat="45.35417579410488" lon="9.315911623581307"><ele>91.0</ele><time>2026-04-06T06:59:51Z</time></trkpt><trkpt lat="45.354219566346245" lon="9.316032409674362"><ele>91.0</ele><time>2026-04-06T06:59:53Z</time></trkpt><trkpt lat="45.354275119954934" lon="9.316137814209352"><ele>91.0</ele><time>2026-04-06T06:59:55Z</time></trkpt><trkpt lat="45.3543273815498" lon="9.316256087947103"><ele>91.0</ele><time>2026-04-06T06:59:57Z</time></trkpt><trkpt lat="45.35436433962596" lon="9.316354495036542"><ele>91.0</ele><time>2026-04-06T06:59:59Z</time></trkpt><trkpt lat="45.35440576657477" lon="9.316471240085527"><ele>91.0</ele><time>2026-04-06T07:00:01Z</time></trkpt><trkpt lat="45.35442992175313" lon="9.316576596789071"><ele>91.0</ele><time>2026-04-06T07:00:04Z</time></trkpt><trkpt lat="45.3544645021117" lon="9.316665987192337"><ele>91.0</ele><time>2026-04-06T07:01:51Z</time></trkpt><trkpt lat="45.35450799849943" lon="9.316756994985576"><ele>91.16666666666666</ele><time>2026-04-06T07:01:54Z</time></trkpt><trkpt lat="45.35454922509828" lon="9.316864341601434"><ele>91.33333333333333</ele><time>2026-04-06T07:01:57Z</time></trkpt><trkpt lat="45.35459485895977" lon="9.31698260164721"><ele>91.5</ele><time>2026-04-06T07:02:00Z</time></trkpt><trkpt lat="45.35463028959333" lon="9.31707357245437"><ele>91.66666666666667</ele><time>2026-04-06T07:02:02Z</time></trkpt><trkpt lat="45.35466388541657" lon="9.31717287745593"><ele>91.83333333333334</ele><time>2026-04-06T07:02:04Z</time></trkpt><trkpt lat="45.35469952634872" lon="9.317272212855618"><ele>92.0</ele><time>2026-04-06T07:02:06Z</time></trkpt><trkpt lat="45.354696484787986" lon="9.317391601084598"><ele>92.0</ele><time>2026-04-06T07:02:08Z</time></trkpt><trkpt lat="45.35468838090882" lon="9.31750892077492"><ele>92.0</ele><time>2026-04-06T07:02:10Z</time></trkpt><trkpt lat="45.354698912202494" lon="9.317659081996716"><ele>92.0</ele><time>2026-04-06T07:02:13Z</time></trkpt><trkpt lat="45.35474683891368" lon="9.317748737826921"><ele>92.0</ele><time>2026-04-06T07:02:15Z</time></trkpt><trkpt lat="45.35478228152875" lon="9.31783903472954"><ele>92.0</ele><time>2026-04-06T07:02:17Z</time></trkpt><trkpt lat="45.35480719792039" lon="9.31792929652811"><ele>92.0</ele><time>2026-04-06T07:02:19Z</time></trkpt><trkpt lat="45.354846452484665" lon="9.318010593581338"><ele>92.0</ele><time>2026-04-06T07:02:21Z</time></trkpt><trkpt lat="45.35488096581948" lon="9.318099634566584"><ele>92.0</ele><time>2026-04-06T07:02:23Z</time></trkpt><trkpt lat="45.35492107895044" lon="9.318184563070078"><ele>92.0</ele><time>2026-04-06T07:02:25Z</time></trkpt><trkpt lat="45.354946062570534" lon="9.318285912822589"><ele>92.0</ele><time>2026-04-06T07:02:27Z</time></trkpt><trkpt lat="45.354984844224" lon="9.318380768281356"><ele>92.0</ele><time>2026-04-06T07:02:29Z</time></trkpt><trkpt lat="45.355018021739696" lon="9.318467536089537"><ele>92.0</ele><time>2026-04-06T07:02:31Z</time></trkpt><trkpt lat="45.35504951079878" lon="9.318553077298363"><ele>92.0</ele><time>2026-04-06T07:02:33Z</time></trkpt><trkpt lat="45.355092315459636" lon="9.31862042720957"><ele>92.0</ele><time>2026-04-06T07:02:39Z</time></trkpt><trkpt lat="45.35513173747684" lon="9.318712053783045"><ele>92.0</ele><time>2026-04-06T07:03:14Z</time></trkpt><trkpt lat="45.35520463320673" lon="9.318664710980045"><ele>92.0</ele><time>2026-04-06T07:03:18Z</time></trkpt><trkpt lat="45.355249943426394" lon="9.318758366824587"><ele>92.0</ele><time>2026-04-06T07:03:21Z</time></trkpt><trkpt lat="45.355313110476686" lon="9.318851923731222"><ele>92.0</ele><time>2026-04-06T07:03:24Z</time></trkpt><trkpt lat="45.355376946952894" lon="9.318946504575537"><ele>92.0</ele><time>2026-04-06T07:03:27Z</time></trkpt><trkpt lat="45.35540319979719" lon="9.319029325181292"><ele>92.16666666666667</ele><time>2026-04-06T07:03:29Z</time></trkpt><trkpt lat="45.35544171471618" lon="9.319146490135104"><ele>92.33333333333334</ele><time>2026-04-06T07:03:32Z</time></trkpt><trkpt lat="45.35548465607621" lon="9.319266712916031"><ele>92.5</ele><time>2026-04-06T07:03:35Z</time></trkpt><trkpt lat="45.355521639223305" lon="9.319341274650714"><ele>92.66666666666667</ele><time>2026-04-06T07:03:38Z</time></trkpt><trkpt lat="45.35559144573308" lon="9.319376918984455"><ele>92.83333333333333</ele><time>2026-04-06T07:03:41Z</time></trkpt><trkpt lat="45.3556739300216" lon="9.319340901617984"><ele>93.0</ele><time>2026-04-06T07:03:43Z</time></trkpt><trkpt lat="45.35575603117723" lon="9.319265306764317"><ele>93.0</ele><time>2026-04-06T07:03:45Z</time></trkpt><trkpt lat="45.355846521810676" lon="9.3192132289137"><ele>93.0</ele><time>2026-04-06T07:03:47Z</time></trkpt><trkpt lat="45.3559259326817" lon="9.319152430152545"><ele>93.0</ele><time>2026-04-06T07:03:49Z</time></trkpt><trkpt lat="45.35600445822827" lon="9.319109691486203"><ele>93.0</ele><time>2026-04-06T07:03:51Z</time></trkpt><trkpt lat="45.35606427958114" lon="9.319049935726774"><ele>93.0</ele><time>2026-04-06T07:03:54Z</time></trkpt><trkpt lat="45.356003046908555" lon="9.31912025105908"><ele>93.0</ele><time>2026-04-06T07:04:05Z</time></trkpt><trkpt lat="45.35593637819273" lon="9.319167868081559"><ele>93.0</ele><time>2026-04-06T07:04:07Z</time></trkpt><trkpt lat="45.355864355226274" lon="9.319204119908058"><ele>93.0</ele><time>2026-04-06T07:04:09Z</time></trkpt><trkpt lat="45.3557883426418" lon="9.319247411980468"><ele>93.0</ele><time>2026-04-06T07:04:11Z</time></trkpt><trkpt lat="45.35571532668597" lon="9.319284273401692"><ele>93.0</ele><time>2026-04-06T07:04:13Z</time></trkpt><trkpt lat="45.35565313729648" lon="9.31933061601357"><ele>93.0</ele><time>2026-04-06T07:04:15Z</time></trkpt><trkpt lat="45.355575284888666" lon="9.319338099166727"><ele>93.0</ele><time>2026-04-06T07:04:18Z</time></trkpt><trkpt lat="45.35555673177794" lon="9.31943486790392"><ele>93.0</ele><time>2026-04-06T07:04:24Z</time></trkpt><trkpt lat="45.3556041949046" lon="9.319503811206715"><ele>93.0</ele><time>2026-04-06T07:04:26Z</time></trkpt><trkpt lat="45.355645673273706" lon="9.319584237720052"><ele>93.0</ele><time>2026-04-06T07:04:28Z</time></trkpt><trkpt lat="45.355688194458665" lon="9.319669391567494"><ele>93.0</ele><time>2026-04-06T07:04:32Z</time></trkpt><trkpt lat="45.35574640796034" lon="9.319757424494947"><ele>93.0</ele><time>2026-04-06T07:04:34Z</time></trkpt><trkpt lat="45.35573871025838" lon="9.31996269272005"><ele>93.0</ele><time>2026-04-06T07:04:36Z</time></trkpt><trkpt lat="45.35580962553189" lon="9.320040813177012"><ele>93.16666666666667</ele><time>2026-04-06T07:04:38Z</time></trkpt><trkpt lat="45.35583211557264" lon="9.320130008631203"><ele>93.33333333333333</ele><time>2026-04-06T07:04:43Z</time></trkpt><trkpt lat="45.35588408690999" lon="9.32018086586184"><ele>93.5</ele><time>2026-04-06T07:04:46Z</time></trkpt><trkpt lat="45.35592461555908" lon="9.320277373388135"><ele>93.66666666666666</ele><time>2026-04-06T07:04:48Z</time></trkpt><trkpt lat="45.355942020325045" lon="9.320422182752708"><ele>93.83333333333333</ele><time>2026-04-06T07:04:50Z</time></trkpt><trkpt lat="45.35597872068332" lon="9.320556664593058"><ele>94.0</ele><time>2026-04-06T07:04:52Z</time></trkpt><trkpt lat="45.35603704089004" lon="9.320695238047866"><ele>94.0</ele><time>2026-04-06T07:04:54Z</time></trkpt><trkpt lat="45.35608413071693" lon="9.32082865055155"><ele>94.0</ele><time>2026-04-06T07:04:56Z</time></trkpt><trkpt lat="45.35613555478266" lon="9.320960009644535"><ele>94.0</ele><time>2026-04-06T07:04:58Z</time></trkpt><trkpt lat="45.35618698121489" lon="9.32108501755317"><ele>94.0</ele><time>2026-04-06T07:05:00Z</time></trkpt><trkpt lat="45.356229580172375" lon="9.321208050137553"><ele>94.0</ele><time>2026-04-06T07:05:02Z</time></trkpt><trkpt lat="45.356277898943866" lon="9.321326508447644"><ele>94.0</ele><time>2026-04-06T07:05:04Z</time></trkpt><trkpt lat="45.356324978785906" lon="9.321460241088824"><ele>94.0</ele><time>2026-04-06T07:05:06Z</time></trkpt><trkpt lat="45.35637681848797" lon="9.321581938676989"><ele>94.0</ele><time>2026-04-06T07:05:08Z</time></trkpt><trkpt lat="45.35641556364466" lon="9.321701619944935"><ele>94.0</ele><time>2026-04-06T07:05:10Z</time></trkpt><trkpt lat="45.35645904943653" lon="9.321827781970827"><ele>94.0</ele><time>2026-04-06T07:05:12Z</time></trkpt><trkpt lat="45.35650065146083" lon="9.321963020978204"><ele>94.0</ele><time>2026-04-06T07:05:14Z</time></trkpt><trkpt lat="45.356545140798346" lon="9.322096258805873"><ele>94.0</ele><time>2026-04-06T07:05:16Z</time></trkpt><trkpt lat="45.35658923353852" lon="9.322233213273977"><ele>94.0</ele><time>2026-04-06T07:05:18Z</time></trkpt><trkpt lat="45.35664567530226" lon="9.322362067566182"><ele>94.0</ele><time>2026-04-06T07:05:20Z</time></trkpt><trkpt lat="45.35668978264075" lon="9.322489279573915"><ele>94.0</ele><time>2026-04-06T07:05:22Z</time></trkpt><trkpt lat="45.35673688217954" lon="9.322614281878158"><ele>94.0</ele><time>2026-04-06T07:05:24Z</time></trkpt><trkpt lat="45.3567712138811" lon="9.322736490675302"><ele>94.0</ele><time>2026-04-06T07:05:26Z</time></trkpt><trkpt lat="45.35679493729673" lon="9.322846752144486"><ele>94.0</ele><time>2026-04-06T07:05:28Z</time></trkpt><trkpt lat="45.35681267289077" lon="9.322948535237563"><ele>94.0</ele><time>2026-04-06T07:05:30Z</time></trkpt><trkpt lat="45.35689209745187" lon="9.323038657466284"><ele>94.0</ele><time>2026-04-06T07:05:33Z</time></trkpt><trkpt lat="45.35695555544267" lon="9.32310357912909"><ele>94.0</ele><time>2026-04-06T07:05:35Z</time></trkpt><trkpt lat="45.356987932392954" lon="9.32320205530761"><ele>93.85714285714286</ele><time>2026-04-06T07:05:37Z</time></trkpt><trkpt lat="45.35700944002675" lon="9.323309096065"><ele>93.71428571428571</ele><time>2026-04-06T07:05:39Z</time></trkpt><trkpt lat="45.35706583979133" lon="9.323396826449049"><ele>93.57142857142858</ele><time>2026-04-06T07:05:41Z</time></trkpt><trkpt lat="45.3571014064325" lon="9.32348818916452"><ele>93.42857142857143</ele><time>2026-04-06T07:05:43Z</time></trkpt><trkpt lat="45.35712890837117" lon="9.32358309355539"><ele>93.28571428571429</ele><time>2026-04-06T07:05:45Z</time></trkpt><trkpt lat="45.3571435959444" lon="9.323677624783452"><ele>93.14285714285715</ele><time>2026-04-06T07:05:47Z</time></trkpt><trkpt lat="45.35716195250618" lon="9.323766301452387"><ele>93.0</ele><time>2026-04-06T07:05:49Z</time></trkpt><trkpt lat="45.35718624547091" lon="9.32388484627131"><ele>93.5</ele><time>2026-04-06T07:05:52Z</time></trkpt><trkpt lat="45.357216419951264" lon="9.324001279402482"><ele>94.0</ele><time>2026-04-06T07:05:55Z</time></trkpt><trkpt lat="45.357285749477036" lon="9.324069451332837"><ele>94.5</ele><time>2026-04-06T07:05:58Z</time></trkpt><trkpt lat="45.35731359484064" lon="9.32415494110499"><ele>95.0</ele><time>2026-04-06T07:06:00Z</time></trkpt><trkpt lat="45.357346914324225" lon="9.324265992870375"><ele>95.5</ele><time>2026-04-06T07:06:03Z</time></trkpt><trkpt lat="45.357392726925816" lon="9.324363466200499"><ele>96.0</ele><time>2026-04-06T07:06:05Z</time></trkpt><trkpt lat="45.35743624850693" lon="9.324451383004792"><ele>95.99999999999999</ele><time>2026-04-06T07:06:07Z</time></trkpt><trkpt lat="45.357486108639975" lon="9.324538709963656"><ele>96.0</ele><time>2026-04-06T07:06:09Z</time></trkpt><trkpt lat="45.35754254134435" lon="9.324611529312273"><ele>96.0</ele><time>2026-04-06T07:06:11Z</time></trkpt><trkpt lat="45.35757886961387" lon="9.324717393983503"><ele>96.0</ele><time>2026-04-06T07:06:14Z</time></trkpt><trkpt lat="45.357589405738814" lon="9.32480824755213"><ele>96.0</ele><time>2026-04-06T07:06:17Z</time></trkpt><trkpt lat="45.357537711430574" lon="9.32488657018184"><ele>95.99999999999999</ele><time>2026-04-06T07:06:21Z</time></trkpt><trkpt lat="45.35752041372677" lon="9.32498186945676"><ele>96.0</ele><time>2026-04-06T07:06:24Z</time></trkpt><trkpt lat="45.3574718742779" lon="9.325077763777186"><ele>95.42857142857142</ele><time>2026-04-06T07:06:27Z</time></trkpt><trkpt lat="45.35747341235956" lon="9.325203015229757"><ele>94.85714285714286</ele><time>2026-04-06T07:06:30Z</time></trkpt><trkpt lat="45.35748424435362" lon="9.325298226593018"><ele>94.28571428571428</ele><time>2026-04-06T07:06:32Z</time></trkpt><trkpt lat="45.35748474905525" lon="9.325395063659458"><ele>93.71428571428571</ele><time>2026-04-06T07:06:34Z</time></trkpt><trkpt lat="45.35746888366588" lon="9.32549412288253"><ele>93.14285714285714</ele><time>2026-04-06T07:06:36Z</time></trkpt><trkpt lat="45.357480260615" lon="9.325593874204094"><ele>92.57142857142857</ele><time>2026-04-06T07:06:38Z</time></trkpt><trkpt lat="45.35749589398576" lon="9.325705929352182"><ele>92.0</ele><time>2026-04-06T07:06:40Z</time></trkpt><trkpt lat="45.3575061886788" lon="9.325840834477464"><ele>90.19999999999999</ele><time>2026-04-06T07:06:42Z</time></trkpt><trkpt lat="45.35750358247592" lon="9.325978250145441"><ele>88.4</ele><time>2026-04-06T07:06:44Z</time></trkpt><trkpt lat="45.35749597383927" lon="9.326131856634161"><ele>86.6</ele><time>2026-04-06T07:06:46Z</time></trkpt><trkpt lat="45.35749169753404" lon="9.326270652532136"><ele>84.80000000000001</ele><time>2026-04-06T07:06:48Z</time></trkpt><trkpt lat="45.35749296667819" lon="9.326416223248787"><ele>83.0</ele><time>2026-04-06T07:06:50Z</time></trkpt><trkpt lat="45.35749514286346" lon="9.326559212588602"><ele>82.2</ele><time>2026-04-06T07:06:52Z</time></trkpt><trkpt lat="45.357505153637334" lon="9.326689330995375"><ele>81.4</ele><time>2026-04-06T07:06:54Z</time></trkpt><trkpt lat="45.357546198169544" lon="9.326823656402885"><ele>80.60000000000001</ele><time>2026-04-06T07:06:56Z</time></trkpt><trkpt lat="45.35760097167871" lon="9.326957908333647"><ele>79.80000000000001</ele><time>2026-04-06T07:06:58Z</time></trkpt><trkpt lat="45.35765136081372" lon="9.32709242952227"><ele>79.0</ele><time>2026-04-06T07:07:00Z</time></trkpt><trkpt lat="45.35770550068798" lon="9.32722086469887"><ele>80.4</ele><time>2026-04-06T07:07:02Z</time></trkpt><trkpt lat="45.35776645523244" lon="9.327337003442087"><ele>81.80000000000001</ele><time>2026-04-06T07:07:04Z</time></trkpt><trkpt lat="45.357817897988916" lon="9.32745843076921"><ele>83.19999999999999</ele><time>2026-04-06T07:07:06Z</time></trkpt><trkpt lat="45.35787209388494" lon="9.327581988727982"><ele>84.6</ele><time>2026-04-06T07:07:08Z</time></trkpt><trkpt lat="45.357921493611066" lon="9.327710349088017"><ele>86.0</ele><time>2026-04-06T07:07:10Z</time></trkpt><trkpt lat="45.357979670733926" lon="9.327822596828607"><ele>86.0</ele><time>2026-04-06T07:07:12Z</time></trkpt><trkpt lat="45.35803016522482" lon="9.327940738228964"><ele>86.0</ele><time>2026-04-06T07:07:14Z</time></trkpt><trkpt lat="45.35807976720136" lon="9.328064776235756"><ele>86.0</ele><time>2026-04-06T07:07:16Z</time></trkpt><trkpt lat="45.35813134093316" lon="9.328185549952714"><ele>86.0</ele><time>2026-04-06T07:07:18Z</time></trkpt><trkpt lat="45.35818180237489" lon="9.32830038320519"><ele>86.0</ele><time>2026-04-06T07:07:20Z</time></trkpt><trkpt lat="45.35823049414048" lon="9.328413630860775"><ele>86.0</ele><time>2026-04-06T07:07:22Z</time></trkpt><trkpt lat="45.35827959975128" lon="9.32852567931643"><ele>86.0</ele><time>2026-04-06T07:07:24Z</time></trkpt><trkpt lat="45.3583316876469" lon="9.328629696135746"><ele>86.0</ele><time>2026-04-06T07:07:26Z</time></trkpt><trkpt lat="45.35838535105075" lon="9.328735964639309"><ele>86.0</ele><time>2026-04-06T07:07:28Z</time></trkpt><trkpt lat="45.35843237255005" lon="9.328831807001398"><ele>86.0</ele><time>2026-04-06T07:07:30Z</time></trkpt><trkpt lat="45.358465434418235" lon="9.328916233412922"><ele>86.0</ele><time>2026-04-06T07:07:32Z</time></trkpt><trkpt lat="45.358501892829196" lon="9.328990140196412"><ele>86.33333333333334</ele><time>2026-04-06T07:07:34Z</time></trkpt><trkpt lat="45.358554977128684" lon="9.32906904628755"><ele>86.66666666666667</ele><time>2026-04-06T07:07:36Z</time></trkpt><trkpt lat="45.358615970226424" lon="9.329137920323081"><ele>87.0</ele><time>2026-04-06T07:07:38Z</time></trkpt><trkpt lat="45.35869132035667" lon="9.329191662388945"><ele>87.33333333333333</ele><time>2026-04-06T07:07:40Z</time></trkpt><trkpt lat="45.35877495160376" lon="9.329213456335697"><ele>87.66666666666666</ele><time>2026-04-06T07:07:42Z</time></trkpt><trkpt lat="45.35886595758218" lon="9.329224291016184"><ele>88.0</ele><time>2026-04-06T07:07:44Z</time></trkpt><trkpt lat="45.3589390719257" lon="9.329228124637053"><ele>87.33333333333333</ele><time>2026-04-06T07:07:46Z</time></trkpt><trkpt lat="45.359008254068236" lon="9.329225064036285"><ele>86.66666666666666</ele><time>2026-04-06T07:07:47Z</time></trkpt><trkpt lat="45.35910193398266" lon="9.329228649536116"><ele>86.0</ele><time>2026-04-06T07:07:49Z</time></trkpt><trkpt lat="45.35919943255337" lon="9.329233142247126"><ele>85.33333333333333</ele><time>2026-04-06T07:07:51Z</time></trkpt><trkpt lat="45.359292635000195" lon="9.329244946204104"><ele>84.66666666666667</ele><time>2026-04-06T07:07:53Z</time></trkpt><trkpt lat="45.35938699153949" lon="9.329265019448814"><ele>84.0</ele><time>2026-04-06T07:07:55Z</time></trkpt><trkpt lat="45.35948762771423" lon="9.329279126513068"><ele>84.0</ele><time>2026-04-06T07:07:57Z</time></trkpt><trkpt lat="45.359588044188634" lon="9.329296319390997"><ele>84.0</ele><time>2026-04-06T07:07:59Z</time></trkpt><trkpt lat="45.359688703235015" lon="9.329316812882867"><ele>84.0</ele><time>2026-04-06T07:08:01Z</time></trkpt><trkpt lat="45.359788906533176" lon="9.329336675439585"><ele>84.0</ele><time>2026-04-06T07:08:03Z</time></trkpt><trkpt lat="45.359891951572486" lon="9.329352981473889"><ele>84.0</ele><time>2026-04-06T07:08:05Z</time></trkpt><trkpt lat="45.35998871111368" lon="9.32936676058338"><ele>83.80000000000001</ele><time>2026-04-06T07:08:07Z</time></trkpt><trkpt lat="45.36008679801257" lon="9.329384102406772"><ele>83.60000000000001</ele><time>2026-04-06T07:08:09Z</time></trkpt><trkpt lat="45.36018390377927" lon="9.329389657710472"><ele>83.4</ele><time>2026-04-06T07:08:11Z</time></trkpt><trkpt lat="45.36027331872522" lon="9.329397498855242"><ele>83.2</ele><time>2026-04-06T07:08:13Z</time></trkpt><trkpt lat="45.360368238347725" lon="9.329406076380762"><ele>83.0</ele><time>2026-04-06T07:08:15Z</time></trkpt><trkpt lat="45.36046421989434" lon="9.329431103919504"><ele>83.80000000000001</ele><time>2026-04-06T07:08:17Z</time></trkpt><trkpt lat="45.36055791349987" lon="9.329438115223477"><ele>84.6</ele><time>2026-04-06T07:08:19Z</time></trkpt><trkpt lat="45.36065351456057" lon="9.329450717470223"><ele>85.4</ele><time>2026-04-06T07:08:21Z</time></trkpt><trkpt lat="45.36074789514557" lon="9.329464311207587"><ele>86.19999999999999</ele><time>2026-04-06T07:08:23Z</time></trkpt><trkpt lat="45.360842988068086" lon="9.329475286312817"><ele>87.0</ele><time>2026-04-06T07:08:25Z</time></trkpt><trkpt lat="45.36093582784586" lon="9.329491852211511"><ele>87.0</ele><time>2026-04-06T07:08:27Z</time></trkpt><trkpt lat="45.36101051897763" lon="9.329502733207981"><ele>87.0</ele><time>2026-04-06T07:08:30Z</time></trkpt><trkpt lat="45.3610938351278" lon="9.329506095037917"><ele>87.0</ele><time>2026-04-06T07:10:09Z</time></trkpt><trkpt lat="45.36116814442787" lon="9.329537412380898"><ele>87.0</ele><time>2026-04-06T07:10:12Z</time></trkpt><trkpt lat="45.3612450562882" lon="9.329545425938823"><ele>87.0</ele><time>2026-04-06T07:10:14Z</time></trkpt><trkpt lat="45.36133321146864" lon="9.329565495859459"><ele>87.0</ele><time>2026-04-06T07:10:16Z</time></trkpt><trkpt lat="45.361407262318835" lon="9.32956363168977"><ele>86.66666666666667</ele><time>2026-04-06T07:10:18Z</time></trkpt><trkpt lat="45.361483556995935" lon="9.329573265365267"><ele>86.33333333333333</ele><time>2026-04-06T07:10:20Z</time></trkpt><trkpt lat="45.36156484833815" lon="9.329595677750754"><ele>86.0</ele><time>2026-04-06T07:10:22Z</time></trkpt><trkpt lat="45.361650255398" lon="9.329612771102996"><ele>85.66666666666666</ele><time>2026-04-06T07:10:24Z</time></trkpt><trkpt lat="45.361735630195284" lon="9.329624907276697"><ele>85.33333333333333</ele><time>2026-04-06T07:10:26Z</time></trkpt><trkpt lat="45.36182555227604" lon="9.329633705397367"><ele>85.0</ele><time>2026-04-06T07:10:28Z</time></trkpt><trkpt lat="45.36192259750901" lon="9.32966076183541"><ele>85.0</ele><time>2026-04-06T07:10:30Z</time></trkpt><trkpt lat="45.36201333300584" lon="9.329680034409941"><ele>85.0</ele><time>2026-04-06T07:10:32Z</time></trkpt><trkpt lat="45.362101739111885" lon="9.329692961159026"><ele>85.0</ele><time>2026-04-06T07:10:34Z</time></trkpt><trkpt lat="45.3621922448484" lon="9.329709588841212"><ele>85.0</ele><time>2026-04-06T07:10:36Z</time></trkpt><trkpt lat="45.362283408057245" lon="9.329732272710542"><ele>85.0</ele><time>2026-04-06T07:10:38Z</time></trkpt><trkpt lat="45.36237693111563" lon="9.329742806189973"><ele>85.33333333333333</ele><time>2026-04-06T07:10:40Z</time></trkpt><trkpt lat="45.362458799121114" lon="9.329778812173172"><ele>85.66666666666666</ele><time>2026-04-06T07:10:42Z</time></trkpt><trkpt lat="45.36252256011677" lon="9.329855958779076"><ele>86.0</ele><time>2026-04-06T07:10:44Z</time></trkpt><trkpt lat="45.362606582102224" lon="9.329867071867527"><ele>86.33333333333333</ele><time>2026-04-06T07:10:46Z</time></trkpt><trkpt lat="45.36270174859143" lon="9.329882204733982"><ele>86.66666666666667</ele><time>2026-04-06T07:10:48Z</time></trkpt><trkpt lat="45.36278659009389" lon="9.329915707965625"><ele>87.0</ele><time>2026-04-06T07:10:50Z</time></trkpt><trkpt lat="45.36287925266272" lon="9.329935134185538"><ele>87.0</ele><time>2026-04-06T07:10:52Z</time></trkpt><trkpt lat="45.36294196982845" lon="9.329957426618247"><ele>87.0</ele><time>2026-04-06T07:10:54Z</time></trkpt><trkpt lat="45.362999069790504" lon="9.33005331645352"><ele>87.0</ele><time>2026-04-06T07:10:57Z</time></trkpt><trkpt lat="45.36304373207473" lon="9.33018154542644"><ele>87.0</ele><time>2026-04-06T07:10:59Z</time></trkpt><trkpt lat="45.363091465868976" lon="9.330311555531004"><ele>87.0</ele><time>2026-04-06T07:11:01Z</time></trkpt><trkpt lat="45.36312113589932" lon="9.330447261125737"><ele>86.0</ele><time>2026-04-06T07:11:03Z</time></trkpt><trkpt lat="45.3631541263839" lon="9.33057010277338"><ele>85.0</ele><time>2026-04-06T07:11:05Z</time></trkpt><trkpt lat="45.36318918206289" lon="9.330700786920698"><ele>84.0</ele><time>2026-04-06T07:11:07Z</time></trkpt><trkpt lat="45.36322570059346" lon="9.330832378437627"><ele>83.0</ele><time>2026-04-06T07:11:09Z</time></trkpt><trkpt lat="45.36326113224052" lon="9.33096350872528"><ele>82.0</ele><time>2026-04-06T07:11:11Z</time></trkpt><trkpt lat="45.36329553947389" lon="9.331097141068964"><ele>82.0</ele><time>2026-04-06T07:11:13Z</time></trkpt><trkpt lat="45.363333096528756" lon="9.331237765690203"><ele>82.0</ele><time>2026-04-06T07:11:15Z</time></trkpt><trkpt lat="45.36336970958096" lon="9.331390318532488"><ele>82.0</ele><time>2026-04-06T07:11:17Z</time></trkpt><trkpt lat="45.363410218098906" lon="9.331559345734037"><ele>82.0</ele><time>2026-04-06T07:11:19Z</time></trkpt><trkpt lat="45.36343750543746" lon="9.331649806178516"><ele>82.0</ele><time>2026-04-06T07:11:20Z</time></trkpt><trkpt lat="45.363460721706524" lon="9.331743572504857"><ele>82.42857142857142</ele><time>2026-04-06T07:11:21Z</time></trkpt><trkpt lat="45.36348111584089" lon="9.33184264376979"><ele>82.85714285714286</ele><time>2026-04-06T07:11:22Z</time></trkpt><trkpt lat="45.36350251406433" lon="9.33193958251857"><ele>83.28571428571428</ele><time>2026-04-06T07:11:23Z</time></trkpt><trkpt lat="45.36352379244578" lon="9.332035615350698"><ele>83.71428571428571</ele><time>2026-04-06T07:11:24Z</time></trkpt><trkpt lat="45.363546053231985" lon="9.332136486015619"><ele>84.14285714285714</ele><time>2026-04-06T07:11:25Z</time></trkpt><trkpt lat="45.36356908674342" lon="9.332232407404867"><ele>84.57142857142857</ele><time>2026-04-06T07:11:26Z</time></trkpt><trkpt lat="45.363598505706435" lon="9.332329170843062"><ele>85.0</ele><time>2026-04-06T07:11:27Z</time></trkpt><trkpt lat="45.363620526321064" lon="9.332424395781752"><ele>85.0</ele><time>2026-04-06T07:11:28Z</time></trkpt><trkpt lat="45.36363911034694" lon="9.332519251361767"><ele>85.0</ele><time>2026-04-06T07:11:29Z</time></trkpt><trkpt lat="45.36365546660221" lon="9.33261278273349"><ele>85.0</ele><time>2026-04-06T07:11:30Z</time></trkpt><trkpt lat="45.36367966451166" lon="9.3327075398376"><ele>85.0</ele><time>2026-04-06T07:11:31Z</time></trkpt><trkpt lat="45.36370116841346" lon="9.33279565752365"><ele>85.0</ele><time>2026-04-06T07:11:32Z</time></trkpt><trkpt lat="45.36371389212577" lon="9.33288624306563"><ele>85.0</ele><time>2026-04-06T07:11:33Z</time></trkpt><trkpt lat="45.36375296185183" lon="9.333050028526161"><ele>84.25</ele><time>2026-04-06T07:11:35Z</time></trkpt><trkpt lat="45.36378354319321" lon="9.333212693097709"><ele>83.5</ele><time>2026-04-06T07:11:37Z</time></trkpt><trkpt lat="45.36382014399757" lon="9.333366915673889"><ele>82.75</ele><time>2026-04-06T07:11:39Z</time></trkpt><trkpt lat="45.36385218527836" lon="9.333523348670676"><ele>82.0</ele><time>2026-04-06T07:11:41Z</time></trkpt><trkpt lat="45.36389010384012" lon="9.333700283344752"><ele>81.83333333333333</ele><time>2026-04-06T07:11:43Z</time></trkpt><trkpt lat="45.3639274809655" lon="9.333773700707768"><ele>81.66666666666666</ele><time>2026-04-06T07:11:44Z</time></trkpt><trkpt lat="45.363935557430686" lon="9.33388147618428"><ele>81.5</ele><time>2026-04-06T07:11:45Z</time></trkpt><trkpt lat="45.363949050362564" lon="9.333984388311077"><ele>81.33333333333333</ele><time>2026-04-06T07:11:46Z</time></trkpt><trkpt lat="45.363968506951565" lon="9.334082616928388"><ele>81.16666666666667</ele><time>2026-04-06T07:11:47Z</time></trkpt><trkpt lat="45.36401110793562" lon="9.334253489777494"><ele>81.0</ele><time>2026-04-06T07:11:49Z</time></trkpt><trkpt lat="45.364025657393846" lon="9.334341885337667"><ele>81.0</ele><time>2026-04-06T07:11:50Z</time></trkpt><trkpt lat="45.36404103377728" lon="9.33443272949158"><ele>81.0</ele><time>2026-04-06T07:11:51Z</time></trkpt><trkpt lat="45.36407931973459" lon="9.33459683328148"><ele>81.0</ele><time>2026-04-06T07:11:53Z</time></trkpt><trkpt lat="45.36411701092079" lon="9.33475720258363"><ele>81.0</ele><time>2026-04-06T07:11:55Z</time></trkpt><trkpt lat="45.36415346201218" lon="9.334908144260606"><ele>81.0</ele><time>2026-04-06T07:11:57Z</time></trkpt><trkpt lat="45.36419234151195" lon="9.335057206818464"><ele>81.6</ele><time>2026-04-06T07:11:59Z</time></trkpt><trkpt lat="45.36422367744894" lon="9.335199656807445"><ele>82.19999999999999</ele><time>2026-04-06T07:12:01Z</time></trkpt><trkpt lat="45.36425854389025" lon="9.335339085209336"><ele>82.80000000000001</ele><time>2026-04-06T07:12:03Z</time></trkpt><trkpt lat="45.36429532075479" lon="9.335463090488876"><ele>83.4</ele><time>2026-04-06T07:12:05Z</time></trkpt><trkpt lat="45.36432443189358" lon="9.335587159304907"><ele>84.0</ele><time>2026-04-06T07:12:07Z</time></trkpt><trkpt lat="45.364359705582274" lon="9.335710089039141"><ele>84.2</ele><time>2026-04-06T07:12:09Z</time></trkpt><trkpt lat="45.36439790987666" lon="9.335837004067868"><ele>84.4</ele><time>2026-04-06T07:12:11Z</time></trkpt><trkpt lat="45.36443352334834" lon="9.335969166852017"><ele>84.6</ele><time>2026-04-06T07:12:13Z</time></trkpt><trkpt lat="45.36446692219139" lon="9.336100125341886"><ele>84.8</ele><time>2026-04-06T07:12:15Z</time></trkpt><trkpt lat="45.36450530727501" lon="9.336232100339757"><ele>85.0</ele><time>2026-04-06T07:12:17Z</time></trkpt><trkpt lat="45.36454048210059" lon="9.336364531927089"><ele>85.0</ele><time>2026-04-06T07:12:19Z</time></trkpt><trkpt lat="45.36457613858454" lon="9.336486413490887"><ele>85.0</ele><time>2026-04-06T07:12:21Z</time></trkpt><trkpt lat="45.364613589863524" lon="9.336606264462999"><ele>85.0</ele><time>2026-04-06T07:12:23Z</time></trkpt><trkpt lat="45.364651641816344" lon="9.336713434106965"><ele>85.0</ele><time>2026-04-06T07:12:25Z</time></trkpt><trkpt lat="45.36469327949391" lon="9.336805596947423"><ele>85.0</ele><time>2026-04-06T07:12:27Z</time></trkpt><trkpt lat="45.364774744409" lon="9.336822605428043"><ele>85.0</ele><time>2026-04-06T07:12:29Z</time></trkpt><trkpt lat="45.36487495070543" lon="9.336781128990046"><ele>85.0</ele><time>2026-04-06T07:12:31Z</time></trkpt><trkpt lat="45.36498929383341" lon="9.336743526956871"><ele>85.0</ele><time>2026-04-06T07:12:33Z</time></trkpt><trkpt lat="45.36505112218508" lon="9.336719215710385"><ele>85.0</ele><time>2026-04-06T07:12:34Z</time></trkpt><trkpt lat="45.36517186203164" lon="9.336685688506636"><ele>85.0</ele><time>2026-04-06T07:12:36Z</time></trkpt><trkpt lat="45.36528957949835" lon="9.336652501750391"><ele>85.0</ele><time>2026-04-06T07:12:38Z</time></trkpt><trkpt lat="45.36538716532556" lon="9.336618255917994"><ele>85.0</ele><time>2026-04-06T07:12:40Z</time></trkpt><trkpt lat="45.36544915166126" lon="9.336601417645335"><ele>85.0</ele><time>2026-04-06T07:12:41Z</time></trkpt><trkpt lat="45.36557231347112" lon="9.33657169158879"><ele>85.0</ele><time>2026-04-06T07:12:43Z</time></trkpt><trkpt lat="45.365690439087196" lon="9.336528983632846"><ele>85.0</ele><time>2026-04-06T07:12:45Z</time></trkpt><trkpt lat="45.36581133434817" lon="9.33649767112392"><ele>85.0</ele><time>2026-04-06T07:12:47Z</time></trkpt><trkpt lat="45.36592831331651" lon="9.33645978430924"><ele>85.0</ele><time>2026-04-06T07:12:49Z</time></trkpt><trkpt lat="45.3660475949538" lon="9.336429747524734"><ele>85.0</ele><time>2026-04-06T07:12:51Z</time></trkpt><trkpt lat="45.36616815530372" lon="9.336390226202365"><ele>85.0</ele><time>2026-04-06T07:12:53Z</time></trkpt><trkpt lat="45.36628179623046" lon="9.336355618325141"><ele>85.0</ele><time>2026-04-06T07:12:55Z</time></trkpt><trkpt lat="45.366388681241574" lon="9.336326289806353"><ele>85.2</ele><time>2026-04-06T07:12:57Z</time></trkpt><trkpt lat="45.366499572927886" lon="9.33629569193639"><ele>85.4</ele><time>2026-04-06T07:12:59Z</time></trkpt><trkpt lat="45.366601820165776" lon="9.33626998207747"><ele>85.6</ele><time>2026-04-06T07:13:01Z</time></trkpt><trkpt lat="45.366687779940555" lon="9.336320514061978"><ele>85.8</ele><time>2026-04-06T07:13:03Z</time></trkpt><trkpt lat="45.36679405299744" lon="9.336320301152664"><ele>86.0</ele><time>2026-04-06T07:13:05Z</time></trkpt><trkpt lat="45.366903981638785" lon="9.336278006712249"><ele>86.0</ele><time>2026-04-06T07:13:07Z</time></trkpt><trkpt lat="45.36701772589292" lon="9.33625003083447"><ele>86.0</ele><time>2026-04-06T07:13:09Z</time></trkpt><trkpt lat="45.36713091155375" lon="9.336226488049968"><ele>86.0</ele><time>2026-04-06T07:13:11Z</time></trkpt><trkpt lat="45.36724322830669" lon="9.33619782023019"><ele>86.0</ele><time>2026-04-06T07:13:13Z</time></trkpt><trkpt lat="45.3673572989888" lon="9.336154221240612"><ele>85.5</ele><time>2026-04-06T07:13:15Z</time></trkpt><trkpt lat="45.36747463176333" lon="9.336125053259744"><ele>85.0</ele><time>2026-04-06T07:13:17Z</time></trkpt><trkpt lat="45.367595025941064" lon="9.336102644231785"><ele>84.5</ele><time>2026-04-06T07:13:19Z</time></trkpt><trkpt lat="45.36770495947856" lon="9.336120913476128"><ele>84.0</ele><time>2026-04-06T07:13:21Z</time></trkpt><trkpt lat="45.36780262762737" lon="9.336140756491693"><ele>84.0</ele><time>2026-04-06T07:13:23Z</time></trkpt><trkpt lat="45.367895610764215" lon="9.336170140852209"><ele>84.0</ele><time>2026-04-06T07:13:25Z</time></trkpt><trkpt lat="45.36800403066467" lon="9.33619033300161"><ele>84.0</ele><time>2026-04-06T07:13:27Z</time></trkpt><trkpt lat="45.36811408691696" lon="9.336189389233192"><ele>84.0</ele><time>2026-04-06T07:13:29Z</time></trkpt><trkpt lat="45.36822155905041" lon="9.336131389906862"><ele>84.0</ele><time>2026-04-06T07:13:31Z</time></trkpt><trkpt lat="45.368316598597374" lon="9.336021545749869"><ele>83.85714285714286</ele><time>2026-04-06T07:13:33Z</time></trkpt><trkpt lat="45.36837037405362" lon="9.335968570769307"><ele>83.71428571428572</ele><time>2026-04-06T07:13:34Z</time></trkpt><trkpt lat="45.368465839054444" lon="9.335883742297455"><ele>83.57142857142857</ele><time>2026-04-06T07:13:36Z</time></trkpt><trkpt lat="45.368523045870546" lon="9.335843549994722"><ele>83.42857142857143</ele><time>2026-04-06T07:13:37Z</time></trkpt><trkpt lat="45.368581863076145" lon="9.33579328610253"><ele>83.28571428571429</ele><time>2026-04-06T07:13:38Z</time></trkpt><trkpt lat="45.36863432340705" lon="9.335734249648896"><ele>83.14285714285714</ele><time>2026-04-06T07:13:39Z</time></trkpt><trkpt lat="45.36868519118451" lon="9.335680125868734"><ele>83.0</ele><time>2026-04-06T07:13:40Z</time></trkpt><trkpt lat="45.368741256217085" lon="9.335634892479979"><ele>83.0</ele><time>2026-04-06T07:13:41Z</time></trkpt><trkpt lat="45.368801166269634" lon="9.335596526811113"><ele>83.0</ele><time>2026-04-06T07:13:42Z</time></trkpt><trkpt lat="45.368864373275315" lon="9.335562585269297"><ele>83.0</ele><time>2026-04-06T07:13:43Z</time></trkpt><trkpt lat="45.368924170194866" lon="9.33553127672207"><ele>83.0</ele><time>2026-04-06T07:13:44Z</time></trkpt><trkpt lat="45.36898456846625" lon="9.335493733152378"><ele>83.0</ele><time>2026-04-06T07:13:45Z</time></trkpt><trkpt lat="45.36904098160726" lon="9.33545216800977"><ele>83.0</ele><time>2026-04-06T07:13:46Z</time></trkpt><trkpt lat="45.369099894047274" lon="9.335413842907261"><ele>83.0</ele><time>2026-04-06T07:13:47Z</time></trkpt><trkpt lat="45.36916062686277" lon="9.335380104406758"><ele>82.80000000000001</ele><time>2026-04-06T07:13:48Z</time></trkpt><trkpt lat="45.3692194115517" lon="9.335343459641496"><ele>82.6</ele><time>2026-04-06T07:13:49Z</time></trkpt><trkpt lat="45.36928071746607" lon="9.335307756864058"><ele>82.4</ele><time>2026-04-06T07:13:50Z</time></trkpt><trkpt lat="45.36939403365906" lon="9.33523858944813"><ele>82.19999999999999</ele><time>2026-04-06T07:13:52Z</time></trkpt><trkpt lat="45.369508847743745" lon="9.335166262262948"><ele>82.0</ele><time>2026-04-06T07:13:54Z</time></trkpt><trkpt lat="45.3696233842354" lon="9.335097011271914"><ele>82.25</ele><time>2026-04-06T07:13:56Z</time></trkpt><trkpt lat="45.36973322099515" lon="9.335027352068233"><ele>82.5</ele><time>2026-04-06T07:13:58Z</time></trkpt><trkpt lat="45.36985106637817" lon="9.334938596987879"><ele>82.75</ele><time>2026-04-06T07:14:00Z</time></trkpt><trkpt lat="45.36993843545456" lon="9.334856691156867"><ele>83.0</ele><time>2026-04-06T07:14:02Z</time></trkpt><trkpt lat="45.37002720832721" lon="9.334766785828485"><ele>83.0</ele><time>2026-04-06T07:14:04Z</time></trkpt><trkpt lat="45.3701377948143" lon="9.334735162934672"><ele>83.0</ele><time>2026-04-06T07:14:06Z</time></trkpt><trkpt lat="45.37024575323799" lon="9.334699396624979"><ele>83.0</ele><time>2026-04-06T07:14:08Z</time></trkpt><trkpt lat="45.37037406803428" lon="9.334715486585397"><ele>83.0</ele><time>2026-04-06T07:14:10Z</time></trkpt><trkpt lat="45.370442640551566" lon="9.334726053616984"><ele>83.0</ele><time>2026-04-06T07:14:11Z</time></trkpt><trkpt lat="45.370520584734585" lon="9.33471177614419"><ele>83.0</ele><time>2026-04-06T07:14:12Z</time></trkpt><trkpt lat="45.370607826077155" lon="9.334664162963254"><ele>83.0</ele><time>2026-04-06T07:14:13Z</time></trkpt><trkpt lat="45.3706793574241" lon="9.334609669187437"><ele>83.0</ele><time>2026-04-06T07:14:14Z</time></trkpt><trkpt lat="45.37074282934164" lon="9.334550226908933"><ele>83.0</ele><time>2026-04-06T07:14:15Z</time></trkpt><trkpt lat="45.370801139842676" lon="9.334504505741386"><ele>83.0</ele><time>2026-04-06T07:14:16Z</time></trkpt><trkpt lat="45.37086771170568" lon="9.334471597899416"><ele>83.0</ele><time>2026-04-06T07:14:17Z</time></trkpt><trkpt lat="45.37096211284987" lon="9.33437310464813"><ele>83.0</ele><time>2026-04-06T07:14:19Z</time></trkpt><trkpt lat="45.37102953543537" lon="9.334269384305232"><ele>83.0</ele><time>2026-04-06T07:14:21Z</time></trkpt><trkpt lat="45.371102620570085" lon="9.334188784933323"><ele>83.0</ele><time>2026-04-06T07:14:23Z</time></trkpt><trkpt lat="45.371182833995896" lon="9.334119096379755"><ele>83.0</ele><time>2026-04-06T07:14:25Z</time></trkpt><trkpt lat="45.37127024837356" lon="9.334064419945664"><ele>83.0</ele><time>2026-04-06T07:14:27Z</time></trkpt><trkpt lat="45.37137599379247" lon="9.334059597123634"><ele>83.60000000000001</ele><time>2026-04-06T07:14:29Z</time></trkpt><trkpt lat="45.37148033283286" lon="9.334066555509834"><ele>84.2</ele><time>2026-04-06T07:14:31Z</time></trkpt><trkpt lat="45.37157603397224" lon="9.334123110730419"><ele>84.8</ele><time>2026-04-06T07:14:33Z</time></trkpt><trkpt lat="45.371659176978284" lon="9.334201090499205"><ele>85.4</ele><time>2026-04-06T07:14:35Z</time></trkpt><trkpt lat="45.3717451274209" lon="9.334270226193425"><ele>86.0</ele><time>2026-04-06T07:14:37Z</time></trkpt><trkpt lat="45.3718319782817" lon="9.334341532380716"><ele>86.0</ele><time>2026-04-06T07:14:39Z</time></trkpt><trkpt lat="45.37191877467892" lon="9.33440545068696"><ele>86.0</ele><time>2026-04-06T07:14:41Z</time></trkpt><trkpt lat="45.37200863588549" lon="9.334470014734508"><ele>86.0</ele><time>2026-04-06T07:14:43Z</time></trkpt><trkpt lat="45.37209841166487" lon="9.334543858637883"><ele>86.0</ele><time>2026-04-06T07:14:45Z</time></trkpt><trkpt lat="45.37219041155112" lon="9.334613071871129"><ele>86.0</ele><time>2026-04-06T07:14:47Z</time></trkpt><trkpt lat="45.37228394161616" lon="9.334682876998281"><ele>86.0</ele><time>2026-04-06T07:14:49Z</time></trkpt><trkpt lat="45.37238474831369" lon="9.334751245432994"><ele>86.0</ele><time>2026-04-06T07:14:51Z</time></trkpt><trkpt lat="45.372483246642545" lon="9.334829794070918"><ele>86.0</ele><time>2026-04-06T07:14:53Z</time></trkpt><trkpt lat="45.37257639968378" lon="9.334904903165231"><ele>86.0</ele><time>2026-04-06T07:14:55Z</time></trkpt><trkpt lat="45.37266509751628" lon="9.334975440898049"><ele>86.0</ele><time>2026-04-06T07:14:57Z</time></trkpt><trkpt lat="45.37275692673048" lon="9.335046622683612"><ele>86.0</ele><time>2026-04-06T07:14:59Z</time></trkpt><trkpt lat="45.37284610494027" lon="9.335117922380181"><ele>86.0</ele><time>2026-04-06T07:15:01Z</time></trkpt><trkpt lat="45.37293784757913" lon="9.335188028100026"><ele>86.0</ele><time>2026-04-06T07:15:03Z</time></trkpt><trkpt lat="45.373025173328166" lon="9.335253037492206"><ele>86.0</ele><time>2026-04-06T07:15:05Z</time></trkpt><trkpt lat="45.37311154197917" lon="9.33532426586102"><ele>86.0</ele><time>2026-04-06T07:15:07Z</time></trkpt><trkpt lat="45.37320075891395" lon="9.335388479370204"><ele>85.8</ele><time>2026-04-06T07:15:09Z</time></trkpt><trkpt lat="45.37328680355729" lon="9.335456503202217"><ele>85.6</ele><time>2026-04-06T07:15:11Z</time></trkpt><trkpt lat="45.37337245452584" lon="9.335514325362503"><ele>85.4</ele><time>2026-04-06T07:15:13Z</time></trkpt><trkpt lat="45.373464192914234" lon="9.3354982212971"><ele>85.2</ele><time>2026-04-06T07:15:15Z</time></trkpt><trkpt lat="45.373546377959705" lon="9.335466525620033"><ele>85.0</ele><time>2026-04-06T07:15:17Z</time></trkpt><trkpt lat="45.373635426663625" lon="9.335522437919556"><ele>85.0</ele><time>2026-04-06T07:15:19Z</time></trkpt><trkpt lat="45.37369395748733" lon="9.335597158466447"><ele>85.0</ele><time>2026-04-06T07:15:21Z</time></trkpt><trkpt lat="45.37376942970118" lon="9.335641989052931"><ele>85.0</ele><time>2026-04-06T07:15:23Z</time></trkpt><trkpt lat="45.37384064816556" lon="9.335694762419438"><ele>85.0</ele><time>2026-04-06T07:15:25Z</time></trkpt><trkpt lat="45.37391200215461" lon="9.335759102248385"><ele>85.0</ele><time>2026-04-06T07:15:27Z</time></trkpt><trkpt lat="45.373989164179875" lon="9.335817981917467"><ele>85.0</ele><time>2026-04-06T07:15:29Z</time></trkpt><trkpt lat="45.37407130304819" lon="9.335875176340057"><ele>85.0</ele><time>2026-04-06T07:15:31Z</time></trkpt><trkpt lat="45.374151547480025" lon="9.335942671350384"><ele>85.0</ele><time>2026-04-06T07:15:33Z</time></trkpt><trkpt lat="45.374235183172296" lon="9.336005846329138"><ele>85.0</ele><time>2026-04-06T07:15:35Z</time></trkpt><trkpt lat="45.374318498684204" lon="9.336070402523672"><ele>85.0</ele><time>2026-04-06T07:15:37Z</time></trkpt><trkpt lat="45.37440269280109" lon="9.336134176770207"><ele>85.0</ele><time>2026-04-06T07:15:39Z</time></trkpt><trkpt lat="45.37448683547723" lon="9.336203186552295"><ele>85.0</ele><time>2026-04-06T07:15:41Z</time></trkpt><trkpt lat="45.37456898444743" lon="9.336262168798607"><ele>85.0</ele><time>2026-04-06T07:15:43Z</time></trkpt><trkpt lat="45.374651182211146" lon="9.336325918677735"><ele>85.0</ele><time>2026-04-06T07:15:45Z</time></trkpt><trkpt lat="45.37473148061844" lon="9.336385298603957"><ele>85.0</ele><time>2026-04-06T07:15:47Z</time></trkpt><trkpt lat="45.3748110241101" lon="9.336450690701987"><ele>85.0</ele><time>2026-04-06T07:15:49Z</time></trkpt><trkpt lat="45.37488827865383" lon="9.336513801388614"><ele>85.2</ele><time>2026-04-06T07:15:51Z</time></trkpt><trkpt lat="45.37497533551427" lon="9.336561451695195"><ele>85.4</ele><time>2026-04-06T07:15:53Z</time></trkpt><trkpt lat="45.375053472478115" lon="9.336641526374857"><ele>85.6</ele><time>2026-04-06T07:15:55Z</time></trkpt><trkpt lat="45.37514135543809" lon="9.336706573222619"><ele>85.8</ele><time>2026-04-06T07:15:57Z</time></trkpt><trkpt lat="45.37523028903279" lon="9.336771314071122"><ele>86.0</ele><time>2026-04-06T07:15:59Z</time></trkpt><trkpt lat="45.37531034654754" lon="9.336844409863524"><ele>86.0</ele><time>2026-04-06T07:16:01Z</time></trkpt><trkpt lat="45.37539922480461" lon="9.336905310966213"><ele>86.0</ele><time>2026-04-06T07:16:03Z</time></trkpt><trkpt lat="45.37548415356571" lon="9.336974621105947"><ele>86.0</ele><time>2026-04-06T07:16:05Z</time></trkpt><trkpt lat="45.375573757903204" lon="9.33703622860782"><ele>86.0</ele><time>2026-04-06T07:16:07Z</time></trkpt><trkpt lat="45.375660847806095" lon="9.337110311339035"><ele>86.0</ele><time>2026-04-06T07:16:09Z</time></trkpt><trkpt lat="45.37574983138371" lon="9.337176026233342"><ele>85.8</ele><time>2026-04-06T07:16:11Z</time></trkpt><trkpt lat="45.37584094530228" lon="9.3372432049514"><ele>85.6</ele><time>2026-04-06T07:16:13Z</time></trkpt><trkpt lat="45.37593160417605" lon="9.337308439073935"><ele>85.4</ele><time>2026-04-06T07:16:15Z</time></trkpt><trkpt lat="45.37602448666235" lon="9.337371005089214"><ele>85.2</ele><time>2026-04-06T07:16:17Z</time></trkpt><trkpt lat="45.37611224226628" lon="9.337434438658828"><ele>85.0</ele><time>2026-04-06T07:16:19Z</time></trkpt><trkpt lat="45.376196555590305" lon="9.337493898715799"><ele>85.0</ele><time>2026-04-06T07:16:21Z</time></trkpt><trkpt lat="45.37628077462141" lon="9.33755831425685"><ele>85.0</ele><time>2026-04-06T07:16:23Z</time></trkpt><trkpt lat="45.37638006242123" lon="9.337620308282796"><ele>85.0</ele><time>2026-04-06T07:16:25Z</time></trkpt><trkpt lat="45.37646551987294" lon="9.337682543229704"><ele>85.0</ele><time>2026-04-06T07:16:27Z</time></trkpt><trkpt lat="45.37655063843758" lon="9.337746491654643"><ele>85.0</ele><time>2026-04-06T07:16:29Z</time></trkpt><trkpt lat="45.376636839468254" lon="9.33781439584407"><ele>84.8</ele><time>2026-04-06T07:16:31Z</time></trkpt><trkpt lat="45.376727131641815" lon="9.33788152229378"><ele>84.6</ele><time>2026-04-06T07:16:33Z</time></trkpt><trkpt lat="45.376812485859354" lon="9.337956384400293"><ele>84.4</ele><time>2026-04-06T07:16:35Z</time></trkpt><trkpt lat="45.37690594293148" lon="9.338023400808614"><ele>84.2</ele><time>2026-04-06T07:16:37Z</time></trkpt><trkpt lat="45.376997337462186" lon="9.338094362644961"><ele>84.0</ele><time>2026-04-06T07:16:39Z</time></trkpt><trkpt lat="45.37709016322828" lon="9.338168164573457"><ele>84.4</ele><time>2026-04-06T07:16:41Z</time></trkpt><trkpt lat="45.37718281118492" lon="9.338240204705482"><ele>84.80000000000001</ele><time>2026-04-06T07:16:43Z</time></trkpt><trkpt lat="45.377275497690185" lon="9.338306604846336"><ele>85.19999999999999</ele><time>2026-04-06T07:16:45Z</time></trkpt><trkpt lat="45.377362275910684" lon="9.33837472037122"><ele>85.6</ele><time>2026-04-06T07:16:47Z</time></trkpt><trkpt lat="45.377448686696354" lon="9.338439798028546"><ele>86.0</ele><time>2026-04-06T07:16:49Z</time></trkpt><trkpt lat="45.37753137149573" lon="9.33850259433605"><ele>86.0</ele><time>2026-04-06T07:16:51Z</time></trkpt><trkpt lat="45.37761334534645" lon="9.338551796717926"><ele>86.0</ele><time>2026-04-06T07:16:53Z</time></trkpt><trkpt lat="45.377687219679295" lon="9.338617518613718"><ele>86.0</ele><time>2026-04-06T07:16:55Z</time></trkpt><trkpt lat="45.37777500971899" lon="9.338691317293822"><ele>86.0</ele><time>2026-04-06T07:16:57Z</time></trkpt><trkpt lat="45.37787065906872" lon="9.33875922301863"><ele>86.0</ele><time>2026-04-06T07:16:59Z</time></trkpt><trkpt lat="45.37796013129571" lon="9.338837880532383"><ele>86.6</ele><time>2026-04-06T07:17:01Z</time></trkpt><trkpt lat="45.37806141019862" lon="9.33891071766849"><ele>87.19999999999999</ele><time>2026-04-06T07:17:03Z</time></trkpt><trkpt lat="45.37815783486178" lon="9.338986095000628"><ele>87.80000000000001</ele><time>2026-04-06T07:17:05Z</time></trkpt><trkpt lat="45.37824408847175" lon="9.339052294733888"><ele>88.4</ele><time>2026-04-06T07:17:07Z</time></trkpt><trkpt lat="45.37834332744269" lon="9.33901848787039"><ele>89.0</ele><time>2026-04-06T07:17:09Z</time></trkpt><trkpt lat="45.37842674443838" lon="9.338937675328266"><ele>89.2</ele><time>2026-04-06T07:17:11Z</time></trkpt><trkpt lat="45.378512238556965" lon="9.338868129672745"><ele>89.4</ele><time>2026-04-06T07:17:13Z</time></trkpt><trkpt lat="45.37859601501332" lon="9.338801169450814"><ele>89.6</ele><time>2026-04-06T07:17:15Z</time></trkpt><trkpt lat="45.37868130531525" lon="9.338737209961854"><ele>89.8</ele><time>2026-04-06T07:17:17Z</time></trkpt><trkpt lat="45.37876889508883" lon="9.338663402583549"><ele>90.0</ele><time>2026-04-06T07:17:19Z</time></trkpt><trkpt lat="45.378855617394784" lon="9.338592970939501"><ele>90.16666666666667</ele><time>2026-04-06T07:17:21Z</time></trkpt><trkpt lat="45.378949551086436" lon="9.338549111493295"><ele>90.33333333333333</ele><time>2026-04-06T07:17:23Z</time></trkpt><trkpt lat="45.379045321684174" lon="9.338531152537142"><ele>90.5</ele><time>2026-04-06T07:17:25Z</time></trkpt><trkpt lat="45.379122882743474" lon="9.33849884667554"><ele>90.66666666666666</ele><time>2026-04-06T07:17:27Z</time></trkpt><trkpt lat="45.379197356786726" lon="9.338465384292906"><ele>90.83333333333333</ele><time>2026-04-06T07:17:30Z</time></trkpt><trkpt lat="45.379253697709586" lon="9.338552665239488"><ele>91.0</ele><time>2026-04-06T07:17:34Z</time></trkpt><trkpt lat="45.37927252511214" lon="9.338683294284989"><ele>91.0</ele><time>2026-04-06T07:17:36Z</time></trkpt><trkpt lat="45.37931912254721" lon="9.338801226508"><ele>91.0</ele><time>2026-04-06T07:17:38Z</time></trkpt><trkpt lat="45.37937035931358" lon="9.338921240921565"><ele>91.0</ele><time>2026-04-06T07:17:40Z</time></trkpt><trkpt lat="45.379425910734284" lon="9.339042333493447"><ele>91.0</ele><time>2026-04-06T07:17:42Z</time></trkpt><trkpt lat="45.37947603073349" lon="9.339167905245862"><ele>91.0</ele><time>2026-04-06T07:17:44Z</time></trkpt><trkpt lat="45.37951159918174" lon="9.339311650433016"><ele>90.5</ele><time>2026-04-06T07:17:46Z</time></trkpt><trkpt lat="45.379470536515534" lon="9.33946684686304"><ele>90.0</ele><time>2026-04-06T07:17:48Z</time></trkpt><trkpt lat="45.37941476442661" lon="9.3395108756009"><ele>89.5</ele><time>2026-04-06T07:17:49Z</time></trkpt><trkpt lat="45.379313410465876" lon="9.339561590324605"><ele>89.0</ele><time>2026-04-06T07:17:51Z</time></trkpt><trkpt lat="45.379258188183286" lon="9.339655590939312"><ele>88.5</ele><time>2026-04-06T07:17:54Z</time></trkpt><trkpt lat="45.37921824935494" lon="9.339728787045235"><ele>88.0</ele><time>2026-04-06T07:17:57Z</time></trkpt><trkpt lat="45.379223343424925" lon="9.339841941735664"><ele>88.0</ele><time>2026-04-06T07:18:04Z</time></trkpt><trkpt lat="45.37927609571374" lon="9.33989984175711"><ele>88.0</ele><time>2026-04-06T07:18:06Z</time></trkpt><trkpt lat="45.3793399845046" lon="9.339937794745243"><ele>88.0</ele><time>2026-04-06T07:18:09Z</time></trkpt><trkpt lat="45.37939953362342" lon="9.339998868441779"><ele>88.0</ele><time>2026-04-06T07:18:12Z</time></trkpt><trkpt lat="45.37945984114481" lon="9.340038837305457"><ele>88.0</ele><time>2026-04-06T07:18:14Z</time></trkpt><trkpt lat="45.37953012221283" lon="9.340063806784396"><ele>88.0</ele><time>2026-04-06T07:18:16Z</time></trkpt><trkpt lat="45.379589227509406" lon="9.340109391061176"><ele>88.0</ele><time>2026-04-06T07:18:21Z</time></trkpt><trkpt lat="45.3796251602377" lon="9.340184166336869"><ele>88.0</ele><time>2026-04-06T07:18:27Z</time></trkpt><trkpt lat="45.37962330989232" lon="9.340282911899953"><ele>88.0</ele><time>2026-04-06T07:18:51Z</time></trkpt><trkpt lat="45.379676967807406" lon="9.340387507784602"><ele>88.0</ele><time>2026-04-06T07:18:55Z</time></trkpt><trkpt lat="45.379753782091335" lon="9.340435485651458"><ele>88.0</ele><time>2026-04-06T07:18:57Z</time></trkpt><trkpt lat="45.37982773641457" lon="9.340497312003404"><ele>88.0</ele><time>2026-04-06T07:18:59Z</time></trkpt><trkpt lat="45.37989612842719" lon="9.340551188370691"><ele>88.0</ele><time>2026-04-06T07:19:01Z</time></trkpt><trkpt lat="45.37996589705874" lon="9.340608032260354"><ele>88.60000000000001</ele><time>2026-04-06T07:19:03Z</time></trkpt><trkpt lat="45.380039533392015" lon="9.340665299428442"><ele>89.2</ele><time>2026-04-06T07:19:05Z</time></trkpt><trkpt lat="45.38012992805542" lon="9.340743345315927"><ele>89.8</ele><time>2026-04-06T07:19:07Z</time></trkpt><trkpt lat="45.380213311451044" lon="9.340830147973135"><ele>90.4</ele><time>2026-04-06T07:19:09Z</time></trkpt><trkpt lat="45.38029350649975" lon="9.340919653808346"><ele>91.0</ele><time>2026-04-06T07:19:11Z</time></trkpt><trkpt lat="45.380361743137925" lon="9.341038173863135"><ele>91.0</ele><time>2026-04-06T07:19:13Z</time></trkpt><trkpt lat="45.38040207728882" lon="9.341188838674809"><ele>91.0</ele><time>2026-04-06T07:19:15Z</time></trkpt><trkpt lat="45.38040238607081" lon="9.341358580473953"><ele>91.0</ele><time>2026-04-06T07:19:17Z</time></trkpt><trkpt lat="45.380397467227596" lon="9.341526693178132"><ele>91.0</ele><time>2026-04-06T07:19:19Z</time></trkpt><trkpt lat="45.38037455874145" lon="9.341681703418697"><ele>91.0</ele><time>2026-04-06T07:19:21Z</time></trkpt><trkpt lat="45.380328007146495" lon="9.341825308330984"><ele>91.0</ele><time>2026-04-06T07:19:23Z</time></trkpt><trkpt lat="45.38027464367764" lon="9.341972007323156"><ele>91.0</ele><time>2026-04-06T07:19:25Z</time></trkpt><trkpt lat="45.380230523394616" lon="9.342121027333272"><ele>91.0</ele><time>2026-04-06T07:19:27Z</time></trkpt><trkpt lat="45.38019190381675" lon="9.34226416620277"><ele>91.0</ele><time>2026-04-06T07:19:29Z</time></trkpt><trkpt lat="45.38016045345851" lon="9.342412671250415"><ele>91.0</ele><time>2026-04-06T07:19:31Z</time></trkpt><trkpt lat="45.380147761640174" lon="9.342554588961775"><ele>91.0</ele><time>2026-04-06T07:19:33Z</time></trkpt><trkpt lat="45.38013683109721" lon="9.342684353468421"><ele>91.0</ele><time>2026-04-06T07:19:35Z</time></trkpt><trkpt lat="45.38016545643369" lon="9.342821277366054"><ele>91.0</ele><time>2026-04-06T07:19:37Z</time></trkpt><trkpt lat="45.380183537891504" lon="9.34295005249022"><ele>91.0</ele><time>2026-04-06T07:19:39Z</time></trkpt><trkpt lat="45.38023019164207" lon="9.343055980826833"><ele>91.0</ele><time>2026-04-06T07:19:41Z</time></trkpt><trkpt lat="45.380278230345596" lon="9.343153847669921"><ele>91.0</ele><time>2026-04-06T07:19:44Z</time></trkpt><trkpt lat="45.38030426656603" lon="9.34326052967706"><ele>91.0</ele><time>2026-04-06T07:19:46Z</time></trkpt><trkpt lat="45.38031900146393" lon="9.343409283559236"><ele>91.0</ele><time>2026-04-06T07:19:48Z</time></trkpt><trkpt lat="45.380344603495026" lon="9.343563471225172"><ele>91.0</ele><time>2026-04-06T07:19:50Z</time></trkpt><trkpt lat="45.380371034806565" lon="9.343718782880403"><ele>91.0</ele><time>2026-04-06T07:19:52Z</time></trkpt><trkpt lat="45.380388985624464" lon="9.343877331701304"><ele>91.0</ele><time>2026-04-06T07:19:54Z</time></trkpt><trkpt lat="45.38040831667025" lon="9.344041486579085"><ele>91.0</ele><time>2026-04-06T07:19:56Z</time></trkpt><trkpt lat="45.380437869408034" lon="9.344205913943844"><ele>91.0</ele><time>2026-04-06T07:19:58Z</time></trkpt><trkpt lat="45.38045380616324" lon="9.344373392727272"><ele>90.5</ele><time>2026-04-06T07:20:00Z</time></trkpt><trkpt lat="45.380480502555535" lon="9.344539657055227"><ele>90.0</ele><time>2026-04-06T07:20:02Z</time></trkpt><trkpt lat="45.38049779771821" lon="9.344699060992308"><ele>89.5</ele><time>2026-04-06T07:20:04Z</time></trkpt><trkpt lat="45.38052110630482" lon="9.344855050245227"><ele>89.0</ele><time>2026-04-06T07:20:06Z</time></trkpt><trkpt lat="45.38054194559583" lon="9.345011248788829"><ele>89.0</ele><time>2026-04-06T07:20:08Z</time></trkpt><trkpt lat="45.38055715314189" lon="9.345170574261273"><ele>89.0</ele><time>2026-04-06T07:20:10Z</time></trkpt><trkpt lat="45.38057722440604" lon="9.345321250302606"><ele>89.0</ele><time>2026-04-06T07:20:12Z</time></trkpt><trkpt lat="45.38059034769378" lon="9.34547628661575"><ele>89.0</ele><time>2026-04-06T07:20:14Z</time></trkpt><trkpt lat="45.38060538987525" lon="9.345628713302913"><ele>89.0</ele><time>2026-04-06T07:20:16Z</time></trkpt><trkpt lat="45.380623224207795" lon="9.345780115814431"><ele>89.0</ele><time>2026-04-06T07:20:18Z</time></trkpt><trkpt lat="45.38063720054404" lon="9.345933307941417"><ele>89.0</ele><time>2026-04-06T07:20:20Z</time></trkpt><trkpt lat="45.38065509076615" lon="9.346084139597593"><ele>89.0</ele><time>2026-04-06T07:20:22Z</time></trkpt><trkpt lat="45.380667936400954" lon="9.346237786173445"><ele>89.0</ele><time>2026-04-06T07:20:24Z</time></trkpt><trkpt lat="45.38068229402343" lon="9.346392443100868"><ele>89.0</ele><time>2026-04-06T07:20:26Z</time></trkpt><trkpt lat="45.38069807737014" lon="9.346547051990237"><ele>89.0</ele><time>2026-04-06T07:20:28Z</time></trkpt><trkpt lat="45.3807105554132" lon="9.346704923990867"><ele>89.0</ele><time>2026-04-06T07:20:30Z</time></trkpt><trkpt lat="45.380728631238775" lon="9.346863380655648"><ele>89.0</ele><time>2026-04-06T07:20:32Z</time></trkpt><trkpt lat="45.38073835200015" lon="9.347027905536223"><ele>89.0</ele><time>2026-04-06T07:20:34Z</time></trkpt><trkpt lat="45.380749160337565" lon="9.347188678475856"><ele>89.2</ele><time>2026-04-06T07:20:36Z</time></trkpt><trkpt lat="45.38076417121769" lon="9.347345490579261"><ele>89.4</ele><time>2026-04-06T07:20:38Z</time></trkpt><trkpt lat="45.38077440921594" lon="9.347498740354279"><ele>89.6</ele><time>2026-04-06T07:20:40Z</time></trkpt><trkpt lat="45.3808110614663" lon="9.347624481667765"><ele>89.8</ele><time>2026-04-06T07:20:42Z</time></trkpt><trkpt lat="45.380835779786196" lon="9.34772071587153"><ele>90.0</ele><time>2026-04-06T07:20:44Z</time></trkpt><trkpt lat="45.380846646562034" lon="9.34782707512689"><ele>90.0</ele><time>2026-04-06T07:20:46Z</time></trkpt><trkpt lat="45.38091812688839" lon="9.34791031318414"><ele>90.0</ele><time>2026-04-06T07:20:48Z</time></trkpt><trkpt lat="45.38101213662843" lon="9.347919754634292"><ele>90.0</ele><time>2026-04-06T07:20:50Z</time></trkpt><trkpt lat="45.38107635425851" lon="9.347898444998735"><ele>90.0</ele><time>2026-04-06T07:20:52Z</time></trkpt><trkpt lat="45.381106822228666" lon="9.347988895728264"><ele>90.0</ele><time>2026-04-06T07:20:54Z</time></trkpt><trkpt lat="45.38114795235055" lon="9.348100542379601"><ele>90.0</ele><time>2026-04-06T07:20:56Z</time></trkpt><trkpt lat="45.38116887612814" lon="9.348226636556252"><ele>90.16666666666667</ele><time>2026-04-06T07:20:58Z</time></trkpt><trkpt lat="45.381135188140945" lon="9.348327824880263"><ele>90.33333333333333</ele><time>2026-04-06T07:21:00Z</time></trkpt><trkpt lat="45.38104888971257" lon="9.348366102402514"><ele>90.5</ele><time>2026-04-06T07:21:02Z</time></trkpt><trkpt lat="45.38096956947764" lon="9.348392570152319"><ele>90.66666666666666</ele><time>2026-04-06T07:21:04Z</time></trkpt><trkpt lat="45.380931197063006" lon="9.348495591364664"><ele>90.83333333333333</ele><time>2026-04-06T07:21:06Z</time></trkpt><trkpt lat="45.38096835211991" lon="9.348623393369353"><ele>91.0</ele><time>2026-04-06T07:21:08Z</time></trkpt><trkpt lat="45.38098750065677" lon="9.34876136654876"><ele>91.19999999999999</ele><time>2026-04-06T07:21:10Z</time></trkpt><trkpt lat="45.38100888835604" lon="9.348901785575363"><ele>91.39999999999999</ele><time>2026-04-06T07:21:12Z</time></trkpt><trkpt lat="45.38103130357384" lon="9.34904534458523"><ele>91.6</ele><time>2026-04-06T07:21:14Z</time></trkpt><trkpt lat="45.381053658160134" lon="9.34919327762325"><ele>91.8</ele><time>2026-04-06T07:21:16Z</time></trkpt><trkpt lat="45.38107627085289" lon="9.349338954436032"><ele>92.0</ele><time>2026-04-06T07:21:18Z</time></trkpt><trkpt lat="45.38110337752585" lon="9.349492989058893"><ele>92.0</ele><time>2026-04-06T07:21:20Z</time></trkpt><trkpt lat="45.381125026516784" lon="9.349642903372521"><ele>92.0</ele><time>2026-04-06T07:21:22Z</time></trkpt><trkpt lat="45.381142317284144" lon="9.349785276278372"><ele>92.0</ele><time>2026-04-06T07:21:24Z</time></trkpt><trkpt lat="45.38118955524877" lon="9.349900916337024"><ele>92.0</ele><time>2026-04-06T07:21:26Z</time></trkpt><trkpt lat="45.38125310324226" lon="9.350010595118462"><ele>92.0</ele><time>2026-04-06T07:21:28Z</time></trkpt><trkpt lat="45.38127110679038" lon="9.350152474118147"><ele>91.8</ele><time>2026-04-06T07:21:30Z</time></trkpt><trkpt lat="45.381298447677764" lon="9.350286308526915"><ele>91.6</ele><time>2026-04-06T07:21:32Z</time></trkpt><trkpt lat="45.38133202429842" lon="9.350422582912334"><ele>91.39999999999999</ele><time>2026-04-06T07:21:34Z</time></trkpt><trkpt lat="45.38132929843845" lon="9.350562360442208"><ele>91.19999999999999</ele><time>2026-04-06T07:21:36Z</time></trkpt><trkpt lat="45.38139398636586" lon="9.350697981846837"><ele>91.0</ele><time>2026-04-06T07:21:38Z</time></trkpt><trkpt lat="45.38146183301701" lon="9.350826096640692"><ele>90.83333333333333</ele><time>2026-04-06T07:21:40Z</time></trkpt><trkpt lat="45.381516104461994" lon="9.350968860096021"><ele>90.66666666666666</ele><time>2026-04-06T07:21:42Z</time></trkpt><trkpt lat="45.38157234886888" lon="9.35109318524123"><ele>90.5</ele><time>2026-04-06T07:21:44Z</time></trkpt><trkpt lat="45.38162593625683" lon="9.351187002974537"><ele>90.33333333333333</ele><time>2026-04-06T07:21:46Z</time></trkpt><trkpt lat="45.38168778924094" lon="9.351217604923223"><ele>90.16666666666667</ele><time>2026-04-06T07:21:48Z</time></trkpt><trkpt lat="45.38175095792812" lon="9.351283273802556"><ele>90.0</ele><time>2026-04-06T07:21:50Z</time></trkpt><trkpt lat="45.38175493376105" lon="9.351418154837988"><ele>90.0</ele><time>2026-04-06T07:21:52Z</time></trkpt><trkpt lat="45.38178366392092" lon="9.351553385610982"><ele>90.0</ele><time>2026-04-06T07:21:54Z</time></trkpt><trkpt lat="45.381852076988686" lon="9.351665882764172"><ele>90.0</ele><time>2026-04-06T07:21:56Z</time></trkpt><trkpt lat="45.381911740332946" lon="9.351790666262279"><ele>90.0</ele><time>2026-04-06T07:21:58Z</time></trkpt><trkpt lat="45.38196330818565" lon="9.351921884626645"><ele>90.0</ele><time>2026-04-06T07:22:00Z</time></trkpt><trkpt lat="45.382003562044304" lon="9.352070916974053"><ele>90.0</ele><time>2026-04-06T07:22:02Z</time></trkpt><trkpt lat="45.38205430041443" lon="9.352213338533296"><ele>90.0</ele><time>2026-04-06T07:22:04Z</time></trkpt><trkpt lat="45.38211998800036" lon="9.352349959959248"><ele>90.0</ele><time>2026-04-06T07:22:06Z</time></trkpt><trkpt lat="45.382183964496235" lon="9.35249438273091"><ele>90.0</ele><time>2026-04-06T07:22:08Z</time></trkpt><trkpt lat="45.38221885955355" lon="9.352569642881608"><ele>90.0</ele><time>2026-04-06T07:22:09Z</time></trkpt><trkpt lat="45.38228395894832" lon="9.35271959435761"><ele>90.0</ele><time>2026-04-06T07:22:11Z</time></trkpt><trkpt lat="45.38234523703246" lon="9.352871416260772"><ele>90.0</ele><time>2026-04-06T07:22:13Z</time></trkpt><trkpt lat="45.38240921357305" lon="9.353024319393418"><ele>90.0</ele><time>2026-04-06T07:22:15Z</time></trkpt><trkpt lat="45.38246544639876" lon="9.353181284361197"><ele>90.0</ele><time>2026-04-06T07:22:17Z</time></trkpt><trkpt lat="45.382521059705724" lon="9.353332241432375"><ele>90.25</ele><time>2026-04-06T07:22:19Z</time></trkpt><trkpt lat="45.382593196984025" lon="9.353463883048395"><ele>90.5</ele><time>2026-04-06T07:22:21Z</time></trkpt><trkpt lat="45.38270521173341" lon="9.353530925450626"><ele>90.75</ele><time>2026-04-06T07:22:23Z</time></trkpt><trkpt lat="45.38282939803312" lon="9.353534764859846"><ele>91.0</ele><time>2026-04-06T07:22:25Z</time></trkpt><trkpt lat="45.38294821939555" lon="9.353507603913316"><ele>91.0</ele><time>2026-04-06T07:22:27Z</time></trkpt><trkpt lat="45.38306948963929" lon="9.353512102606658"><ele>91.0</ele><time>2026-04-06T07:22:29Z</time></trkpt><trkpt lat="45.383175731482716" lon="9.353576473158776"><ele>91.0</ele><time>2026-04-06T07:22:31Z</time></trkpt><trkpt lat="45.3832049375004" lon="9.353656722069163"><ele>91.0</ele><time>2026-04-06T07:22:32Z</time></trkpt><trkpt lat="45.383234390611285" lon="9.35373979296891"><ele>91.0</ele><time>2026-04-06T07:22:33Z</time></trkpt><trkpt lat="45.38326801670697" lon="9.353910323399267"><ele>90.85714285714286</ele><time>2026-04-06T07:22:35Z</time></trkpt><trkpt lat="45.38328483548084" lon="9.354001285527001"><ele>90.71428571428572</ele><time>2026-04-06T07:22:36Z</time></trkpt><trkpt lat="45.38330835717907" lon="9.354088245146121"><ele>90.57142857142857</ele><time>2026-04-06T07:22:37Z</time></trkpt><trkpt lat="45.38332899401431" lon="9.354174948561154"><ele>90.42857142857143</ele><time>2026-04-06T07:22:38Z</time></trkpt><trkpt lat="45.383341928235026" lon="9.35426413878948"><ele>90.28571428571429</ele><time>2026-04-06T07:22:39Z</time></trkpt><trkpt lat="45.3833542415104" lon="9.354354329622828"><ele>90.14285714285714</ele><time>2026-04-06T07:22:40Z</time></trkpt><trkpt lat="45.38336705743986" lon="9.354443097126131"><ele>90.0</ele><time>2026-04-06T07:22:41Z</time></trkpt><trkpt lat="45.383380364755794" lon="9.354532219433136"><ele>90.0</ele><time>2026-04-06T07:22:42Z</time></trkpt><trkpt lat="45.38339511258043" lon="9.354621197522244"><ele>90.0</ele><time>2026-04-06T07:22:43Z</time></trkpt><trkpt lat="45.38341051061402" lon="9.354710901409995"><ele>90.0</ele><time>2026-04-06T07:22:44Z</time></trkpt><trkpt lat="45.3834298151953" lon="9.354796373615773"><ele>90.0</ele><time>2026-04-06T07:22:45Z</time></trkpt><trkpt lat="45.383456040722294" lon="9.354970335186051"><ele>90.0</ele><time>2026-04-06T07:22:47Z</time></trkpt><trkpt lat="45.38347283042291" lon="9.355138748816904"><ele>90.0</ele><time>2026-04-06T07:22:49Z</time></trkpt><trkpt lat="45.38348101857232" lon="9.355304739018157"><ele>90.16666666666667</ele><time>2026-04-06T07:22:51Z</time></trkpt><trkpt lat="45.38348370954232" lon="9.355480296666494"><ele>90.33333333333333</ele><time>2026-04-06T07:22:53Z</time></trkpt><trkpt lat="45.38345785176495" lon="9.355573160117183"><ele>90.5</ele><time>2026-04-06T07:22:54Z</time></trkpt><trkpt lat="45.38342849990459" lon="9.35566370937536"><ele>90.66666666666666</ele><time>2026-04-06T07:22:55Z</time></trkpt><trkpt lat="45.3833974789443" lon="9.355759344990606"><ele>90.83333333333333</ele><time>2026-04-06T07:22:56Z</time></trkpt><trkpt lat="45.38336771149671" lon="9.355851328670926"><ele>91.0</ele><time>2026-04-06T07:22:57Z</time></trkpt><trkpt lat="45.38333770908487" lon="9.355941395797577"><ele>91.0</ele><time>2026-04-06T07:22:58Z</time></trkpt><trkpt lat="45.38330919113397" lon="9.356024257480962"><ele>91.0</ele><time>2026-04-06T07:22:59Z</time></trkpt><trkpt lat="45.38328273438321" lon="9.356114424641072"><ele>91.0</ele><time>2026-04-06T07:23:00Z</time></trkpt><trkpt lat="45.38325856474095" lon="9.356200125681628"><ele>91.0</ele><time>2026-04-06T07:23:01Z</time></trkpt><trkpt lat="45.38322806768124" lon="9.356279019248255"><ele>91.0</ele><time>2026-04-06T07:23:02Z</time></trkpt><trkpt lat="45.383177640716355" lon="9.356418893667358"><ele>91.0</ele><time>2026-04-06T07:23:04Z</time></trkpt><trkpt lat="45.383128705990735" lon="9.356539493154392"><ele>90.6</ele><time>2026-04-06T07:23:06Z</time></trkpt><trkpt lat="45.383075151376545" lon="9.356676291611837"><ele>90.19999999999999</ele><time>2026-04-06T07:23:08Z</time></trkpt><trkpt lat="45.38301642174866" lon="9.356808973832877"><ele>89.80000000000001</ele><time>2026-04-06T07:23:10Z</time></trkpt><trkpt lat="45.38296102002694" lon="9.356938087025984"><ele>89.4</ele><time>2026-04-06T07:23:12Z</time></trkpt><trkpt lat="45.38291333168735" lon="9.357056721303792"><ele>89.0</ele><time>2026-04-06T07:23:14Z</time></trkpt><trkpt lat="45.38286555564729" lon="9.357155014031827"><ele>89.33333333333334</ele><time>2026-04-06T07:23:16Z</time></trkpt><trkpt lat="45.38279795103497" lon="9.35721734889129"><ele>89.66666666666667</ele><time>2026-04-06T07:23:18Z</time></trkpt><trkpt lat="45.38274451819874" lon="9.357298367311579"><ele>90.0</ele><time>2026-04-06T07:23:20Z</time></trkpt><trkpt lat="45.382681063999534" lon="9.357399956474552"><ele>90.33333333333333</ele><time>2026-04-06T07:23:22Z</time></trkpt><trkpt lat="45.382632807857725" lon="9.357521438958479"><ele>90.66666666666666</ele><time>2026-04-06T07:23:24Z</time></trkpt><trkpt lat="45.3826090967922" lon="9.357646410373949"><ele>91.0</ele><time>2026-04-06T07:23:26Z</time></trkpt><trkpt lat="45.38258757948089" lon="9.357778134986123"><ele>91.0</ele><time>2026-04-06T07:23:28Z</time></trkpt><trkpt lat="45.38256031662708" lon="9.357908874730235"><ele>91.0</ele><time>2026-04-06T07:23:30Z</time></trkpt><trkpt lat="45.38254552927873" lon="9.358039277615873"><ele>91.0</ele><time>2026-04-06T07:23:32Z</time></trkpt><trkpt lat="45.38253825475729" lon="9.358166919531493"><ele>91.0</ele><time>2026-04-06T07:23:34Z</time></trkpt><trkpt lat="45.382535980572804" lon="9.35830260966153"><ele>91.0</ele><time>2026-04-06T07:23:36Z</time></trkpt><trkpt lat="45.38252120660671" lon="9.358439069768982"><ele>91.0</ele><time>2026-04-06T07:23:38Z</time></trkpt><trkpt lat="45.3825012361497" lon="9.358578674758478"><ele>91.0</ele><time>2026-04-06T07:23:40Z</time></trkpt><trkpt lat="45.382481916692676" lon="9.358723761628521"><ele>91.0</ele><time>2026-04-06T07:23:42Z</time></trkpt><trkpt lat="45.38245713391967" lon="9.358866459797152"><ele>91.0</ele><time>2026-04-06T07:23:44Z</time></trkpt><trkpt lat="45.38241637046102" lon="9.359005795309065"><ele>91.0</ele><time>2026-04-06T07:23:46Z</time></trkpt><trkpt lat="45.38239799807562" lon="9.359154582135346"><ele>91.0</ele><time>2026-04-06T07:23:48Z</time></trkpt><trkpt lat="45.382377685204055" lon="9.359311196439206"><ele>91.0</ele><time>2026-04-06T07:23:50Z</time></trkpt><trkpt lat="45.382357007903174" lon="9.359475311200875"><ele>91.0</ele><time>2026-04-06T07:23:52Z</time></trkpt><trkpt lat="45.38234653030926" lon="9.35964830842401"><ele>91.0</ele><time>2026-04-06T07:23:54Z</time></trkpt><trkpt lat="45.382331458513356" lon="9.35982114551393"><ele>91.0</ele><time>2026-04-06T07:23:56Z</time></trkpt><trkpt lat="45.38231759411886" lon="9.35998754651597"><ele>91.0</ele><time>2026-04-06T07:23:58Z</time></trkpt><trkpt lat="45.382299956610595" lon="9.360152771040896"><ele>91.0</ele><time>2026-04-06T07:24:00Z</time></trkpt><trkpt lat="45.38230129216793" lon="9.360320340174654"><ele>91.0</ele><time>2026-04-06T07:24:02Z</time></trkpt><trkpt lat="45.382313801573716" lon="9.360491553554068"><ele>91.0</ele><time>2026-04-06T07:24:04Z</time></trkpt><trkpt lat="45.38231949116314" lon="9.360658089616557"><ele>91.0</ele><time>2026-04-06T07:24:06Z</time></trkpt><trkpt lat="45.38234245337975" lon="9.360820606797093"><ele>91.0</ele><time>2026-04-06T07:24:08Z</time></trkpt><trkpt lat="45.382344341180776" lon="9.360992073689998"><ele>91.0</ele><time>2026-04-06T07:24:10Z</time></trkpt><trkpt lat="45.38235359038836" lon="9.361158373374728"><ele>91.0</ele><time>2026-04-06T07:24:12Z</time></trkpt><trkpt lat="45.3823577146577" lon="9.36131378057579"><ele>91.0</ele><time>2026-04-06T07:24:14Z</time></trkpt><trkpt lat="45.38235619740348" lon="9.361404206054239"><ele>91.0</ele><time>2026-04-06T07:24:15Z</time></trkpt><trkpt lat="45.38236020790079" lon="9.36156046127148"><ele>91.0</ele><time>2026-04-06T07:24:17Z</time></trkpt><trkpt lat="45.382371778583625" lon="9.361732345780316"><ele>91.0</ele><time>2026-04-06T07:24:19Z</time></trkpt><trkpt lat="45.38239021664353" lon="9.361878269235033"><ele>91.0</ele><time>2026-04-06T07:24:21Z</time></trkpt><trkpt lat="45.382408591827186" lon="9.362024531653555"><ele>91.0</ele><time>2026-04-06T07:24:23Z</time></trkpt><trkpt lat="45.38243632692725" lon="9.362174049360936"><ele>91.0</ele><time>2026-04-06T07:24:25Z</time></trkpt><trkpt lat="45.382469093983495" lon="9.362316235632623"><ele>91.0</ele><time>2026-04-06T07:24:27Z</time></trkpt><trkpt lat="45.38250308232671" lon="9.362460068215547"><ele>91.0</ele><time>2026-04-06T07:24:29Z</time></trkpt><trkpt lat="45.382511550343466" lon="9.362607051243275"><ele>91.4</ele><time>2026-04-06T07:24:31Z</time></trkpt><trkpt lat="45.38248415226195" lon="9.362741842792634"><ele>91.8</ele><time>2026-04-06T07:24:33Z</time></trkpt><trkpt lat="45.38245895144512" lon="9.362838042393863"><ele>92.2</ele><time>2026-04-06T07:24:35Z</time></trkpt><trkpt lat="45.38250907457352" lon="9.362948712017827"><ele>92.60000000000001</ele><time>2026-04-06T07:24:38Z</time></trkpt><trkpt lat="45.382603383499934" lon="9.362948244728559"><ele>93.0</ele><time>2026-04-06T07:24:40Z</time></trkpt><trkpt lat="45.3826994283419" lon="9.362940696870416"><ele>93.0</ele><time>2026-04-06T07:24:42Z</time></trkpt><trkpt lat="45.38279870330777" lon="9.362947308192144"><ele>93.0</ele><time>2026-04-06T07:24:44Z</time></trkpt><trkpt lat="45.38290530164699" lon="9.36295194900324"><ele>93.0</ele><time>2026-04-06T07:24:46Z</time></trkpt><trkpt lat="45.38301108948361" lon="9.362963071261888"><ele>93.0</ele><time>2026-04-06T07:24:48Z</time></trkpt><trkpt lat="45.3831156905311" lon="9.362968667690932"><ele>93.0</ele><time>2026-04-06T07:24:50Z</time></trkpt><trkpt lat="45.3832176654965" lon="9.362977940551074"><ele>92.4</ele><time>2026-04-06T07:24:52Z</time></trkpt><trkpt lat="45.38332163268908" lon="9.362985111500128"><ele>91.80000000000001</ele><time>2026-04-06T07:24:54Z</time></trkpt><trkpt lat="45.38342376371974" lon="9.362994665586841"><ele>91.2</ele><time>2026-04-06T07:24:56Z</time></trkpt><trkpt lat="45.38352307937101" lon="9.362986747759383"><ele>90.6</ele><time>2026-04-06T07:24:58Z</time></trkpt><trkpt lat="45.38361634332279" lon="9.362973675222818"><ele>90.0</ele><time>2026-04-06T07:25:00Z</time></trkpt><trkpt lat="45.383708212544285" lon="9.36298794752037"><ele>90.0</ele><time>2026-04-06T07:25:02Z</time></trkpt><trkpt lat="45.38375232283889" lon="9.363107668494944"><ele>90.0</ele><time>2026-04-06T07:25:04Z</time></trkpt><trkpt lat="45.38377932095757" lon="9.363243848193843"><ele>90.0</ele><time>2026-04-06T07:25:06Z</time></trkpt><trkpt lat="45.38383287203013" lon="9.363367158029556"><ele>90.0</ele><time>2026-04-06T07:25:08Z</time></trkpt><trkpt lat="45.383896853813354" lon="9.363479378646236"><ele>90.0</ele><time>2026-04-06T07:25:10Z</time></trkpt><trkpt lat="45.383944351283624" lon="9.36359684215722"><ele>89.8</ele><time>2026-04-06T07:25:12Z</time></trkpt><trkpt lat="45.38398368827323" lon="9.36370986186237"><ele>89.6</ele><time>2026-04-06T07:25:14Z</time></trkpt><trkpt lat="45.38399716141686" lon="9.363826338299107"><ele>89.4</ele><time>2026-04-06T07:25:16Z</time></trkpt><trkpt lat="45.38401172351285" lon="9.36395102159161"><ele>89.2</ele><time>2026-04-06T07:25:18Z</time></trkpt><trkpt lat="45.383995454874075" lon="9.364090785379064"><ele>89.0</ele><time>2026-04-06T07:25:20Z</time></trkpt><trkpt lat="45.383979699866416" lon="9.364248727972424"><ele>89.0</ele><time>2026-04-06T07:25:22Z</time></trkpt><trkpt lat="45.383927865106116" lon="9.364411936364487"><ele>89.0</ele><time>2026-04-06T07:25:24Z</time></trkpt><trkpt lat="45.38386615809792" lon="9.364557623139412"><ele>89.0</ele><time>2026-04-06T07:25:26Z</time></trkpt><trkpt lat="45.38384226694373" lon="9.36471260942984"><ele>89.0</ele><time>2026-04-06T07:25:28Z</time></trkpt><trkpt lat="45.383851841290365" lon="9.364864134873276"><ele>88.80000000000001</ele><time>2026-04-06T07:25:30Z</time></trkpt><trkpt lat="45.38387373345491" lon="9.365000522026207"><ele>88.60000000000001</ele><time>2026-04-06T07:25:32Z</time></trkpt><trkpt lat="45.38391814559827" lon="9.365140190076328"><ele>88.4</ele><time>2026-04-06T07:25:34Z</time></trkpt><trkpt lat="45.38398954285815" lon="9.365260891964557"><ele>88.2</ele><time>2026-04-06T07:25:36Z</time></trkpt><trkpt lat="45.38407594679509" lon="9.36535643746836"><ele>88.0</ele><time>2026-04-06T07:25:38Z</time></trkpt><trkpt lat="45.38418215948464" lon="9.365438747053405"><ele>88.0</ele><time>2026-04-06T07:25:40Z</time></trkpt><trkpt lat="45.38429182313214" lon="9.36551408809297"><ele>88.0</ele><time>2026-04-06T07:25:42Z</time></trkpt><trkpt lat="45.384347283499395" lon="9.365557101432184"><ele>88.0</ele><time>2026-04-06T07:25:43Z</time></trkpt><trkpt lat="45.38445149881718" lon="9.36565623512334"><ele>88.0</ele><time>2026-04-06T07:25:45Z</time></trkpt><trkpt lat="45.384534426310815" lon="9.365780306470443"><ele>88.0</ele><time>2026-04-06T07:25:47Z</time></trkpt><trkpt lat="45.3845742319136" lon="9.365850900601655"><ele>88.0</ele><time>2026-04-06T07:25:48Z</time></trkpt><trkpt lat="45.38464497653715" lon="9.36598564941706"><ele>88.0</ele><time>2026-04-06T07:25:50Z</time></trkpt><trkpt lat="45.38472189210359" lon="9.366107467325705"><ele>88.0</ele><time>2026-04-06T07:25:52Z</time></trkpt><trkpt lat="45.384792304820586" lon="9.366244308503783"><ele>88.0</ele><time>2026-04-06T07:25:54Z</time></trkpt><trkpt lat="45.38484683386759" lon="9.366390435162147"><ele>88.0</ele><time>2026-04-06T07:25:56Z</time></trkpt><trkpt lat="45.384884341698715" lon="9.366541951651392"><ele>88.0</ele><time>2026-04-06T07:25:58Z</time></trkpt><trkpt lat="45.3849213630503" lon="9.366698903225403"><ele>88.0</ele><time>2026-04-06T07:26:00Z</time></trkpt><trkpt lat="45.38499457366669" lon="9.366818213249106"><ele>88.0</ele><time>2026-04-06T07:26:02Z</time></trkpt><trkpt lat="45.385038683413796" lon="9.366943108743227"><ele>88.0</ele><time>2026-04-06T07:26:04Z</time></trkpt><trkpt lat="45.384980447655245" lon="9.367048575454769"><ele>88.0</ele><time>2026-04-06T07:26:06Z</time></trkpt><trkpt lat="45.38495719680224" lon="9.367157412054125"><ele>88.0</ele><time>2026-04-06T07:26:08Z</time></trkpt><trkpt lat="45.38501599443614" lon="9.367255675540736"><ele>88.0</ele><time>2026-04-06T07:26:10Z</time></trkpt><trkpt lat="45.385092734319784" lon="9.367338324931286"><ele>88.0</ele><time>2026-04-06T07:26:12Z</time></trkpt><trkpt lat="45.38516757746153" lon="9.367423596577611"><ele>88.0</ele><time>2026-04-06T07:26:14Z</time></trkpt><trkpt lat="45.38522780171776" lon="9.367530658708903"><ele>88.25</ele><time>2026-04-06T07:26:16Z</time></trkpt><trkpt lat="45.385307334606765" lon="9.367644714501516"><ele>88.5</ele><time>2026-04-06T07:26:18Z</time></trkpt><trkpt lat="45.385376518643156" lon="9.367796867924605"><ele>88.75</ele><time>2026-04-06T07:26:20Z</time></trkpt><trkpt lat="45.38543699568102" lon="9.367926005593842"><ele>89.0</ele><time>2026-04-06T07:26:22Z</time></trkpt><trkpt lat="45.38548391573354" lon="9.368062712251385"><ele>89.0</ele><time>2026-04-06T07:26:24Z</time></trkpt><trkpt lat="45.38554232428227" lon="9.368173580608177"><ele>89.0</ele><time>2026-04-06T07:26:26Z</time></trkpt><trkpt lat="45.38558079441402" lon="9.368300605061533"><ele>89.0</ele><time>2026-04-06T07:26:28Z</time></trkpt><trkpt lat="45.385626048988314" lon="9.36843969904618"><ele>89.0</ele><time>2026-04-06T07:26:30Z</time></trkpt><trkpt lat="45.38566438042243" lon="9.368580973399226"><ele>89.0</ele><time>2026-04-06T07:26:32Z</time></trkpt><trkpt lat="45.385704575251864" lon="9.368706476498717"><ele>89.0</ele><time>2026-04-06T07:26:34Z</time></trkpt><trkpt lat="45.38574106893713" lon="9.368829092895567"><ele>89.0</ele><time>2026-04-06T07:26:36Z</time></trkpt><trkpt lat="45.38579435538547" lon="9.368960773996625"><ele>89.0</ele><time>2026-04-06T07:26:38Z</time></trkpt><trkpt lat="45.38585252570079" lon="9.36908879189581"><ele>89.0</ele><time>2026-04-06T07:26:40Z</time></trkpt><trkpt lat="45.38590742560235" lon="9.369209857505117"><ele>89.0</ele><time>2026-04-06T07:26:42Z</time></trkpt><trkpt lat="45.38596295521332" lon="9.369331156600849"><ele>89.0</ele><time>2026-04-06T07:26:44Z</time></trkpt><trkpt lat="45.38602016551818" lon="9.369444408720353"><ele>89.0</ele><time>2026-04-06T07:26:46Z</time></trkpt><trkpt lat="45.38607001370563" lon="9.369576315744538"><ele>89.0</ele><time>2026-04-06T07:26:48Z</time></trkpt><trkpt lat="45.38612843170359" lon="9.369705500099283"><ele>89.0</ele><time>2026-04-06T07:26:50Z</time></trkpt><trkpt lat="45.38618386171133" lon="9.369825149290971"><ele>89.0</ele><time>2026-04-06T07:26:52Z</time></trkpt><trkpt lat="45.38623148533334" lon="9.369952998874684"><ele>89.0</ele><time>2026-04-06T07:26:54Z</time></trkpt><trkpt lat="45.3862872081163" lon="9.370093209400974"><ele>89.0</ele><time>2026-04-06T07:26:56Z</time></trkpt><trkpt lat="45.386350938316525" lon="9.37021808329605"><ele>89.0</ele><time>2026-04-06T07:26:58Z</time></trkpt><trkpt lat="45.386410224535965" lon="9.370355247648984"><ele>89.0</ele><time>2026-04-06T07:27:00Z</time></trkpt><trkpt lat="45.38645668577886" lon="9.370495315563778"><ele>89.0</ele><time>2026-04-06T07:27:02Z</time></trkpt><trkpt lat="45.38650662283495" lon="9.370623723263222"><ele>89.4</ele><time>2026-04-06T07:27:04Z</time></trkpt><trkpt lat="45.386551296752344" lon="9.370764085404913"><ele>89.80000000000001</ele><time>2026-04-06T07:27:06Z</time></trkpt><trkpt lat="45.38658048216635" lon="9.370908788051608"><ele>90.19999999999999</ele><time>2026-04-06T07:27:08Z</time></trkpt><trkpt lat="45.38659570306672" lon="9.371001812746831"><ele>90.6</ele><time>2026-04-06T07:27:09Z</time></trkpt><trkpt lat="45.38661428518695" lon="9.371087551464738"><ele>91.0</ele><time>2026-04-06T07:27:10Z</time></trkpt><trkpt lat="45.386628781276336" lon="9.371251085426914"><ele>90.8</ele><time>2026-04-06T07:27:12Z</time></trkpt><trkpt lat="45.38662863244719" lon="9.371423752472099"><ele>90.6</ele><time>2026-04-06T07:27:14Z</time></trkpt><trkpt lat="45.386627395479266" lon="9.371584960922917"><ele>90.4</ele><time>2026-04-06T07:27:16Z</time></trkpt><trkpt lat="45.38662695034393" lon="9.371734958359575"><ele>90.2</ele><time>2026-04-06T07:27:18Z</time></trkpt><trkpt lat="45.38663252598758" lon="9.371874666140354"><ele>90.0</ele><time>2026-04-06T07:27:20Z</time></trkpt><trkpt lat="45.386638976090794" lon="9.37201585724221"><ele>90.0</ele><time>2026-04-06T07:27:22Z</time></trkpt><trkpt lat="45.38664696176998" lon="9.372172676079567"><ele>90.0</ele><time>2026-04-06T07:27:24Z</time></trkpt><trkpt lat="45.386648904488595" lon="9.372332155310888"><ele>90.0</ele><time>2026-04-06T07:27:26Z</time></trkpt><trkpt lat="45.38664598431166" lon="9.372484469881178"><ele>90.0</ele><time>2026-04-06T07:27:28Z</time></trkpt><trkpt lat="45.38665095355693" lon="9.372637936622484"><ele>90.0</ele><time>2026-04-06T07:27:30Z</time></trkpt><trkpt lat="45.38665717674533" lon="9.372794683685155"><ele>89.8</ele><time>2026-04-06T07:27:32Z</time></trkpt><trkpt lat="45.38665571554931" lon="9.372944450045491"><ele>89.6</ele><time>2026-04-06T07:27:34Z</time></trkpt><trkpt lat="45.38665332524487" lon="9.373093966090813"><ele>89.4</ele><time>2026-04-06T07:27:36Z</time></trkpt><trkpt lat="45.38666062361572" lon="9.373238393751837"><ele>89.2</ele><time>2026-04-06T07:27:38Z</time></trkpt><trkpt lat="45.38667223320049" lon="9.373402573433017"><ele>89.0</ele><time>2026-04-06T07:27:40Z</time></trkpt><trkpt lat="45.3866764070783" lon="9.373546107477017"><ele>89.0</ele><time>2026-04-06T07:27:42Z</time></trkpt><trkpt lat="45.38667544575363" lon="9.373678816022528"><ele>89.0</ele><time>2026-04-06T07:27:44Z</time></trkpt><trkpt lat="45.38668353628574" lon="9.37380002719542"><ele>89.0</ele><time>2026-04-06T07:27:46Z</time></trkpt><trkpt lat="45.38673934192123" lon="9.37390100850805"><ele>89.0</ele><time>2026-04-06T07:27:48Z</time></trkpt><trkpt lat="45.386845580133794" lon="9.373910223892395"><ele>89.0</ele><time>2026-04-06T07:27:50Z</time></trkpt><trkpt lat="45.38694979818324" lon="9.373885372308287"><ele>89.0</ele><time>2026-04-06T07:27:52Z</time></trkpt><trkpt lat="45.38706305680883" lon="9.373866799732436"><ele>89.0</ele><time>2026-04-06T07:27:54Z</time></trkpt><trkpt lat="45.3871730276649" lon="9.373855313495113"><ele>89.0</ele><time>2026-04-06T07:27:56Z</time></trkpt><trkpt lat="45.38728380719067" lon="9.37384752177821"><ele>89.0</ele><time>2026-04-06T07:27:58Z</time></trkpt><trkpt lat="45.38738869220603" lon="9.373815105954856"><ele>89.0</ele><time>2026-04-06T07:28:00Z</time></trkpt><trkpt lat="45.387487235417176" lon="9.373766644622489"><ele>89.25</ele><time>2026-04-06T07:28:02Z</time></trkpt><trkpt lat="45.387598586500026" lon="9.373729124171895"><ele>89.5</ele><time>2026-04-06T07:28:04Z</time></trkpt><trkpt lat="45.38771392604941" lon="9.373686695292465"><ele>89.75</ele><time>2026-04-06T07:28:06Z</time></trkpt><trkpt lat="45.38782976312147" lon="9.373646808688394"><ele>90.0</ele><time>2026-04-06T07:28:08Z</time></trkpt><trkpt lat="45.38794316924357" lon="9.373620388084008"><ele>90.0</ele><time>2026-04-06T07:28:10Z</time></trkpt><trkpt lat="45.38805716866541" lon="9.373586263479291"><ele>90.0</ele><time>2026-04-06T07:28:12Z</time></trkpt><trkpt lat="45.38817215634868" lon="9.373562548548787"><ele>90.0</ele><time>2026-04-06T07:28:14Z</time></trkpt><trkpt lat="45.38827981549342" lon="9.373541528498373"><ele>90.0</ele><time>2026-04-06T07:28:16Z</time></trkpt><trkpt lat="45.38838596354877" lon="9.373520171351338"><ele>90.0</ele><time>2026-04-06T07:28:18Z</time></trkpt><trkpt lat="45.3884877142091" lon="9.373497699027295"><ele>90.0</ele><time>2026-04-06T07:28:20Z</time></trkpt><trkpt lat="45.38858950628253" lon="9.37347886404658"><ele>90.0</ele><time>2026-04-06T07:28:22Z</time></trkpt><trkpt lat="45.38869572674684" lon="9.373469862162409"><ele>90.0</ele><time>2026-04-06T07:28:24Z</time></trkpt><trkpt lat="45.38880359953843" lon="9.373477281309297"><ele>90.0</ele><time>2026-04-06T07:28:26Z</time></trkpt><trkpt lat="45.38891461520608" lon="9.373451461483018"><ele>90.0</ele><time>2026-04-06T07:28:28Z</time></trkpt><trkpt lat="45.389031047560884" lon="9.373429454019266"><ele>89.6</ele><time>2026-04-06T07:28:30Z</time></trkpt><trkpt lat="45.38913742140163" lon="9.373379190950157"><ele>89.2</ele><time>2026-04-06T07:28:32Z</time></trkpt><trkpt lat="45.38923071626106" lon="9.373321862392409"><ele>88.80000000000001</ele><time>2026-04-06T07:28:34Z</time></trkpt><trkpt lat="45.38932891311753" lon="9.37335987739487"><ele>88.4</ele><time>2026-04-06T07:28:36Z</time></trkpt><trkpt lat="45.38941871196533" lon="9.373444483059465"><ele>88.0</ele><time>2026-04-06T07:28:38Z</time></trkpt><trkpt lat="45.38951337917927" lon="9.37351001560213"><ele>88.0</ele><time>2026-04-06T07:28:40Z</time></trkpt><trkpt lat="45.389605582842826" lon="9.373585150224104"><ele>88.0</ele><time>2026-04-06T07:28:42Z</time></trkpt><trkpt lat="45.38969577734904" lon="9.373664492889034"><ele>88.0</ele><time>2026-04-06T07:28:44Z</time></trkpt><trkpt lat="45.38979225080251" lon="9.373722776371283"><ele>88.0</ele><time>2026-04-06T07:28:46Z</time></trkpt><trkpt lat="45.38988531587786" lon="9.373799914546204"><ele>88.0</ele><time>2026-04-06T07:28:48Z</time></trkpt><trkpt lat="45.38999527723376" lon="9.373840919586385"><ele>88.4</ele><time>2026-04-06T07:28:50Z</time></trkpt><trkpt lat="45.39010399298497" lon="9.373873118885568"><ele>88.80000000000001</ele><time>2026-04-06T07:28:52Z</time></trkpt><trkpt lat="45.39020811179299" lon="9.373912910880037"><ele>89.2</ele><time>2026-04-06T07:28:54Z</time></trkpt><trkpt lat="45.39031240288049" lon="9.373953886421143"><ele>89.6</ele><time>2026-04-06T07:28:56Z</time></trkpt><trkpt lat="45.390421281846685" lon="9.3739896889689"><ele>90.0</ele><time>2026-04-06T07:28:58Z</time></trkpt><trkpt lat="45.39053175310931" lon="9.374024801534967"><ele>90.4</ele><time>2026-04-06T07:29:00Z</time></trkpt><trkpt lat="45.39064012301883" lon="9.374064820859495"><ele>90.8</ele><time>2026-04-06T07:29:02Z</time></trkpt><trkpt lat="45.390745669090805" lon="9.374080678879766"><ele>91.19999999999999</ele><time>2026-04-06T07:29:04Z</time></trkpt><trkpt lat="45.39084277046181" lon="9.374094272878702"><ele>91.6</ele><time>2026-04-06T07:29:06Z</time></trkpt><trkpt lat="45.39090471420634" lon="9.374112661913834"><ele>92.0</ele><time>2026-04-06T07:29:07Z</time></trkpt><trkpt lat="45.390997597371864" lon="9.37412011462896"><ele>92.0</ele><time>2026-04-06T07:29:09Z</time></trkpt><trkpt lat="45.391087810237714" lon="9.374106770818655"><ele>92.0</ele><time>2026-04-06T07:29:11Z</time></trkpt><trkpt lat="45.391178387311804" lon="9.374051211183957"><ele>92.0</ele><time>2026-04-06T07:29:13Z</time></trkpt><trkpt lat="45.391283839028766" lon="9.374040527212344"><ele>92.0</ele><time>2026-04-06T07:29:15Z</time></trkpt><trkpt lat="45.391378502522215" lon="9.374029857757225"><ele>92.0</ele><time>2026-04-06T07:29:17Z</time></trkpt><trkpt lat="45.391468274531675" lon="9.374002455613333"><ele>91.83333333333334</ele><time>2026-04-06T07:29:19Z</time></trkpt><trkpt lat="45.39154853640077" lon="9.373969237460974"><ele>91.66666666666667</ele><time>2026-04-06T07:29:21Z</time></trkpt><trkpt lat="45.39163410777156" lon="9.373959080445712"><ele>91.5</ele><time>2026-04-06T07:29:23Z</time></trkpt><trkpt lat="45.39172471337068" lon="9.373936115923035"><ele>91.33333333333333</ele><time>2026-04-06T07:29:25Z</time></trkpt><trkpt lat="45.39181632567582" lon="9.373929835357222"><ele>91.16666666666666</ele><time>2026-04-06T07:29:27Z</time></trkpt><trkpt lat="45.39191140303759" lon="9.373908846330714"><ele>91.0</ele><time>2026-04-06T07:29:29Z</time></trkpt><trkpt lat="45.39200517779489" lon="9.373905527279492"><ele>91.0</ele><time>2026-04-06T07:29:31Z</time></trkpt><trkpt lat="45.39210037699445" lon="9.373898549318882"><ele>91.0</ele><time>2026-04-06T07:29:33Z</time></trkpt><trkpt lat="45.39219319875122" lon="9.373878024643625"><ele>91.0</ele><time>2026-04-06T07:29:35Z</time></trkpt><trkpt lat="45.39228450605702" lon="9.373837438028511"><ele>91.0</ele><time>2026-04-06T07:29:37Z</time></trkpt><trkpt lat="45.392382463692414" lon="9.37381591378074"><ele>91.0</ele><time>2026-04-06T07:29:39Z</time></trkpt><trkpt lat="45.39248168544814" lon="9.373800575602562"><ele>91.0</ele><time>2026-04-06T07:29:41Z</time></trkpt><trkpt lat="45.392578046012694" lon="9.373782934550027"><ele>91.0</ele><time>2026-04-06T07:29:43Z</time></trkpt><trkpt lat="45.39267901754143" lon="9.373749915724805"><ele>91.0</ele><time>2026-04-06T07:29:45Z</time></trkpt><trkpt lat="45.39277400160351" lon="9.373730093528732"><ele>91.0</ele><time>2026-04-06T07:29:47Z</time></trkpt><trkpt lat="45.3928627855557" lon="9.373696712529958"><ele>91.0</ele><time>2026-04-06T07:29:49Z</time></trkpt><trkpt lat="45.39295137828308" lon="9.373674470251652"><ele>91.6</ele><time>2026-04-06T07:29:51Z</time></trkpt><trkpt lat="45.393048540718254" lon="9.373663111069053"><ele>92.19999999999999</ele><time>2026-04-06T07:29:53Z</time></trkpt><trkpt lat="45.39314336729793" lon="9.37364827511443"><ele>92.80000000000001</ele><time>2026-04-06T07:29:55Z</time></trkpt><trkpt lat="45.39323334515003" lon="9.373627035125045"><ele>93.4</ele><time>2026-04-06T07:29:57Z</time></trkpt><trkpt lat="45.39328798254644" lon="9.37353652809652"><ele>94.0</ele><time>2026-04-06T07:29:59Z</time></trkpt><trkpt lat="45.39329034861462" lon="9.373410362055784"><ele>94.0</ele><time>2026-04-06T07:30:01Z</time></trkpt><trkpt lat="45.39327495751156" lon="9.373296683350656"><ele>94.0</ele><time>2026-04-06T07:30:03Z</time></trkpt><trkpt lat="45.393296866660236" lon="9.373190664130266"><ele>94.0</ele><time>2026-04-06T07:30:05Z</time></trkpt><trkpt lat="45.393386955702766" lon="9.373137838795596"><ele>94.0</ele><time>2026-04-06T07:30:07Z</time></trkpt><trkpt lat="45.39348064743755" lon="9.373095762103425"><ele>94.0</ele><time>2026-04-06T07:30:09Z</time></trkpt><trkpt lat="45.39357667176924" lon="9.373045846920894"><ele>94.0</ele><time>2026-04-06T07:30:11Z</time></trkpt><trkpt lat="45.393663923770134" lon="9.372999846981726"><ele>94.0</ele><time>2026-04-06T07:30:13Z</time></trkpt><trkpt lat="45.393751730085384" lon="9.372960765841633"><ele>94.0</ele><time>2026-04-06T07:30:15Z</time></trkpt><trkpt lat="45.393832203670506" lon="9.37290999424584"><ele>94.0</ele><time>2026-04-06T07:30:17Z</time></trkpt><trkpt lat="45.393918747568" lon="9.372864001966898"><ele>94.0</ele><time>2026-04-06T07:30:19Z</time></trkpt><trkpt lat="45.39400895906271" lon="9.372815796594747"><ele>94.2</ele><time>2026-04-06T07:30:21Z</time></trkpt><trkpt lat="45.39409468503188" lon="9.37276340813127"><ele>94.4</ele><time>2026-04-06T07:30:23Z</time></trkpt><trkpt lat="45.39418834879243" lon="9.3727259200327"><ele>94.6</ele><time>2026-04-06T07:30:25Z</time></trkpt><trkpt lat="45.39428399662678" lon="9.372693526830345"><ele>94.8</ele><time>2026-04-06T07:30:27Z</time></trkpt><trkpt lat="45.39438105873662" lon="9.372671178328638"><ele>95.0</ele><time>2026-04-06T07:30:29Z</time></trkpt><trkpt lat="45.3944748266236" lon="9.372636413779453"><ele>95.0</ele><time>2026-04-06T07:30:31Z</time></trkpt><trkpt lat="45.394565336354844" lon="9.372567453843276"><ele>95.0</ele><time>2026-04-06T07:30:33Z</time></trkpt><trkpt lat="45.39465449612286" lon="9.372485353115449"><ele>95.0</ele><time>2026-04-06T07:30:35Z</time></trkpt><trkpt lat="45.39474142902884" lon="9.372407133847709"><ele>95.0</ele><time>2026-04-06T07:30:37Z</time></trkpt><trkpt lat="45.39481649427998" lon="9.37230518725066"><ele>95.0</ele><time>2026-04-06T07:30:39Z</time></trkpt><trkpt lat="45.39488020375688" lon="9.372187580584542"><ele>94.8</ele><time>2026-04-06T07:30:41Z</time></trkpt><trkpt lat="45.39495340132689" lon="9.372083944432118"><ele>94.6</ele><time>2026-04-06T07:30:43Z</time></trkpt><trkpt lat="45.395022899559784" lon="9.371967288460024"><ele>94.4</ele><time>2026-04-06T07:30:45Z</time></trkpt><trkpt lat="45.39509481809707" lon="9.371860566859796"><ele>94.2</ele><time>2026-04-06T07:30:47Z</time></trkpt><trkpt lat="45.39516182568265" lon="9.371746246921592"><ele>94.0</ele><time>2026-04-06T07:30:49Z</time></trkpt><trkpt lat="45.39524252810753" lon="9.37164981315859"><ele>94.0</ele><time>2026-04-06T07:30:51Z</time></trkpt><trkpt lat="45.39533460016055" lon="9.371576115261696"><ele>94.0</ele><time>2026-04-06T07:30:53Z</time></trkpt><trkpt lat="45.395442487901484" lon="9.371540576347265"><ele>94.0</ele><time>2026-04-06T07:30:55Z</time></trkpt><trkpt lat="45.39554072923721" lon="9.371472554373476"><ele>94.0</ele><time>2026-04-06T07:30:57Z</time></trkpt><trkpt lat="45.39565338421476" lon="9.371435028475492"><ele>94.0</ele><time>2026-04-06T07:30:59Z</time></trkpt><trkpt lat="45.39575652503655" lon="9.371400695176472"><ele>93.83333333333333</ele><time>2026-04-06T07:31:01Z</time></trkpt><trkpt lat="45.3958477870824" lon="9.371370000841303"><ele>93.66666666666666</ele><time>2026-04-06T07:31:03Z</time></trkpt><trkpt lat="45.395924130393226" lon="9.37133138125262"><ele>93.5</ele><time>2026-04-06T07:31:05Z</time></trkpt><trkpt lat="45.395950095404984" lon="9.371221730881052"><ele>93.33333333333333</ele><time>2026-04-06T07:31:07Z</time></trkpt><trkpt lat="45.39596310406001" lon="9.371116452310241"><ele>93.16666666666667</ele><time>2026-04-06T07:31:09Z</time></trkpt><trkpt lat="45.396070375205795" lon="9.371094761360967"><ele>93.0</ele><time>2026-04-06T07:31:11Z</time></trkpt><trkpt lat="45.396176235115014" lon="9.371068353381613"><ele>92.80000000000001</ele><time>2026-04-06T07:31:13Z</time></trkpt><trkpt lat="45.39628208544616" lon="9.371031901272977"><ele>92.6</ele><time>2026-04-06T07:31:15Z</time></trkpt><trkpt lat="45.39638619040071" lon="9.370998021444427"><ele>92.4</ele><time>2026-04-06T07:31:17Z</time></trkpt><trkpt lat="45.396496253624576" lon="9.370974745255001"><ele>92.19999999999999</ele><time>2026-04-06T07:31:19Z</time></trkpt><trkpt lat="45.396607978186616" lon="9.370962509102776"><ele>92.0</ele><time>2026-04-06T07:31:21Z</time></trkpt><trkpt lat="45.39672032630445" lon="9.370954575398251"><ele>92.39999999999999</ele><time>2026-04-06T07:31:23Z</time></trkpt><trkpt lat="45.39683046161899" lon="9.370938128868723"><ele>92.8</ele><time>2026-04-06T07:31:25Z</time></trkpt><trkpt lat="45.396942540359085" lon="9.370932710631296"><ele>93.2</ele><time>2026-04-06T07:31:27Z</time></trkpt><trkpt lat="45.39704940103195" lon="9.370929322241379"><ele>93.6</ele><time>2026-04-06T07:31:29Z</time></trkpt><trkpt lat="45.39715445624144" lon="9.37095900846598"><ele>94.0</ele><time>2026-04-06T07:31:31Z</time></trkpt><trkpt lat="45.3972574401406" lon="9.370975862415406"><ele>94.0</ele><time>2026-04-06T07:31:33Z</time></trkpt><trkpt lat="45.39731529287022" lon="9.370927327394238"><ele>94.0</ele><time>2026-04-06T07:31:34Z</time></trkpt><trkpt lat="45.39733486731941" lon="9.3708390238078"><ele>94.0</ele><time>2026-04-06T07:31:35Z</time></trkpt><trkpt lat="45.3973689203211" lon="9.37068149676022"><ele>94.0</ele><time>2026-04-06T07:31:37Z</time></trkpt><trkpt lat="45.39740412074345" lon="9.370533762052407"><ele>94.0</ele><time>2026-04-06T07:31:39Z</time></trkpt><trkpt lat="45.39743373732391" lon="9.37038538622405"><ele>93.80000000000001</ele><time>2026-04-06T07:31:41Z</time></trkpt><trkpt lat="45.39746525289945" lon="9.37024019491595"><ele>93.60000000000001</ele><time>2026-04-06T07:31:43Z</time></trkpt><trkpt lat="45.39749373907221" lon="9.370104473528324"><ele>93.4</ele><time>2026-04-06T07:31:45Z</time></trkpt><trkpt lat="45.39754258693687" lon="9.369970283643571"><ele>93.2</ele><time>2026-04-06T07:31:47Z</time></trkpt><trkpt lat="45.397655800485175" lon="9.3698778255432"><ele>93.0</ele><time>2026-04-06T07:31:49Z</time></trkpt><trkpt lat="45.3977751909337" lon="9.369857829540969"><ele>93.0</ele><time>2026-04-06T07:31:51Z</time></trkpt><trkpt lat="45.39789060525254" lon="9.369836491558686"><ele>93.0</ele><time>2026-04-06T07:31:53Z</time></trkpt><trkpt lat="45.39799197686036" lon="9.369845164436288"><ele>93.0</ele><time>2026-04-06T07:31:55Z</time></trkpt><trkpt lat="45.39809802652536" lon="9.369926543630623"><ele>93.0</ele><time>2026-04-06T07:31:57Z</time></trkpt><trkpt lat="45.39815980847941" lon="9.369950241537751"><ele>93.0</ele><time>2026-04-06T07:31:58Z</time></trkpt><trkpt lat="45.39828559247354" lon="9.369952073688353"><ele>93.2</ele><time>2026-04-06T07:32:00Z</time></trkpt><trkpt lat="45.398408129950944" lon="9.369958323241228"><ele>93.4</ele><time>2026-04-06T07:32:02Z</time></trkpt><trkpt lat="45.39853356250981" lon="9.369964031676767"><ele>93.60000000000001</ele><time>2026-04-06T07:32:04Z</time></trkpt><trkpt lat="45.3985981278054" lon="9.369961902156751"><ele>93.80000000000001</ele><time>2026-04-06T07:32:05Z</time></trkpt><trkpt lat="45.398714011009034" lon="9.36998792610223"><ele>94.0</ele><time>2026-04-06T07:32:07Z</time></trkpt><trkpt lat="45.39881615202856" lon="9.36999732398466"><ele>93.6</ele><time>2026-04-06T07:32:09Z</time></trkpt><trkpt lat="45.39891381098263" lon="9.370015537588445"><ele>93.2</ele><time>2026-04-06T07:32:11Z</time></trkpt><trkpt lat="45.39902245198445" lon="9.370006655169773"><ele>92.8</ele><time>2026-04-06T07:32:13Z</time></trkpt><trkpt lat="45.39911189751031" lon="9.369961992113488"><ele>92.39999999999999</ele><time>2026-04-06T07:32:15Z</time></trkpt><trkpt lat="45.39920970482302" lon="9.36990657301621"><ele>92.0</ele><time>2026-04-06T07:32:17Z</time></trkpt><trkpt lat="45.39930806499942" lon="9.369842665458982"><ele>92.0</ele><time>2026-04-06T07:32:19Z</time></trkpt><trkpt lat="45.39940892168037" lon="9.369781331850827"><ele>92.0</ele><time>2026-04-06T07:32:21Z</time></trkpt><trkpt lat="45.39951069854373" lon="9.369720338333087"><ele>92.0</ele><time>2026-04-06T07:32:23Z</time></trkpt><trkpt lat="45.399622838581" lon="9.369684857649522"><ele>92.0</ele><time>2026-04-06T07:32:25Z</time></trkpt><trkpt lat="45.399733707603446" lon="9.369642419345821"><ele>92.25</ele><time>2026-04-06T07:32:27Z</time></trkpt><trkpt lat="45.39984676098376" lon="9.369610825844198"><ele>92.5</ele><time>2026-04-06T07:32:29Z</time></trkpt><trkpt lat="45.399955880238856" lon="9.369567509488427"><ele>92.75</ele><time>2026-04-06T07:32:31Z</time></trkpt><trkpt lat="45.400067345007" lon="9.369525104480864"><ele>93.0</ele><time>2026-04-06T07:32:33Z</time></trkpt><trkpt lat="45.40016842822903" lon="9.36943879974436"><ele>93.0</ele><time>2026-04-06T07:32:35Z</time></trkpt><trkpt lat="45.40024756422474" lon="9.369324415268462"><ele>93.0</ele><time>2026-04-06T07:32:37Z</time></trkpt><trkpt lat="45.40031857506164" lon="9.36920363756956"><ele>93.0</ele><time>2026-04-06T07:32:39Z</time></trkpt><trkpt lat="45.400388467753324" lon="9.369086396819704"><ele>93.0</ele><time>2026-04-06T07:32:41Z</time></trkpt><trkpt lat="45.40045945482195" lon="9.368972703510105"><ele>93.0</ele><time>2026-04-06T07:32:43Z</time></trkpt><trkpt lat="45.4005495526483" lon="9.36888225015258"><ele>93.60000000000001</ele><time>2026-04-06T07:32:45Z</time></trkpt><trkpt lat="45.400648176854205" lon="9.368816765926171"><ele>94.2</ele><time>2026-04-06T07:32:47Z</time></trkpt><trkpt lat="45.400743375240594" lon="9.368748475472696"><ele>94.8</ele><time>2026-04-06T07:32:49Z</time></trkpt><trkpt lat="45.40084026531325" lon="9.368704743904448"><ele>95.4</ele><time>2026-04-06T07:32:51Z</time></trkpt><trkpt lat="45.40094439382424" lon="9.368671418485693"><ele>96.0</ele><time>2026-04-06T07:32:53Z</time></trkpt><trkpt lat="45.401043900058255" lon="9.368620621217291"><ele>96.0</ele><time>2026-04-06T07:32:55Z</time></trkpt><trkpt lat="45.401147293407156" lon="9.368577779903154"><ele>96.0</ele><time>2026-04-06T07:32:57Z</time></trkpt><trkpt lat="45.401247475611676" lon="9.368529321941724"><ele>96.0</ele><time>2026-04-06T07:32:59Z</time></trkpt><trkpt lat="45.40134948926313" lon="9.368477179765033"><ele>96.0</ele><time>2026-04-06T07:33:01Z</time></trkpt><trkpt lat="45.40144835258199" lon="9.368419414064965"><ele>96.0</ele><time>2026-04-06T07:33:03Z</time></trkpt><trkpt lat="45.40154503256674" lon="9.36836484817605"><ele>96.4</ele><time>2026-04-06T07:33:05Z</time></trkpt><trkpt lat="45.40164291268029" lon="9.368313787722013"><ele>96.8</ele><time>2026-04-06T07:33:07Z</time></trkpt><trkpt lat="45.401739636402574" lon="9.368251003393274"><ele>97.2</ele><time>2026-04-06T07:33:09Z</time></trkpt><trkpt lat="45.40183957075379" lon="9.368189425411954"><ele>97.60000000000001</ele><time>2026-04-06T07:33:11Z</time></trkpt><trkpt lat="45.4019382554791" lon="9.368136057236399"><ele>98.0</ele><time>2026-04-06T07:33:13Z</time></trkpt><trkpt lat="45.40204121891565" lon="9.36809837747941"><ele>98.0</ele><time>2026-04-06T07:33:15Z</time></trkpt><trkpt lat="45.402151459037874" lon="9.368081746181128"><ele>98.0</ele><time>2026-04-06T07:33:17Z</time></trkpt><trkpt lat="45.40226659678947" lon="9.368068072061444"><ele>98.0</ele><time>2026-04-06T07:33:19Z</time></trkpt><trkpt lat="45.4023769457429" lon="9.36805959562466"><ele>98.0</ele><time>2026-04-06T07:33:21Z</time></trkpt><trkpt lat="45.40248585764263" lon="9.368035110115397"><ele>98.0</ele><time>2026-04-06T07:33:23Z</time></trkpt><trkpt lat="45.40259475549818" lon="9.368006026947565"><ele>97.60000000000001</ele><time>2026-04-06T07:33:25Z</time></trkpt><trkpt lat="45.40270144979039" lon="9.367982584976502"><ele>97.2</ele><time>2026-04-06T07:33:27Z</time></trkpt><trkpt lat="45.402810437529006" lon="9.367949255333729"><ele>96.8</ele><time>2026-04-06T07:33:29Z</time></trkpt><trkpt lat="45.40291548935377" lon="9.367920616143332"><ele>96.4</ele><time>2026-04-06T07:33:31Z</time></trkpt><trkpt lat="45.40301707074934" lon="9.3678998074849"><ele>96.0</ele><time>2026-04-06T07:33:33Z</time></trkpt><trkpt lat="45.40312068468935" lon="9.3678779399342"><ele>96.0</ele><time>2026-04-06T07:33:35Z</time></trkpt><trkpt lat="45.40322269665919" lon="9.367846106211735"><ele>96.0</ele><time>2026-04-06T07:33:37Z</time></trkpt><trkpt lat="45.403323931054985" lon="9.367797281859012"><ele>96.0</ele><time>2026-04-06T07:33:39Z</time></trkpt><trkpt lat="45.40342079224095" lon="9.3677440118755"><ele>96.0</ele><time>2026-04-06T07:33:41Z</time></trkpt><trkpt lat="45.40351717876811" lon="9.367711635598853"><ele>96.0</ele><time>2026-04-06T07:33:43Z</time></trkpt><trkpt lat="45.403617964684244" lon="9.367675407352412"><ele>96.0</ele><time>2026-04-06T07:33:45Z</time></trkpt><trkpt lat="45.40370531274266" lon="9.367600396757641"><ele>96.0</ele><time>2026-04-06T07:33:47Z</time></trkpt><trkpt lat="45.403791350894565" lon="9.367517243229397"><ele>96.0</ele><time>2026-04-06T07:33:49Z</time></trkpt><trkpt lat="45.40387817954559" lon="9.367438063851859"><ele>96.0</ele><time>2026-04-06T07:33:51Z</time></trkpt><trkpt lat="45.403955900705526" lon="9.367358029411893"><ele>96.0</ele><time>2026-04-06T07:33:53Z</time></trkpt><trkpt lat="45.404020872937956" lon="9.367277265541968"><ele>96.16666666666667</ele><time>2026-04-06T07:33:55Z</time></trkpt><trkpt lat="45.40407380189612" lon="9.367228421874625"><ele>96.33333333333334</ele><time>2026-04-06T07:33:57Z</time></trkpt><trkpt lat="45.404151158994395" lon="9.367310500599226"><ele>96.5</ele><time>2026-04-06T07:34:00Z</time></trkpt><trkpt lat="45.404229701068445" lon="9.367378712501374"><ele>96.66666666666667</ele><time>2026-04-06T07:34:02Z</time></trkpt><trkpt lat="45.40431138151237" lon="9.367421734537832"><ele>96.83333333333334</ele><time>2026-04-06T07:34:04Z</time></trkpt><trkpt lat="45.40438880655543" lon="9.367509863208724"><ele>97.0</ele><time>2026-04-06T07:34:06Z</time></trkpt><trkpt lat="45.40447971331224" lon="9.367593174229738"><ele>97.0</ele><time>2026-04-06T07:34:08Z</time></trkpt><trkpt lat="45.404572761950284" lon="9.36767053105591"><ele>97.0</ele><time>2026-04-06T07:34:10Z</time></trkpt><trkpt lat="45.404660100627815" lon="9.367752206142693"><ele>97.0</ele><time>2026-04-06T07:34:12Z</time></trkpt><trkpt lat="45.404750474668504" lon="9.367842363592114"><ele>97.0</ele><time>2026-04-06T07:34:14Z</time></trkpt><trkpt lat="45.404842536262876" lon="9.367945265891754"><ele>97.0</ele><time>2026-04-06T07:34:16Z</time></trkpt><trkpt lat="45.40493850072119" lon="9.368037593619295"><ele>97.0</ele><time>2026-04-06T07:34:18Z</time></trkpt><trkpt lat="45.40501659921893" lon="9.368134334884964"><ele>97.0</ele><time>2026-04-06T07:34:20Z</time></trkpt><trkpt lat="45.40508537503096" lon="9.36824652425245"><ele>97.0</ele><time>2026-04-06T07:34:22Z</time></trkpt><trkpt lat="45.40515814319558" lon="9.368379987877278"><ele>97.0</ele><time>2026-04-06T07:34:24Z</time></trkpt><trkpt lat="45.405225167669144" lon="9.3685236661047"><ele>97.0</ele><time>2026-04-06T07:34:26Z</time></trkpt><trkpt lat="45.40529651544982" lon="9.368654013508698"><ele>97.0</ele><time>2026-04-06T07:34:28Z</time></trkpt><trkpt lat="45.40536622479576" lon="9.368787765481443"><ele>97.0</ele><time>2026-04-06T07:34:30Z</time></trkpt><trkpt lat="45.40544171940039" lon="9.368916696653415"><ele>97.0</ele><time>2026-04-06T07:34:32Z</time></trkpt><trkpt lat="45.40551561305789" lon="9.369049272924231"><ele>97.0</ele><time>2026-04-06T07:34:34Z</time></trkpt><trkpt lat="45.405583058640694" lon="9.369182035491736"><ele>97.0</ele><time>2026-04-06T07:34:36Z</time></trkpt><trkpt lat="45.40565195634305" lon="9.369304631797922"><ele>97.0</ele><time>2026-04-06T07:34:38Z</time></trkpt><trkpt lat="45.40570144046126" lon="9.369405939052658"><ele>97.0</ele><time>2026-04-06T07:34:40Z</time></trkpt><trkpt lat="45.40574849142926" lon="9.369514808164741"><ele>97.0</ele><time>2026-04-06T07:34:42Z</time></trkpt><trkpt lat="45.4058343506444" lon="9.36957383521582"><ele>97.0</ele><time>2026-04-06T07:34:44Z</time></trkpt><trkpt lat="45.405900469953025" lon="9.36969003637701"><ele>97.0</ele><time>2026-04-06T07:34:46Z</time></trkpt><trkpt lat="45.40595988312455" lon="9.369819116115265"><ele>97.0</ele><time>2026-04-06T07:34:48Z</time></trkpt><trkpt lat="45.40602942489602" lon="9.369936409947082"><ele>97.0</ele><time>2026-04-06T07:34:50Z</time></trkpt><trkpt lat="45.40609084009045" lon="9.3700395701685"><ele>97.0</ele><time>2026-04-06T07:34:52Z</time></trkpt><trkpt lat="45.4061386099939" lon="9.370121201908466"><ele>97.0</ele><time>2026-04-06T07:34:54Z</time></trkpt><trkpt lat="45.40616383024835" lon="9.370227117047099"><ele>97.0</ele><time>2026-04-06T07:34:56Z</time></trkpt><trkpt lat="45.40622452513063" lon="9.370334665462922"><ele>97.0</ele><time>2026-04-06T07:34:58Z</time></trkpt><trkpt lat="45.40633376749422" lon="9.37040641675029"><ele>97.0</ele><time>2026-04-06T07:35:00Z</time></trkpt><trkpt lat="45.40637938077584" lon="9.37049433315929"><ele>97.0</ele><time>2026-04-06T07:35:02Z</time></trkpt><trkpt lat="45.40643826237838" lon="9.370572388732054"><ele>97.0</ele><time>2026-04-06T07:35:04Z</time></trkpt><trkpt lat="45.406472309993376" lon="9.37069408191749"><ele>96.8</ele><time>2026-04-06T07:35:06Z</time></trkpt><trkpt lat="45.40651098180874" lon="9.370813964554815"><ele>96.6</ele><time>2026-04-06T07:35:08Z</time></trkpt><trkpt lat="45.406565442742675" lon="9.370922620128425"><ele>96.39999999999999</ele><time>2026-04-06T07:35:10Z</time></trkpt><trkpt lat="45.40661206424002" lon="9.371037367591034"><ele>96.19999999999999</ele><time>2026-04-06T07:35:12Z</time></trkpt><trkpt lat="45.406659106633775" lon="9.37115549257143"><ele>96.0</ele><time>2026-04-06T07:35:14Z</time></trkpt><trkpt lat="45.406701896348665" lon="9.371280236367031"><ele>96.0</ele><time>2026-04-06T07:35:16Z</time></trkpt><trkpt lat="45.40674832938057" lon="9.371392562103148"><ele>96.0</ele><time>2026-04-06T07:35:18Z</time></trkpt><trkpt lat="45.406808271363644" lon="9.371497308609053"><ele>96.0</ele><time>2026-04-06T07:35:20Z</time></trkpt><trkpt lat="45.40686323303609" lon="9.371595545223315"><ele>96.0</ele><time>2026-04-06T07:35:22Z</time></trkpt><trkpt lat="45.40692192253237" lon="9.37168884346664"><ele>96.0</ele><time>2026-04-06T07:35:24Z</time></trkpt><trkpt lat="45.40698156624488" lon="9.371770646624764"><ele>96.0</ele><time>2026-04-06T07:35:26Z</time></trkpt><trkpt lat="45.40704702316362" lon="9.37183685418828"><ele>96.0</ele><time>2026-04-06T07:35:28Z</time></trkpt><trkpt lat="45.40711196732026" lon="9.371899040054611"><ele>96.0</ele><time>2026-04-06T07:35:30Z</time></trkpt><trkpt lat="45.40717662756016" lon="9.371956028324751"><ele>96.0</ele><time>2026-04-06T07:35:33Z</time></trkpt><trkpt lat="45.40724529278313" lon="9.37202894821415"><ele>96.0</ele><time>2026-04-06T07:35:36Z</time></trkpt><trkpt lat="45.40730311693718" lon="9.372085647506834"><ele>96.0</ele><time>2026-04-06T07:35:38Z</time></trkpt><trkpt lat="45.407361819835295" lon="9.372146127634633"><ele>96.0</ele><time>2026-04-06T07:35:40Z</time></trkpt><trkpt lat="45.407421744462646" lon="9.372205126592851"><ele>95.42857142857142</ele><time>2026-04-06T07:35:42Z</time></trkpt><trkpt lat="45.407486002784324" lon="9.372262910883501"><ele>94.85714285714286</ele><time>2026-04-06T07:35:44Z</time></trkpt><trkpt lat="45.40754960641215" lon="9.372315120816008"><ele>94.28571428571428</ele><time>2026-04-06T07:35:46Z</time></trkpt><trkpt lat="45.407613672946795" lon="9.372360866880728"><ele>93.71428571428571</ele><time>2026-04-06T07:35:48Z</time></trkpt><trkpt lat="45.40767408157369" lon="9.372404412626741"><ele>93.14285714285714</ele><time>2026-04-06T07:35:50Z</time></trkpt><trkpt lat="45.407736873951386" lon="9.372443101691161"><ele>92.57142857142857</ele><time>2026-04-06T07:35:52Z</time></trkpt><trkpt lat="45.407799016708395" lon="9.372489284352755"><ele>92.0</ele><time>2026-04-06T07:35:54Z</time></trkpt><trkpt lat="45.40786747459414" lon="9.372525460877998"><ele>92.0</ele><time>2026-04-06T07:35:56Z</time></trkpt><trkpt lat="45.4079416002517" lon="9.372575154285407"><ele>92.0</ele><time>2026-04-06T07:35:58Z</time></trkpt><trkpt lat="45.40801489089325" lon="9.37262735635853"><ele>92.0</ele><time>2026-04-06T07:36:00Z</time></trkpt><trkpt lat="45.408093416948226" lon="9.372687880061102"><ele>92.0</ele><time>2026-04-06T07:36:02Z</time></trkpt><trkpt lat="45.40816535130843" lon="9.37275065311372"><ele>92.0</ele><time>2026-04-06T07:36:04Z</time></trkpt><trkpt lat="45.40823681448701" lon="9.372812228162413"><ele>92.0</ele><time>2026-04-06T07:36:06Z</time></trkpt><trkpt lat="45.40830353569581" lon="9.372872333851179"><ele>92.5</ele><time>2026-04-06T07:36:08Z</time></trkpt><trkpt lat="45.40837283089126" lon="9.372935916377298"><ele>93.0</ele><time>2026-04-06T07:36:10Z</time></trkpt><trkpt lat="45.408440243193965" lon="9.372995508152187"><ele>93.5</ele><time>2026-04-06T07:36:12Z</time></trkpt><trkpt lat="45.408499384432886" lon="9.373069331218318"><ele>94.0</ele><time>2026-04-06T07:36:14Z</time></trkpt><trkpt lat="45.40856438497749" lon="9.373142975878848"><ele>94.5</ele><time>2026-04-06T07:36:16Z</time></trkpt><trkpt lat="45.40862518541624" lon="9.373220407376804"><ele>95.0</ele><time>2026-04-06T07:36:18Z</time></trkpt><trkpt lat="45.40868644396419" lon="9.373298615384453"><ele>95.16666666666667</ele><time>2026-04-06T07:36:20Z</time></trkpt><trkpt lat="45.408746254467005" lon="9.37338175032341"><ele>95.33333333333334</ele><time>2026-04-06T07:36:22Z</time></trkpt><trkpt lat="45.408803292567846" lon="9.37346747883148"><ele>95.5</ele><time>2026-04-06T07:36:24Z</time></trkpt><trkpt lat="45.40885294296403" lon="9.373558621871926"><ele>95.66666666666667</ele><time>2026-04-06T07:36:26Z</time></trkpt><trkpt lat="45.4089033113595" lon="9.373650246187388"><ele>95.83333333333333</ele><time>2026-04-06T07:36:28Z</time></trkpt><trkpt lat="45.408949360186405" lon="9.373742760244976"><ele>96.0</ele><time>2026-04-06T07:36:30Z</time></trkpt><trkpt lat="45.40898820441852" lon="9.37383050358281"><ele>95.16666666666667</ele><time>2026-04-06T07:36:32Z</time></trkpt><trkpt lat="45.40902445483176" lon="9.373950794746174"><ele>94.33333333333333</ele><time>2026-04-06T07:36:35Z</time></trkpt><trkpt lat="45.4090203014146" lon="9.374059373956767"><ele>93.5</ele><time>2026-04-06T07:36:37Z</time></trkpt><trkpt lat="45.40900916301287" lon="9.37417140341306"><ele>92.66666666666666</ele><time>2026-04-06T07:36:39Z</time></trkpt><trkpt lat="45.40898612015923" lon="9.374286573284063"><ele>91.83333333333333</ele><time>2026-04-06T07:36:41Z</time></trkpt><trkpt lat="45.408996096084266" lon="9.374411020241773"><ele>91.0</ele><time>2026-04-06T07:36:43Z</time></trkpt><trkpt lat="45.40901636533372" lon="9.374523357699863"><ele>91.0</ele><time>2026-04-06T07:36:45Z</time></trkpt><trkpt lat="45.40900473150092" lon="9.374611764819145"><ele>91.0</ele><time>2026-04-06T07:36:47Z</time></trkpt><trkpt lat="45.40907423648472" lon="9.374682518676966"><ele>91.0</ele><time>2026-04-06T07:36:50Z</time></trkpt><trkpt lat="45.40913686675753" lon="9.374650291160508"><ele>91.0</ele><time>2026-04-06T07:36:52Z</time></trkpt><trkpt lat="45.409199393890596" lon="9.374570918765446"><ele>91.0</ele><time>2026-04-06T07:36:54Z</time></trkpt><trkpt lat="45.40929510490471" lon="9.374580499630225"><ele>91.0</ele><time>2026-04-06T07:36:56Z</time></trkpt><trkpt lat="45.4093394779149" lon="9.374692568647514"><ele>91.66666666666666</ele><time>2026-04-06T07:36:58Z</time></trkpt><trkpt lat="45.40936477770322" lon="9.374779345711572"><ele>92.33333333333333</ele><time>2026-04-06T07:37:00Z</time></trkpt><trkpt lat="45.409401233426344" lon="9.374870121078292"><ele>93.0</ele><time>2026-04-06T07:37:02Z</time></trkpt><trkpt lat="45.40944971633974" lon="9.37497514668377"><ele>93.66666666666667</ele><time>2026-04-06T07:37:04Z</time></trkpt><trkpt lat="45.40948986082853" lon="9.375070889295019"><ele>94.33333333333334</ele><time>2026-04-06T07:37:06Z</time></trkpt><trkpt lat="45.409524948475976" lon="9.37516283825757"><ele>95.0</ele><time>2026-04-06T07:37:08Z</time></trkpt><trkpt lat="45.409562054050866" lon="9.375257719147282"><ele>95.0</ele><time>2026-04-06T07:37:10Z</time></trkpt><trkpt lat="45.409604146476255" lon="9.375357069138113"><ele>95.0</ele><time>2026-04-06T07:37:12Z</time></trkpt><trkpt lat="45.40965360384263" lon="9.375447994809543"><ele>95.0</ele><time>2026-04-06T07:37:14Z</time></trkpt><trkpt lat="45.4097083188434" lon="9.37553596330893"><ele>95.0</ele><time>2026-04-06T07:37:16Z</time></trkpt><trkpt lat="45.40976373434618" lon="9.375624094305191"><ele>95.0</ele><time>2026-04-06T07:37:18Z</time></trkpt><trkpt lat="45.40982064853808" lon="9.375706777844496"><ele>95.0</ele><time>2026-04-06T07:37:20Z</time></trkpt><trkpt lat="45.40988076744395" lon="9.375785102844432"><ele>95.66666666666667</ele><time>2026-04-06T07:37:22Z</time></trkpt><trkpt lat="45.40994281510119" lon="9.375855571278368"><ele>96.33333333333334</ele><time>2026-04-06T07:37:24Z</time></trkpt><trkpt lat="45.409997644993624" lon="9.375932049912937"><ele>97.0</ele><time>2026-04-06T07:37:26Z</time></trkpt><trkpt lat="45.41005697830497" lon="9.376006193039009"><ele>97.66666666666667</ele><time>2026-04-06T07:37:28Z</time></trkpt><trkpt lat="45.410120074351404" lon="9.37608709068366"><ele>98.33333333333333</ele><time>2026-04-06T07:37:30Z</time></trkpt><trkpt lat="45.41017775404085" lon="9.37615735835811"><ele>99.0</ele><time>2026-04-06T07:37:32Z</time></trkpt><trkpt lat="45.41023642320316" lon="9.376230469681898"><ele>99.0</ele><time>2026-04-06T07:37:34Z</time></trkpt><trkpt lat="45.41029570583707" lon="9.376301077469028"><ele>99.0</ele><time>2026-04-06T07:37:36Z</time></trkpt><trkpt lat="45.41034954797305" lon="9.376370018566925"><ele>99.0</ele><time>2026-04-06T07:37:38Z</time></trkpt><trkpt lat="45.4104018366841" lon="9.376433135516045"><ele>99.0</ele><time>2026-04-06T07:37:40Z</time></trkpt><trkpt lat="45.410465235742954" lon="9.376507411610895"><ele>99.0</ele><time>2026-04-06T07:37:43Z</time></trkpt><trkpt lat="45.4105324566992" lon="9.376517838533388"><ele>99.0</ele><time>2026-04-06T07:37:46Z</time></trkpt><trkpt lat="45.41062061759949" lon="9.376586913418587"><ele>98.33333333333333</ele><time>2026-04-06T07:37:49Z</time></trkpt><trkpt lat="45.41068125290133" lon="9.376660988973464"><ele>97.66666666666667</ele><time>2026-04-06T07:37:51Z</time></trkpt><trkpt lat="45.41074928529195" lon="9.376741278532355"><ele>97.0</ele><time>2026-04-06T07:37:53Z</time></trkpt><trkpt lat="45.41081967855707" lon="9.376814650979156"><ele>96.33333333333334</ele><time>2026-04-06T07:37:55Z</time></trkpt><trkpt lat="45.41088407511082" lon="9.37688629379735"><ele>95.66666666666667</ele><time>2026-04-06T07:37:57Z</time></trkpt><trkpt lat="45.41094530563632" lon="9.376958264972409"><ele>95.0</ele><time>2026-04-06T07:37:59Z</time></trkpt><trkpt lat="45.41100357493229" lon="9.37702458337973"><ele>95.0</ele><time>2026-04-06T07:38:01Z</time></trkpt><trkpt lat="45.41105657928519" lon="9.377091398910478"><ele>95.0</ele><time>2026-04-06T07:38:03Z</time></trkpt><trkpt lat="45.41111386301163" lon="9.377153362287133"><ele>95.0</ele><time>2026-04-06T07:38:05Z</time></trkpt><trkpt lat="45.41117391464213" lon="9.377220255677866"><ele>95.0</ele><time>2026-04-06T07:38:07Z</time></trkpt><trkpt lat="45.41123323709925" lon="9.377283934784014"><ele>95.0</ele><time>2026-04-06T07:38:09Z</time></trkpt><trkpt lat="45.4112896670798" lon="9.377360885631624"><ele>95.0</ele><time>2026-04-06T07:38:11Z</time></trkpt><trkpt lat="45.41134355292083" lon="9.377427163370815"><ele>95.0</ele><time>2026-04-06T07:38:13Z</time></trkpt><trkpt lat="45.411397340717485" lon="9.377490187982087"><ele>95.16666666666667</ele><time>2026-04-06T07:38:15Z</time></trkpt><trkpt lat="45.41145792832011" lon="9.377558181954363"><ele>95.33333333333334</ele><time>2026-04-06T07:38:17Z</time></trkpt><trkpt lat="45.411520292737855" lon="9.377622791977945"><ele>95.5</ele><time>2026-04-06T07:38:19Z</time></trkpt><trkpt lat="45.41157698201661" lon="9.377690908982025"><ele>95.66666666666667</ele><time>2026-04-06T07:38:21Z</time></trkpt><trkpt lat="45.41163432970544" lon="9.377761550622516"><ele>95.83333333333333</ele><time>2026-04-06T07:38:23Z</time></trkpt><trkpt lat="45.411694021763296" lon="9.377830902397976"><ele>96.0</ele><time>2026-04-06T07:38:25Z</time></trkpt><trkpt lat="45.41175980652729" lon="9.377905147006437"><ele>96.0</ele><time>2026-04-06T07:38:27Z</time></trkpt><trkpt lat="45.411822343150234" lon="9.377986765149592"><ele>96.0</ele><time>2026-04-06T07:38:29Z</time></trkpt><trkpt lat="45.4118889990529" lon="9.378067807062248"><ele>96.0</ele><time>2026-04-06T07:38:31Z</time></trkpt><trkpt lat="45.41195263941983" lon="9.378149585025294"><ele>96.0</ele><time>2026-04-06T07:38:33Z</time></trkpt><trkpt lat="45.41202034471858" lon="9.378228027654476"><ele>96.0</ele><time>2026-04-06T07:38:35Z</time></trkpt><trkpt lat="45.41208564304649" lon="9.378314236931743"><ele>96.0</ele><time>2026-04-06T07:38:37Z</time></trkpt><trkpt lat="45.412148305023976" lon="9.37838986171462"><ele>96.0</ele><time>2026-04-06T07:38:39Z</time></trkpt><trkpt lat="45.41221357796565" lon="9.378480916004778"><ele>96.0</ele><time>2026-04-06T07:38:41Z</time></trkpt><trkpt lat="45.41228970423904" lon="9.378570149623387"><ele>96.0</ele><time>2026-04-06T07:38:43Z</time></trkpt><trkpt lat="45.41235610775002" lon="9.378673668597987"><ele>96.0</ele><time>2026-04-06T07:38:45Z</time></trkpt><trkpt lat="45.4124201532137" lon="9.378778107636618"><ele>96.0</ele><time>2026-04-06T07:38:47Z</time></trkpt><trkpt lat="45.412480015022894" lon="9.378892228480362"><ele>96.16666666666667</ele><time>2026-04-06T07:38:49Z</time></trkpt><trkpt lat="45.41253690106887" lon="9.379004675252958"><ele>96.33333333333334</ele><time>2026-04-06T07:38:51Z</time></trkpt><trkpt lat="45.412587213197504" lon="9.379120639951838"><ele>96.5</ele><time>2026-04-06T07:38:53Z</time></trkpt><trkpt lat="45.412631828678144" lon="9.379230280001154"><ele>96.66666666666667</ele><time>2026-04-06T07:38:55Z</time></trkpt><trkpt lat="45.41265878356178" lon="9.379320160388371"><ele>96.83333333333334</ele><time>2026-04-06T07:38:57Z</time></trkpt><trkpt lat="45.412670174769744" lon="9.379417953454087"><ele>97.0</ele><time>2026-04-06T07:39:00Z</time></trkpt><trkpt lat="45.41262470238746" lon="9.379511940478773"><ele>97.00000000000001</ele><time>2026-04-06T07:39:03Z</time></trkpt><trkpt lat="45.41257330367077" lon="9.379568069508675"><ele>97.0</ele><time>2026-04-06T07:39:05Z</time></trkpt><trkpt lat="45.412497684791525" lon="9.37959383958448"><ele>97.0</ele><time>2026-04-06T07:39:07Z</time></trkpt><trkpt lat="45.41242110856695" lon="9.379647751437071"><ele>97.0</ele><time>2026-04-06T07:39:09Z</time></trkpt><trkpt lat="45.41236534610535" lon="9.379751115227519"><ele>97.00000000000001</ele><time>2026-04-06T07:39:11Z</time></trkpt><trkpt lat="45.412371517295696" lon="9.379885597705432"><ele>97.0</ele><time>2026-04-06T07:39:13Z</time></trkpt><trkpt lat="45.41237769946644" lon="9.380014953948436"><ele>97.0</ele><time>2026-04-06T07:39:15Z</time></trkpt><trkpt lat="45.41238448029165" lon="9.380146851095176"><ele>97.0</ele><time>2026-04-06T07:39:17Z</time></trkpt><trkpt lat="45.41239340849078" lon="9.380286324739147"><ele>97.0</ele><time>2026-04-06T07:39:19Z</time></trkpt><trkpt lat="45.41239820169216" lon="9.380433823415478"><ele>97.0</ele><time>2026-04-06T07:39:21Z</time></trkpt><trkpt lat="45.41234976854416" lon="9.380561611038853"><ele>97.0</ele><time>2026-04-06T07:39:23Z</time></trkpt><trkpt lat="45.412288620825095" lon="9.38068678083725"><ele>97.0</ele><time>2026-04-06T07:39:25Z</time></trkpt><trkpt lat="45.41225052873554" lon="9.380822329444412"><ele>97.0</ele><time>2026-04-06T07:39:27Z</time></trkpt><trkpt lat="45.4122181570328" lon="9.380968601830677"><ele>97.0</ele><time>2026-04-06T07:39:29Z</time></trkpt><trkpt lat="45.41219323243971" lon="9.38111656747914"><ele>97.0</ele><time>2026-04-06T07:39:31Z</time></trkpt><trkpt lat="45.41216758317844" lon="9.381267105951146"><ele>97.0</ele><time>2026-04-06T07:39:33Z</time></trkpt><trkpt lat="45.41215859104636" lon="9.381412454276997"><ele>96.8</ele><time>2026-04-06T07:39:35Z</time></trkpt><trkpt lat="45.412161536360514" lon="9.381547233878699"><ele>96.6</ele><time>2026-04-06T07:39:37Z</time></trkpt><trkpt lat="45.41215715858228" lon="9.381677015409052"><ele>96.39999999999999</ele><time>2026-04-06T07:39:39Z</time></trkpt><trkpt lat="45.4121656763551" lon="9.381815744860932"><ele>96.19999999999999</ele><time>2026-04-06T07:39:41Z</time></trkpt><trkpt lat="45.41218561244432" lon="9.381959248062358"><ele>96.0</ele><time>2026-04-06T07:39:43Z</time></trkpt><trkpt lat="45.412216944818724" lon="9.382101333719836"><ele>95.6</ele><time>2026-04-06T07:39:45Z</time></trkpt><trkpt lat="45.41221570752852" lon="9.382249993757966"><ele>95.19999999999999</ele><time>2026-04-06T07:39:47Z</time></trkpt><trkpt lat="45.41218357453413" lon="9.382396563999375"><ele>94.80000000000001</ele><time>2026-04-06T07:39:49Z</time></trkpt><trkpt lat="45.41219291886719" lon="9.3825544504897"><ele>94.4</ele><time>2026-04-06T07:39:51Z</time></trkpt><trkpt lat="45.412242207885846" lon="9.382705883478648"><ele>94.0</ele><time>2026-04-06T07:39:53Z</time></trkpt><trkpt lat="45.4122761247251" lon="9.382863273302343"><ele>94.0</ele><time>2026-04-06T07:39:55Z</time></trkpt><trkpt lat="45.41229232912119" lon="9.383027244539301"><ele>94.0</ele><time>2026-04-06T07:39:57Z</time></trkpt><trkpt lat="45.41230651817344" lon="9.383197908179936"><ele>94.0</ele><time>2026-04-06T07:39:59Z</time></trkpt><trkpt lat="45.41233456788908" lon="9.383365318998518"><ele>94.0</ele><time>2026-04-06T07:40:01Z</time></trkpt><trkpt lat="45.412361027128284" lon="9.383507697737448"><ele>94.0</ele><time>2026-04-06T07:40:03Z</time></trkpt><trkpt lat="45.412382609907056" lon="9.383601877554316"><ele>94.0</ele><time>2026-04-06T07:40:04Z</time></trkpt><trkpt lat="45.4124188263597" lon="9.383755734699914"><ele>94.0</ele><time>2026-04-06T07:40:06Z</time></trkpt><trkpt lat="45.41244795642747" lon="9.383910652952533"><ele>94.0</ele><time>2026-04-06T07:40:08Z</time></trkpt><trkpt lat="45.41248091613966" lon="9.38404466065618"><ele>94.0</ele><time>2026-04-06T07:40:10Z</time></trkpt><trkpt lat="45.41250954329247" lon="9.384198227650982"><ele>94.4</ele><time>2026-04-06T07:40:12Z</time></trkpt><trkpt lat="45.412532940560546" lon="9.384344100852388"><ele>94.80000000000001</ele><time>2026-04-06T07:40:14Z</time></trkpt><trkpt lat="45.41256159550195" lon="9.384484926131861"><ele>95.19999999999999</ele><time>2026-04-06T07:40:16Z</time></trkpt><trkpt lat="45.41258524050792" lon="9.384628294810687"><ele>95.6</ele><time>2026-04-06T07:40:18Z</time></trkpt><trkpt lat="45.41260419310322" lon="9.384786299442839"><ele>96.0</ele><time>2026-04-06T07:40:20Z</time></trkpt><trkpt lat="45.41264136837621" lon="9.384925648040303"><ele>96.0</ele><time>2026-04-06T07:40:22Z</time></trkpt><trkpt lat="45.41266830957049" lon="9.385071195994048"><ele>96.0</ele><time>2026-04-06T07:40:24Z</time></trkpt><trkpt lat="45.41269857554646" lon="9.385218922109773"><ele>96.0</ele><time>2026-04-06T07:40:26Z</time></trkpt><trkpt lat="45.412734639857675" lon="9.38536210721267"><ele>96.0</ele><time>2026-04-06T07:40:28Z</time></trkpt><trkpt lat="45.41276488477354" lon="9.385504613334255"><ele>96.0</ele><time>2026-04-06T07:40:30Z</time></trkpt><trkpt lat="45.41279425996427" lon="9.385643931478615"><ele>96.0</ele><time>2026-04-06T07:40:32Z</time></trkpt><trkpt lat="45.4128328601597" lon="9.385774370047631"><ele>96.0</ele><time>2026-04-06T07:40:34Z</time></trkpt><trkpt lat="45.41287617348923" lon="9.385885393848824"><ele>96.0</ele><time>2026-04-06T07:40:36Z</time></trkpt><trkpt lat="45.412955295085084" lon="9.38594288628856"><ele>96.0</ele><time>2026-04-06T07:40:38Z</time></trkpt><trkpt lat="45.41305726707426" lon="9.385956369200992"><ele>96.0</ele><time>2026-04-06T07:40:40Z</time></trkpt><trkpt lat="45.41316468090509" lon="9.385939455457176"><ele>96.4</ele><time>2026-04-06T07:40:42Z</time></trkpt><trkpt lat="45.413272737091795" lon="9.385925285643475"><ele>96.8</ele><time>2026-04-06T07:40:44Z</time></trkpt><trkpt lat="45.41338159291535" lon="9.38589435271064"><ele>97.2</ele><time>2026-04-06T07:40:46Z</time></trkpt><trkpt lat="45.41349351465587" lon="9.385876729480565"><ele>97.60000000000001</ele><time>2026-04-06T07:40:48Z</time></trkpt><trkpt lat="45.41360658589746" lon="9.385854232501234"><ele>98.0</ele><time>2026-04-06T07:40:50Z</time></trkpt><trkpt lat="45.41372412379939" lon="9.3858207198859"><ele>97.25</ele><time>2026-04-06T07:40:52Z</time></trkpt><trkpt lat="45.41384627125699" lon="9.38580039358125"><ele>96.5</ele><time>2026-04-06T07:40:54Z</time></trkpt><trkpt lat="45.413963482891624" lon="9.385780852763782"><ele>95.75</ele><time>2026-04-06T07:40:56Z</time></trkpt><trkpt lat="45.414081800479906" lon="9.385758801999927"><ele>95.0</ele><time>2026-04-06T07:40:58Z</time></trkpt><trkpt lat="45.414196340052634" lon="9.385729773547556"><ele>95.0</ele><time>2026-04-06T07:41:00Z</time></trkpt><trkpt lat="45.414259923269434" lon="9.385721181650178"><ele>95.0</ele><time>2026-04-06T07:41:01Z</time></trkpt><trkpt lat="45.41438227939686" lon="9.385690503969064"><ele>95.0</ele><time>2026-04-06T07:41:03Z</time></trkpt><trkpt lat="45.414504719270134" lon="9.385667622344693"><ele>95.0</ele><time>2026-04-06T07:41:05Z</time></trkpt><trkpt lat="45.41462549128634" lon="9.385640893570399"><ele>95.0</ele><time>2026-04-06T07:41:07Z</time></trkpt><trkpt lat="45.41474384995716" lon="9.385611741922562"><ele>95.0</ele><time>2026-04-06T07:41:09Z</time></trkpt><trkpt lat="45.41486507449377" lon="9.385600201870561"><ele>95.0</ele><time>2026-04-06T07:41:11Z</time></trkpt><trkpt lat="45.41498289104959" lon="9.385575554316762"><ele>95.0</ele><time>2026-04-06T07:41:13Z</time></trkpt><trkpt lat="45.41509667310956" lon="9.385534073731327"><ele>95.0</ele><time>2026-04-06T07:41:15Z</time></trkpt><trkpt lat="45.41521169344961" lon="9.385519694120578"><ele>95.5</ele><time>2026-04-06T07:41:17Z</time></trkpt><trkpt lat="45.41532372416783" lon="9.385498186402144"><ele>96.0</ele><time>2026-04-06T07:41:19Z</time></trkpt><trkpt lat="45.415437330125116" lon="9.385473680239498"><ele>96.5</ele><time>2026-04-06T07:41:21Z</time></trkpt><trkpt lat="45.41555038242757" lon="9.38545305245"><ele>97.0</ele><time>2026-04-06T07:41:23Z</time></trkpt><trkpt lat="45.415660299930614" lon="9.385424731987145"><ele>97.19999999999999</ele><time>2026-04-06T07:41:25Z</time></trkpt><trkpt lat="45.41577484074141" lon="9.385403953329845"><ele>97.4</ele><time>2026-04-06T07:41:27Z</time></trkpt><trkpt lat="45.415895353592035" lon="9.385412434944133"><ele>97.6</ele><time>2026-04-06T07:41:29Z</time></trkpt><trkpt lat="45.415990516305264" lon="9.385527622354314"><ele>97.80000000000001</ele><time>2026-04-06T07:41:31Z</time></trkpt><trkpt lat="45.41601977617683" lon="9.385611908808158"><ele>98.0</ele><time>2026-04-06T07:41:32Z</time></trkpt><trkpt lat="45.41603841796789" lon="9.385697804400005"><ele>97.49999999999999</ele><time>2026-04-06T07:41:33Z</time></trkpt><trkpt lat="45.41604874186166" lon="9.385787412768842"><ele>97.0</ele><time>2026-04-06T07:41:34Z</time></trkpt><trkpt lat="45.41607673687824" lon="9.385960027255216"><ele>96.5</ele><time>2026-04-06T07:41:36Z</time></trkpt><trkpt lat="45.416088797112934" lon="9.38604804990179"><ele>96.0</ele><time>2026-04-06T07:41:37Z</time></trkpt><trkpt lat="45.4160988251618" lon="9.386155306724865"><ele>95.5</ele><time>2026-04-06T07:41:38Z</time></trkpt><trkpt lat="45.41613172540697" lon="9.386316411887991"><ele>95.0</ele><time>2026-04-06T07:41:40Z</time></trkpt><trkpt lat="45.41616004755627" lon="9.38648411860918"><ele>94.75</ele><time>2026-04-06T07:41:42Z</time></trkpt><trkpt lat="45.416181379412194" lon="9.386652561555477"><ele>94.5</ele><time>2026-04-06T07:41:44Z</time></trkpt><trkpt lat="45.41620437735662" lon="9.386820461920337"><ele>94.25</ele><time>2026-04-06T07:41:46Z</time></trkpt><trkpt lat="45.4162275949177" lon="9.386986813835774"><ele>94.0</ele><time>2026-04-06T07:41:48Z</time></trkpt><trkpt lat="45.41625571446652" lon="9.38714754973246"><ele>94.2</ele><time>2026-04-06T07:41:50Z</time></trkpt><trkpt lat="45.41628027182433" lon="9.387294867285638"><ele>94.4</ele><time>2026-04-06T07:41:52Z</time></trkpt><trkpt lat="45.41632133856712" lon="9.38742081846035"><ele>94.6</ele><time>2026-04-06T07:41:54Z</time></trkpt><trkpt lat="45.416424359131746" lon="9.387476247724992"><ele>94.8</ele><time>2026-04-06T07:41:56Z</time></trkpt><trkpt lat="45.41653040789564" lon="9.387399939422886"><ele>95.0</ele><time>2026-04-06T07:41:58Z</time></trkpt><trkpt lat="45.416627627113186" lon="9.387327793286248"><ele>95.2</ele><time>2026-04-06T07:42:00Z</time></trkpt><trkpt lat="45.416720586144386" lon="9.38725606278039"><ele>95.4</ele><time>2026-04-06T07:42:02Z</time></trkpt><trkpt lat="45.41681171106674" lon="9.387186004277709"><ele>95.6</ele><time>2026-04-06T07:42:04Z</time></trkpt><trkpt lat="45.41690253560111" lon="9.387103080701337"><ele>95.8</ele><time>2026-04-06T07:42:06Z</time></trkpt><trkpt lat="45.41698781157297" lon="9.387014401652452"><ele>96.0</ele><time>2026-04-06T07:42:08Z</time></trkpt><trkpt lat="45.41707384165125" lon="9.386929725661195"><ele>95.75</ele><time>2026-04-06T07:42:10Z</time></trkpt><trkpt lat="45.41716421897494" lon="9.386842589388106"><ele>95.5</ele><time>2026-04-06T07:42:12Z</time></trkpt><trkpt lat="45.41725190971717" lon="9.386747038525415"><ele>95.25</ele><time>2026-04-06T07:42:14Z</time></trkpt><trkpt lat="45.417348707908886" lon="9.386660537576972"><ele>95.0</ele><time>2026-04-06T07:42:16Z</time></trkpt><trkpt lat="45.4174610526588" lon="9.386619384893235"><ele>95.0</ele><time>2026-04-06T07:42:18Z</time></trkpt><trkpt lat="45.41758340821261" lon="9.386647950863178"><ele>95.0</ele><time>2026-04-06T07:42:20Z</time></trkpt><trkpt lat="45.41764509226128" lon="9.38667024146857"><ele>95.0</ele><time>2026-04-06T07:42:21Z</time></trkpt><trkpt lat="45.41776006014037" lon="9.38673616618812"><ele>95.0</ele><time>2026-04-06T07:42:23Z</time></trkpt><trkpt lat="45.41786900090755" lon="9.3868010291492"><ele>95.0</ele><time>2026-04-06T07:42:25Z</time></trkpt><trkpt lat="45.417944227504684" lon="9.38691834449004"><ele>95.0</ele><time>2026-04-06T07:42:27Z</time></trkpt><trkpt lat="45.417897859153385" lon="9.387072814374031"><ele>95.0</ele><time>2026-04-06T07:42:29Z</time></trkpt><trkpt lat="45.41785246528606" lon="9.387198521661277"><ele>95.0</ele><time>2026-04-06T07:42:31Z</time></trkpt><trkpt lat="45.417842634231555" lon="9.387332395734312"><ele>95.0</ele><time>2026-04-06T07:42:33Z</time></trkpt><trkpt lat="45.41784772184574" lon="9.387450913706818"><ele>95.0</ele><time>2026-04-06T07:42:35Z</time></trkpt><trkpt lat="45.41785089134524" lon="9.38756224745283"><ele>95.16666666666667</ele><time>2026-04-06T07:42:37Z</time></trkpt><trkpt lat="45.41783007441627" lon="9.387665779248517"><ele>95.33333333333334</ele><time>2026-04-06T07:42:39Z</time></trkpt><trkpt lat="45.41776418484555" lon="9.387736905754663"><ele>95.5</ele><time>2026-04-06T07:42:41Z</time></trkpt><trkpt lat="45.41770023255481" lon="9.387799275787726"><ele>95.66666666666667</ele><time>2026-04-06T07:42:43Z</time></trkpt><trkpt lat="45.417645736297935" lon="9.387850009224891"><ele>95.83333333333333</ele><time>2026-04-06T07:42:45Z</time></trkpt><trkpt lat="45.41757111397241" lon="9.387921453769643"><ele>96.0</ele><time>2026-04-06T07:42:49Z</time></trkpt><trkpt lat="45.41749402190165" lon="9.387969908561873"><ele>96.0</ele><time>2026-04-06T07:42:52Z</time></trkpt><trkpt lat="45.41740972689209" lon="9.38800240500087"><ele>96.0</ele><time>2026-04-06T07:42:54Z</time></trkpt><trkpt lat="45.41732474961515" lon="9.388047969554925"><ele>96.0</ele><time>2026-04-06T07:42:56Z</time></trkpt><trkpt lat="45.41724342635813" lon="9.388108563049746"><ele>96.0</ele><time>2026-04-06T07:42:58Z</time></trkpt><trkpt lat="45.41715951809884" lon="9.388181406928057"><ele>96.0</ele><time>2026-04-06T07:43:00Z</time></trkpt><trkpt lat="45.41707864311122" lon="9.388249530932162"><ele>95.8</ele><time>2026-04-06T07:43:02Z</time></trkpt><trkpt lat="45.416987167239064" lon="9.388304911509083"><ele>95.6</ele><time>2026-04-06T07:43:04Z</time></trkpt><trkpt lat="45.41690077744372" lon="9.388378271332366"><ele>95.4</ele><time>2026-04-06T07:43:06Z</time></trkpt><trkpt lat="45.416819643742954" lon="9.388450259333386"><ele>95.2</ele><time>2026-04-06T07:43:08Z</time></trkpt><trkpt lat="45.4167415044879" lon="9.388504591662437"><ele>95.0</ele><time>2026-04-06T07:43:10Z</time></trkpt><trkpt lat="45.4166674565791" lon="9.388561152444192"><ele>95.0</ele><time>2026-04-06T07:43:12Z</time></trkpt><trkpt lat="45.41659673361241" lon="9.388615494631063"><ele>95.0</ele><time>2026-04-06T07:43:14Z</time></trkpt><trkpt lat="45.41652139168106" lon="9.38866353844834"><ele>95.0</ele><time>2026-04-06T07:43:16Z</time></trkpt><trkpt lat="45.4164488525679" lon="9.388725916347202"><ele>95.0</ele><time>2026-04-06T07:43:18Z</time></trkpt><trkpt lat="45.41637599899642" lon="9.38879395426255"><ele>95.0</ele><time>2026-04-06T07:43:20Z</time></trkpt><trkpt lat="45.41630626496047" lon="9.388863900276515"><ele>95.0</ele><time>2026-04-06T07:43:22Z</time></trkpt><trkpt lat="45.416242115539696" lon="9.388935228317354"><ele>94.83333333333334</ele><time>2026-04-06T07:43:24Z</time></trkpt><trkpt lat="45.41618284311981" lon="9.389006985146215"><ele>94.66666666666667</ele><time>2026-04-06T07:43:26Z</time></trkpt><trkpt lat="45.41612462411828" lon="9.389082606419366"><ele>94.5</ele><time>2026-04-06T07:43:28Z</time></trkpt><trkpt lat="45.41607749593447" lon="9.389165499880331"><ele>94.33333333333333</ele><time>2026-04-06T07:43:30Z</time></trkpt><trkpt lat="45.416030713402854" lon="9.38925208265383"><ele>94.16666666666666</ele><time>2026-04-06T07:43:32Z</time></trkpt><trkpt lat="45.415978873982056" lon="9.389352892583036"><ele>94.0</ele><time>2026-04-06T07:43:34Z</time></trkpt><trkpt lat="45.41592231763411" lon="9.389457241239539"><ele>94.0</ele><time>2026-04-06T07:43:36Z</time></trkpt><trkpt lat="45.41587600543207" lon="9.389562396820248"><ele>94.0</ele><time>2026-04-06T07:43:38Z</time></trkpt><trkpt lat="45.41583291572353" lon="9.38965980139094"><ele>94.0</ele><time>2026-04-06T07:43:40Z</time></trkpt><trkpt lat="45.41578959554428" lon="9.389752940791263"><ele>94.0</ele><time>2026-04-06T07:43:42Z</time></trkpt><trkpt lat="45.4157477049648" lon="9.389836988192982"><ele>94.0</ele><time>2026-04-06T07:43:44Z</time></trkpt><trkpt lat="45.415705233428916" lon="9.38993573638678"><ele>94.0</ele><time>2026-04-06T07:43:46Z</time></trkpt><trkpt lat="45.415670061420286" lon="9.3900325632176"><ele>94.33333333333333</ele><time>2026-04-06T07:43:48Z</time></trkpt><trkpt lat="45.4156365774861" lon="9.390141383983506"><ele>94.66666666666666</ele><time>2026-04-06T07:43:50Z</time></trkpt><trkpt lat="45.41560397922174" lon="9.390261141853312"><ele>95.0</ele><time>2026-04-06T07:43:52Z</time></trkpt><trkpt lat="45.41557159278633" lon="9.39037446680883"><ele>95.33333333333333</ele><time>2026-04-06T07:43:54Z</time></trkpt><trkpt lat="45.41555336720498" lon="9.390486806611058"><ele>95.66666666666667</ele><time>2026-04-06T07:43:56Z</time></trkpt><trkpt lat="45.4155324149352" lon="9.390597266645976"><ele>96.0</ele><time>2026-04-06T07:43:58Z</time></trkpt><trkpt lat="45.4155149446685" lon="9.390716675823532"><ele>96.0</ele><time>2026-04-06T07:44:00Z</time></trkpt><trkpt lat="45.415503143922116" lon="9.390838276285601"><ele>96.0</ele><time>2026-04-06T07:44:02Z</time></trkpt><trkpt lat="45.41548704226962" lon="9.390961509324688"><ele>96.0</ele><time>2026-04-06T07:44:04Z</time></trkpt><trkpt lat="45.415488035908375" lon="9.391086971006482"><ele>96.0</ele><time>2026-04-06T07:44:06Z</time></trkpt><trkpt lat="45.41549607441818" lon="9.39121072290562"><ele>96.0</ele><time>2026-04-06T07:44:08Z</time></trkpt><trkpt lat="45.41549927537755" lon="9.39133340984983"><ele>96.0</ele><time>2026-04-06T07:44:10Z</time></trkpt><trkpt lat="45.415512947435246" lon="9.39145146395766"><ele>96.16666666666667</ele><time>2026-04-06T07:44:12Z</time></trkpt><trkpt lat="45.41551865635887" lon="9.39156079755128"><ele>96.33333333333334</ele><time>2026-04-06T07:44:14Z</time></trkpt><trkpt lat="45.41554179308836" lon="9.391671071835965"><ele>96.5</ele><time>2026-04-06T07:44:16Z</time></trkpt><trkpt lat="45.41553891356909" lon="9.391783807950615"><ele>96.66666666666667</ele><time>2026-04-06T07:44:18Z</time></trkpt><trkpt lat="45.41553169909849" lon="9.391897376441012"><ele>96.83333333333334</ele><time>2026-04-06T07:44:20Z</time></trkpt><trkpt lat="45.41552504265089" lon="9.392007631808301"><ele>97.0</ele><time>2026-04-06T07:44:22Z</time></trkpt><trkpt lat="45.4155055673838" lon="9.39211736239797"><ele>96.6</ele><time>2026-04-06T07:44:24Z</time></trkpt><trkpt lat="45.41548531904464" lon="9.39223551759794"><ele>96.19999999999999</ele><time>2026-04-06T07:44:26Z</time></trkpt><trkpt lat="45.415470094390415" lon="9.392357888993178"><ele>95.8</ele><time>2026-04-06T07:44:28Z</time></trkpt><trkpt lat="45.41546452531538" lon="9.392473942617743"><ele>95.4</ele><time>2026-04-06T07:44:30Z</time></trkpt><trkpt lat="45.4154592206311" lon="9.392596386876988"><ele>95.0</ele><time>2026-04-06T07:44:33Z</time></trkpt><trkpt lat="45.41552861662443" lon="9.393465165176826"><ele>94.83333333333334</ele><time>2026-04-06T07:51:44Z</time></trkpt><trkpt lat="45.415483573705295" lon="9.393566109847209"><ele>94.66666666666667</ele><time>2026-04-06T07:51:46Z</time></trkpt><trkpt lat="45.415431188439506" lon="9.393666063579332"><ele>94.5</ele><time>2026-04-06T07:51:48Z</time></trkpt><trkpt lat="45.41537963185188" lon="9.39376270944458"><ele>94.33333333333333</ele><time>2026-04-06T07:51:50Z</time></trkpt><trkpt lat="45.415311374414685" lon="9.393840710191013"><ele>94.16666666666666</ele><time>2026-04-06T07:51:52Z</time></trkpt><trkpt lat="45.41524538718793" lon="9.393921219709421"><ele>94.0</ele><time>2026-04-06T07:51:54Z</time></trkpt><trkpt lat="45.41517465153047" lon="9.394000323648802"><ele>94.0</ele><time>2026-04-06T07:51:56Z</time></trkpt><trkpt lat="45.415098396302284" lon="9.394066799560372"><ele>94.0</ele><time>2026-04-06T07:51:58Z</time></trkpt><trkpt lat="45.41502568263126" lon="9.39413557296039"><ele>94.0</ele><time>2026-04-06T07:52:00Z</time></trkpt><trkpt lat="45.414955012168605" lon="9.39420090948498"><ele>94.0</ele><time>2026-04-06T07:52:02Z</time></trkpt><trkpt lat="45.41488370515152" lon="9.394269994443405"><ele>94.0</ele><time>2026-04-06T07:52:04Z</time></trkpt><trkpt lat="45.4148188581612" lon="9.394336565117204"><ele>94.0</ele><time>2026-04-06T07:52:06Z</time></trkpt><trkpt lat="45.414751867126824" lon="9.394391145537284"><ele>94.0</ele><time>2026-04-06T07:52:08Z</time></trkpt><trkpt lat="45.414690950374776" lon="9.394440673456295"><ele>94.0</ele><time>2026-04-06T07:52:10Z</time></trkpt><trkpt lat="45.41463253923344" lon="9.394489991508593"><ele>94.0</ele><time>2026-04-06T07:52:12Z</time></trkpt><trkpt lat="45.41457658125255" lon="9.394536572550125"><ele>94.0</ele><time>2026-04-06T07:52:14Z</time></trkpt><trkpt lat="45.41450231966284" lon="9.394579023050662"><ele>94.0</ele><time>2026-04-06T07:52:16Z</time></trkpt><trkpt lat="45.4144237249939" lon="9.394609403670298"><ele>94.0</ele><time>2026-04-06T07:52:18Z</time></trkpt><trkpt lat="45.41434585757223" lon="9.394626385707296"><ele>94.0</ele><time>2026-04-06T07:52:20Z</time></trkpt><trkpt lat="45.41425842824586" lon="9.39465525937117"><ele>94.0</ele><time>2026-04-06T07:52:22Z</time></trkpt><trkpt lat="45.41417993037787" lon="9.394691734161775"><ele>94.0</ele><time>2026-04-06T07:52:24Z</time></trkpt><trkpt lat="45.41410229342551" lon="9.394719012410041"><ele>94.0</ele><time>2026-04-06T07:52:26Z</time></trkpt><trkpt lat="45.414035103432994" lon="9.394752057367176"><ele>94.0</ele><time>2026-04-06T07:52:28Z</time></trkpt><trkpt lat="45.41396586607011" lon="9.394786092379844"><ele>94.0</ele><time>2026-04-06T07:52:30Z</time></trkpt><trkpt lat="45.41390857851441" lon="9.39483467858942"><ele>94.0</ele><time>2026-04-06T07:52:32Z</time></trkpt><trkpt lat="45.413822079469696" lon="9.394899885205872"><ele>94.16666666666666</ele><time>2026-04-06T07:52:35Z</time></trkpt><trkpt lat="45.4137614280971" lon="9.394942038759991"><ele>94.33333333333333</ele><time>2026-04-06T07:52:37Z</time></trkpt><trkpt lat="45.41369485012715" lon="9.394995371298197"><ele>94.5</ele><time>2026-04-06T07:52:39Z</time></trkpt><trkpt lat="45.41362383461725" lon="9.39504782357552"><ele>94.66666666666667</ele><time>2026-04-06T07:52:41Z</time></trkpt><trkpt lat="45.41355125301029" lon="9.395110431230151"><ele>94.83333333333334</ele><time>2026-04-06T07:52:43Z</time></trkpt><trkpt lat="45.41348311744456" lon="9.395179582907367"><ele>95.0</ele><time>2026-04-06T07:52:45Z</time></trkpt><trkpt lat="45.4134102768385" lon="9.39524483948687"><ele>95.0</ele><time>2026-04-06T07:52:47Z</time></trkpt><trkpt lat="45.41333672631487" lon="9.395301067976481"><ele>95.0</ele><time>2026-04-06T07:52:49Z</time></trkpt><trkpt lat="45.41326539108699" lon="9.3953529600966"><ele>95.0</ele><time>2026-04-06T07:52:51Z</time></trkpt><trkpt lat="45.41318609478817" lon="9.39540879613244"><ele>95.0</ele><time>2026-04-06T07:52:53Z</time></trkpt><trkpt lat="45.41310120409853" lon="9.3954441215949"><ele>95.0</ele><time>2026-04-06T07:52:55Z</time></trkpt><trkpt lat="45.413010459646436" lon="9.395480195790954"><ele>95.0</ele><time>2026-04-06T07:52:57Z</time></trkpt><trkpt lat="45.41293729149922" lon="9.395523135355445"><ele>94.66666666666667</ele><time>2026-04-06T07:52:59Z</time></trkpt><trkpt lat="45.412855599198316" lon="9.395543885183885"><ele>94.33333333333334</ele><time>2026-04-06T07:53:01Z</time></trkpt><trkpt lat="45.41277778803437" lon="9.39557407814517"><ele>94.0</ele><time>2026-04-06T07:53:03Z</time></trkpt><trkpt lat="45.412697702956855" lon="9.395591400427925"><ele>93.66666666666667</ele><time>2026-04-06T07:53:05Z</time></trkpt><trkpt lat="45.41261665999055" lon="9.395609717450508"><ele>93.33333333333333</ele><time>2026-04-06T07:53:07Z</time></trkpt><trkpt lat="45.41252963758296" lon="9.395628251099497"><ele>93.0</ele><time>2026-04-06T07:53:09Z</time></trkpt><trkpt lat="45.412437522552494" lon="9.395651989591336"><ele>93.0</ele><time>2026-04-06T07:53:11Z</time></trkpt><trkpt lat="45.41234730737302" lon="9.39566980541742"><ele>93.0</ele><time>2026-04-06T07:53:13Z</time></trkpt><trkpt lat="45.41225505641477" lon="9.395688930505912"><ele>93.0</ele><time>2026-04-06T07:53:15Z</time></trkpt><trkpt lat="45.412160571559255" lon="9.395712945774898"><ele>93.0</ele><time>2026-04-06T07:53:17Z</time></trkpt><trkpt lat="45.41206814433851" lon="9.395739932923984"><ele>93.0</ele><time>2026-04-06T07:53:19Z</time></trkpt><trkpt lat="45.4119785290967" lon="9.395766362592182"><ele>93.0</ele><time>2026-04-06T07:53:21Z</time></trkpt><trkpt lat="45.411890300298026" lon="9.395792134783793"><ele>93.0</ele><time>2026-04-06T07:53:23Z</time></trkpt><trkpt lat="45.411804496545976" lon="9.395815717073805"><ele>93.0</ele><time>2026-04-06T07:53:25Z</time></trkpt><trkpt lat="45.411714766261035" lon="9.395849517161084"><ele>93.0</ele><time>2026-04-06T07:53:27Z</time></trkpt><trkpt lat="45.41163244376884" lon="9.395892301737302"><ele>93.0</ele><time>2026-04-06T07:53:29Z</time></trkpt><trkpt lat="45.411549233538146" lon="9.395922989395205"><ele>93.0</ele><time>2026-04-06T07:53:31Z</time></trkpt><trkpt lat="45.41147615092471" lon="9.395969970599056"><ele>93.0</ele><time>2026-04-06T07:53:33Z</time></trkpt><trkpt lat="45.41139249172344" lon="9.396007559359937"><ele>93.0</ele><time>2026-04-06T07:53:35Z</time></trkpt><trkpt lat="45.41130262844239" lon="9.396044935943237"><ele>93.0</ele><time>2026-04-06T07:53:37Z</time></trkpt><trkpt lat="45.41121847762486" lon="9.396099012870025"><ele>93.0</ele><time>2026-04-06T07:53:39Z</time></trkpt><trkpt lat="45.411149376735644" lon="9.39614206648757"><ele>93.0</ele><time>2026-04-06T07:53:41Z</time></trkpt><trkpt lat="45.411087278192696" lon="9.396188718629098"><ele>93.0</ele><time>2026-04-06T07:53:43Z</time></trkpt><trkpt lat="45.41102908373596" lon="9.396225331786807"><ele>93.0</ele><time>2026-04-06T07:53:45Z</time></trkpt><trkpt lat="45.41095793647441" lon="9.396268910851859"><ele>93.0</ele><time>2026-04-06T07:53:48Z</time></trkpt><trkpt lat="45.41089065731887" lon="9.396286815756975"><ele>93.0</ele><time>2026-04-06T07:53:52Z</time></trkpt><trkpt lat="45.41080051814073" lon="9.396291933073107"><ele>93.0</ele><time>2026-04-06T07:53:54Z</time></trkpt><trkpt lat="45.41070039680138" lon="9.396300801375961"><ele>93.0</ele><time>2026-04-06T07:53:56Z</time></trkpt><trkpt lat="45.41059507685315" lon="9.396308010240663"><ele>93.0</ele><time>2026-04-06T07:53:58Z</time></trkpt><trkpt lat="45.41049075752843" lon="9.396316213548479"><ele>93.0</ele><time>2026-04-06T07:54:00Z</time></trkpt><trkpt lat="45.41038705399337" lon="9.396322931647296"><ele>93.0</ele><time>2026-04-06T07:54:02Z</time></trkpt><trkpt lat="45.410292793931454" lon="9.39632247574953"><ele>93.0</ele><time>2026-04-06T07:54:04Z</time></trkpt><trkpt lat="45.41019730130633" lon="9.396328066893295"><ele>93.0</ele><time>2026-04-06T07:54:06Z</time></trkpt><trkpt lat="45.41010400726761" lon="9.396337674269132"><ele>93.0</ele><time>2026-04-06T07:54:08Z</time></trkpt><trkpt lat="45.4100140069588" lon="9.3963335549129"><ele>93.0</ele><time>2026-04-06T07:54:10Z</time></trkpt><trkpt lat="45.4099276635489" lon="9.396332943781399"><ele>93.0</ele><time>2026-04-06T07:54:12Z</time></trkpt><trkpt lat="45.409850054049166" lon="9.396333987453838"><ele>93.0</ele><time>2026-04-06T07:54:14Z</time></trkpt><trkpt lat="45.40977376429232" lon="9.396345370589165"><ele>93.0</ele><time>2026-04-06T07:54:16Z</time></trkpt><trkpt lat="45.40970092379974" lon="9.396343656197766"><ele>93.0</ele><time>2026-04-06T07:54:18Z</time></trkpt><trkpt lat="45.409620413665" lon="9.396343109796433"><ele>93.0</ele><time>2026-04-06T07:54:20Z</time></trkpt><trkpt lat="45.40954274153057" lon="9.39634686285827"><ele>93.00000000000001</ele><time>2026-04-06T07:54:22Z</time></trkpt><trkpt lat="45.40946672500393" lon="9.396360245631213"><ele>93.0</ele><time>2026-04-06T07:54:24Z</time></trkpt><trkpt lat="45.409391729005236" lon="9.396355709912028"><ele>93.0</ele><time>2026-04-06T07:54:26Z</time></trkpt><trkpt lat="45.40931641189942" lon="9.396359521858804"><ele>93.0</ele><time>2026-04-06T07:54:28Z</time></trkpt><trkpt lat="45.40923827103985" lon="9.396355921629299"><ele>93.0</ele><time>2026-04-06T07:54:30Z</time></trkpt><trkpt lat="45.409161383450574" lon="9.396358437620245"><ele>93.00000000000001</ele><time>2026-04-06T07:54:32Z</time></trkpt><trkpt lat="45.40909740711637" lon="9.396347885621765"><ele>93.0</ele><time>2026-04-06T07:54:34Z</time></trkpt><trkpt lat="45.40900497375942" lon="9.396347325465547"><ele>93.00000000000001</ele><time>2026-04-06T07:54:37Z</time></trkpt><trkpt lat="45.40892071108581" lon="9.3963326557873"><ele>93.0</ele><time>2026-04-06T07:54:40Z</time></trkpt><trkpt lat="45.40884922800897" lon="9.396317368203594"><ele>93.0</ele><time>2026-04-06T07:54:43Z</time></trkpt><trkpt lat="45.40878519877456" lon="9.39629092943205"><ele>93.0</ele><time>2026-04-06T07:54:46Z</time></trkpt><trkpt lat="45.40871414273973" lon="9.396274041945121"><ele>93.0</ele><time>2026-04-06T07:54:50Z</time></trkpt><trkpt lat="45.40864333559695" lon="9.39624783054145"><ele>93.00000000000001</ele><time>2026-04-06T07:54:56Z</time></trkpt><trkpt lat="45.40857172901341" lon="9.396216927149055"><ele>93.0</ele><time>2026-04-06T07:55:02Z</time></trkpt><trkpt lat="45.40850799033591" lon="9.39618527144471"><ele>92.71428571428572</ele><time>2026-04-06T07:55:07Z</time></trkpt><trkpt lat="45.40843459110438" lon="9.396148828566066"><ele>92.42857142857143</ele><time>2026-04-06T07:55:12Z</time></trkpt><trkpt lat="45.40837397734521" lon="9.39611069931151"><ele>92.14285714285714</ele><time>2026-04-06T07:55:17Z</time></trkpt><trkpt lat="45.40831192158644" lon="9.396094670292575"><ele>91.85714285714286</ele><time>2026-04-06T07:55:22Z</time></trkpt><trkpt lat="45.408246633974066" lon="9.396045991326066"><ele>91.57142857142857</ele><time>2026-04-06T07:55:27Z</time></trkpt><trkpt lat="45.408181433128476" lon="9.396020101616738"><ele>91.28571428571429</ele><time>2026-04-06T07:56:08Z</time></trkpt><trkpt lat="45.408120457008046" lon="9.395984088143658"><ele>91.0</ele><time>2026-04-06T08:02:48.001Z</time></trkpt><trkpt lat="45.40805161110047" lon="9.395957523818014"><ele>91.0</ele><time>2026-04-06T08:02:53.001Z</time></trkpt><trkpt lat="45.4079884908106" lon="9.39593444363543"><ele>91.0</ele><time>2026-04-06T08:02:58.001Z</time></trkpt><trkpt lat="45.40792010528956" lon="9.395904250982182"><ele>91.0</ele><time>2026-04-06T08:03:02.001Z</time></trkpt><trkpt lat="45.40785730995019" lon="9.395878693551508"><ele>91.0</ele><time>2026-04-06T08:03:06.001Z</time></trkpt><trkpt lat="45.40779319582839" lon="9.39586370809904"><ele>91.0</ele><time>2026-04-06T08:03:10.001Z</time></trkpt><trkpt lat="45.40772410596452" lon="9.395842225263006"><ele>91.0</ele><time>2026-04-06T08:03:14.001Z</time></trkpt><trkpt lat="45.40764715723909" lon="9.395821098972531"><ele>91.0</ele><time>2026-04-06T08:03:19.001Z</time></trkpt><trkpt lat="45.40757679790679" lon="9.395823933941653"><ele>91.0</ele><time>2026-04-06T08:03:24.001Z</time></trkpt><trkpt lat="45.407513541126626" lon="9.395810781992722"><ele>91.0</ele><time>2026-04-06T08:04:53Z</time></trkpt><trkpt lat="45.4074401956933" lon="9.395802862534282"><ele>91.0</ele><time>2026-04-06T08:04:57Z</time></trkpt><trkpt lat="45.40737720740612" lon="9.395789347218633"><ele>91.0</ele><time>2026-04-06T08:05:00Z</time></trkpt><trkpt lat="45.40731202726263" lon="9.395788912984523"><ele>91.0</ele><time>2026-04-06T08:05:03.001Z</time></trkpt><trkpt lat="45.40724760833946" lon="9.395776231294942"><ele>91.0</ele><time>2026-04-06T08:05:06.001Z</time></trkpt><trkpt lat="45.40717796006202" lon="9.395781050943176"><ele>91.0</ele><time>2026-04-06T08:05:09.001Z</time></trkpt><trkpt lat="45.407099795698386" lon="9.395774183750351"><ele>91.14285714285714</ele><time>2026-04-06T08:05:13.001Z</time></trkpt><trkpt lat="45.40702748692072" lon="9.395763745802247"><ele>91.28571428571428</ele><time>2026-04-06T08:05:18.001Z</time></trkpt><trkpt lat="45.40695611835141" lon="9.395749525843131"><ele>91.42857142857143</ele><time>2026-04-06T08:05:22.001Z</time></trkpt><trkpt lat="45.406876233854035" lon="9.395746427101024"><ele>91.57142857142857</ele><time>2026-04-06T08:05:26.001Z</time></trkpt><trkpt lat="45.40680436042686" lon="9.39574686953655"><ele>91.71428571428571</ele><time>2026-04-06T08:05:29.001Z</time></trkpt><trkpt lat="45.40674140253126" lon="9.395752238181464"><ele>91.85714285714286</ele><time>2026-04-06T08:05:32.001Z</time></trkpt><trkpt lat="45.406665743227336" lon="9.39576383196268"><ele>92.0</ele><time>2026-04-06T08:05:35.001Z</time></trkpt><trkpt lat="45.40659686815522" lon="9.39576840102364"><ele>92.0</ele><time>2026-04-06T08:05:38.001Z</time></trkpt><trkpt lat="45.406519717823365" lon="9.395795601559454"><ele>92.0</ele><time>2026-04-06T08:05:41.001Z</time></trkpt><trkpt lat="45.40645755966705" lon="9.395812495718829"><ele>92.0</ele><time>2026-04-06T08:05:43.001Z</time></trkpt><trkpt lat="45.40639139377289" lon="9.395833322872853"><ele>92.0</ele><time>2026-04-06T08:05:45.001Z</time></trkpt><trkpt lat="45.40630111202145" lon="9.395870414530519"><ele>92.0</ele><time>2026-04-06T08:05:48.001Z</time></trkpt><trkpt lat="45.40623138012676" lon="9.395891756192965"><ele>92.0</ele><time>2026-04-06T08:05:50.001Z</time></trkpt><trkpt lat="45.406165408418026" lon="9.395932595368638"><ele>92.0</ele><time>2026-04-06T08:05:52.001Z</time></trkpt><trkpt lat="45.40609519655363" lon="9.395994954966536"><ele>92.16666666666667</ele><time>2026-04-06T08:05:54.001Z</time></trkpt><trkpt lat="45.406042566706006" lon="9.396066649366047"><ele>92.33333333333334</ele><time>2026-04-06T08:05:56.001Z</time></trkpt><trkpt lat="45.405995913920094" lon="9.396160026519079"><ele>92.5</ele><time>2026-04-06T08:05:58.001Z</time></trkpt><trkpt lat="45.405963272049" lon="9.396266293841425"><ele>92.66666666666667</ele><time>2026-04-06T08:06:00.001Z</time></trkpt><trkpt lat="45.405938924157724" lon="9.396374782093764"><ele>92.83333333333333</ele><time>2026-04-06T08:06:02.001Z</time></trkpt><trkpt lat="45.40591097812339" lon="9.396488864712872"><ele>93.0</ele><time>2026-04-06T08:06:04.001Z</time></trkpt><trkpt lat="45.40588873771947" lon="9.39658891424501"><ele>93.00000000000001</ele><time>2026-04-06T08:06:06.001Z</time></trkpt><trkpt lat="45.40586335596916" lon="9.396681258143902"><ele>93.0</ele><time>2026-04-06T08:06:08.001Z</time></trkpt><trkpt lat="45.40584451617475" lon="9.396769873620459"><ele>93.0</ele><time>2026-04-06T08:06:10.001Z</time></trkpt><trkpt lat="45.40582390431838" lon="9.39686601332443"><ele>93.0</ele><time>2026-04-06T08:06:12.001Z</time></trkpt><trkpt lat="45.4058030912605" lon="9.396967393640205"><ele>93.0</ele><time>2026-04-06T08:06:14.001Z</time></trkpt><trkpt lat="45.40577941724192" lon="9.39707431628396"><ele>93.00000000000001</ele><time>2026-04-06T08:06:16.001Z</time></trkpt><trkpt lat="45.40575317031348" lon="9.397171414015311"><ele>93.0</ele><time>2026-04-06T08:06:18.001Z</time></trkpt><trkpt lat="45.40573374429368" lon="9.397272360253455"><ele>93.0</ele><time>2026-04-06T08:06:20.001Z</time></trkpt><trkpt lat="45.40571823532811" lon="9.397381014615242"><ele>93.0</ele><time>2026-04-06T08:06:22.001Z</time></trkpt><trkpt lat="45.40569504023763" lon="9.397470175481763"><ele>93.0</ele><time>2026-04-06T08:06:24.001Z</time></trkpt><trkpt lat="45.40566786922586" lon="9.397580366759788"><ele>93.0</ele><time>2026-04-06T08:06:26.001Z</time></trkpt><trkpt lat="45.40563531477403" lon="9.397688621568175"><ele>93.0</ele><time>2026-04-06T08:06:28.001Z</time></trkpt><trkpt lat="45.40560700091523" lon="9.397775547423723"><ele>93.0</ele><time>2026-04-06T08:06:30.001Z</time></trkpt><trkpt lat="45.4055741236474" lon="9.397883085037257"><ele>93.0</ele><time>2026-04-06T08:06:33Z</time></trkpt><trkpt lat="45.40554516572667" lon="9.397987957754793"><ele>93.0</ele><time>2026-04-06T08:06:36Z</time></trkpt><trkpt lat="45.40547110241599" lon="9.39801835969949"><ele>93.0</ele><time>2026-04-06T08:11:34.001Z</time></trkpt><trkpt lat="45.40540085160448" lon="9.398081741283315"><ele>93.0</ele><time>2026-04-06T08:11:39.001Z</time></trkpt><trkpt lat="45.40533146263057" lon="9.398137410328378"><ele>93.0</ele><time>2026-04-06T08:11:42.001Z</time></trkpt><trkpt lat="45.40525508381634" lon="9.398198683290268"><ele>93.0</ele><time>2026-04-06T08:11:45.001Z</time></trkpt><trkpt lat="45.405194296734784" lon="9.398235702319296"><ele>92.83333333333333</ele><time>2026-04-06T08:11:47.001Z</time></trkpt><trkpt lat="45.40513195183064" lon="9.398282476406886"><ele>92.66666666666667</ele><time>2026-04-06T08:11:49.001Z</time></trkpt><trkpt lat="45.40507212766231" lon="9.398326192910865"><ele>92.5</ele><time>2026-04-06T08:11:51.001Z</time></trkpt><trkpt lat="45.404992855462844" lon="9.398388849958621"><ele>92.33333333333334</ele><time>2026-04-06T08:11:54.001Z</time></trkpt><trkpt lat="45.4049096452507" lon="9.39844111461997"><ele>92.16666666666667</ele><time>2026-04-06T08:11:57.001Z</time></trkpt><trkpt lat="45.40482619278706" lon="9.398503275197726"><ele>92.0</ele><time>2026-04-06T08:12:00.001Z</time></trkpt><trkpt lat="45.404751512489476" lon="9.398554670242039"><ele>92.0</ele><time>2026-04-06T08:12:03.001Z</time></trkpt><trkpt lat="45.40466514954597" lon="9.398617463617557"><ele>92.0</ele><time>2026-04-06T08:12:06.001Z</time></trkpt><trkpt lat="45.40459094844762" lon="9.39866908551573"><ele>92.0</ele><time>2026-04-06T08:12:08.001Z</time></trkpt><trkpt lat="45.40450979642298" lon="9.398721855695749"><ele>92.0</ele><time>2026-04-06T08:12:10.001Z</time></trkpt><trkpt lat="45.40443447325218" lon="9.398783423878827"><ele>92.0</ele><time>2026-04-06T08:12:12.001Z</time></trkpt><trkpt lat="45.404352807863035" lon="9.398837116949226"><ele>92.0</ele><time>2026-04-06T08:12:14.001Z</time></trkpt><trkpt lat="45.40426610541831" lon="9.398895567341635"><ele>92.19999999999999</ele><time>2026-04-06T08:12:16.001Z</time></trkpt><trkpt lat="45.40417034598184" lon="9.398963324644683"><ele>92.4</ele><time>2026-04-06T08:12:18.001Z</time></trkpt><trkpt lat="45.40408705066884" lon="9.399015753586104"><ele>92.6</ele><time>2026-04-06T08:12:20.001Z</time></trkpt><trkpt lat="45.40399833987273" lon="9.399082639294864"><ele>92.80000000000001</ele><time>2026-04-06T08:12:22.001Z</time></trkpt><trkpt lat="45.40390844055711" lon="9.399135116318536"><ele>93.0</ele><time>2026-04-06T08:12:24.001Z</time></trkpt><trkpt lat="45.40383074821578" lon="9.399206873143223"><ele>93.0</ele><time>2026-04-06T08:12:26.001Z</time></trkpt><trkpt lat="45.40373677013251" lon="9.399295492573618"><ele>93.0</ele><time>2026-04-06T08:12:28.001Z</time></trkpt><trkpt lat="45.40365302110176" lon="9.399380174022063"><ele>93.0</ele><time>2026-04-06T08:12:30.001Z</time></trkpt><trkpt lat="45.40356726219166" lon="9.399461297886598"><ele>93.0</ele><time>2026-04-06T08:12:32.001Z</time></trkpt><trkpt lat="45.40349097505625" lon="9.399529870676464"><ele>93.0</ele><time>2026-04-06T08:12:34.001Z</time></trkpt><trkpt lat="45.403414147485044" lon="9.399593170963874"><ele>92.80000000000001</ele><time>2026-04-06T08:12:36.001Z</time></trkpt><trkpt lat="45.40335720654912" lon="9.399691629849073"><ele>92.6</ele><time>2026-04-06T08:12:38.001Z</time></trkpt><trkpt lat="45.403283770277454" lon="9.399757443429763"><ele>92.4</ele><time>2026-04-06T08:12:39.001Z</time></trkpt><trkpt lat="45.40320105120038" lon="9.399862268418515"><ele>92.19999999999999</ele><time>2026-04-06T08:12:41.001Z</time></trkpt><trkpt lat="45.40312391050747" lon="9.39997647744937"><ele>92.0</ele><time>2026-04-06T08:12:43.001Z</time></trkpt><trkpt lat="45.40305869580514" lon="9.400089090071633"><ele>92.0</ele><time>2026-04-06T08:12:45.001Z</time></trkpt><trkpt lat="45.40300967105712" lon="9.40020683480208"><ele>92.0</ele><time>2026-04-06T08:12:47.001Z</time></trkpt><trkpt lat="45.40300709877188" lon="9.400298031017472"><ele>92.0</ele><time>2026-04-06T08:12:49Z</time></trkpt><trkpt lat="45.40294360259194" lon="9.40034099064623"><ele>92.0</ele><time>2026-04-06T08:12:54Z</time></trkpt><trkpt lat="45.40289366532605" lon="9.400281108013568"><ele>92.0</ele><time>2026-04-06T08:12:56Z</time></trkpt><trkpt lat="45.402839786808485" lon="9.400216384210319"><ele>92.0</ele><time>2026-04-06T08:12:58Z</time></trkpt><trkpt lat="45.40277654904469" lon="9.40016681841161"><ele>92.0</ele><time>2026-04-06T08:13:00Z</time></trkpt><trkpt lat="45.40272415178344" lon="9.400114126988674"><ele>92.0</ele><time>2026-04-06T08:13:02Z</time></trkpt><trkpt lat="45.40264209445777" lon="9.400048241905338"><ele>92.0</ele><time>2026-04-06T08:13:05Z</time></trkpt><trkpt lat="45.40257481100214" lon="9.40012121694077"><ele>92.0</ele><time>2026-04-06T08:13:07Z</time></trkpt><trkpt lat="45.40248604971894" lon="9.400204992606914"><ele>92.0</ele><time>2026-04-06T08:13:09Z</time></trkpt><trkpt lat="45.402388565938224" lon="9.400241336267714"><ele>92.0</ele><time>2026-04-06T08:13:11Z</time></trkpt><trkpt lat="45.40229098178136" lon="9.40027482558923"><ele>92.0</ele><time>2026-04-06T08:13:13Z</time></trkpt><trkpt lat="45.40219215022964" lon="9.400296315197567"><ele>92.0</ele><time>2026-04-06T08:13:15Z</time></trkpt><trkpt lat="45.40209518886114" lon="9.400313286482882"><ele>92.0</ele><time>2026-04-06T08:13:17Z</time></trkpt><trkpt lat="45.401993398974604" lon="9.400332680476453"><ele>92.0</ele><time>2026-04-06T08:13:19Z</time></trkpt><trkpt lat="45.40189371826216" lon="9.400354222105369"><ele>92.0</ele><time>2026-04-06T08:13:21Z</time></trkpt><trkpt lat="45.40178890286013" lon="9.400370343732531"><ele>91.8</ele><time>2026-04-06T08:13:23Z</time></trkpt><trkpt lat="45.401680901340754" lon="9.40038191992425"><ele>91.6</ele><time>2026-04-06T08:13:25.001Z</time></trkpt><trkpt lat="45.4015707233483" lon="9.400383327063903"><ele>91.39999999999999</ele><time>2026-04-06T08:13:27.001Z</time></trkpt><trkpt lat="45.401460608538464" lon="9.400369652248582"><ele>91.19999999999999</ele><time>2026-04-06T08:13:29.001Z</time></trkpt><trkpt lat="45.40134762011239" lon="9.400349805094795"><ele>91.0</ele><time>2026-04-06T08:13:31.001Z</time></trkpt><trkpt lat="45.40122220991377" lon="9.400354643692808"><ele>91.0</ele><time>2026-04-06T08:13:33.001Z</time></trkpt><trkpt lat="45.40110805074349" lon="9.400343553414073"><ele>91.0</ele><time>2026-04-06T08:13:35.001Z</time></trkpt><trkpt lat="45.40100410943951" lon="9.400340658544717"><ele>91.0</ele><time>2026-04-06T08:13:37.001Z</time></trkpt><trkpt lat="45.40090194578096" lon="9.40035145870563"><ele>91.0</ele><time>2026-04-06T08:13:39.001Z</time></trkpt><trkpt lat="45.40080064424848" lon="9.400369641938195"><ele>91.0</ele><time>2026-04-06T08:13:41.001Z</time></trkpt><trkpt lat="45.40069789768537" lon="9.400388974625418"><ele>91.0</ele><time>2026-04-06T08:13:43.001Z</time></trkpt><trkpt lat="45.40059209783135" lon="9.400419088694832"><ele>91.0</ele><time>2026-04-06T08:13:45.001Z</time></trkpt><trkpt lat="45.40049231761117" lon="9.400444248104325"><ele>91.0</ele><time>2026-04-06T08:13:47.001Z</time></trkpt><trkpt lat="45.40039414656435" lon="9.400471993316849"><ele>91.0</ele><time>2026-04-06T08:13:49.001Z</time></trkpt><trkpt lat="45.40029523254413" lon="9.400497332021088"><ele>91.0</ele><time>2026-04-06T08:13:51.001Z</time></trkpt><trkpt lat="45.4001905070248" lon="9.400516747344257"><ele>91.0</ele><time>2026-04-06T08:13:53.001Z</time></trkpt><trkpt lat="45.40008216968215" lon="9.400554340050771"><ele>91.0</ele><time>2026-04-06T08:13:55.001Z</time></trkpt><trkpt lat="45.39997260601147" lon="9.400593698845109"><ele>91.0</ele><time>2026-04-06T08:13:57.001Z</time></trkpt><trkpt lat="45.39987000531569" lon="9.400629267252242"><ele>91.0</ele><time>2026-04-06T08:13:59.001Z</time></trkpt><trkpt lat="45.39975924427228" lon="9.400658716332194"><ele>91.0</ele><time>2026-04-06T08:14:01.001Z</time></trkpt><trkpt lat="45.39965354584878" lon="9.4007074050248"><ele>91.25</ele><time>2026-04-06T08:14:03.001Z</time></trkpt><trkpt lat="45.39954447200538" lon="9.40075260302465"><ele>91.5</ele><time>2026-04-06T08:14:05.001Z</time></trkpt><trkpt lat="45.39943049812466" lon="9.400786841417188"><ele>91.75</ele><time>2026-04-06T08:14:07.001Z</time></trkpt><trkpt lat="45.399318358499606" lon="9.400818846318199"><ele>92.0</ele><time>2026-04-06T08:14:09.001Z</time></trkpt><trkpt lat="45.39920713814047" lon="9.400847586953217"><ele>92.0</ele><time>2026-04-06T08:14:11.001Z</time></trkpt><trkpt lat="45.399100848941345" lon="9.400884603596186"><ele>92.0</ele><time>2026-04-06T08:14:13.001Z</time></trkpt><trkpt lat="45.39899281020662" lon="9.400919529860264"><ele>92.0</ele><time>2026-04-06T08:14:15.001Z</time></trkpt><trkpt lat="45.39888413331782" lon="9.400958581683621"><ele>92.0</ele><time>2026-04-06T08:14:17.001Z</time></trkpt><trkpt lat="45.398765408652736" lon="9.400987704069644"><ele>92.25</ele><time>2026-04-06T08:14:19.001Z</time></trkpt><trkpt lat="45.3986564724582" lon="9.401021216961487"><ele>92.5</ele><time>2026-04-06T08:14:21.001Z</time></trkpt><trkpt lat="45.398544173509" lon="9.401053324168382"><ele>92.75</ele><time>2026-04-06T08:14:23.001Z</time></trkpt><trkpt lat="45.39843091407753" lon="9.401070709868051"><ele>93.0</ele><time>2026-04-06T08:14:25.001Z</time></trkpt><trkpt lat="45.39831719473855" lon="9.401083669273053"><ele>93.0</ele><time>2026-04-06T08:14:27.001Z</time></trkpt><trkpt lat="45.39820710649356" lon="9.40110528067918"><ele>93.0</ele><time>2026-04-06T08:14:29.001Z</time></trkpt><trkpt lat="45.39809675412175" lon="9.401125930301022"><ele>93.0</ele><time>2026-04-06T08:14:31.001Z</time></trkpt><trkpt lat="45.39798503735688" lon="9.401153098141293"><ele>93.0</ele><time>2026-04-06T08:14:33.001Z</time></trkpt><trkpt lat="45.39787695320889" lon="9.401179353512784"><ele>93.0</ele><time>2026-04-06T08:14:35.001Z</time></trkpt><trkpt lat="45.39776585130963" lon="9.401205188993405"><ele>92.80000000000001</ele><time>2026-04-06T08:14:37.001Z</time></trkpt><trkpt lat="45.397653217725214" lon="9.401236359475428"><ele>92.6</ele><time>2026-04-06T08:14:39.001Z</time></trkpt><trkpt lat="45.397544705524176" lon="9.401269556723584"><ele>92.4</ele><time>2026-04-06T08:14:41.001Z</time></trkpt><trkpt lat="45.39743633930104" lon="9.401305290031354"><ele>92.19999999999999</ele><time>2026-04-06T08:14:43.001Z</time></trkpt><trkpt lat="45.39733280775096" lon="9.40134900777263"><ele>92.0</ele><time>2026-04-06T08:14:45.001Z</time></trkpt><trkpt lat="45.39723380148349" lon="9.401383307603032"><ele>91.8</ele><time>2026-04-06T08:14:47.001Z</time></trkpt><trkpt lat="45.39713270070796" lon="9.401410268685106"><ele>91.6</ele><time>2026-04-06T08:14:49.001Z</time></trkpt><trkpt lat="45.39703425659285" lon="9.401437352815009"><ele>91.39999999999999</ele><time>2026-04-06T08:14:51.001Z</time></trkpt><trkpt lat="45.39692313105815" lon="9.401460226992603"><ele>91.19999999999999</ele><time>2026-04-06T08:14:53.001Z</time></trkpt><trkpt lat="45.39681305475452" lon="9.401493894775752"><ele>91.0</ele><time>2026-04-06T08:14:55Z</time></trkpt><trkpt lat="45.396706293887355" lon="9.401512849794402"><ele>91.0</ele><time>2026-04-06T08:14:57Z</time></trkpt><trkpt lat="45.39660043616398" lon="9.40154150026375"><ele>91.0</ele><time>2026-04-06T08:14:59Z</time></trkpt><trkpt lat="45.39649280688748" lon="9.40156161881426"><ele>91.0</ele><time>2026-04-06T08:15:01Z</time></trkpt><trkpt lat="45.3963852301571" lon="9.401583229175264"><ele>91.0</ele><time>2026-04-06T08:15:03Z</time></trkpt><trkpt lat="45.3962799520914" lon="9.401609906474"><ele>91.0</ele><time>2026-04-06T08:15:05Z</time></trkpt><trkpt lat="45.396171130330146" lon="9.401642767022354"><ele>91.25</ele><time>2026-04-06T08:15:07Z</time></trkpt><trkpt lat="45.39606183885979" lon="9.401670439200442"><ele>91.5</ele><time>2026-04-06T08:15:09Z</time></trkpt><trkpt lat="45.39594568215063" lon="9.401691756109331"><ele>91.75</ele><time>2026-04-06T08:15:11Z</time></trkpt><trkpt lat="45.39583186716898" lon="9.401723530541762"><ele>92.0</ele><time>2026-04-06T08:15:13Z</time></trkpt><trkpt lat="45.395718248215495" lon="9.401751066997386"><ele>92.0</ele><time>2026-04-06T08:15:15Z</time></trkpt><trkpt lat="45.39560575708036" lon="9.401781929429077"><ele>92.0</ele><time>2026-04-06T08:15:17Z</time></trkpt><trkpt lat="45.39549482883123" lon="9.401802196515032"><ele>92.0</ele><time>2026-04-06T08:15:19Z</time></trkpt><trkpt lat="45.39538695996968" lon="9.401831344448217"><ele>92.0</ele><time>2026-04-06T08:15:21Z</time></trkpt><trkpt lat="45.395277989145164" lon="9.401861926810897"><ele>92.0</ele><time>2026-04-06T08:15:23Z</time></trkpt><trkpt lat="45.39516785532524" lon="9.40189372966967"><ele>92.0</ele><time>2026-04-06T08:15:25Z</time></trkpt><trkpt lat="45.39505537783721" lon="9.401921361898369"><ele>92.0</ele><time>2026-04-06T08:15:27Z</time></trkpt><trkpt lat="45.394943916920354" lon="9.40194940850708"><ele>92.0</ele><time>2026-04-06T08:15:29Z</time></trkpt><trkpt lat="45.39483242458668" lon="9.40197914442858"><ele>92.0</ele><time>2026-04-06T08:15:31Z</time></trkpt><trkpt lat="45.394719629156555" lon="9.40201023415757"><ele>91.75</ele><time>2026-04-06T08:15:33Z</time></trkpt><trkpt lat="45.39460501453141" lon="9.402036990230403"><ele>91.5</ele><time>2026-04-06T08:15:35.001Z</time></trkpt><trkpt lat="45.394492804041036" lon="9.402068437498075"><ele>91.25</ele><time>2026-04-06T08:15:37.001Z</time></trkpt><trkpt lat="45.39438213075711" lon="9.402101001029163"><ele>91.0</ele><time>2026-04-06T08:15:39.001Z</time></trkpt><trkpt lat="45.394268455222154" lon="9.402128428909007"><ele>91.0</ele><time>2026-04-06T08:15:41.001Z</time></trkpt><trkpt lat="45.39415268892794" lon="9.402151329712407"><ele>91.0</ele><time>2026-04-06T08:15:43.001Z</time></trkpt><trkpt lat="45.394048176633035" lon="9.402193847665934"><ele>91.0</ele><time>2026-04-06T08:15:45.001Z</time></trkpt><trkpt lat="45.39398295073069" lon="9.4022043018645"><ele>91.0</ele><time>2026-04-06T08:15:46.001Z</time></trkpt><trkpt lat="45.393871879301486" lon="9.40223566416712"><ele>91.0</ele><time>2026-04-06T08:15:48.001Z</time></trkpt><trkpt lat="45.39375709878267" lon="9.402258807668984"><ele>90.5</ele><time>2026-04-06T08:15:50.001Z</time></trkpt><trkpt lat="45.3936468846954" lon="9.402293324001498"><ele>90.0</ele><time>2026-04-06T08:15:52.001Z</time></trkpt><trkpt lat="45.39353440337225" lon="9.402317707476099"><ele>89.5</ele><time>2026-04-06T08:15:54.001Z</time></trkpt><trkpt lat="45.39342383802667" lon="9.402354971630988"><ele>89.0</ele><time>2026-04-06T08:15:56.001Z</time></trkpt><trkpt lat="45.393309579959286" lon="9.402378059825253"><ele>89.0</ele><time>2026-04-06T08:15:58.001Z</time></trkpt><trkpt lat="45.39320017826689" lon="9.40240913015681"><ele>89.0</ele><time>2026-04-06T08:16:00.001Z</time></trkpt><trkpt lat="45.39309335793336" lon="9.402439300220982"><ele>89.0</ele><time>2026-04-06T08:16:02.001Z</time></trkpt><trkpt lat="45.39298503156771" lon="9.40247886578098"><ele>89.0</ele><time>2026-04-06T08:16:04.001Z</time></trkpt><trkpt lat="45.392925589011526" lon="9.402512646639405"><ele>89.0</ele><time>2026-04-06T08:16:06.001Z</time></trkpt><trkpt lat="45.3928452115742" lon="9.402560382436024"><ele>89.14285714285714</ele><time>2026-04-06T08:16:09.001Z</time></trkpt><trkpt lat="45.39278245989306" lon="9.402601643306538"><ele>89.28571428571428</ele><time>2026-04-06T08:17:09Z</time></trkpt><trkpt lat="45.39272545548119" lon="9.402639767058103"><ele>89.42857142857142</ele><time>2026-04-06T08:17:15Z</time></trkpt><trkpt lat="45.392668916282126" lon="9.402691182315293"><ele>89.57142857142857</ele><time>2026-04-06T08:17:57Z</time></trkpt><trkpt lat="45.39261194080057" lon="9.402733169683781"><ele>89.71428571428572</ele><time>2026-04-06T08:18:05.001Z</time></trkpt><trkpt lat="45.392548621661305" lon="9.402781014226129"><ele>89.85714285714285</ele><time>2026-04-06T08:18:32.001Z</time></trkpt><trkpt lat="45.39249195258257" lon="9.402831619502003"><ele>90.0</ele><time>2026-04-06T08:18:37.001Z</time></trkpt><trkpt lat="45.39242454973897" lon="9.402887796928672"><ele>90.0</ele><time>2026-04-06T08:18:42.001Z</time></trkpt><trkpt lat="45.3923655973711" lon="9.402932662721142"><ele>90.0</ele><time>2026-04-06T08:18:45.001Z</time></trkpt><trkpt lat="45.39230037229009" lon="9.402988170017538"><ele>90.0</ele><time>2026-04-06T08:18:48.001Z</time></trkpt><trkpt lat="45.39224070037212" lon="9.40303925447798"><ele>90.0</ele><time>2026-04-06T08:18:51.001Z</time></trkpt><trkpt lat="45.39217463935442" lon="9.403090400761117"><ele>90.0</ele><time>2026-04-06T08:18:54.001Z</time></trkpt><trkpt lat="45.392112976561684" lon="9.403138784173466"><ele>90.0</ele><time>2026-04-06T08:18:57.001Z</time></trkpt><trkpt lat="45.39205972733417" lon="9.403194818473793"><ele>90.0</ele><time>2026-04-06T08:19:00.001Z</time></trkpt><trkpt lat="45.39200047290757" lon="9.403231351116563"><ele>90.16666666666667</ele><time>2026-04-06T08:19:03.001Z</time></trkpt><trkpt lat="45.39194454263723" lon="9.403278660129613"><ele>90.33333333333333</ele><time>2026-04-06T08:19:06.001Z</time></trkpt><trkpt lat="45.39187932388809" lon="9.403331552394578"><ele>90.5</ele><time>2026-04-06T08:19:10Z</time></trkpt><trkpt lat="45.391802856004624" lon="9.40338888739762"><ele>90.66666666666666</ele><time>2026-04-06T08:19:14Z</time></trkpt><trkpt lat="45.39174400623164" lon="9.403436140435417"><ele>90.83333333333333</ele><time>2026-04-06T08:19:17Z</time></trkpt><trkpt lat="45.391668547199956" lon="9.403494037289347"><ele>91.0</ele><time>2026-04-06T08:19:20Z</time></trkpt><trkpt lat="45.391599472573674" lon="9.403547867496595"><ele>91.0</ele><time>2026-04-06T08:19:23Z</time></trkpt><trkpt lat="45.39153802578792" lon="9.403596319070232"><ele>91.0</ele><time>2026-04-06T08:19:26Z</time></trkpt><trkpt lat="45.391461108334774" lon="9.403607642400399"><ele>91.0</ele><time>2026-04-06T08:19:30Z</time></trkpt><trkpt lat="45.39139623178015" lon="9.403662492141086"><ele>91.0</ele><time>2026-04-06T08:19:33Z</time></trkpt><trkpt lat="45.391350797161515" lon="9.403730475990441"><ele>91.0</ele><time>2026-04-06T08:19:36Z</time></trkpt><trkpt lat="45.39128910060214" lon="9.403773044792853"><ele>91.0</ele><time>2026-04-06T08:19:39Z</time></trkpt><trkpt lat="45.3912310097352" lon="9.403826588938514"><ele>91.0</ele><time>2026-04-06T08:19:42Z</time></trkpt><trkpt lat="45.39116734199528" lon="9.403880811794542"><ele>90.85714285714286</ele><time>2026-04-06T08:19:45Z</time></trkpt><trkpt lat="45.39109975888148" lon="9.403945590430997"><ele>90.71428571428572</ele><time>2026-04-06T08:19:48Z</time></trkpt><trkpt lat="45.39103823789612" lon="9.404030182444695"><ele>90.57142857142857</ele><time>2026-04-06T08:19:51Z</time></trkpt><trkpt lat="45.39098922558607" lon="9.404095153113515"><ele>90.42857142857143</ele><time>2026-04-06T08:19:53Z</time></trkpt><trkpt lat="45.39092800205474" lon="9.404133528537107"><ele>90.28571428571429</ele><time>2026-04-06T08:19:55Z</time></trkpt><trkpt lat="45.39086087092396" lon="9.404147563300715"><ele>90.14285714285714</ele><time>2026-04-06T08:19:57Z</time></trkpt><trkpt lat="45.39078896355921" lon="9.40414865356134"><ele>90.0</ele><time>2026-04-06T08:19:59Z</time></trkpt><trkpt lat="45.39071578655008" lon="9.40413999793149"><ele>90.0</ele><time>2026-04-06T08:20:01Z</time></trkpt><trkpt lat="45.390638496018354" lon="9.404143679469888"><ele>90.0</ele><time>2026-04-06T08:20:03Z</time></trkpt><trkpt lat="45.39055915512953" lon="9.404161686141498"><ele>90.0</ele><time>2026-04-06T08:20:05Z</time></trkpt><trkpt lat="45.39049143727532" lon="9.404175417000262"><ele>90.0</ele><time>2026-04-06T08:20:07Z</time></trkpt><trkpt lat="45.39040045953979" lon="9.404186929571301"><ele>90.0</ele><time>2026-04-06T08:20:10Z</time></trkpt><trkpt lat="45.390338133982915" lon="9.40420196549111"><ele>90.0</ele><time>2026-04-06T08:20:12Z</time></trkpt><trkpt lat="45.39025355020057" lon="9.404234042545227"><ele>90.2</ele><time>2026-04-06T08:20:14.001Z</time></trkpt><trkpt lat="45.390153799076785" lon="9.404271610425429"><ele>90.4</ele><time>2026-04-06T08:20:16.001Z</time></trkpt><trkpt lat="45.3900587463214" lon="9.404311516683011"><ele>90.6</ele><time>2026-04-06T08:20:18.001Z</time></trkpt><trkpt lat="45.38996731569626" lon="9.404347431473635"><ele>90.8</ele><time>2026-04-06T08:20:20.001Z</time></trkpt><trkpt lat="45.38987763473848" lon="9.404375073148632"><ele>91.0</ele><time>2026-04-06T08:20:22.001Z</time></trkpt><trkpt lat="45.38977765432072" lon="9.404426235283001"><ele>91.0</ele><time>2026-04-06T08:20:24.001Z</time></trkpt><trkpt lat="45.38969792537786" lon="9.404481306566144"><ele>91.0</ele><time>2026-04-06T08:20:26.001Z</time></trkpt><trkpt lat="45.389618875797" lon="9.404556462804292"><ele>91.0</ele><time>2026-04-06T08:20:28.001Z</time></trkpt><trkpt lat="45.38954206824292" lon="9.404634939176795"><ele>91.0</ele><time>2026-04-06T08:20:30.001Z</time></trkpt><trkpt lat="45.389469343032495" lon="9.404712433120121"><ele>91.0</ele><time>2026-04-06T08:20:32.001Z</time></trkpt><trkpt lat="45.389404501811406" lon="9.404789132801456"><ele>90.6</ele><time>2026-04-06T08:20:34.001Z</time></trkpt><trkpt lat="45.389341096517086" lon="9.404884564452715"><ele>90.19999999999999</ele><time>2026-04-06T08:20:36.001Z</time></trkpt><trkpt lat="45.389269670320616" lon="9.40498461650902"><ele>89.80000000000001</ele><time>2026-04-06T08:20:38.001Z</time></trkpt><trkpt lat="45.38919894226826" lon="9.405086725895805"><ele>89.4</ele><time>2026-04-06T08:20:40.001Z</time></trkpt><trkpt lat="45.38913481186724" lon="9.405195251120688"><ele>89.0</ele><time>2026-04-06T08:20:42.001Z</time></trkpt><trkpt lat="45.38907835770973" lon="9.405291593660385"><ele>89.0</ele><time>2026-04-06T08:20:44.001Z</time></trkpt><trkpt lat="45.38902597910008" lon="9.405384457855497"><ele>89.0</ele><time>2026-04-06T08:20:46.001Z</time></trkpt><trkpt lat="45.388972848418135" lon="9.405489556483733"><ele>89.0</ele><time>2026-04-06T08:20:48.001Z</time></trkpt><trkpt lat="45.38893943753724" lon="9.405589181283325"><ele>89.0</ele><time>2026-04-06T08:20:50.001Z</time></trkpt><trkpt lat="45.38890176249302" lon="9.40567430990761"><ele>89.0</ele><time>2026-04-06T08:20:52.001Z</time></trkpt><trkpt lat="45.38887366550767" lon="9.405762393729034"><ele>89.0</ele><time>2026-04-06T08:20:54.001Z</time></trkpt><trkpt lat="45.388805645851534" lon="9.405830368422048"><ele>89.0</ele><time>2026-04-06T08:20:56.001Z</time></trkpt><trkpt lat="45.388746460680515" lon="9.405947644240626"><ele>89.0</ele><time>2026-04-06T08:20:58.001Z</time></trkpt><trkpt lat="45.38868048926791" lon="9.406084391004585"><ele>89.0</ele><time>2026-04-06T08:21:00.001Z</time></trkpt><trkpt lat="45.38864524552094" lon="9.406160748401817"><ele>89.0</ele><time>2026-04-06T08:21:01.001Z</time></trkpt><trkpt lat="45.3886044804685" lon="9.406235496304705"><ele>89.0</ele><time>2026-04-06T08:21:02.001Z</time></trkpt><trkpt lat="45.3885656293593" lon="9.406314268900799"><ele>89.0</ele><time>2026-04-06T08:21:03.001Z</time></trkpt><trkpt lat="45.388491730101805" lon="9.406451441109366"><ele>89.0</ele><time>2026-04-06T08:21:05.001Z</time></trkpt><trkpt lat="45.38844558687534" lon="9.406514438687358"><ele>89.0</ele><time>2026-04-06T08:21:06.001Z</time></trkpt><trkpt lat="45.38835238557414" lon="9.406628073501615"><ele>89.0</ele><time>2026-04-06T08:21:08.001Z</time></trkpt><trkpt lat="45.388258961966066" lon="9.406717986287196"><ele>89.0</ele><time>2026-04-06T08:21:10.001Z</time></trkpt><trkpt lat="45.38816765388649" lon="9.406804917850193"><ele>89.0</ele><time>2026-04-06T08:21:12.001Z</time></trkpt><trkpt lat="45.38807609867265" lon="9.40689671759295"><ele>89.25</ele><time>2026-04-06T08:21:14Z</time></trkpt><trkpt lat="45.387979742578565" lon="9.406994445060965"><ele>89.5</ele><time>2026-04-06T08:21:16Z</time></trkpt><trkpt lat="45.38787858074953" lon="9.407086414439158"><ele>89.75</ele><time>2026-04-06T08:21:18Z</time></trkpt><trkpt lat="45.38777802156767" lon="9.40718367471009"><ele>90.0</ele><time>2026-04-06T08:21:20Z</time></trkpt><trkpt lat="45.387680341528245" lon="9.407269586253433"><ele>90.2</ele><time>2026-04-06T08:21:22Z</time></trkpt><trkpt lat="45.38759010172498" lon="9.407357701880889"><ele>90.4</ele><time>2026-04-06T08:21:24Z</time></trkpt><trkpt lat="45.38749842465" lon="9.407461523847658"><ele>90.6</ele><time>2026-04-06T08:21:26Z</time></trkpt><trkpt lat="45.387413386863585" lon="9.407551680240937"><ele>90.8</ele><time>2026-04-06T08:21:28Z</time></trkpt><trkpt lat="45.38733088943961" lon="9.407633930370594"><ele>91.0</ele><time>2026-04-06T08:21:30Z</time></trkpt><trkpt lat="45.38725081476784" lon="9.407714539490144"><ele>91.0</ele><time>2026-04-06T08:21:32Z</time></trkpt><trkpt lat="45.38717088962474" lon="9.40779367737947"><ele>91.0</ele><time>2026-04-06T08:21:34Z</time></trkpt><trkpt lat="45.38709607570917" lon="9.407866839512764"><ele>91.0</ele><time>2026-04-06T08:21:36Z</time></trkpt><trkpt lat="45.387024784951514" lon="9.407938450433573"><ele>91.0</ele><time>2026-04-06T08:21:38Z</time></trkpt><trkpt lat="45.38694030209399" lon="9.408012309092351"><ele>91.0</ele><time>2026-04-06T08:21:40Z</time></trkpt><trkpt lat="45.386864294827994" lon="9.408096242180111"><ele>91.0</ele><time>2026-04-06T08:21:42Z</time></trkpt><trkpt lat="45.38678176972496" lon="9.408185364760786"><ele>91.0</ele><time>2026-04-06T08:21:44Z</time></trkpt><trkpt lat="45.38669916869839" lon="9.40827114596211"><ele>91.0</ele><time>2026-04-06T08:21:46Z</time></trkpt><trkpt lat="45.38661672498202" lon="9.408359191955967"><ele>91.0</ele><time>2026-04-06T08:21:48Z</time></trkpt><trkpt lat="45.38653338557855" lon="9.408442310921751"><ele>91.0</ele><time>2026-04-06T08:21:50Z</time></trkpt><trkpt lat="45.38644937029266" lon="9.408527747028803"><ele>91.0</ele><time>2026-04-06T08:21:52Z</time></trkpt><trkpt lat="45.38637406726748" lon="9.408614777996865"><ele>91.0</ele><time>2026-04-06T08:21:54Z</time></trkpt><trkpt lat="45.386294581402765" lon="9.408686914754552"><ele>91.0</ele><time>2026-04-06T08:21:56Z</time></trkpt><trkpt lat="45.38621720564477" lon="9.408762667363174"><ele>91.0</ele><time>2026-04-06T08:21:58Z</time></trkpt><trkpt lat="45.386132193006084" lon="9.4088393141067"><ele>91.0</ele><time>2026-04-06T08:22:00Z</time></trkpt><trkpt lat="45.38604519432072" lon="9.408919133223241"><ele>90.8</ele><time>2026-04-06T08:22:02.001Z</time></trkpt><trkpt lat="45.38595973862112" lon="9.409008831744732"><ele>90.6</ele><time>2026-04-06T08:22:04.001Z</time></trkpt><trkpt lat="45.38587411935506" lon="9.409089938344524"><ele>90.4</ele><time>2026-04-06T08:22:06.001Z</time></trkpt><trkpt lat="45.385786243776316" lon="9.409181550737772"><ele>90.2</ele><time>2026-04-06T08:22:08.001Z</time></trkpt><trkpt lat="45.38568063646684" lon="9.409256126870863"><ele>90.0</ele><time>2026-04-06T08:22:10.001Z</time></trkpt><trkpt lat="45.38563160290767" lon="9.409315116538034"><ele>90.0</ele><time>2026-04-06T08:22:11.001Z</time></trkpt><trkpt lat="45.385538832731946" lon="9.409428010187009"><ele>90.0</ele><time>2026-04-06T08:22:13.001Z</time></trkpt><trkpt lat="45.38544739501655" lon="9.409529846880604"><ele>90.0</ele><time>2026-04-06T08:22:15.001Z</time></trkpt><trkpt lat="45.385351249328615" lon="9.40962175065672"><ele>90.0</ele><time>2026-04-06T08:22:17.001Z</time></trkpt><trkpt lat="45.38525557563982" lon="9.409714964929707"><ele>89.75</ele><time>2026-04-06T08:22:19.001Z</time></trkpt><trkpt lat="45.38516461692488" lon="9.409816943349806"><ele>89.5</ele><time>2026-04-06T08:22:21.001Z</time></trkpt><trkpt lat="45.385069032581804" lon="9.409907546518454"><ele>89.25</ele><time>2026-04-06T08:22:23.001Z</time></trkpt><trkpt lat="45.38498216109257" lon="9.41000082490539"><ele>89.0</ele><time>2026-04-06T08:22:25.001Z</time></trkpt><trkpt lat="45.384890670335885" lon="9.410093554619454"><ele>89.0</ele><time>2026-04-06T08:22:27.001Z</time></trkpt><trkpt lat="45.38479284726426" lon="9.410180166845674"><ele>89.0</ele><time>2026-04-06T08:22:29.001Z</time></trkpt><trkpt lat="45.38470421731961" lon="9.410267563813642"><ele>89.0</ele><time>2026-04-06T08:22:31.001Z</time></trkpt><trkpt lat="45.3846097365184" lon="9.410350895573892"><ele>89.0</ele><time>2026-04-06T08:22:33.001Z</time></trkpt><trkpt lat="45.38451568792841" lon="9.41043339256378"><ele>89.0</ele><time>2026-04-06T08:22:35.001Z</time></trkpt><trkpt lat="45.38442582339761" lon="9.41053799014256"><ele>89.2</ele><time>2026-04-06T08:22:37.001Z</time></trkpt><trkpt lat="45.38433703358415" lon="9.41062873182648"><ele>89.4</ele><time>2026-04-06T08:22:39.001Z</time></trkpt><trkpt lat="45.384244770186335" lon="9.410723185559549"><ele>89.6</ele><time>2026-04-06T08:22:41.001Z</time></trkpt><trkpt lat="45.38415675298843" lon="9.410817492852376"><ele>89.8</ele><time>2026-04-06T08:22:43.001Z</time></trkpt><trkpt lat="45.38406296870983" lon="9.410909301525498"><ele>90.0</ele><time>2026-04-06T08:22:45.001Z</time></trkpt><trkpt lat="45.383971097551225" lon="9.410999117693848"><ele>90.0</ele><time>2026-04-06T08:22:47.001Z</time></trkpt><trkpt lat="45.38386897765985" lon="9.411092448774752"><ele>90.0</ele><time>2026-04-06T08:22:49.001Z</time></trkpt><trkpt lat="45.38377215481705" lon="9.411196448277654"><ele>90.0</ele><time>2026-04-06T08:22:51.001Z</time></trkpt><trkpt lat="45.3836739082638" lon="9.411289486671564"><ele>90.0</ele><time>2026-04-06T08:22:53.001Z</time></trkpt><trkpt lat="45.38357303362754" lon="9.411381137662204"><ele>89.75</ele><time>2026-04-06T08:22:55.001Z</time></trkpt><trkpt lat="45.383479255968496" lon="9.411477536460087"><ele>89.5</ele><time>2026-04-06T08:22:57.001Z</time></trkpt><trkpt lat="45.38338044698047" lon="9.411557916733084"><ele>89.25</ele><time>2026-04-06T08:22:59.001Z</time></trkpt><trkpt lat="45.38328668216543" lon="9.411657090093613"><ele>89.0</ele><time>2026-04-06T08:23:01.001Z</time></trkpt><trkpt lat="45.38318019908438" lon="9.411752531722795"><ele>89.0</ele><time>2026-04-06T08:23:03.001Z</time></trkpt><trkpt lat="45.38307245865924" lon="9.41181617505003"><ele>89.0</ele><time>2026-04-06T08:23:05.001Z</time></trkpt><trkpt lat="45.38296849069649" lon="9.411899807228517"><ele>89.0</ele><time>2026-04-06T08:23:07.001Z</time></trkpt><trkpt lat="45.38286223131208" lon="9.41197733777135"><ele>89.0</ele><time>2026-04-06T08:23:09.001Z</time></trkpt><trkpt lat="45.382755863144396" lon="9.412052072673529"><ele>89.4</ele><time>2026-04-06T08:23:11.001Z</time></trkpt><trkpt lat="45.382650431338874" lon="9.41213099147222"><ele>89.80000000000001</ele><time>2026-04-06T08:23:13.001Z</time></trkpt><trkpt lat="45.38259177350678" lon="9.412168506085576"><ele>90.19999999999999</ele><time>2026-04-06T08:23:14.001Z</time></trkpt><trkpt lat="45.382475554684966" lon="9.412231879512232"><ele>90.6</ele><time>2026-04-06T08:23:16.001Z</time></trkpt><trkpt lat="45.38236532594111" lon="9.412292744629676"><ele>91.0</ele><time>2026-04-06T08:23:18.001Z</time></trkpt><trkpt lat="45.382251937942534" lon="9.412342730774723"><ele>90.8</ele><time>2026-04-06T08:23:20Z</time></trkpt><trkpt lat="45.38214983631007" lon="9.412396134830868"><ele>90.6</ele><time>2026-04-06T08:23:22Z</time></trkpt><trkpt lat="45.382053157066075" lon="9.412443201215103"><ele>90.4</ele><time>2026-04-06T08:23:24Z</time></trkpt><trkpt lat="45.38195426859092" lon="9.412480855979496"><ele>90.2</ele><time>2026-04-06T08:23:26Z</time></trkpt><trkpt lat="45.38185505125021" lon="9.412519853247598"><ele>90.0</ele><time>2026-04-06T08:23:28Z</time></trkpt><trkpt lat="45.38175533480833" lon="9.412554616834756"><ele>90.0</ele><time>2026-04-06T08:23:30Z</time></trkpt><trkpt lat="45.38165513848581" lon="9.412579040184509"><ele>90.0</ele><time>2026-04-06T08:23:32Z</time></trkpt><trkpt lat="45.38155083080238" lon="9.412602221426738"><ele>90.0</ele><time>2026-04-06T08:23:34Z</time></trkpt><trkpt lat="45.38145056565329" lon="9.41263400517339"><ele>90.0</ele><time>2026-04-06T08:23:36Z</time></trkpt><trkpt lat="45.38134925012401" lon="9.412662994241465"><ele>90.0</ele><time>2026-04-06T08:23:38Z</time></trkpt><trkpt lat="45.38125821587021" lon="9.412686092889125"><ele>89.5</ele><time>2026-04-06T08:23:40Z</time></trkpt><trkpt lat="45.38118085621053" lon="9.412709321051324"><ele>89.0</ele><time>2026-04-06T08:23:42Z</time></trkpt><trkpt lat="45.38110330865175" lon="9.412727588298589"><ele>88.5</ele><time>2026-04-06T08:23:44Z</time></trkpt><trkpt lat="45.381029455748845" lon="9.412749229346488"><ele>88.0</ele><time>2026-04-06T08:23:46Z</time></trkpt><trkpt lat="45.3809647568037" lon="9.412769497614422"><ele>87.5</ele><time>2026-04-06T08:23:48Z</time></trkpt><trkpt lat="45.380886457627724" lon="9.4127861287876"><ele>87.0</ele><time>2026-04-06T08:23:51Z</time></trkpt><trkpt lat="45.380794058413514" lon="9.412813922040003"><ele>87.0</ele><time>2026-04-06T08:23:54Z</time></trkpt><trkpt lat="45.380705072030004" lon="9.412844552700816"><ele>87.0</ele><time>2026-04-06T08:23:57Z</time></trkpt><trkpt lat="45.38062266710219" lon="9.412876709450948"><ele>87.0</ele><time>2026-04-06T08:23:59Z</time></trkpt><trkpt lat="45.380530643387075" lon="9.412903387624304"><ele>87.0</ele><time>2026-04-06T08:24:01Z</time></trkpt><trkpt lat="45.38043920029418" lon="9.412921824731713"><ele>87.0</ele><time>2026-04-06T08:24:03Z</time></trkpt><trkpt lat="45.38034770289681" lon="9.412948950899873"><ele>86.75</ele><time>2026-04-06T08:24:05Z</time></trkpt><trkpt lat="45.380124098817475" lon="9.413005788227759"><ele>86.5</ele><time>2026-04-06T08:24:10.001Z</time></trkpt><trkpt lat="45.38004583309334" lon="9.413042786141594"><ele>86.25</ele><time>2026-04-06T08:24:12.001Z</time></trkpt><trkpt lat="45.37995021634211" lon="9.413062484844877"><ele>86.0</ele><time>2026-04-06T08:24:14.001Z</time></trkpt><trkpt lat="45.37982055460468" lon="9.413046759150996"><ele>86.0</ele><time>2026-04-06T08:24:16.001Z</time></trkpt><trkpt lat="45.37973057076498" lon="9.413083757880214"><ele>86.0</ele><time>2026-04-06T08:24:18.001Z</time></trkpt><trkpt lat="45.379668991317004" lon="9.413105201837448"><ele>86.0</ele><time>2026-04-06T08:24:19.001Z</time></trkpt><trkpt lat="45.37959310340514" lon="9.413141520141625"><ele>86.0</ele><time>2026-04-06T08:24:21.001Z</time></trkpt><trkpt lat="45.37950412535732" lon="9.413186335507048"><ele>86.0</ele><time>2026-04-06T08:24:23.001Z</time></trkpt><trkpt lat="45.379404208828994" lon="9.413208166282434"><ele>86.0</ele><time>2026-04-06T08:24:25.001Z</time></trkpt><trkpt lat="45.3793358941643" lon="9.413236839674735"><ele>86.19999999999999</ele><time>2026-04-06T08:24:26.001Z</time></trkpt><trkpt lat="45.37925660414467" lon="9.413250911418698"><ele>86.39999999999999</ele><time>2026-04-06T08:24:28.001Z</time></trkpt><trkpt lat="45.379151851568196" lon="9.413278823612353"><ele>86.6</ele><time>2026-04-06T08:24:30.001Z</time></trkpt><trkpt lat="45.379048454431974" lon="9.413310074460288"><ele>86.8</ele><time>2026-04-06T08:24:32.001Z</time></trkpt><trkpt lat="45.378951735481365" lon="9.413349299562688"><ele>87.0</ele><time>2026-04-06T08:24:34.001Z</time></trkpt><trkpt lat="45.37884757300192" lon="9.41337046228776"><ele>87.19999999999999</ele><time>2026-04-06T08:24:36.001Z</time></trkpt><trkpt lat="45.378745382092525" lon="9.413397295261403"><ele>87.4</ele><time>2026-04-06T08:24:38.001Z</time></trkpt><trkpt lat="45.37864208920418" lon="9.413436562830253"><ele>87.6</ele><time>2026-04-06T08:24:40.001Z</time></trkpt><trkpt lat="45.37853678338028" lon="9.413460034847745"><ele>87.80000000000001</ele><time>2026-04-06T08:24:42.001Z</time></trkpt><trkpt lat="45.37843088772779" lon="9.413491096797467"><ele>88.0</ele><time>2026-04-06T08:24:44.001Z</time></trkpt><trkpt lat="45.37833209998287" lon="9.413521836265513"><ele>88.0</ele><time>2026-04-06T08:24:46.001Z</time></trkpt><trkpt lat="45.37823255903146" lon="9.413561963684073"><ele>88.0</ele><time>2026-04-06T08:24:48.001Z</time></trkpt><trkpt lat="45.378131409491935" lon="9.413585826758393"><ele>88.0</ele><time>2026-04-06T08:24:50.001Z</time></trkpt><trkpt lat="45.378036750705675" lon="9.413613624277602"><ele>88.0</ele><time>2026-04-06T08:24:52.001Z</time></trkpt><trkpt lat="45.377935146571645" lon="9.413646854711832"><ele>88.0</ele><time>2026-04-06T08:24:54.001Z</time></trkpt><trkpt lat="45.37783489020949" lon="9.413682615974096"><ele>88.16666666666666</ele><time>2026-04-06T08:24:56.001Z</time></trkpt><trkpt lat="45.37773460387225" lon="9.41369673073221"><ele>88.33333333333333</ele><time>2026-04-06T08:24:58.001Z</time></trkpt><trkpt lat="45.377638840394006" lon="9.413721546649947"><ele>88.5</ele><time>2026-04-06T08:25:00.001Z</time></trkpt><trkpt lat="45.37755397613282" lon="9.41374452927336"><ele>88.66666666666667</ele><time>2026-04-06T08:25:02.001Z</time></trkpt><trkpt lat="45.37748096637783" lon="9.413767048635252"><ele>88.83333333333334</ele><time>2026-04-06T08:25:04.001Z</time></trkpt><trkpt lat="45.377413246360554" lon="9.41378503767997"><ele>89.0</ele><time>2026-04-06T08:25:06.001Z</time></trkpt><trkpt lat="45.377321164662526" lon="9.413802994466788"><ele>89.0</ele><time>2026-04-06T08:25:09.001Z</time></trkpt><trkpt lat="45.37724230003365" lon="9.413797742463906"><ele>89.0</ele><time>2026-04-06T08:25:12.001Z</time></trkpt><trkpt lat="45.37718760874544" lon="9.413697228086864"><ele>89.0</ele><time>2026-04-06T08:25:15.001Z</time></trkpt><trkpt lat="45.37717366891107" lon="9.413608711631113"><ele>89.0</ele><time>2026-04-06T08:25:17.001Z</time></trkpt><trkpt lat="45.377139347689095" lon="9.413526197115614"><ele>89.0</ele><time>2026-04-06T08:25:20.001Z</time></trkpt><trkpt lat="45.37705682261315" lon="9.413504961672169"><ele>89.0</ele><time>2026-04-06T08:25:24.001Z</time></trkpt><trkpt lat="45.377043655745574" lon="9.413628519319602"><ele>88.85714285714285</ele><time>2026-04-06T08:25:28Z</time></trkpt><trkpt lat="45.37707852881626" lon="9.413726221368698"><ele>88.71428571428571</ele><time>2026-04-06T08:25:30Z</time></trkpt><trkpt lat="45.37708758884176" lon="9.413829407594664"><ele>88.57142857142857</ele><time>2026-04-06T08:25:32Z</time></trkpt><trkpt lat="45.37707887383082" lon="9.413921670848243"><ele>88.42857142857142</ele><time>2026-04-06T08:25:39Z</time></trkpt><trkpt lat="45.37699472774581" lon="9.413931636047574"><ele>88.28571428571428</ele><time>2026-04-06T08:25:43Z</time></trkpt><trkpt lat="45.37695921724798" lon="9.414005789264353"><ele>88.14285714285714</ele><time>2026-04-06T08:25:46Z</time></trkpt><trkpt lat="45.37688236750929" lon="9.414042179242783"><ele>88.0</ele><time>2026-04-06T08:25:49Z</time></trkpt><trkpt lat="45.37682075601203" lon="9.414095486257551"><ele>87.83333333333333</ele><time>2026-04-06T08:25:52Z</time></trkpt><trkpt lat="45.37675092085084" lon="9.414135732881292"><ele>87.66666666666666</ele><time>2026-04-06T08:25:55Z</time></trkpt><trkpt lat="45.37668785826912" lon="9.414178807392025"><ele>87.5</ele><time>2026-04-06T08:25:58Z</time></trkpt><trkpt lat="45.376619896975484" lon="9.414214719765885"><ele>87.33333333333333</ele><time>2026-04-06T08:26:02Z</time></trkpt><trkpt lat="45.376553893924914" lon="9.414251125753733"><ele>87.16666666666667</ele><time>2026-04-06T08:26:06Z</time></trkpt><trkpt lat="45.376484901487224" lon="9.414307343457581"><ele>87.0</ele><time>2026-04-06T08:26:10Z</time></trkpt><trkpt lat="45.376403919229645" lon="9.41436370455346"><ele>87.0</ele><time>2026-04-06T08:26:13Z</time></trkpt><trkpt lat="45.37634299955898" lon="9.414410696071851"><ele>87.0</ele><time>2026-04-06T08:26:15Z</time></trkpt><trkpt lat="45.37627822482342" lon="9.414463145721296"><ele>87.0</ele><time>2026-04-06T08:26:17Z</time></trkpt><trkpt lat="45.37620991689306" lon="9.414515563127377"><ele>87.0</ele><time>2026-04-06T08:26:19Z</time></trkpt><trkpt lat="45.37613969762039" lon="9.414578094404723"><ele>87.0</ele><time>2026-04-06T08:26:21Z</time></trkpt><trkpt lat="45.37606884982607" lon="9.41464342683687"><ele>87.0</ele><time>2026-04-06T08:26:23Z</time></trkpt><trkpt lat="45.37599682665441" lon="9.414709030674203"><ele>87.16666666666667</ele><time>2026-04-06T08:26:25Z</time></trkpt><trkpt lat="45.37593048203186" lon="9.414762948086588"><ele>87.33333333333333</ele><time>2026-04-06T08:26:27Z</time></trkpt><trkpt lat="45.375860348623476" lon="9.414821804896201"><ele>87.5</ele><time>2026-04-06T08:26:29Z</time></trkpt><trkpt lat="45.37578027531656" lon="9.41488169081428"><ele>87.66666666666666</ele><time>2026-04-06T08:26:31Z</time></trkpt><trkpt lat="45.3756973017786" lon="9.414940084631517"><ele>87.83333333333333</ele><time>2026-04-06T08:26:33Z</time></trkpt><trkpt lat="45.37561077923539" lon="9.414990343822856"><ele>88.0</ele><time>2026-04-06T08:26:35Z</time></trkpt><trkpt lat="45.37552722266884" lon="9.415038990942525"><ele>87.66666666666666</ele><time>2026-04-06T08:26:37Z</time></trkpt><trkpt lat="45.37544160920714" lon="9.415073231945145"><ele>87.33333333333333</ele><time>2026-04-06T08:26:39Z</time></trkpt><trkpt lat="45.375358882982894" lon="9.41510928236952"><ele>87.0</ele><time>2026-04-06T08:26:41.001Z</time></trkpt><trkpt lat="45.37527627717321" lon="9.415143416165508"><ele>86.66666666666667</ele><time>2026-04-06T08:26:43.001Z</time></trkpt><trkpt lat="45.37519181849485" lon="9.415166643321513"><ele>86.33333333333334</ele><time>2026-04-06T08:26:45.001Z</time></trkpt><trkpt lat="45.375104925285015" lon="9.41518072055128"><ele>86.0</ele><time>2026-04-06T08:26:47.001Z</time></trkpt><trkpt lat="45.375016127938736" lon="9.41518019679714"><ele>86.0</ele><time>2026-04-06T08:26:49.001Z</time></trkpt><trkpt lat="45.374929232375315" lon="9.415157513773423"><ele>86.0</ele><time>2026-04-06T08:26:51.001Z</time></trkpt><trkpt lat="45.374843496883884" lon="9.41511536452601"><ele>86.0</ele><time>2026-04-06T08:26:53.001Z</time></trkpt><trkpt lat="45.37476402758723" lon="9.415061696359915"><ele>86.0</ele><time>2026-04-06T08:26:55.001Z</time></trkpt><trkpt lat="45.37468246531663" lon="9.414993342524747"><ele>86.0</ele><time>2026-04-06T08:26:57.001Z</time></trkpt><trkpt lat="45.374602338856846" lon="9.414922870366825"><ele>86.0</ele><time>2026-04-06T08:26:59.001Z</time></trkpt><trkpt lat="45.37452326978363" lon="9.414852937538809"><ele>86.0</ele><time>2026-04-06T08:27:01.001Z</time></trkpt><trkpt lat="45.37444495984576" lon="9.414781618881264"><ele>86.0</ele><time>2026-04-06T08:27:03.001Z</time></trkpt><trkpt lat="45.37436624530739" lon="9.4147141501176"><ele>86.0</ele><time>2026-04-06T08:27:05.001Z</time></trkpt><trkpt lat="45.37428665044143" lon="9.414649058181126"><ele>86.0</ele><time>2026-04-06T08:27:07.001Z</time></trkpt><trkpt lat="45.374203348030456" lon="9.414587075330909"><ele>86.6</ele><time>2026-04-06T08:27:09.001Z</time></trkpt><trkpt lat="45.374115977371794" lon="9.414534262955913"><ele>87.19999999999999</ele><time>2026-04-06T08:27:11.001Z</time></trkpt><trkpt lat="45.37402656882499" lon="9.414494546064294"><ele>87.80000000000001</ele><time>2026-04-06T08:27:13.001Z</time></trkpt><trkpt lat="45.37393147455909" lon="9.4144651951987"><ele>88.4</ele><time>2026-04-06T08:27:15.001Z</time></trkpt><trkpt lat="45.37383569811808" lon="9.414453247420179"><ele>89.0</ele><time>2026-04-06T08:27:17.001Z</time></trkpt><trkpt lat="45.37373838576237" lon="9.414445502839893"><ele>89.0</ele><time>2026-04-06T08:27:19.001Z</time></trkpt><trkpt lat="45.37364196544507" lon="9.414462040792419"><ele>89.0</ele><time>2026-04-06T08:27:21.001Z</time></trkpt><trkpt lat="45.373533436652245" lon="9.414476653179618"><ele>89.0</ele><time>2026-04-06T08:27:23.001Z</time></trkpt><trkpt lat="45.37342309743953" lon="9.414494845992062"><ele>89.0</ele><time>2026-04-06T08:27:25.001Z</time></trkpt><trkpt lat="45.37332054450768" lon="9.414509150375583"><ele>89.0</ele><time>2026-04-06T08:27:27.001Z</time></trkpt><trkpt lat="45.37321368984666" lon="9.414517914195825"><ele>89.0</ele><time>2026-04-06T08:27:29.001Z</time></trkpt><trkpt lat="45.37310467990387" lon="9.414532836517438"><ele>89.0</ele><time>2026-04-06T08:27:31Z</time></trkpt><trkpt lat="45.372995786851305" lon="9.41454164018635"><ele>89.0</ele><time>2026-04-06T08:27:33Z</time></trkpt><trkpt lat="45.372883616830364" lon="9.414547582346614"><ele>89.0</ele><time>2026-04-06T08:27:35Z</time></trkpt><trkpt lat="45.372775551547846" lon="9.414559583140429"><ele>89.0</ele><time>2026-04-06T08:27:37Z</time></trkpt><trkpt lat="45.372669564477924" lon="9.414566271721739"><ele>89.0</ele><time>2026-04-06T08:27:39Z</time></trkpt><trkpt lat="45.372556436716" lon="9.414574378414379"><ele>89.0</ele><time>2026-04-06T08:27:41Z</time></trkpt><trkpt lat="45.37244609778199" lon="9.414568262218117"><ele>89.0</ele><time>2026-04-06T08:27:43Z</time></trkpt><trkpt lat="45.37233830641928" lon="9.414551309058766"><ele>89.0</ele><time>2026-04-06T08:27:45Z</time></trkpt><trkpt lat="45.37222896228685" lon="9.414519709223265"><ele>89.0</ele><time>2026-04-06T08:27:47Z</time></trkpt><trkpt lat="45.37211705097897" lon="9.414483730945975"><ele>89.0</ele><time>2026-04-06T08:27:49Z</time></trkpt><trkpt lat="45.372001771403255" lon="9.414449238471356"><ele>89.0</ele><time>2026-04-06T08:27:51Z</time></trkpt><trkpt lat="45.371889302582716" lon="9.414411059188698"><ele>89.0</ele><time>2026-04-06T08:27:53Z</time></trkpt><trkpt lat="45.37177998894315" lon="9.414382360107272"><ele>89.0</ele><time>2026-04-06T08:27:55Z</time></trkpt><trkpt lat="45.371664857970195" lon="9.414375244093009"><ele>89.0</ele><time>2026-04-06T08:27:57Z</time></trkpt><trkpt lat="45.37155349934722" lon="9.414397039487824"><ele>89.0</ele><time>2026-04-06T08:27:59Z</time></trkpt><trkpt lat="45.37144477134953" lon="9.414445046457656"><ele>89.0</ele><time>2026-04-06T08:28:01Z</time></trkpt><trkpt lat="45.371342657339994" lon="9.414499792320198"><ele>89.0</ele><time>2026-04-06T08:28:03Z</time></trkpt><trkpt lat="45.37124493193541" lon="9.414547723762848"><ele>89.0</ele><time>2026-04-06T08:28:05Z</time></trkpt><trkpt lat="45.3711509444477" lon="9.414594481302474"><ele>88.80000000000001</ele><time>2026-04-06T08:28:07Z</time></trkpt><trkpt lat="45.37103930041503" lon="9.414640057464903"><ele>88.60000000000001</ele><time>2026-04-06T08:28:09Z</time></trkpt><trkpt lat="45.37095108806528" lon="9.414661808078685"><ele>88.4</ele><time>2026-04-06T08:28:11Z</time></trkpt><trkpt lat="45.370846416235096" lon="9.4146715231425"><ele>88.2</ele><time>2026-04-06T08:28:13Z</time></trkpt><trkpt lat="45.3707441984727" lon="9.414693632229175"><ele>88.0</ele><time>2026-04-06T08:28:15Z</time></trkpt><trkpt lat="45.37064106652511" lon="9.414712484969108"><ele>88.0</ele><time>2026-04-06T08:28:17Z</time></trkpt><trkpt lat="45.370532894179384" lon="9.414737344832988"><ele>88.0</ele><time>2026-04-06T08:28:19Z</time></trkpt><trkpt lat="45.37042351179999" lon="9.414758580403271"><ele>88.0</ele><time>2026-04-06T08:28:21Z</time></trkpt><trkpt lat="45.3703153735177" lon="9.414772310199362"><ele>88.0</ele><time>2026-04-06T08:28:23Z</time></trkpt><trkpt lat="45.37020944614832" lon="9.414793936001013"><ele>88.0</ele><time>2026-04-06T08:28:25Z</time></trkpt><trkpt lat="45.37010414077661" lon="9.414815392178388"><ele>88.2</ele><time>2026-04-06T08:28:27Z</time></trkpt><trkpt lat="45.36999984281322" lon="9.414828720737596"><ele>88.4</ele><time>2026-04-06T08:28:29Z</time></trkpt><trkpt lat="45.36989477311118" lon="9.41485743820517"><ele>88.60000000000001</ele><time>2026-04-06T08:28:31Z</time></trkpt><trkpt lat="45.369790546967145" lon="9.414890455583414"><ele>88.80000000000001</ele><time>2026-04-06T08:28:33Z</time></trkpt><trkpt lat="45.36968574061464" lon="9.414926616397482"><ele>89.0</ele><time>2026-04-06T08:28:35Z</time></trkpt><trkpt lat="45.36958137347539" lon="9.414969379951815"><ele>88.6</ele><time>2026-04-06T08:28:37Z</time></trkpt><trkpt lat="45.369478312627116" lon="9.415005514496535"><ele>88.2</ele><time>2026-04-06T08:28:39Z</time></trkpt><trkpt lat="45.369370913805454" lon="9.415048119840483"><ele>87.8</ele><time>2026-04-06T08:28:41Z</time></trkpt><trkpt lat="45.36926395342358" lon="9.41509228848013"><ele>87.39999999999999</ele><time>2026-04-06T08:28:43Z</time></trkpt><trkpt lat="45.36916498737476" lon="9.415133556118064"><ele>87.0</ele><time>2026-04-06T08:28:45Z</time></trkpt><trkpt lat="45.36906393819706" lon="9.415185382697077"><ele>87.0</ele><time>2026-04-06T08:28:47Z</time></trkpt><trkpt lat="45.368961335417" lon="9.415211153850295"><ele>87.0</ele><time>2026-04-06T08:28:49Z</time></trkpt><trkpt lat="45.36886296624631" lon="9.41524952857451"><ele>87.0</ele><time>2026-04-06T08:28:51Z</time></trkpt><trkpt lat="45.36876022052233" lon="9.415277144057232"><ele>87.0</ele><time>2026-04-06T08:28:53Z</time></trkpt><trkpt lat="45.36866031523649" lon="9.415286211773484"><ele>87.0</ele><time>2026-04-06T08:28:55Z</time></trkpt><trkpt lat="45.36856901081581" lon="9.41528427659588"><ele>87.0</ele><time>2026-04-06T08:28:57Z</time></trkpt><trkpt lat="45.36848449902976" lon="9.415286532720847"><ele>87.0</ele><time>2026-04-06T08:28:59Z</time></trkpt><trkpt lat="45.36841474702542" lon="9.415277612998153"><ele>87.0</ele><time>2026-04-06T08:29:01.001Z</time></trkpt><trkpt lat="45.36832975077885" lon="9.415271119559598"><ele>87.0</ele><time>2026-04-06T08:29:03.001Z</time></trkpt><trkpt lat="45.36824350594248" lon="9.415253383869311"><ele>87.0</ele><time>2026-04-06T08:29:05.001Z</time></trkpt><trkpt lat="45.36815184341499" lon="9.41522699424727"><ele>87.0</ele><time>2026-04-06T08:29:07.001Z</time></trkpt><trkpt lat="45.368055064967834" lon="9.415200920376213"><ele>87.0</ele><time>2026-04-06T08:29:09.001Z</time></trkpt><trkpt lat="45.367957449368205" lon="9.415173725606085"><ele>87.0</ele><time>2026-04-06T08:29:11.001Z</time></trkpt><trkpt lat="45.367853712319814" lon="9.41513979036292"><ele>87.0</ele><time>2026-04-06T08:29:13.001Z</time></trkpt><trkpt lat="45.36775045487597" lon="9.41510996699234"><ele>87.0</ele><time>2026-04-06T08:29:15.001Z</time></trkpt><trkpt lat="45.36764818518708" lon="9.415075106729448"><ele>87.0</ele><time>2026-04-06T08:29:17.001Z</time></trkpt><trkpt lat="45.36754277565157" lon="9.415042158303397"><ele>87.0</ele><time>2026-04-06T08:29:19.001Z</time></trkpt><trkpt lat="45.36743726664944" lon="9.415013529995557"><ele>87.0</ele><time>2026-04-06T08:29:21.001Z</time></trkpt><trkpt lat="45.36733141572755" lon="9.414979508572484"><ele>87.0</ele><time>2026-04-06T08:29:23.001Z</time></trkpt><trkpt lat="45.36722149873409" lon="9.414984097419968"><ele>87.0</ele><time>2026-04-06T08:29:25.001Z</time></trkpt><trkpt lat="45.36711219075441" lon="9.415004730134122"><ele>87.0</ele><time>2026-04-06T08:29:27.001Z</time></trkpt><trkpt lat="45.36700339308841" lon="9.414996978359838"><ele>87.0</ele><time>2026-04-06T08:29:29.001Z</time></trkpt><trkpt lat="45.36690119776817" lon="9.414995033593684"><ele>87.0</ele><time>2026-04-06T08:29:31.001Z</time></trkpt><trkpt lat="45.366799683134914" lon="9.41500783291862"><ele>87.0</ele><time>2026-04-06T08:29:33.001Z</time></trkpt><trkpt lat="45.366696416573404" lon="9.414976429846035"><ele>87.0</ele><time>2026-04-06T08:29:35.001Z</time></trkpt><trkpt lat="45.36659928473364" lon="9.414921033176794"><ele>87.0</ele><time>2026-04-06T08:29:37Z</time></trkpt><trkpt lat="45.36651196425964" lon="9.414827439119804"><ele>87.0</ele><time>2026-04-06T08:29:39Z</time></trkpt><trkpt lat="45.36644922256443" lon="9.414703076714126"><ele>87.0</ele><time>2026-04-06T08:29:41Z</time></trkpt><trkpt lat="45.36639568981989" lon="9.41457404342302"><ele>87.0</ele><time>2026-04-06T08:29:43Z</time></trkpt><trkpt lat="45.36630062916336" lon="9.414499162830108"><ele>87.0</ele><time>2026-04-06T08:29:45Z</time></trkpt><trkpt lat="45.366191073277506" lon="9.414476827176754"><ele>87.0</ele><time>2026-04-06T08:29:47Z</time></trkpt><trkpt lat="45.36608086471051" lon="9.4144705382648"><ele>87.0</ele><time>2026-04-06T08:29:49Z</time></trkpt><trkpt lat="45.365970388993276" lon="9.414472889759654"><ele>87.0</ele><time>2026-04-06T08:29:51Z</time></trkpt><trkpt lat="45.36585709812093" lon="9.41449361269459"><ele>87.0</ele><time>2026-04-06T08:29:53Z</time></trkpt><trkpt lat="45.36575045600703" lon="9.414512041488043"><ele>87.0</ele><time>2026-04-06T08:29:55Z</time></trkpt><trkpt lat="45.365638276477306" lon="9.41453571508355"><ele>87.0</ele><time>2026-04-06T08:29:57Z</time></trkpt><trkpt lat="45.36552422529352" lon="9.414563484153382"><ele>87.0</ele><time>2026-04-06T08:29:59Z</time></trkpt><trkpt lat="45.36540283695135" lon="9.414593340317062"><ele>87.0</ele><time>2026-04-06T08:30:01Z</time></trkpt><trkpt lat="45.36529502417078" lon="9.414626558248573"><ele>87.0</ele><time>2026-04-06T08:30:03Z</time></trkpt><trkpt lat="45.36519216531415" lon="9.414663754466789"><ele>87.0</ele><time>2026-04-06T08:30:05Z</time></trkpt><trkpt lat="45.36508520862401" lon="9.414697137493938"><ele>87.0</ele><time>2026-04-06T08:30:07Z</time></trkpt><trkpt lat="45.364978010101865" lon="9.414727658679947"><ele>87.0</ele><time>2026-04-06T08:30:09Z</time></trkpt><trkpt lat="45.364876596787944" lon="9.41476858695094"><ele>87.0</ele><time>2026-04-06T08:30:11Z</time></trkpt><trkpt lat="45.36477384630015" lon="9.414792437301537"><ele>87.0</ele><time>2026-04-06T08:30:13Z</time></trkpt><trkpt lat="45.36467324026863" lon="9.41482717953915"><ele>87.0</ele><time>2026-04-06T08:30:15Z</time></trkpt><trkpt lat="45.36456456932751" lon="9.414853932528594"><ele>87.0</ele><time>2026-04-06T08:30:17Z</time></trkpt><trkpt lat="45.364458822922586" lon="9.414842299531959"><ele>87.0</ele><time>2026-04-06T08:30:19Z</time></trkpt><trkpt lat="45.3643524179119" lon="9.414836862134988"><ele>87.0</ele><time>2026-04-06T08:30:21Z</time></trkpt><trkpt lat="45.364250976277084" lon="9.414817851872009"><ele>87.0</ele><time>2026-04-06T08:30:23Z</time></trkpt><trkpt lat="45.364148321596524" lon="9.414817518115356"><ele>87.0</ele><time>2026-04-06T08:30:25Z</time></trkpt><trkpt lat="45.36404482817463" lon="9.414804326772872"><ele>87.0</ele><time>2026-04-06T08:30:27Z</time></trkpt><trkpt lat="45.36393633313874" lon="9.414793679312389"><ele>87.39999999999999</ele><time>2026-04-06T08:30:29Z</time></trkpt><trkpt lat="45.363830395782664" lon="9.414783317154994"><ele>87.8</ele><time>2026-04-06T08:30:31Z</time></trkpt><trkpt lat="45.36372011015864" lon="9.41477186644006"><ele>88.2</ele><time>2026-04-06T08:30:33Z</time></trkpt><trkpt lat="45.363622776254815" lon="9.41477533291951"><ele>88.6</ele><time>2026-04-06T08:30:35Z</time></trkpt><trkpt lat="45.363509376016594" lon="9.414758004293446"><ele>89.0</ele><time>2026-04-06T08:30:37Z</time></trkpt><trkpt lat="45.363403296575285" lon="9.414730881405275"><ele>89.0</ele><time>2026-04-06T08:30:39Z</time></trkpt><trkpt lat="45.36329249888819" lon="9.41472776273016"><ele>89.0</ele><time>2026-04-06T08:30:41Z</time></trkpt><trkpt lat="45.36318438947252" lon="9.414710174788382"><ele>89.0</ele><time>2026-04-06T08:30:43Z</time></trkpt><trkpt lat="45.363077958316815" lon="9.41470015381866"><ele>89.0</ele><time>2026-04-06T08:30:45Z</time></trkpt><trkpt lat="45.36296972221002" lon="9.414687815450407"><ele>89.0</ele><time>2026-04-06T08:30:47Z</time></trkpt><trkpt lat="45.36286051209209" lon="9.414675837555745"><ele>89.2</ele><time>2026-04-06T08:30:49Z</time></trkpt><trkpt lat="45.36275358274329" lon="9.41466363515048"><ele>89.4</ele><time>2026-04-06T08:30:51Z</time></trkpt><trkpt lat="45.3626444285135" lon="9.414656422832971"><ele>89.6</ele><time>2026-04-06T08:30:53Z</time></trkpt><trkpt lat="45.36253312479407" lon="9.414644011075943"><ele>89.8</ele><time>2026-04-06T08:30:55Z</time></trkpt><trkpt lat="45.362424458810814" lon="9.414646407808908"><ele>90.0</ele><time>2026-04-06T08:30:57Z</time></trkpt><trkpt lat="45.3623198425274" lon="9.414638949733943"><ele>90.2</ele><time>2026-04-06T08:30:59Z</time></trkpt><trkpt lat="45.36221392110057" lon="9.414647733971966"><ele>90.4</ele><time>2026-04-06T08:31:01Z</time></trkpt><trkpt lat="45.362110214980405" lon="9.414655443020118"><ele>90.6</ele><time>2026-04-06T08:31:03Z</time></trkpt><trkpt lat="45.3620035819481" lon="9.414662199251422"><ele>90.8</ele><time>2026-04-06T08:31:05Z</time></trkpt><trkpt lat="45.36190059428412" lon="9.41468080617451"><ele>91.0</ele><time>2026-04-06T08:31:07Z</time></trkpt><trkpt lat="45.361790552096544" lon="9.414686297439578"><ele>91.0</ele><time>2026-04-06T08:31:09Z</time></trkpt><trkpt lat="45.361683563849255" lon="9.414698063019035"><ele>91.0</ele><time>2026-04-06T08:31:11Z</time></trkpt><trkpt lat="45.36157648042295" lon="9.41470658348952"><ele>91.0</ele><time>2026-04-06T08:31:13Z</time></trkpt><trkpt lat="45.36147012314709" lon="9.414707241716274"><ele>91.0</ele><time>2026-04-06T08:31:15.001Z</time></trkpt><trkpt lat="45.36136227596209" lon="9.414704120127773"><ele>91.0</ele><time>2026-04-06T08:31:17.001Z</time></trkpt><trkpt lat="45.36125761569861" lon="9.414675895887857"><ele>90.8</ele><time>2026-04-06T08:31:19.001Z</time></trkpt><trkpt lat="45.361152782216855" lon="9.414657669194376"><ele>90.6</ele><time>2026-04-06T08:31:21.001Z</time></trkpt><trkpt lat="45.36105180286264" lon="9.414629935454366"><ele>90.4</ele><time>2026-04-06T08:31:23.001Z</time></trkpt><trkpt lat="45.36094640263961" lon="9.41461123790214"><ele>90.2</ele><time>2026-04-06T08:31:25.001Z</time></trkpt><trkpt lat="45.36084211337836" lon="9.414595394847288"><ele>90.0</ele><time>2026-04-06T08:31:27.001Z</time></trkpt><trkpt lat="45.36073392765119" lon="9.414579497540283"><ele>90.4</ele><time>2026-04-06T08:31:29.001Z</time></trkpt><trkpt lat="45.36062681670033" lon="9.41455694120285"><ele>90.8</ele><time>2026-04-06T08:31:31.001Z</time></trkpt><trkpt lat="45.36051448469103" lon="9.414538155655872"><ele>91.19999999999999</ele><time>2026-04-06T08:31:33.001Z</time></trkpt><trkpt lat="45.36040505152663" lon="9.414517632937763"><ele>91.6</ele><time>2026-04-06T08:31:35.001Z</time></trkpt><trkpt lat="45.36029199649113" lon="9.414504700238343"><ele>92.0</ele><time>2026-04-06T08:31:37.001Z</time></trkpt><trkpt lat="45.36017964598825" lon="9.414485203253202"><ele>92.0</ele><time>2026-04-06T08:31:39.001Z</time></trkpt><trkpt lat="45.36006496608753" lon="9.414474476658414"><ele>92.0</ele><time>2026-04-06T08:31:41.001Z</time></trkpt><trkpt lat="45.35994867539119" lon="9.414483376287446"><ele>92.0</ele><time>2026-04-06T08:31:43Z</time></trkpt><trkpt lat="45.35983832392304" lon="9.414499681461301"><ele>92.0</ele><time>2026-04-06T08:31:45Z</time></trkpt><trkpt lat="45.35973377949187" lon="9.414518348965823"><ele>92.0</ele><time>2026-04-06T08:31:47Z</time></trkpt><trkpt lat="45.35963114408556" lon="9.414547817657224"><ele>91.39999999999999</ele><time>2026-04-06T08:31:49Z</time></trkpt><trkpt lat="45.359527497143894" lon="9.414587066734882"><ele>90.8</ele><time>2026-04-06T08:31:51Z</time></trkpt><trkpt lat="45.35942860109723" lon="9.414634586529038"><ele>90.2</ele><time>2026-04-06T08:31:53Z</time></trkpt><trkpt lat="45.35932155033873" lon="9.414669202461793"><ele>89.6</ele><time>2026-04-06T08:31:55Z</time></trkpt><trkpt lat="45.359214375693305" lon="9.414710992346228"><ele>89.0</ele><time>2026-04-06T08:31:57Z</time></trkpt><trkpt lat="45.359101104030245" lon="9.414745463962397"><ele>88.75</ele><time>2026-04-06T08:31:59Z</time></trkpt><trkpt lat="45.358993449804245" lon="9.414790284841466"><ele>88.5</ele><time>2026-04-06T08:32:01Z</time></trkpt><trkpt lat="45.35888115292257" lon="9.414820797152734"><ele>88.25</ele><time>2026-04-06T08:32:03Z</time></trkpt><trkpt lat="45.35876633289712" lon="9.41483692257818"><ele>88.0</ele><time>2026-04-06T08:32:05Z</time></trkpt><trkpt lat="45.35865229950116" lon="9.41483630394689"><ele>88.0</ele><time>2026-04-06T08:32:07Z</time></trkpt><trkpt lat="45.358542977287" lon="9.414819661792013"><ele>88.0</ele><time>2026-04-06T08:32:09Z</time></trkpt><trkpt lat="45.35843014521962" lon="9.414802094706614"><ele>88.0</ele><time>2026-04-06T08:32:11Z</time></trkpt><trkpt lat="45.35831601948003" lon="9.414782516926602"><ele>88.0</ele><time>2026-04-06T08:32:13Z</time></trkpt><trkpt lat="45.358208869386864" lon="9.414753661185761"><ele>88.0</ele><time>2026-04-06T08:32:15Z</time></trkpt><trkpt lat="45.35810739726637" lon="9.414712574855873"><ele>88.0</ele><time>2026-04-06T08:32:17Z</time></trkpt><trkpt lat="45.35800016670569" lon="9.414687242031393"><ele>88.0</ele><time>2026-04-06T08:32:19Z</time></trkpt><trkpt lat="45.3578969287401" lon="9.414656097787038"><ele>88.0</ele><time>2026-04-06T08:32:21Z</time></trkpt><trkpt lat="45.35779406512839" lon="9.414626741246378"><ele>88.0</ele><time>2026-04-06T08:32:23Z</time></trkpt><trkpt lat="45.35768710291483" lon="9.41460203536765"><ele>88.0</ele><time>2026-04-06T08:32:25Z</time></trkpt><trkpt lat="45.35758651853246" lon="9.414595541231801"><ele>88.0</ele><time>2026-04-06T08:32:27Z</time></trkpt><trkpt lat="45.3575018978255" lon="9.414600357661588"><ele>88.0</ele><time>2026-04-06T08:32:29Z</time></trkpt><trkpt lat="45.35742542318966" lon="9.414617989452218"><ele>88.0</ele><time>2026-04-06T08:32:32Z</time></trkpt><trkpt lat="45.3573440090055" lon="9.414605599505359"><ele>88.0</ele><time>2026-04-06T08:32:38Z</time></trkpt><trkpt lat="45.357282630790884" lon="9.414654139489526"><ele>88.0</ele><time>2026-04-06T08:32:42Z</time></trkpt><trkpt lat="45.35722055676677" lon="9.414638854470251"><ele>88.0</ele><time>2026-04-06T08:32:51Z</time></trkpt><trkpt lat="45.35725724048394" lon="9.414648604590159"><ele>88.0</ele><time>2026-04-06T08:42:03Z</time></trkpt><trkpt lat="45.35732238139826" lon="9.414597958221236"><ele>88.0</ele><time>2026-04-06T08:42:18Z</time></trkpt><trkpt lat="45.35735109059351" lon="9.414480278829252"><ele>88.0</ele><time>2026-04-06T08:42:21Z</time></trkpt><trkpt lat="45.35736143980539" lon="9.4143584616435"><ele>88.0</ele><time>2026-04-06T08:42:24Z</time></trkpt><trkpt lat="45.35737525842971" lon="9.41422286926437"><ele>88.0</ele><time>2026-04-06T08:42:27Z</time></trkpt><trkpt lat="45.35738432689382" lon="9.414086827831815"><ele>88.0</ele><time>2026-04-06T08:42:30Z</time></trkpt><trkpt lat="45.35739683493182" lon="9.413991027588581"><ele>88.0</ele><time>2026-04-06T08:42:32Z</time></trkpt><trkpt lat="45.35739431162668" lon="9.41388918956561"><ele>88.33333333333333</ele><time>2026-04-06T08:42:34Z</time></trkpt><trkpt lat="45.35739217208645" lon="9.413789859323371"><ele>88.66666666666666</ele><time>2026-04-06T08:42:36Z</time></trkpt><trkpt lat="45.35739431118106" lon="9.41368286370686"><ele>89.0</ele><time>2026-04-06T08:42:38Z</time></trkpt><trkpt lat="45.357390965610215" lon="9.413570225974793"><ele>89.33333333333333</ele><time>2026-04-06T08:42:40Z</time></trkpt><trkpt lat="45.35738333144825" lon="9.413460017516671"><ele>89.66666666666667</ele><time>2026-04-06T08:42:42Z</time></trkpt><trkpt lat="45.35737885285631" lon="9.413344916429986"><ele>90.0</ele><time>2026-04-06T08:42:44Z</time></trkpt><trkpt lat="45.357380178860595" lon="9.413240340515552"><ele>90.0</ele><time>2026-04-06T08:42:46Z</time></trkpt><trkpt lat="45.35738361509069" lon="9.41313816547391"><ele>90.0</ele><time>2026-04-06T08:42:48Z</time></trkpt><trkpt lat="45.357383812466416" lon="9.413025629108725"><ele>90.0</ele><time>2026-04-06T08:42:50Z</time></trkpt><trkpt lat="45.357381218326665" lon="9.412898622876138"><ele>90.0</ele><time>2026-04-06T08:42:52Z</time></trkpt><trkpt lat="45.35738142655806" lon="9.412771031829003"><ele>90.0</ele><time>2026-04-06T08:42:54Z</time></trkpt><trkpt lat="45.35737456705173" lon="9.412649019147597"><ele>90.0</ele><time>2026-04-06T08:42:56Z</time></trkpt><trkpt lat="45.35737754835885" lon="9.412530865569854"><ele>90.0</ele><time>2026-04-06T08:42:58Z</time></trkpt><trkpt lat="45.35737720402534" lon="9.412414125118637"><ele>90.0</ele><time>2026-04-06T08:43:00Z</time></trkpt><trkpt lat="45.357382636107594" lon="9.412288198815915"><ele>90.0</ele><time>2026-04-06T08:43:02Z</time></trkpt><trkpt lat="45.35739563541165" lon="9.412158660099893"><ele>90.0</ele><time>2026-04-06T08:43:04Z</time></trkpt><trkpt lat="45.357406787768554" lon="9.412024001908792"><ele>90.0</ele><time>2026-04-06T08:43:06Z</time></trkpt><trkpt lat="45.357422732722725" lon="9.41189462374087"><ele>90.16666666666667</ele><time>2026-04-06T08:43:08Z</time></trkpt><trkpt lat="45.357442605488146" lon="9.411769287150804"><ele>90.33333333333333</ele><time>2026-04-06T08:43:10Z</time></trkpt><trkpt lat="45.357454692372976" lon="9.411643239093733"><ele>90.5</ele><time>2026-04-06T08:43:12Z</time></trkpt><trkpt lat="45.35746782612114" lon="9.4115198156739"><ele>90.66666666666666</ele><time>2026-04-06T08:43:14Z</time></trkpt><trkpt lat="45.35747645816775" lon="9.411392075771047"><ele>90.83333333333333</ele><time>2026-04-06T08:43:16Z</time></trkpt><trkpt lat="45.35750861399142" lon="9.411270018893408"><ele>91.0</ele><time>2026-04-06T08:43:18Z</time></trkpt><trkpt lat="45.35751696014023" lon="9.411156715340354"><ele>90.66666666666666</ele><time>2026-04-06T08:43:20Z</time></trkpt><trkpt lat="45.35753453910503" lon="9.411029743012438"><ele>90.33333333333333</ele><time>2026-04-06T08:43:22Z</time></trkpt><trkpt lat="45.357548047235674" lon="9.41091837540864"><ele>90.0</ele><time>2026-04-06T08:43:24Z</time></trkpt><trkpt lat="45.35755629698091" lon="9.410818277202027"><ele>89.66666666666667</ele><time>2026-04-06T08:43:26Z</time></trkpt><trkpt lat="45.35756094996787" lon="9.410699135712344"><ele>89.33333333333334</ele><time>2026-04-06T08:43:29.001Z</time></trkpt><trkpt lat="45.35749326186911" lon="9.410625065739863"><ele>89.0</ele><time>2026-04-06T08:43:32.001Z</time></trkpt><trkpt lat="45.3574242873666" lon="9.41062831067918"><ele>89.0</ele><time>2026-04-06T08:43:34.001Z</time></trkpt><trkpt lat="45.357333245206966" lon="9.410643332154065"><ele>89.0</ele><time>2026-04-06T08:43:37.001Z</time></trkpt><trkpt lat="45.357253307607834" lon="9.410649382610801"><ele>89.0</ele><time>2026-04-06T08:43:40.001Z</time></trkpt><trkpt lat="45.35717793675727" lon="9.410683299199944"><ele>89.0</ele><time>2026-04-06T08:43:43Z</time></trkpt><trkpt lat="45.357095980431154" lon="9.410678194186866"><ele>89.0</ele><time>2026-04-06T08:43:48Z</time></trkpt><trkpt lat="45.357035929265784" lon="9.41070675716743"><ele>89.0</ele><time>2026-04-06T08:43:50Z</time></trkpt><trkpt lat="45.35697057479614" lon="9.410749602275056"><ele>89.0</ele><time>2026-04-06T08:43:52Z</time></trkpt><trkpt lat="45.35689871748788" lon="9.410800306840258"><ele>89.0</ele><time>2026-04-06T08:43:54Z</time></trkpt><trkpt lat="45.35682499408356" lon="9.41086210544133"><ele>89.0</ele><time>2026-04-06T08:43:56Z</time></trkpt><trkpt lat="45.35675751349855" lon="9.410925156753848"><ele>89.0</ele><time>2026-04-06T08:43:58Z</time></trkpt><trkpt lat="45.3566869594325" lon="9.41098910269076"><ele>89.0</ele><time>2026-04-06T08:44:00Z</time></trkpt><trkpt lat="45.35661856942127" lon="9.411056657571716"><ele>89.0</ele><time>2026-04-06T08:44:02Z</time></trkpt><trkpt lat="45.35655307871656" lon="9.411120770812058"><ele>89.0</ele><time>2026-04-06T08:44:04Z</time></trkpt><trkpt lat="45.356485493371125" lon="9.411186751141294"><ele>89.0</ele><time>2026-04-06T08:44:06Z</time></trkpt><trkpt lat="45.35641590618749" lon="9.411247945125446"><ele>89.0</ele><time>2026-04-06T08:44:08Z</time></trkpt><trkpt lat="45.35635488218435" lon="9.41132452511016"><ele>89.0</ele><time>2026-04-06T08:44:10Z</time></trkpt><trkpt lat="45.356297573919775" lon="9.41140557526808"><ele>89.0</ele><time>2026-04-06T08:44:12Z</time></trkpt><trkpt lat="45.35624133822785" lon="9.411482129683616"><ele>89.0</ele><time>2026-04-06T08:44:14Z</time></trkpt><trkpt lat="45.35618692388838" lon="9.411544934793808"><ele>88.66666666666667</ele><time>2026-04-06T08:44:16Z</time></trkpt><trkpt lat="45.35613211071393" lon="9.41148243781565"><ele>88.33333333333334</ele><time>2026-04-06T08:44:18Z</time></trkpt><trkpt lat="45.35607117506451" lon="9.411439023430988"><ele>88.0</ele><time>2026-04-06T08:44:20Z</time></trkpt><trkpt lat="45.356012104206876" lon="9.411513467865152"><ele>87.66666666666667</ele><time>2026-04-06T08:44:22Z</time></trkpt><trkpt lat="45.35596763146213" lon="9.411623008162799"><ele>87.33333333333333</ele><time>2026-04-06T08:44:24Z</time></trkpt><trkpt lat="45.3559174224947" lon="9.411715080486601"><ele>87.0</ele><time>2026-04-06T08:44:26Z</time></trkpt><trkpt lat="45.35587012280812" lon="9.41183177304701"><ele>87.0</ele><time>2026-04-06T08:44:28Z</time></trkpt><trkpt lat="45.35580821803459" lon="9.411934091263337"><ele>87.0</ele><time>2026-04-06T08:44:30Z</time></trkpt><trkpt lat="45.35573469514774" lon="9.412016622874434"><ele>87.0</ele><time>2026-04-06T08:44:32Z</time></trkpt><trkpt lat="45.35564884698799" lon="9.412080107882613"><ele>87.0</ele><time>2026-04-06T08:44:34Z</time></trkpt><trkpt lat="45.35555727965566" lon="9.412142832547737"><ele>87.0</ele><time>2026-04-06T08:44:36Z</time></trkpt><trkpt lat="45.35546859258905" lon="9.412211548632941"><ele>87.19999999999999</ele><time>2026-04-06T08:44:38Z</time></trkpt><trkpt lat="45.35538028206561" lon="9.412280205234168"><ele>87.4</ele><time>2026-04-06T08:44:40Z</time></trkpt><trkpt lat="45.355291929403464" lon="9.412347900426527"><ele>87.6</ele><time>2026-04-06T08:44:42Z</time></trkpt><trkpt lat="45.355201480176135" lon="9.41242163351729"><ele>87.80000000000001</ele><time>2026-04-06T08:44:44Z</time></trkpt><trkpt lat="45.3551107314574" lon="9.412488279193765"><ele>88.0</ele><time>2026-04-06T08:44:46Z</time></trkpt><trkpt lat="45.35502022182112" lon="9.412556783895969"><ele>88.0</ele><time>2026-04-06T08:44:48Z</time></trkpt><trkpt lat="45.35493145548908" lon="9.412626026272376"><ele>88.0</ele><time>2026-04-06T08:44:50Z</time></trkpt><trkpt lat="45.35484094628382" lon="9.412695343640975"><ele>88.0</ele><time>2026-04-06T08:44:52Z</time></trkpt><trkpt lat="45.35475315387002" lon="9.412766929453618"><ele>88.0</ele><time>2026-04-06T08:44:54Z</time></trkpt><trkpt lat="45.35466728333361" lon="9.412845935355396"><ele>88.0</ele><time>2026-04-06T08:44:56Z</time></trkpt><trkpt lat="45.35456931780043" lon="9.412925506825067"><ele>87.75</ele><time>2026-04-06T08:44:58Z</time></trkpt><trkpt lat="45.35446807090416" lon="9.413021115204723"><ele>87.5</ele><time>2026-04-06T08:45:00Z</time></trkpt><trkpt lat="45.35436624885105" lon="9.413117269476388"><ele>87.25</ele><time>2026-04-06T08:45:02Z</time></trkpt><trkpt lat="45.35426678855164" lon="9.413217058447916"><ele>87.0</ele><time>2026-04-06T08:45:04Z</time></trkpt><trkpt lat="45.35416736021905" lon="9.413314303824187"><ele>87.0</ele><time>2026-04-06T08:45:06Z</time></trkpt><trkpt lat="45.35408079284577" lon="9.413410830135705"><ele>87.0</ele><time>2026-04-06T08:45:08Z</time></trkpt><trkpt lat="45.3539891407906" lon="9.413488519595044"><ele>87.0</ele><time>2026-04-06T08:45:10Z</time></trkpt><trkpt lat="45.353908846138594" lon="9.413574842491615"><ele>87.0</ele><time>2026-04-06T08:45:12Z</time></trkpt><trkpt lat="45.35382884406326" lon="9.413659998851333"><ele>87.0</ele><time>2026-04-06T08:45:14Z</time></trkpt><trkpt lat="45.353742131451256" lon="9.41373995339437"><ele>87.19999999999999</ele><time>2026-04-06T08:45:16Z</time></trkpt><trkpt lat="45.35366117548593" lon="9.413828439460472"><ele>87.4</ele><time>2026-04-06T08:45:18Z</time></trkpt><trkpt lat="45.35356965302336" lon="9.413901947051793"><ele>87.6</ele><time>2026-04-06T08:45:20Z</time></trkpt><trkpt lat="45.353483203495905" lon="9.413977022859376"><ele>87.80000000000001</ele><time>2026-04-06T08:45:22Z</time></trkpt><trkpt lat="45.35338936492937" lon="9.414041942375016"><ele>88.0</ele><time>2026-04-06T08:45:24Z</time></trkpt><trkpt lat="45.3532842142578" lon="9.414057933590975"><ele>88.0</ele><time>2026-04-06T08:45:26Z</time></trkpt><trkpt lat="45.35318483895261" lon="9.414022645953361"><ele>88.0</ele><time>2026-04-06T08:45:28Z</time></trkpt><trkpt lat="45.353086640602704" lon="9.413958390541522"><ele>88.0</ele><time>2026-04-06T08:45:30Z</time></trkpt><trkpt lat="45.35298006513547" lon="9.413918011847723"><ele>88.0</ele><time>2026-04-06T08:45:32Z</time></trkpt><trkpt lat="45.352877733678945" lon="9.413877479620023"><ele>88.0</ele><time>2026-04-06T08:45:34Z</time></trkpt><trkpt lat="45.35277492004785" lon="9.413840351152684"><ele>87.2</ele><time>2026-04-06T08:45:36Z</time></trkpt><trkpt lat="45.35267210963654" lon="9.41380296631843"><ele>86.4</ele><time>2026-04-06T08:45:38Z</time></trkpt><trkpt lat="45.352570411314915" lon="9.413775940226735"><ele>85.60000000000001</ele><time>2026-04-06T08:45:40Z</time></trkpt><trkpt lat="45.35247434204526" lon="9.41373269208175"><ele>84.80000000000001</ele><time>2026-04-06T08:45:42Z</time></trkpt><trkpt lat="45.352376527099125" lon="9.413689772710917"><ele>84.0</ele><time>2026-04-06T08:45:44Z</time></trkpt><trkpt lat="45.35227340775538" lon="9.413648609329668"><ele>84.2</ele><time>2026-04-06T08:45:46Z</time></trkpt><trkpt lat="45.35217151997771" lon="9.41360202950504"><ele>84.4</ele><time>2026-04-06T08:45:48Z</time></trkpt><trkpt lat="45.352067578248736" lon="9.413558347571817"><ele>84.6</ele><time>2026-04-06T08:45:50Z</time></trkpt><trkpt lat="45.35196335751785" lon="9.413516974697195"><ele>84.8</ele><time>2026-04-06T08:45:52Z</time></trkpt><trkpt lat="45.35186254684641" lon="9.413466382063609"><ele>85.0</ele><time>2026-04-06T08:45:54Z</time></trkpt><trkpt lat="45.35176171535098" lon="9.413417026390112"><ele>85.0</ele><time>2026-04-06T08:45:56Z</time></trkpt><trkpt lat="45.35165602320224" lon="9.413363670432235"><ele>85.0</ele><time>2026-04-06T08:45:58Z</time></trkpt><trkpt lat="45.35155020639856" lon="9.413313149053888"><ele>85.0</ele><time>2026-04-06T08:46:00Z</time></trkpt><trkpt lat="45.3514498184115" lon="9.413263562664799"><ele>85.0</ele><time>2026-04-06T08:46:02Z</time></trkpt><trkpt lat="45.35134645996808" lon="9.41321097492566"><ele>85.0</ele><time>2026-04-06T08:46:04Z</time></trkpt><trkpt lat="45.35124450713547" lon="9.413165448167156"><ele>85.0</ele><time>2026-04-06T08:46:06Z</time></trkpt><trkpt lat="45.35114063291883" lon="9.413129302733802"><ele>85.0</ele><time>2026-04-06T08:46:08Z</time></trkpt><trkpt lat="45.3510270785371" lon="9.413111170145521"><ele>85.0</ele><time>2026-04-06T08:46:10Z</time></trkpt><trkpt lat="45.35090854765497" lon="9.413102714647938"><ele>85.0</ele><time>2026-04-06T08:46:12Z</time></trkpt><trkpt lat="45.35078705533328" lon="9.413087638929655"><ele>85.0</ele><time>2026-04-06T08:46:14Z</time></trkpt><trkpt lat="45.35066983780657" lon="9.413063351907923"><ele>85.0</ele><time>2026-04-06T08:46:16Z</time></trkpt><trkpt lat="45.350553702267305" lon="9.413038085725445"><ele>85.0</ele><time>2026-04-06T08:46:18Z</time></trkpt><trkpt lat="45.35043833975077" lon="9.413012337983487"><ele>85.0</ele><time>2026-04-06T08:46:20Z</time></trkpt><trkpt lat="45.350326406522896" lon="9.41298604528814"><ele>84.8</ele><time>2026-04-06T08:46:22Z</time></trkpt><trkpt lat="45.35021588877818" lon="9.41297158324976"><ele>84.6</ele><time>2026-04-06T08:46:24Z</time></trkpt><trkpt lat="45.350105426563566" lon="9.41296265812487"><ele>84.4</ele><time>2026-04-06T08:46:26Z</time></trkpt><trkpt lat="45.34999434203067" lon="9.41296095639123"><ele>84.2</ele><time>2026-04-06T08:46:28Z</time></trkpt><trkpt lat="45.34987999720174" lon="9.412940664550478"><ele>84.0</ele><time>2026-04-06T08:46:30Z</time></trkpt><trkpt lat="45.34976297278911" lon="9.412929242961887"><ele>84.2</ele><time>2026-04-06T08:46:32Z</time></trkpt><trkpt lat="45.34969900839923" lon="9.412929272171953"><ele>84.4</ele><time>2026-04-06T08:46:33Z</time></trkpt><trkpt lat="45.349577692944756" lon="9.412912359901325"><ele>84.6</ele><time>2026-04-06T08:46:35Z</time></trkpt><trkpt lat="45.34945722178859" lon="9.412881758751713"><ele>84.8</ele><time>2026-04-06T08:46:37Z</time></trkpt><trkpt lat="45.349393801876424" lon="9.412859056388566"><ele>85.0</ele><time>2026-04-06T08:46:38Z</time></trkpt><trkpt lat="45.34927371316976" lon="9.412805428027518"><ele>85.0</ele><time>2026-04-06T08:46:40Z</time></trkpt><trkpt lat="45.34915667825095" lon="9.41274647728829"><ele>85.0</ele><time>2026-04-06T08:46:42Z</time></trkpt><trkpt lat="45.34909773145485" lon="9.412708804671842"><ele>85.0</ele><time>2026-04-06T08:46:43Z</time></trkpt><trkpt lat="45.34898610565557" lon="9.412638705012503"><ele>85.0</ele><time>2026-04-06T08:46:45Z</time></trkpt><trkpt lat="45.348875316864756" lon="9.412556257376266"><ele>85.0</ele><time>2026-04-06T08:46:47Z</time></trkpt><trkpt lat="45.348766090747695" lon="9.412475512227047"><ele>84.75</ele><time>2026-04-06T08:46:49Z</time></trkpt><trkpt lat="45.348658650022806" lon="9.4124057755979"><ele>84.5</ele><time>2026-04-06T08:46:51Z</time></trkpt><trkpt lat="45.34854865064592" lon="9.412337621947806"><ele>84.25</ele><time>2026-04-06T08:46:53Z</time></trkpt><trkpt lat="45.34844284528558" lon="9.412266962676739"><ele>84.0</ele><time>2026-04-06T08:46:55Z</time></trkpt><trkpt lat="45.34834565188564" lon="9.412196642749402"><ele>84.0</ele><time>2026-04-06T08:46:57Z</time></trkpt><trkpt lat="45.348284593788556" lon="9.412162946009314"><ele>84.0</ele><time>2026-04-06T08:46:58Z</time></trkpt><trkpt lat="45.34817414427213" lon="9.412096341937287"><ele>84.0</ele><time>2026-04-06T08:47:00Z</time></trkpt><trkpt lat="45.348061724954846" lon="9.412048310237145"><ele>84.0</ele><time>2026-04-06T08:47:02Z</time></trkpt><trkpt lat="45.34795038333723" lon="9.41199887898929"><ele>84.0</ele><time>2026-04-06T08:47:04Z</time></trkpt><trkpt lat="45.347831335233046" lon="9.411952734338998"><ele>84.0</ele><time>2026-04-06T08:47:06Z</time></trkpt><trkpt lat="45.34776716669376" lon="9.411930684683348"><ele>84.0</ele><time>2026-04-06T08:47:07Z</time></trkpt><trkpt lat="45.347641225206345" lon="9.411891818752967"><ele>84.0</ele><time>2026-04-06T08:47:09Z</time></trkpt><trkpt lat="45.34757935750044" lon="9.411873151620116"><ele>84.0</ele><time>2026-04-06T08:47:10Z</time></trkpt><trkpt lat="45.34746373427471" lon="9.411831676590507"><ele>84.0</ele><time>2026-04-06T08:47:12Z</time></trkpt><trkpt lat="45.347356542689035" lon="9.411796485573273"><ele>84.0</ele><time>2026-04-06T08:47:14Z</time></trkpt><trkpt lat="45.34725943458741" lon="9.411769047163915"><ele>84.0</ele><time>2026-04-06T08:47:16Z</time></trkpt><trkpt lat="45.34717815523581" lon="9.411701590872099"><ele>84.0</ele><time>2026-04-06T08:47:18Z</time></trkpt><trkpt lat="45.34717741132441" lon="9.411528902887072"><ele>84.0</ele><time>2026-04-06T08:47:20Z</time></trkpt><trkpt lat="45.34717534565718" lon="9.41137619992018"><ele>84.0</ele><time>2026-04-06T08:47:22Z</time></trkpt><trkpt lat="45.34716794988874" lon="9.411287111782679"><ele>83.75</ele><time>2026-04-06T08:47:23Z</time></trkpt><trkpt lat="45.3471503394993" lon="9.41111798635317"><ele>83.5</ele><time>2026-04-06T08:47:25Z</time></trkpt><trkpt lat="45.347131670925926" lon="9.410954492656321"><ele>83.25</ele><time>2026-04-06T08:47:27Z</time></trkpt><trkpt lat="45.3471191813522" lon="9.410790456183383"><ele>83.0</ele><time>2026-04-06T08:47:29Z</time></trkpt><trkpt lat="45.34710112904174" lon="9.410630870934723"><ele>83.4</ele><time>2026-04-06T08:47:31Z</time></trkpt><trkpt lat="45.34708695313884" lon="9.410472053567176"><ele>83.80000000000001</ele><time>2026-04-06T08:47:33Z</time></trkpt><trkpt lat="45.347075271775786" lon="9.410319785194064"><ele>84.2</ele><time>2026-04-06T08:47:35Z</time></trkpt><trkpt lat="45.34706026770122" lon="9.410173161750933"><ele>84.6</ele><time>2026-04-06T08:47:37Z</time></trkpt><trkpt lat="45.34704541561374" lon="9.410028973815914"><ele>85.0</ele><time>2026-04-06T08:47:39Z</time></trkpt><trkpt lat="45.347033173214086" lon="9.409883381956922"><ele>85.0</ele><time>2026-04-06T08:47:41Z</time></trkpt><trkpt lat="45.34702329930155" lon="9.409736896288026"><ele>85.0</ele><time>2026-04-06T08:47:43Z</time></trkpt><trkpt lat="45.34700967307831" lon="9.40959187132953"><ele>85.0</ele><time>2026-04-06T08:47:45Z</time></trkpt><trkpt lat="45.346997044074215" lon="9.409443970507075"><ele>85.0</ele><time>2026-04-06T08:47:47Z</time></trkpt><trkpt lat="45.346991480999804" lon="9.409297957578799"><ele>85.0</ele><time>2026-04-06T08:47:49Z</time></trkpt><trkpt lat="45.34697479237327" lon="9.40915130640873"><ele>85.4</ele><time>2026-04-06T08:47:51Z</time></trkpt><trkpt lat="45.346963179185664" lon="9.409005477482381"><ele>85.8</ele><time>2026-04-06T08:47:53Z</time></trkpt><trkpt lat="45.34695495522077" lon="9.408861253439051"><ele>86.19999999999999</ele><time>2026-04-06T08:47:55Z</time></trkpt><trkpt lat="45.34693908900313" lon="9.408716155293744"><ele>86.6</ele><time>2026-04-06T08:47:57Z</time></trkpt><trkpt lat="45.34692629986207" lon="9.408569425670377"><ele>87.0</ele><time>2026-04-06T08:47:59Z</time></trkpt><trkpt lat="45.34691687876252" lon="9.40841972575739"><ele>87.0</ele><time>2026-04-06T08:48:01Z</time></trkpt><trkpt lat="45.34690838380155" lon="9.408270987836548"><ele>87.0</ele><time>2026-04-06T08:48:03Z</time></trkpt><trkpt lat="45.3468956353556" lon="9.408120497616663"><ele>87.0</ele><time>2026-04-06T08:48:05Z</time></trkpt><trkpt lat="45.346883932447376" lon="9.407972000500413"><ele>87.0</ele><time>2026-04-06T08:48:07Z</time></trkpt><trkpt lat="45.34687077825389" lon="9.407819336358598"><ele>87.0</ele><time>2026-04-06T08:48:09Z</time></trkpt><trkpt lat="45.34686829061996" lon="9.407660210039687"><ele>87.19999999999999</ele><time>2026-04-06T08:48:11Z</time></trkpt><trkpt lat="45.34685354424843" lon="9.407510947711732"><ele>87.4</ele><time>2026-04-06T08:48:13Z</time></trkpt><trkpt lat="45.34685008397205" lon="9.40735295050909"><ele>87.6</ele><time>2026-04-06T08:48:15Z</time></trkpt><trkpt lat="45.346834185018146" lon="9.407198143343793"><ele>87.80000000000001</ele><time>2026-04-06T08:48:17Z</time></trkpt><trkpt lat="45.34681811914289" lon="9.407045194786189"><ele>88.0</ele><time>2026-04-06T08:48:19Z</time></trkpt><trkpt lat="45.34680528118327" lon="9.406893733513451"><ele>88.0</ele><time>2026-04-06T08:48:21Z</time></trkpt><trkpt lat="45.346793093395284" lon="9.406741384543345"><ele>88.0</ele><time>2026-04-06T08:48:23Z</time></trkpt><trkpt lat="45.3467797836603" lon="9.406588796487947"><ele>88.0</ele><time>2026-04-06T08:48:25Z</time></trkpt><trkpt lat="45.34676239398067" lon="9.406438782770271"><ele>88.0</ele><time>2026-04-06T08:48:27Z</time></trkpt><trkpt lat="45.34674283149899" lon="9.406291546859302"><ele>88.0</ele><time>2026-04-06T08:48:29Z</time></trkpt><trkpt lat="45.34673256993312" lon="9.406149639742768"><ele>87.80000000000001</ele><time>2026-04-06T08:48:31Z</time></trkpt><trkpt lat="45.346723766162775" lon="9.40601384782514"><ele>87.6</ele><time>2026-04-06T08:48:33Z</time></trkpt><trkpt lat="45.346706811965845" lon="9.405888493650128"><ele>87.4</ele><time>2026-04-06T08:48:35Z</time></trkpt><trkpt lat="45.34670085121515" lon="9.405759620595788"><ele>87.19999999999999</ele><time>2026-04-06T08:48:37Z</time></trkpt><trkpt lat="45.34669086484349" lon="9.405632074639051"><ele>87.0</ele><time>2026-04-06T08:48:39Z</time></trkpt><trkpt lat="45.34667712413368" lon="9.40550768195438"><ele>87.0</ele><time>2026-04-06T08:48:41Z</time></trkpt><trkpt lat="45.34665956957683" lon="9.40536713703216"><ele>87.0</ele><time>2026-04-06T08:48:43Z</time></trkpt><trkpt lat="45.346642082763566" lon="9.405235811433288"><ele>87.0</ele><time>2026-04-06T08:48:45Z</time></trkpt><trkpt lat="45.34662843034788" lon="9.405099724474205"><ele>87.0</ele><time>2026-04-06T08:48:47Z</time></trkpt><trkpt lat="45.34661524396023" lon="9.404962645615509"><ele>87.0</ele><time>2026-04-06T08:48:49Z</time></trkpt><trkpt lat="45.34660502192835" lon="9.404827493210213"><ele>87.0</ele><time>2026-04-06T08:48:51Z</time></trkpt><trkpt lat="45.34659503816046" lon="9.40469289931441"><ele>87.0</ele><time>2026-04-06T08:48:53Z</time></trkpt><trkpt lat="45.34658101992597" lon="9.40455649922365"><ele>87.0</ele><time>2026-04-06T08:48:55Z</time></trkpt><trkpt lat="45.34655909797929" lon="9.404426572028774"><ele>87.0</ele><time>2026-04-06T08:48:57Z</time></trkpt><trkpt lat="45.34655313783121" lon="9.404294465199056"><ele>87.0</ele><time>2026-04-06T08:48:59Z</time></trkpt><trkpt lat="45.346542589940114" lon="9.404169370189631"><ele>87.0</ele><time>2026-04-06T08:49:01Z</time></trkpt><trkpt lat="45.34653610453538" lon="9.404042147551241"><ele>87.0</ele><time>2026-04-06T08:49:03Z</time></trkpt><trkpt lat="45.34656480336452" lon="9.403919253629098"><ele>87.0</ele><time>2026-04-06T08:49:05Z</time></trkpt><trkpt lat="45.34660206416137" lon="9.40380081212812"><ele>87.0</ele><time>2026-04-06T08:49:07Z</time></trkpt><trkpt lat="45.346640718457884" lon="9.403677445496973"><ele>87.0</ele><time>2026-04-06T08:49:09Z</time></trkpt><trkpt lat="45.3466699822608" lon="9.40354711143435"><ele>87.16666666666667</ele><time>2026-04-06T08:49:11Z</time></trkpt><trkpt lat="45.346710329343054" lon="9.403426233477157"><ele>87.33333333333333</ele><time>2026-04-06T08:49:13Z</time></trkpt><trkpt lat="45.34675233666003" lon="9.403310678969824"><ele>87.5</ele><time>2026-04-06T08:49:15Z</time></trkpt><trkpt lat="45.34678978387403" lon="9.403199346166625"><ele>87.66666666666666</ele><time>2026-04-06T08:49:17Z</time></trkpt><trkpt lat="45.34682322239654" lon="9.403093023384294"><ele>87.83333333333333</ele><time>2026-04-06T08:49:19Z</time></trkpt><trkpt lat="45.34684657458898" lon="9.402985770405571"><ele>88.0</ele><time>2026-04-06T08:49:21Z</time></trkpt><trkpt lat="45.3468883409264" lon="9.402876692695111"><ele>88.0</ele><time>2026-04-06T08:49:23Z</time></trkpt><trkpt lat="45.34691988814708" lon="9.402765427983779"><ele>88.0</ele><time>2026-04-06T08:49:25Z</time></trkpt><trkpt lat="45.34695267698542" lon="9.402665413910983"><ele>88.0</ele><time>2026-04-06T08:49:27Z</time></trkpt><trkpt lat="45.346997331718555" lon="9.402585488530491"><ele>88.0</ele><time>2026-04-06T08:49:29Z</time></trkpt><trkpt lat="45.34705567732037" lon="9.402516263439452"><ele>88.0</ele><time>2026-04-06T08:49:31Z</time></trkpt><trkpt lat="45.3471188282522" lon="9.402442966366166"><ele>88.0</ele><time>2026-04-06T08:49:33Z</time></trkpt><trkpt lat="45.34716944318715" lon="9.402356899539997"><ele>88.0</ele><time>2026-04-06T08:49:35Z</time></trkpt><trkpt lat="45.347220499612426" lon="9.402273592184683"><ele>88.0</ele><time>2026-04-06T08:49:37Z</time></trkpt><trkpt lat="45.34727608362866" lon="9.402207829215124"><ele>88.0</ele><time>2026-04-06T08:49:39Z</time></trkpt><trkpt lat="45.34734022487441" lon="9.4021383468506"><ele>88.0</ele><time>2026-04-06T08:49:42Z</time></trkpt><trkpt lat="45.34727982738457" lon="9.402177751437328"><ele>88.0</ele><time>2026-04-06T08:49:54.001Z</time></trkpt><trkpt lat="45.34722582055468" lon="9.402259926879298"><ele>88.0</ele><time>2026-04-06T08:49:56.001Z</time></trkpt><trkpt lat="45.34715541747216" lon="9.402360610045037"><ele>88.0</ele><time>2026-04-06T08:49:58.001Z</time></trkpt><trkpt lat="45.34710547741287" lon="9.402466533203025"><ele>88.0</ele><time>2026-04-06T08:50:00.001Z</time></trkpt><trkpt lat="45.34703961889757" lon="9.402540008949385"><ele>88.0</ele><time>2026-04-06T08:50:02Z</time></trkpt><trkpt lat="45.34697220713833" lon="9.402601090901843"><ele>88.0</ele><time>2026-04-06T08:50:04Z</time></trkpt><trkpt lat="45.34689927537813" lon="9.402586479077147"><ele>88.0</ele><time>2026-04-06T08:50:06Z</time></trkpt><trkpt lat="45.34685043773268" lon="9.40250432191804"><ele>88.0</ele><time>2026-04-06T08:50:08Z</time></trkpt><trkpt lat="45.346814883854535" lon="9.402399458134498"><ele>88.0</ele><time>2026-04-06T08:50:10Z</time></trkpt><trkpt lat="45.34685194880269" lon="9.4022850637018"><ele>88.0</ele><time>2026-04-06T08:50:12Z</time></trkpt><trkpt lat="45.346920767683265" lon="9.402191785451315"><ele>88.0</ele><time>2026-04-06T08:50:14Z</time></trkpt><trkpt lat="45.34699194090008" lon="9.402101261003676"><ele>88.0</ele><time>2026-04-06T08:50:16Z</time></trkpt><trkpt lat="45.34705981169403" lon="9.402005169118343"><ele>88.0</ele><time>2026-04-06T08:50:18Z</time></trkpt><trkpt lat="45.347127943421015" lon="9.401908924104086"><ele>88.2</ele><time>2026-04-06T08:50:20Z</time></trkpt><trkpt lat="45.34719500507429" lon="9.401808553497837"><ele>88.4</ele><time>2026-04-06T08:50:22Z</time></trkpt><trkpt lat="45.347262503689876" lon="9.401721841998405"><ele>88.60000000000001</ele><time>2026-04-06T08:50:24Z</time></trkpt><trkpt lat="45.34733910033725" lon="9.401677147224047"><ele>88.80000000000001</ele><time>2026-04-06T08:50:26Z</time></trkpt><trkpt lat="45.34741580827562" lon="9.401752442079971"><ele>89.0</ele><time>2026-04-06T08:50:28Z</time></trkpt><trkpt lat="45.34746996364376" lon="9.401865723421697"><ele>88.66666666666667</ele><time>2026-04-06T08:50:30Z</time></trkpt><trkpt lat="45.34753072853041" lon="9.401965619074746"><ele>88.33333333333334</ele><time>2026-04-06T08:50:32Z</time></trkpt><trkpt lat="45.347596373599" lon="9.402063043239291"><ele>88.0</ele><time>2026-04-06T08:50:34Z</time></trkpt><trkpt lat="45.34765343484668" lon="9.402155681970372"><ele>87.66666666666667</ele><time>2026-04-06T08:50:36Z</time></trkpt><trkpt lat="45.34770950800391" lon="9.402213072986058"><ele>87.33333333333333</ele><time>2026-04-06T08:50:38Z</time></trkpt><trkpt lat="45.34780235198169" lon="9.402234953618391"><ele>87.0</ele><time>2026-04-06T08:50:41Z</time></trkpt><trkpt lat="45.34786386203706" lon="9.402206278992733"><ele>87.0</ele><time>2026-04-06T08:50:43Z</time></trkpt><trkpt lat="45.34793457601277" lon="9.402111882349075"><ele>87.0</ele><time>2026-04-06T08:50:46Z</time></trkpt><trkpt lat="45.34800253817851" lon="9.402106953568795"><ele>87.0</ele><time>2026-04-06T08:50:48Z</time></trkpt><trkpt lat="45.3480763074233" lon="9.402102099005868"><ele>87.0</ele><time>2026-04-06T08:50:50Z</time></trkpt><trkpt lat="45.34814607059807" lon="9.402060610562227"><ele>87.0</ele><time>2026-04-06T08:50:52Z</time></trkpt><trkpt lat="45.348207867093485" lon="9.402002261185466"><ele>87.0</ele><time>2026-04-06T08:50:54Z</time></trkpt><trkpt lat="45.34827095339177" lon="9.40196081341065"><ele>87.0</ele><time>2026-04-06T08:50:56Z</time></trkpt><trkpt lat="45.34833402775061" lon="9.401905685728911"><ele>87.0</ele><time>2026-04-06T08:50:58Z</time></trkpt><trkpt lat="45.34839612907168" lon="9.401848291333389"><ele>87.0</ele><time>2026-04-06T08:51:00Z</time></trkpt><trkpt lat="45.34846496312552" lon="9.401793498467919"><ele>87.0</ele><time>2026-04-06T08:51:02Z</time></trkpt><trkpt lat="45.348530292745714" lon="9.401725907009542"><ele>87.0</ele><time>2026-04-06T08:51:04Z</time></trkpt><trkpt lat="45.3486022237052" lon="9.401662719679319"><ele>87.0</ele><time>2026-04-06T08:51:06Z</time></trkpt><trkpt lat="45.3486784414046" lon="9.401601507835577"><ele>87.0</ele><time>2026-04-06T08:51:08Z</time></trkpt><trkpt lat="45.34874166483947" lon="9.401544490011542"><ele>87.0</ele><time>2026-04-06T08:51:10Z</time></trkpt><trkpt lat="45.34880796241581" lon="9.401482974957224"><ele>87.0</ele><time>2026-04-06T08:51:12Z</time></trkpt><trkpt lat="45.34887012633918" lon="9.401418113057652"><ele>87.0</ele><time>2026-04-06T08:51:14Z</time></trkpt><trkpt lat="45.3489379526088" lon="9.40135626680316"><ele>87.0</ele><time>2026-04-06T08:51:16Z</time></trkpt><trkpt lat="45.34901091962388" lon="9.40129464146055"><ele>87.0</ele><time>2026-04-06T08:51:18Z</time></trkpt><trkpt lat="45.34908415004298" lon="9.401230857770685"><ele>86.6</ele><time>2026-04-06T08:51:20Z</time></trkpt><trkpt lat="45.34915783921629" lon="9.401154991635853"><ele>86.19999999999999</ele><time>2026-04-06T08:51:22Z</time></trkpt><trkpt lat="45.34922952083753" lon="9.40107291591977"><ele>85.8</ele><time>2026-04-06T08:51:24Z</time></trkpt><trkpt lat="45.34930198760145" lon="9.400992214792176"><ele>85.4</ele><time>2026-04-06T08:51:26Z</time></trkpt><trkpt lat="45.34937142581986" lon="9.400916563654388"><ele>85.0</ele><time>2026-04-06T08:51:28Z</time></trkpt><trkpt lat="45.349452028241245" lon="9.400842975838746"><ele>85.0</ele><time>2026-04-06T08:51:30Z</time></trkpt><trkpt lat="45.349534981929615" lon="9.40077298599194"><ele>85.0</ele><time>2026-04-06T08:51:32Z</time></trkpt><trkpt lat="45.34961341547902" lon="9.400714898334591"><ele>85.0</ele><time>2026-04-06T08:51:34Z</time></trkpt><trkpt lat="45.34968489947308" lon="9.400645318394204"><ele>85.0</ele><time>2026-04-06T08:51:36Z</time></trkpt><trkpt lat="45.349757250507" lon="9.40058795780532"><ele>85.0</ele><time>2026-04-06T08:51:38Z</time></trkpt><trkpt lat="45.349833961488144" lon="9.400520213268457"><ele>85.0</ele><time>2026-04-06T08:51:40Z</time></trkpt><trkpt lat="45.349901720508846" lon="9.400439611969043"><ele>85.0</ele><time>2026-04-06T08:51:42Z</time></trkpt><trkpt lat="45.34997298789225" lon="9.400357390013184"><ele>85.0</ele><time>2026-04-06T08:51:44Z</time></trkpt><trkpt lat="45.3500403314059" lon="9.400282112969498"><ele>85.0</ele><time>2026-04-06T08:51:46Z</time></trkpt><trkpt lat="45.35011162012934" lon="9.40021102174477"><ele>85.0</ele><time>2026-04-06T08:51:48Z</time></trkpt><trkpt lat="45.350182098276534" lon="9.400131681369237"><ele>85.0</ele><time>2026-04-06T08:51:50Z</time></trkpt><trkpt lat="45.350258996065506" lon="9.400055518829138"><ele>85.0</ele><time>2026-04-06T08:51:52.001Z</time></trkpt><trkpt lat="45.35033412667265" lon="9.399984673730465"><ele>85.0</ele><time>2026-04-06T08:51:54.001Z</time></trkpt><trkpt lat="45.350414269470576" lon="9.39990876303445"><ele>85.0</ele><time>2026-04-06T08:51:56.001Z</time></trkpt><trkpt lat="45.35049238109614" lon="9.399848686088523"><ele>85.0</ele><time>2026-04-06T08:51:58.001Z</time></trkpt><trkpt lat="45.35056700560705" lon="9.399788213381397"><ele>85.0</ele><time>2026-04-06T08:52:00.001Z</time></trkpt><trkpt lat="45.35064366001111" lon="9.399731487791046"><ele>85.0</ele><time>2026-04-06T08:52:02.001Z</time></trkpt><trkpt lat="45.35071854796038" lon="9.399672372229285"><ele>85.0</ele><time>2026-04-06T08:52:04.001Z</time></trkpt><trkpt lat="45.35079069019707" lon="9.399603743380236"><ele>85.0</ele><time>2026-04-06T08:52:06.001Z</time></trkpt><trkpt lat="45.35086886973846" lon="9.399545612946673"><ele>85.0</ele><time>2026-04-06T08:52:08Z</time></trkpt><trkpt lat="45.35094239311124" lon="9.399453439280762"><ele>85.0</ele><time>2026-04-06T08:52:10Z</time></trkpt><trkpt lat="45.35100036910585" lon="9.399337422028387"><ele>85.0</ele><time>2026-04-06T08:52:12Z</time></trkpt><trkpt lat="45.351037329200864" lon="9.39921982308825"><ele>85.0</ele><time>2026-04-06T08:52:14Z</time></trkpt><trkpt lat="45.351074937330594" lon="9.399107319947525"><ele>85.0</ele><time>2026-04-06T08:52:16Z</time></trkpt><trkpt lat="45.35110440911666" lon="9.39899442217473"><ele>85.0</ele><time>2026-04-06T08:52:18Z</time></trkpt><trkpt lat="45.3511374875757" lon="9.398880342624823"><ele>85.0</ele><time>2026-04-06T08:52:20Z</time></trkpt><trkpt lat="45.35117162525028" lon="9.398768444556882"><ele>85.0</ele><time>2026-04-06T08:52:22Z</time></trkpt><trkpt lat="45.35120480202163" lon="9.398654775890016"><ele>85.0</ele><time>2026-04-06T08:52:24Z</time></trkpt><trkpt lat="45.35123913346393" lon="9.398542950316397"><ele>85.0</ele><time>2026-04-06T08:52:26Z</time></trkpt><trkpt lat="45.351273770687776" lon="9.39842943339321"><ele>85.16666666666666</ele><time>2026-04-06T08:52:28Z</time></trkpt><trkpt lat="45.35130645905436" lon="9.398311454593735"><ele>85.33333333333333</ele><time>2026-04-06T08:52:30Z</time></trkpt><trkpt lat="45.351334169686226" lon="9.398187832361815"><ele>85.5</ele><time>2026-04-06T08:52:32Z</time></trkpt><trkpt lat="45.35136498771216" lon="9.398074350305356"><ele>85.66666666666667</ele><time>2026-04-06T08:52:34Z</time></trkpt><trkpt lat="45.35138468262894" lon="9.397962090667965"><ele>85.83333333333334</ele><time>2026-04-06T08:52:36Z</time></trkpt><trkpt lat="45.35139636607733" lon="9.397830061424726"><ele>86.0</ele><time>2026-04-06T08:52:39Z</time></trkpt><trkpt lat="45.35135902749271" lon="9.397739400742632"><ele>86.0</ele><time>2026-04-06T08:52:41Z</time></trkpt><trkpt lat="45.35131361030586" lon="9.39764880842443"><ele>86.0</ele><time>2026-04-06T08:52:43Z</time></trkpt><trkpt lat="45.35126822038038" lon="9.397560296396177"><ele>86.0</ele><time>2026-04-06T08:52:45Z</time></trkpt><trkpt lat="45.35122390015636" lon="9.397469487815385"><ele>86.0</ele><time>2026-04-06T08:52:47Z</time></trkpt><trkpt lat="45.35116676112555" lon="9.397385706010002"><ele>86.0</ele><time>2026-04-06T08:52:49Z</time></trkpt><trkpt lat="45.35111484320895" lon="9.397291830948486"><ele>86.0</ele><time>2026-04-06T08:52:51Z</time></trkpt><trkpt lat="45.35105759678242" lon="9.39720108640072"><ele>86.19999999999999</ele><time>2026-04-06T08:52:53Z</time></trkpt><trkpt lat="45.35099358269547" lon="9.397107392030188"><ele>86.39999999999999</ele><time>2026-04-06T08:52:55Z</time></trkpt><trkpt lat="45.350924593489914" lon="9.397017833757562"><ele>86.6</ele><time>2026-04-06T08:52:57Z</time></trkpt><trkpt lat="45.350861722738905" lon="9.39692539996447"><ele>86.8</ele><time>2026-04-06T08:52:59Z</time></trkpt><trkpt lat="45.35079562933396" lon="9.396842820325588"><ele>87.0</ele><time>2026-04-06T08:53:01Z</time></trkpt><trkpt lat="45.350729018759054" lon="9.396751624722475"><ele>87.0</ele><time>2026-04-06T08:53:03Z</time></trkpt><trkpt lat="45.350665164380935" lon="9.39667000968813"><ele>87.0</ele><time>2026-04-06T08:53:05Z</time></trkpt><trkpt lat="45.350602746294776" lon="9.396581795662609"><ele>87.0</ele><time>2026-04-06T08:53:07Z</time></trkpt><trkpt lat="45.35053741056394" lon="9.396492695662197"><ele>87.0</ele><time>2026-04-06T08:53:09Z</time></trkpt><trkpt lat="45.35047681967469" lon="9.39639687457899"><ele>87.0</ele><time>2026-04-06T08:53:11Z</time></trkpt><trkpt lat="45.35041728841085" lon="9.396293483317503"><ele>87.0</ele><time>2026-04-06T08:53:13Z</time></trkpt><trkpt lat="45.350365175238544" lon="9.396187033206695"><ele>87.0</ele><time>2026-04-06T08:53:15Z</time></trkpt><trkpt lat="45.350323031456995" lon="9.3960737095131"><ele>87.0</ele><time>2026-04-06T08:53:17Z</time></trkpt><trkpt lat="45.35026556122446" lon="9.39600185867027"><ele>87.0</ele><time>2026-04-06T08:53:19Z</time></trkpt><trkpt lat="45.350216537856234" lon="9.39587827442061"><ele>87.0</ele><time>2026-04-06T08:53:21Z</time></trkpt><trkpt lat="45.35016557650585" lon="9.395767011350884"><ele>87.0</ele><time>2026-04-06T08:53:23Z</time></trkpt><trkpt lat="45.35010832036133" lon="9.395656946243754"><ele>87.0</ele><time>2026-04-06T08:53:25Z</time></trkpt><trkpt lat="45.35005266793212" lon="9.395555482791917"><ele>87.0</ele><time>2026-04-06T08:53:27Z</time></trkpt><trkpt lat="45.3500018621499" lon="9.39544912032896"><ele>87.0</ele><time>2026-04-06T08:53:29Z</time></trkpt><trkpt lat="45.34995422290702" lon="9.395338462039641"><ele>87.0</ele><time>2026-04-06T08:53:31Z</time></trkpt><trkpt lat="45.34989524156784" lon="9.395233103254853"><ele>87.0</ele><time>2026-04-06T08:53:33Z</time></trkpt><trkpt lat="45.34982510592915" lon="9.39512697865733"><ele>87.0</ele><time>2026-04-06T08:53:35Z</time></trkpt><trkpt lat="45.34976346682679" lon="9.395030117938619"><ele>87.0</ele><time>2026-04-06T08:53:37Z</time></trkpt><trkpt lat="45.34969215437742" lon="9.394939137759213"><ele>87.0</ele><time>2026-04-06T08:53:39Z</time></trkpt><trkpt lat="45.34962191575798" lon="9.394853260895449"><ele>87.0</ele><time>2026-04-06T08:53:41Z</time></trkpt><trkpt lat="45.34953679805193" lon="9.394766340798423"><ele>87.0</ele><time>2026-04-06T08:53:43Z</time></trkpt><trkpt lat="45.34945099738658" lon="9.394673361735874"><ele>87.0</ele><time>2026-04-06T08:53:45Z</time></trkpt><trkpt lat="45.34937056338237" lon="9.394554074849811"><ele>87.0</ele><time>2026-04-06T08:53:47Z</time></trkpt><trkpt lat="45.34929050379592" lon="9.394482832181085"><ele>87.0</ele><time>2026-04-06T08:53:49Z</time></trkpt><trkpt lat="45.34922063306264" lon="9.394385317252775"><ele>87.0</ele><time>2026-04-06T08:53:51Z</time></trkpt><trkpt lat="45.349154721626434" lon="9.394288596815892"><ele>87.0</ele><time>2026-04-06T08:53:53.001Z</time></trkpt><trkpt lat="45.34909118909086" lon="9.394200699411185"><ele>87.0</ele><time>2026-04-06T08:53:55.001Z</time></trkpt><trkpt lat="45.349033140130224" lon="9.39410186443681"><ele>87.0</ele><time>2026-04-06T08:53:57.001Z</time></trkpt><trkpt lat="45.348967667272134" lon="9.394000001726667"><ele>87.0</ele><time>2026-04-06T08:53:59.001Z</time></trkpt><trkpt lat="45.34889854040969" lon="9.393914021682692"><ele>87.0</ele><time>2026-04-06T08:54:01.001Z</time></trkpt><trkpt lat="45.34882511312046" lon="9.393842258439285"><ele>87.0</ele><time>2026-04-06T08:54:03.001Z</time></trkpt><trkpt lat="45.34874158891254" lon="9.39378853679241"><ele>87.39999999999999</ele><time>2026-04-06T08:54:05.001Z</time></trkpt><trkpt lat="45.348667627178784" lon="9.39370973224388"><ele>87.8</ele><time>2026-04-06T08:54:07.001Z</time></trkpt><trkpt lat="45.34859543808024" lon="9.39361734516644"><ele>88.2</ele><time>2026-04-06T08:54:09.001Z</time></trkpt><trkpt lat="45.34851648177145" lon="9.393519202750063"><ele>88.6</ele><time>2026-04-06T08:54:11.001Z</time></trkpt><trkpt lat="45.34845186338578" lon="9.393402248202745"><ele>89.0</ele><time>2026-04-06T08:54:13Z</time></trkpt><trkpt lat="45.348389390622664" lon="9.393278346709309"><ele>89.0</ele><time>2026-04-06T08:54:15Z</time></trkpt><trkpt lat="45.34832778707467" lon="9.393158618959419"><ele>89.0</ele><time>2026-04-06T08:54:17Z</time></trkpt><trkpt lat="45.348265287426976" lon="9.393046094067254"><ele>89.0</ele><time>2026-04-06T08:54:19Z</time></trkpt><trkpt lat="45.348202032284796" lon="9.392939243217937"><ele>89.0</ele><time>2026-04-06T08:54:21Z</time></trkpt><trkpt lat="45.348142736312646" lon="9.392823361710967"><ele>89.0</ele><time>2026-04-06T08:54:23Z</time></trkpt><trkpt lat="45.34808411465166" lon="9.392708680596355"><ele>89.0</ele><time>2026-04-06T08:54:25Z</time></trkpt><trkpt lat="45.34803353642318" lon="9.392584985365238"><ele>89.0</ele><time>2026-04-06T08:54:27Z</time></trkpt><trkpt lat="45.34798541319739" lon="9.392458435792543"><ele>89.0</ele><time>2026-04-06T08:54:29Z</time></trkpt><trkpt lat="45.3479504469632" lon="9.392324537221988"><ele>89.0</ele><time>2026-04-06T08:54:31Z</time></trkpt><trkpt lat="45.34793225627982" lon="9.39218008660176"><ele>89.0</ele><time>2026-04-06T08:54:33Z</time></trkpt><trkpt lat="45.34788705871083" lon="9.392058838074473"><ele>88.80000000000001</ele><time>2026-04-06T08:54:35Z</time></trkpt><trkpt lat="45.347848614042064" lon="9.391925634346634"><ele>88.60000000000001</ele><time>2026-04-06T08:54:37Z</time></trkpt><trkpt lat="45.347799421895736" lon="9.391802776840796"><ele>88.4</ele><time>2026-04-06T08:54:39Z</time></trkpt><trkpt lat="45.34773887314337" lon="9.391681599714632"><ele>88.2</ele><time>2026-04-06T08:54:41Z</time></trkpt><trkpt lat="45.347673662904775" lon="9.391562554031813"><ele>88.0</ele><time>2026-04-06T08:54:43Z</time></trkpt><trkpt lat="45.34760682328539" lon="9.391440029610987"><ele>88.0</ele><time>2026-04-06T08:54:45Z</time></trkpt><trkpt lat="45.34753183459534" lon="9.391324845888962"><ele>88.0</ele><time>2026-04-06T08:54:47Z</time></trkpt><trkpt lat="45.347462090298905" lon="9.391214262238137"><ele>88.0</ele><time>2026-04-06T08:54:49Z</time></trkpt><trkpt lat="45.347391709977465" lon="9.391123997987014"><ele>88.0</ele><time>2026-04-06T08:54:51Z</time></trkpt><trkpt lat="45.347331410444795" lon="9.39105578702744"><ele>88.0</ele><time>2026-04-06T08:54:53Z</time></trkpt><trkpt lat="45.347324870309635" lon="9.390936372965028"><ele>88.0</ele><time>2026-04-06T08:54:55Z</time></trkpt><trkpt lat="45.34734058887879" lon="9.39080942790518"><ele>88.0</ele><time>2026-04-06T08:54:57Z</time></trkpt><trkpt lat="45.347374477995885" lon="9.390679941792254"><ele>88.0</ele><time>2026-04-06T08:54:59Z</time></trkpt><trkpt lat="45.34740918950105" lon="9.390556228334717"><ele>88.0</ele><time>2026-04-06T08:55:01Z</time></trkpt><trkpt lat="45.347469891936704" lon="9.390464390685933"><ele>88.0</ele><time>2026-04-06T08:55:03Z</time></trkpt><trkpt lat="45.347540921085184" lon="9.39039101779148"><ele>87.80000000000001</ele><time>2026-04-06T08:55:05Z</time></trkpt><trkpt lat="45.34762106946801" lon="9.390322014759318"><ele>87.6</ele><time>2026-04-06T08:55:07Z</time></trkpt><trkpt lat="45.347713859341354" lon="9.390279595567334"><ele>87.4</ele><time>2026-04-06T08:55:09Z</time></trkpt><trkpt lat="45.34780817734254" lon="9.390245123134635"><ele>87.19999999999999</ele><time>2026-04-06T08:55:11Z</time></trkpt><trkpt lat="45.34790179410956" lon="9.390212014988967"><ele>87.0</ele><time>2026-04-06T08:55:13Z</time></trkpt><trkpt lat="45.34799840991775" lon="9.390182794529542"><ele>86.8</ele><time>2026-04-06T08:55:15Z</time></trkpt><trkpt lat="45.34809524465035" lon="9.390169389963122"><ele>86.6</ele><time>2026-04-06T08:55:17Z</time></trkpt><trkpt lat="45.34818885325266" lon="9.390134473768484"><ele>86.39999999999999</ele><time>2026-04-06T08:55:19Z</time></trkpt><trkpt lat="45.34826459588717" lon="9.390056436027681"><ele>86.19999999999999</ele><time>2026-04-06T08:55:21Z</time></trkpt><trkpt lat="45.34830033171226" lon="9.389929735657553"><ele>86.0</ele><time>2026-04-06T08:55:23Z</time></trkpt><trkpt lat="45.34831238945901" lon="9.389797474996035"><ele>86.4</ele><time>2026-04-06T08:55:25Z</time></trkpt><trkpt lat="45.348296125115056" lon="9.38966309244942"><ele>86.8</ele><time>2026-04-06T08:55:27Z</time></trkpt><trkpt lat="45.34827844771464" lon="9.389535276823542"><ele>87.2</ele><time>2026-04-06T08:55:29Z</time></trkpt><trkpt lat="45.34826541905063" lon="9.389402914742325"><ele>87.60000000000001</ele><time>2026-04-06T08:55:31Z</time></trkpt><trkpt lat="45.3482428060372" lon="9.389271151426005"><ele>88.0</ele><time>2026-04-06T08:55:33Z</time></trkpt><trkpt lat="45.34822653106728" lon="9.389136666949394"><ele>88.0</ele><time>2026-04-06T08:55:35Z</time></trkpt><trkpt lat="45.34822098096359" lon="9.389006988900073"><ele>88.0</ele><time>2026-04-06T08:55:37Z</time></trkpt><trkpt lat="45.34822064820002" lon="9.38887580767035"><ele>88.0</ele><time>2026-04-06T08:55:39Z</time></trkpt><trkpt lat="45.3482269316975" lon="9.388739195779419"><ele>88.0</ele><time>2026-04-06T08:55:41Z</time></trkpt><trkpt lat="45.348224154354824" lon="9.388598659171588"><ele>88.0</ele><time>2026-04-06T08:55:43Z</time></trkpt><trkpt lat="45.348220740493474" lon="9.388459275401656"><ele>88.0</ele><time>2026-04-06T08:55:45Z</time></trkpt><trkpt lat="45.34822269046053" lon="9.388310938922514"><ele>88.0</ele><time>2026-04-06T08:55:47Z</time></trkpt><trkpt lat="45.348215619769974" lon="9.388156892451958"><ele>88.0</ele><time>2026-04-06T08:55:49Z</time></trkpt><trkpt lat="45.34821346517431" lon="9.388005523011593"><ele>88.0</ele><time>2026-04-06T08:55:51Z</time></trkpt><trkpt lat="45.34821683007475" lon="9.38785526163978"><ele>88.0</ele><time>2026-04-06T08:55:53Z</time></trkpt><trkpt lat="45.34823045358201" lon="9.387703324802674"><ele>88.0</ele><time>2026-04-06T08:55:55Z</time></trkpt><trkpt lat="45.34824528072918" lon="9.387550485260723"><ele>88.0</ele><time>2026-04-06T08:55:57Z</time></trkpt><trkpt lat="45.34825779373036" lon="9.387397000245747"><ele>88.0</ele><time>2026-04-06T08:55:59Z</time></trkpt><trkpt lat="45.3482695101763" lon="9.38723293402881"><ele>88.0</ele><time>2026-04-06T08:56:01Z</time></trkpt><trkpt lat="45.348282951183016" lon="9.387064141874726"><ele>87.75</ele><time>2026-04-06T08:56:03.001Z</time></trkpt><trkpt lat="45.34828834215207" lon="9.386903225164973"><ele>87.5</ele><time>2026-04-06T08:56:05.001Z</time></trkpt><trkpt lat="45.348291771372075" lon="9.386743975116316"><ele>87.25</ele><time>2026-04-06T08:56:07.001Z</time></trkpt><trkpt lat="45.348290390176224" lon="9.38657732726426"><ele>87.0</ele><time>2026-04-06T08:56:09.001Z</time></trkpt><trkpt lat="45.348282673220034" lon="9.38641927715432"><ele>87.0</ele><time>2026-04-06T08:56:11.001Z</time></trkpt><trkpt lat="45.348269661753896" lon="9.386279371133451"><ele>87.0</ele><time>2026-04-06T08:56:13.001Z</time></trkpt><trkpt lat="45.34825519237786" lon="9.386127398556086"><ele>87.0</ele><time>2026-04-06T08:56:15.001Z</time></trkpt><trkpt lat="45.34825928466138" lon="9.38596875484573"><ele>87.0</ele><time>2026-04-06T08:56:17.001Z</time></trkpt><trkpt lat="45.34827286445711" lon="9.385814206624097"><ele>87.0</ele><time>2026-04-06T08:56:19Z</time></trkpt><trkpt lat="45.348290892195976" lon="9.385656912637177"><ele>87.0</ele><time>2026-04-06T08:56:21Z</time></trkpt><trkpt lat="45.34831696346034" lon="9.385497833702711"><ele>87.0</ele><time>2026-04-06T08:56:23Z</time></trkpt><trkpt lat="45.348354855824624" lon="9.385341277590799"><ele>87.0</ele><time>2026-04-06T08:56:25Z</time></trkpt><trkpt lat="45.34840941804531" lon="9.385199328299825"><ele>87.0</ele><time>2026-04-06T08:56:27Z</time></trkpt><trkpt lat="45.348472972995204" lon="9.385060347832004"><ele>87.0</ele><time>2026-04-06T08:56:29Z</time></trkpt><trkpt lat="45.34853819302182" lon="9.384921611580474"><ele>87.0</ele><time>2026-04-06T08:56:31Z</time></trkpt><trkpt lat="45.34860692121562" lon="9.384785408743978"><ele>87.0</ele><time>2026-04-06T08:56:33Z</time></trkpt><trkpt lat="45.348656858772586" lon="9.384628532283871"><ele>87.0</ele><time>2026-04-06T08:56:35Z</time></trkpt><trkpt lat="45.34868430650139" lon="9.384467312059398"><ele>87.0</ele><time>2026-04-06T08:56:37Z</time></trkpt><trkpt lat="45.34871846415259" lon="9.384307434989909"><ele>87.0</ele><time>2026-04-06T08:56:39Z</time></trkpt><trkpt lat="45.348754556926586" lon="9.384151137713369"><ele>87.0</ele><time>2026-04-06T08:56:41Z</time></trkpt><trkpt lat="45.34881045360727" lon="9.383996334164353"><ele>87.0</ele><time>2026-04-06T08:56:43Z</time></trkpt><trkpt lat="45.3488829241357" lon="9.383866399655847"><ele>87.0</ele><time>2026-04-06T08:56:45Z</time></trkpt><trkpt lat="45.3489671776787" lon="9.383754135751081"><ele>87.0</ele><time>2026-04-06T08:56:47Z</time></trkpt><trkpt lat="45.34904884850273" lon="9.383636044086199"><ele>87.0</ele><time>2026-04-06T08:56:49Z</time></trkpt><trkpt lat="45.34913682229917" lon="9.383529972197318"><ele>87.0</ele><time>2026-04-06T08:56:51Z</time></trkpt><trkpt lat="45.349225598493625" lon="9.38343336087212"><ele>87.0</ele><time>2026-04-06T08:56:53Z</time></trkpt><trkpt lat="45.34930566872216" lon="9.383327086192766"><ele>87.0</ele><time>2026-04-06T08:56:55Z</time></trkpt><trkpt lat="45.34939463243067" lon="9.383244838650612"><ele>87.0</ele><time>2026-04-06T08:56:57Z</time></trkpt><trkpt lat="45.349475263123104" lon="9.383148162627684"><ele>87.0</ele><time>2026-04-06T08:56:59Z</time></trkpt><trkpt lat="45.34956623935359" lon="9.383057765934236"><ele>87.0</ele><time>2026-04-06T08:57:01Z</time></trkpt><trkpt lat="45.3496583154359" lon="9.382965884258812"><ele>87.25</ele><time>2026-04-06T08:57:03Z</time></trkpt><trkpt lat="45.34974837413843" lon="9.382861758639162"><ele>87.5</ele><time>2026-04-06T08:57:05Z</time></trkpt><trkpt lat="45.34984106089974" lon="9.382753473402545"><ele>87.75</ele><time>2026-04-06T08:57:07Z</time></trkpt><trkpt lat="45.34991873827118" lon="9.382622707780019"><ele>88.0</ele><time>2026-04-06T08:57:09Z</time></trkpt><trkpt lat="45.3499843364211" lon="9.382482232588021"><ele>88.0</ele><time>2026-04-06T08:57:11Z</time></trkpt><trkpt lat="45.350044376966366" lon="9.382334097582579"><ele>88.0</ele><time>2026-04-06T08:57:13Z</time></trkpt><trkpt lat="45.350099424400575" lon="9.382190546908111"><ele>88.0</ele><time>2026-04-06T08:57:15Z</time></trkpt><trkpt lat="45.35014703861738" lon="9.382045584499409"><ele>88.0</ele><time>2026-04-06T08:57:17Z</time></trkpt><trkpt lat="45.350188688131524" lon="9.381903520538271"><ele>87.80000000000001</ele><time>2026-04-06T08:57:19Z</time></trkpt><trkpt lat="45.35023009124057" lon="9.381765064072813"><ele>87.6</ele><time>2026-04-06T08:57:21Z</time></trkpt><trkpt lat="45.35026338291136" lon="9.381625106613312"><ele>87.4</ele><time>2026-04-06T08:57:23Z</time></trkpt><trkpt lat="45.3502935719913" lon="9.381502160308726"><ele>87.19999999999999</ele><time>2026-04-06T08:57:25Z</time></trkpt><trkpt lat="45.35032862940047" lon="9.381375174774485"><ele>87.0</ele><time>2026-04-06T08:57:27Z</time></trkpt><trkpt lat="45.35037404770396" lon="9.381231231511366"><ele>87.0</ele><time>2026-04-06T08:57:29Z</time></trkpt><trkpt lat="45.35043455111576" lon="9.381093866192312"><ele>87.0</ele><time>2026-04-06T08:57:31Z</time></trkpt><trkpt lat="45.35049402551811" lon="9.380965238867947"><ele>87.0</ele><time>2026-04-06T08:57:33Z</time></trkpt><trkpt lat="45.350578774967246" lon="9.380843028443683"><ele>87.0</ele><time>2026-04-06T08:57:35Z</time></trkpt><trkpt lat="45.35065480198007" lon="9.380721568594254"><ele>86.8</ele><time>2026-04-06T08:57:37Z</time></trkpt><trkpt lat="45.35073162510584" lon="9.380605507301269"><ele>86.6</ele><time>2026-04-06T08:57:39Z</time></trkpt><trkpt lat="45.350805960449364" lon="9.380486663803135"><ele>86.39999999999999</ele><time>2026-04-06T08:57:41Z</time></trkpt><trkpt lat="45.350877357722574" lon="9.380364856778801"><ele>86.19999999999999</ele><time>2026-04-06T08:57:43Z</time></trkpt><trkpt lat="45.3509430413662" lon="9.380239046782108"><ele>86.0</ele><time>2026-04-06T08:57:45Z</time></trkpt><trkpt lat="45.351007935544864" lon="9.380115722123191"><ele>86.0</ele><time>2026-04-06T08:57:47Z</time></trkpt><trkpt lat="45.35106602240374" lon="9.379984218336322"><ele>86.0</ele><time>2026-04-06T08:57:49Z</time></trkpt><trkpt lat="45.351123736052784" lon="9.379852493922048"><ele>86.0</ele><time>2026-04-06T08:57:51Z</time></trkpt><trkpt lat="45.3511832993587" lon="9.37972770883992"><ele>86.0</ele><time>2026-04-06T08:57:53Z</time></trkpt><trkpt lat="45.35124244152966" lon="9.379605137311422"><ele>86.0</ele><time>2026-04-06T08:57:55Z</time></trkpt><trkpt lat="45.351302502327535" lon="9.37948216100283"><ele>85.8</ele><time>2026-04-06T08:57:57Z</time></trkpt><trkpt lat="45.35136373670787" lon="9.379362959161716"><ele>85.6</ele><time>2026-04-06T08:57:59Z</time></trkpt><trkpt lat="45.35142802090966" lon="9.379245413845643"><ele>85.4</ele><time>2026-04-06T08:58:01Z</time></trkpt><trkpt lat="45.35149615953037" lon="9.379136390361914"><ele>85.2</ele><time>2026-04-06T08:58:03Z</time></trkpt><trkpt lat="45.351571242487694" lon="9.37903578759498"><ele>85.0</ele><time>2026-04-06T08:58:05Z</time></trkpt><trkpt lat="45.35164440007346" lon="9.378937314704054"><ele>85.2</ele><time>2026-04-06T08:58:07Z</time></trkpt><trkpt lat="45.35171946942049" lon="9.378841915614418"><ele>85.4</ele><time>2026-04-06T08:58:09Z</time></trkpt><trkpt lat="45.35179906549414" lon="9.378750998003573"><ele>85.6</ele><time>2026-04-06T08:58:11Z</time></trkpt><trkpt lat="45.351876733495814" lon="9.378660074798415"><ele>85.8</ele><time>2026-04-06T08:58:13Z</time></trkpt><trkpt lat="45.35195042542443" lon="9.378553768158957"><ele>86.0</ele><time>2026-04-06T08:58:15Z</time></trkpt><trkpt lat="45.352024233604695" lon="9.378452822405727"><ele>86.0</ele><time>2026-04-06T08:58:17.001Z</time></trkpt><trkpt lat="45.35208995971861" lon="9.378345022201712"><ele>86.0</ele><time>2026-04-06T08:58:19.001Z</time></trkpt><trkpt lat="45.352150992453325" lon="9.378238964697383"><ele>86.0</ele><time>2026-04-06T08:58:21.001Z</time></trkpt><trkpt lat="45.352226628061246" lon="9.37819459143209"><ele>86.0</ele><time>2026-04-06T08:58:23.001Z</time></trkpt><trkpt lat="45.352277353995085" lon="9.378110564520304"><ele>86.0</ele><time>2026-04-06T08:58:25Z</time></trkpt><trkpt lat="45.35234029093809" lon="9.37800078902144"><ele>86.19999999999999</ele><time>2026-04-06T08:58:27Z</time></trkpt><trkpt lat="45.35240728730673" lon="9.37789713649472"><ele>86.39999999999999</ele><time>2026-04-06T08:58:29Z</time></trkpt><trkpt lat="45.35244750176155" lon="9.377773823924212"><ele>86.6</ele><time>2026-04-06T08:58:31Z</time></trkpt><trkpt lat="45.35248421111576" lon="9.377646804198086"><ele>86.8</ele><time>2026-04-06T08:58:33Z</time></trkpt><trkpt lat="45.35250375663932" lon="9.377530216130541"><ele>87.0</ele><time>2026-04-06T08:58:35Z</time></trkpt><trkpt lat="45.352533140756776" lon="9.377410725045175"><ele>87.0</ele><time>2026-04-06T08:58:37Z</time></trkpt><trkpt lat="45.35254391260807" lon="9.377296678212852"><ele>87.0</ele><time>2026-04-06T08:58:39Z</time></trkpt><trkpt lat="45.35256704429873" lon="9.377183062263805"><ele>87.0</ele><time>2026-04-06T08:58:41Z</time></trkpt><trkpt lat="45.35259124999753" lon="9.377066444797435"><ele>87.0</ele><time>2026-04-06T08:58:43Z</time></trkpt><trkpt lat="45.35261625176035" lon="9.376952136213456"><ele>87.0</ele><time>2026-04-06T08:58:45Z</time></trkpt><trkpt lat="45.352642734892854" lon="9.376841861779239"><ele>87.0</ele><time>2026-04-06T08:58:47Z</time></trkpt><trkpt lat="45.35267350306938" lon="9.376731817192693"><ele>87.39999999999999</ele><time>2026-04-06T08:58:49Z</time></trkpt><trkpt lat="45.35269853605602" lon="9.376622273910181"><ele>87.8</ele><time>2026-04-06T08:58:51Z</time></trkpt><trkpt lat="45.35272012347769" lon="9.376499141765267"><ele>88.2</ele><time>2026-04-06T08:58:53Z</time></trkpt><trkpt lat="45.35273818203693" lon="9.376371257498473"><ele>88.6</ele><time>2026-04-06T08:58:55Z</time></trkpt><trkpt lat="45.352791778301984" lon="9.376251407430779"><ele>89.0</ele><time>2026-04-06T08:58:57Z</time></trkpt><trkpt lat="45.35284104291636" lon="9.37612038961389"><ele>89.0</ele><time>2026-04-06T08:58:59Z</time></trkpt><trkpt lat="45.352899293272785" lon="9.375994803077655"><ele>89.0</ele><time>2026-04-06T08:59:01Z</time></trkpt><trkpt lat="45.352954117900644" lon="9.375874815020415"><ele>89.0</ele><time>2026-04-06T08:59:03Z</time></trkpt><trkpt lat="45.353007880985935" lon="9.375754845783211"><ele>89.0</ele><time>2026-04-06T08:59:05Z</time></trkpt><trkpt lat="45.35305490655451" lon="9.375638209177241"><ele>89.0</ele><time>2026-04-06T08:59:07Z</time></trkpt><trkpt lat="45.35310613453175" lon="9.375534035287455"><ele>89.0</ele><time>2026-04-06T08:59:09Z</time></trkpt><trkpt lat="45.353154344228955" lon="9.375426727588833"><ele>89.0</ele><time>2026-04-06T08:59:11Z</time></trkpt><trkpt lat="45.35320267921922" lon="9.375318355088785"><ele>89.0</ele><time>2026-04-06T08:59:13Z</time></trkpt><trkpt lat="45.353260769452895" lon="9.37522730980463"><ele>89.0</ele><time>2026-04-06T08:59:15Z</time></trkpt><trkpt lat="45.353313118120404" lon="9.375131570318668"><ele>89.0</ele><time>2026-04-06T08:59:17Z</time></trkpt><trkpt lat="45.3533637931167" lon="9.37506745927115"><ele>89.0</ele><time>2026-04-06T08:59:19Z</time></trkpt><trkpt lat="45.35341660766369" lon="9.375016767874573"><ele>89.0</ele><time>2026-04-06T08:59:21Z</time></trkpt><trkpt lat="45.35350907073344" lon="9.375006705755952"><ele>89.0</ele><time>2026-04-06T08:59:23Z</time></trkpt><trkpt lat="45.353601346858746" lon="9.374969001236614"><ele>89.0</ele><time>2026-04-06T08:59:25Z</time></trkpt><trkpt lat="45.353688092417116" lon="9.374932263733218"><ele>89.0</ele><time>2026-04-06T08:59:27Z</time></trkpt><trkpt lat="45.3537721005977" lon="9.374899211015741"><ele>89.0</ele><time>2026-04-06T08:59:29Z</time></trkpt><trkpt lat="45.35384702721275" lon="9.374863551259084"><ele>89.0</ele><time>2026-04-06T08:59:31Z</time></trkpt><trkpt lat="45.353927295962755" lon="9.37480895698561"><ele>89.0</ele><time>2026-04-06T08:59:34Z</time></trkpt><trkpt lat="45.35395605814501" lon="9.374721784326843"><ele>89.0</ele><time>2026-04-06T08:59:36Z</time></trkpt><trkpt lat="45.353936433637124" lon="9.374609387199317"><ele>89.0</ele><time>2026-04-06T08:59:38Z</time></trkpt><trkpt lat="45.35389801655389" lon="9.374505996908605"><ele>89.0</ele><time>2026-04-06T08:59:40Z</time></trkpt><trkpt lat="45.35386768418828" lon="9.374390227773985"><ele>89.0</ele><time>2026-04-06T08:59:42Z</time></trkpt><trkpt lat="45.3538327161239" lon="9.374272548851705"><ele>89.0</ele><time>2026-04-06T08:59:44Z</time></trkpt><trkpt lat="45.353786612943246" lon="9.374159703213301"><ele>89.0</ele><time>2026-04-06T08:59:46Z</time></trkpt><trkpt lat="45.35373237701858" lon="9.374050717268824"><ele>89.0</ele><time>2026-04-06T08:59:48Z</time></trkpt><trkpt lat="45.35368206498562" lon="9.373942875475294"><ele>89.0</ele><time>2026-04-06T08:59:50Z</time></trkpt><trkpt lat="45.35362988107373" lon="9.37383165759423"><ele>89.0</ele><time>2026-04-06T08:59:52Z</time></trkpt><trkpt lat="45.35356716374078" lon="9.37372789496305"><ele>89.0</ele><time>2026-04-06T08:59:54Z</time></trkpt><trkpt lat="45.353498327543484" lon="9.37362117909779"><ele>89.0</ele><time>2026-04-06T08:59:56Z</time></trkpt><trkpt lat="45.35343360015925" lon="9.373513167440612"><ele>89.0</ele><time>2026-04-06T08:59:58Z</time></trkpt><trkpt lat="45.353374176492345" lon="9.373413187377627"><ele>89.0</ele><time>2026-04-06T09:00:00Z</time></trkpt><trkpt lat="45.353295060608154" lon="9.373347468438439"><ele>89.0</ele><time>2026-04-06T09:00:02Z</time></trkpt><trkpt lat="45.35325554438853" lon="9.37322690816437"><ele>89.0</ele><time>2026-04-06T09:00:04Z</time></trkpt><trkpt lat="45.353227470468106" lon="9.373098910072898"><ele>89.0</ele><time>2026-04-06T09:00:06Z</time></trkpt><trkpt lat="45.35320263467891" lon="9.372982610102675"><ele>89.0</ele><time>2026-04-06T09:00:08Z</time></trkpt><trkpt lat="45.35318326402068" lon="9.372875306976846"><ele>89.0</ele><time>2026-04-06T09:00:10Z</time></trkpt><trkpt lat="45.3531990533032" lon="9.37274481600864"><ele>89.0</ele><time>2026-04-06T09:00:12Z</time></trkpt><trkpt lat="45.35323384032239" lon="9.37262108924224"><ele>89.0</ele><time>2026-04-06T09:00:14Z</time></trkpt><trkpt lat="45.35326404308997" lon="9.372507796649638"><ele>89.0</ele><time>2026-04-06T09:00:16Z</time></trkpt><trkpt lat="45.35328249900425" lon="9.37239007388915"><ele>89.0</ele><time>2026-04-06T09:00:18Z</time></trkpt><trkpt lat="45.35329583347671" lon="9.372263758946145"><ele>89.0</ele><time>2026-04-06T09:00:20Z</time></trkpt><trkpt lat="45.35329008104296" lon="9.372135949253735"><ele>89.0</ele><time>2026-04-06T09:00:22Z</time></trkpt><trkpt lat="45.353279467843954" lon="9.37200932259403"><ele>89.0</ele><time>2026-04-06T09:00:24Z</time></trkpt><trkpt lat="45.353275684878476" lon="9.371884338404845"><ele>89.0</ele><time>2026-04-06T09:00:26Z</time></trkpt><trkpt lat="45.35327883523648" lon="9.371761024331894"><ele>89.0</ele><time>2026-04-06T09:00:28Z</time></trkpt><trkpt lat="45.353272047828746" lon="9.371639008502886"><ele>88.83333333333334</ele><time>2026-04-06T09:00:30.001Z</time></trkpt><trkpt lat="45.35326590111409" lon="9.371514068401366"><ele>88.66666666666667</ele><time>2026-04-06T09:00:32Z</time></trkpt><trkpt lat="45.35326294803788" lon="9.371387847379115"><ele>88.5</ele><time>2026-04-06T09:00:34Z</time></trkpt><trkpt lat="45.35326509237882" lon="9.371263639643084"><ele>88.33333333333333</ele><time>2026-04-06T09:00:36Z</time></trkpt><trkpt lat="45.35325861556175" lon="9.371139363163135"><ele>88.16666666666666</ele><time>2026-04-06T09:00:38Z</time></trkpt><trkpt lat="45.353255649906494" lon="9.371008930180654"><ele>88.0</ele><time>2026-04-06T09:00:40Z</time></trkpt><trkpt lat="45.35325548157621" lon="9.370872387663654"><ele>88.0</ele><time>2026-04-06T09:00:42Z</time></trkpt><trkpt lat="45.35326012824613" lon="9.370740617035072"><ele>88.0</ele><time>2026-04-06T09:00:44Z</time></trkpt><trkpt lat="45.35325089923194" lon="9.370604088526061"><ele>88.0</ele><time>2026-04-06T09:00:46Z</time></trkpt><trkpt lat="45.35325584340239" lon="9.370465334804376"><ele>88.0</ele><time>2026-04-06T09:00:48Z</time></trkpt><trkpt lat="45.3532547540523" lon="9.370318145135904"><ele>88.0</ele><time>2026-04-06T09:00:50Z</time></trkpt><trkpt lat="45.35326126979979" lon="9.3701692041054"><ele>88.0</ele><time>2026-04-06T09:00:52Z</time></trkpt><trkpt lat="45.35325796145649" lon="9.370021431134887"><ele>88.0</ele><time>2026-04-06T09:00:54Z</time></trkpt><trkpt lat="45.353253584743506" lon="9.369864493546661"><ele>88.0</ele><time>2026-04-06T09:00:56Z</time></trkpt><trkpt lat="45.353253895208574" lon="9.369699536042734"><ele>88.0</ele><time>2026-04-06T09:00:58Z</time></trkpt><trkpt lat="45.35325785932531" lon="9.369542240060081"><ele>88.0</ele><time>2026-04-06T09:01:00Z</time></trkpt><trkpt lat="45.353282569206804" lon="9.369392519046118"><ele>88.0</ele><time>2026-04-06T09:01:02Z</time></trkpt><trkpt lat="45.35332630441132" lon="9.36925390009709"><ele>88.0</ele><time>2026-04-06T09:01:04Z</time></trkpt><trkpt lat="45.353374581107445" lon="9.36911624163237"><ele>88.0</ele><time>2026-04-06T09:01:06Z</time></trkpt><trkpt lat="45.353424820098674" lon="9.368983203225616"><ele>88.0</ele><time>2026-04-06T09:01:08Z</time></trkpt><trkpt lat="45.353477486947405" lon="9.368845889040047"><ele>88.0</ele><time>2026-04-06T09:01:10Z</time></trkpt><trkpt lat="45.353527078805904" lon="9.368707838880034"><ele>88.25</ele><time>2026-04-06T09:01:12Z</time></trkpt><trkpt lat="45.35358139382087" lon="9.3685640342425"><ele>88.5</ele><time>2026-04-06T09:01:14Z</time></trkpt><trkpt lat="45.353616862213116" lon="9.36841350746063"><ele>88.75</ele><time>2026-04-06T09:01:16Z</time></trkpt><trkpt lat="45.353669663866945" lon="9.368275346739859"><ele>89.0</ele><time>2026-04-06T09:01:18Z</time></trkpt><trkpt lat="45.35371626616867" lon="9.368128181186949"><ele>89.0</ele><time>2026-04-06T09:01:20Z</time></trkpt><trkpt lat="45.35375609412733" lon="9.367980190526836"><ele>89.0</ele><time>2026-04-06T09:01:22Z</time></trkpt><trkpt lat="45.353797231677106" lon="9.367836534526866"><ele>89.0</ele><time>2026-04-06T09:01:24Z</time></trkpt><trkpt lat="45.353841597513586" lon="9.367697843411488"><ele>89.0</ele><time>2026-04-06T09:01:26Z</time></trkpt><trkpt lat="45.35387864844422" lon="9.36755486021205"><ele>89.0</ele><time>2026-04-06T09:01:28Z</time></trkpt><trkpt lat="45.35391685186846" lon="9.367425173588908"><ele>88.83333333333334</ele><time>2026-04-06T09:01:30Z</time></trkpt><trkpt lat="45.35394561644238" lon="9.36729585271142"><ele>88.66666666666667</ele><time>2026-04-06T09:01:32Z</time></trkpt><trkpt lat="45.35399268018884" lon="9.367189939318555"><ele>88.5</ele><time>2026-04-06T09:01:34Z</time></trkpt><trkpt lat="45.35400275087094" lon="9.367055001896556"><ele>88.33333333333333</ele><time>2026-04-06T09:01:36Z</time></trkpt><trkpt lat="45.35404817039828" lon="9.366949851793638"><ele>88.16666666666666</ele><time>2026-04-06T09:01:38Z</time></trkpt><trkpt lat="45.35409805584064" lon="9.366859214403089"><ele>88.0</ele><time>2026-04-06T09:01:40Z</time></trkpt><trkpt lat="45.354162489972936" lon="9.366785344775332"><ele>88.0</ele><time>2026-04-06T09:01:42Z</time></trkpt><trkpt lat="45.35423179584377" lon="9.366786395931667"><ele>88.0</ele><time>2026-04-06T09:01:44Z</time></trkpt><trkpt lat="45.35425361725898" lon="9.36668339208983"><ele>88.0</ele><time>2026-04-06T09:01:48Z</time></trkpt><trkpt lat="45.35424142567165" lon="9.366591178855547"><ele>88.0</ele><time>2026-04-06T09:01:50Z</time></trkpt><trkpt lat="45.35423093166759" lon="9.366471615799636"><ele>88.0</ele><time>2026-04-06T09:01:52Z</time></trkpt><trkpt lat="45.35416712858767" lon="9.366385774344641"><ele>88.0</ele><time>2026-04-06T09:01:54Z</time></trkpt><trkpt lat="45.354117797195535" lon="9.366283034784455"><ele>87.4</ele><time>2026-04-06T09:01:56Z</time></trkpt><trkpt lat="45.35408484361725" lon="9.366150982792943"><ele>86.80000000000001</ele><time>2026-04-06T09:01:58Z</time></trkpt><trkpt lat="45.35408373737868" lon="9.365998757571"><ele>86.2</ele><time>2026-04-06T09:02:00Z</time></trkpt><trkpt lat="45.354098205515335" lon="9.365849308301945"><ele>85.6</ele><time>2026-04-06T09:02:02Z</time></trkpt><trkpt lat="45.35411307667803" lon="9.365699253136231"><ele>85.0</ele><time>2026-04-06T09:02:04Z</time></trkpt><trkpt lat="45.35413740290805" lon="9.365551646430777"><ele>85.5</ele><time>2026-04-06T09:02:06Z</time></trkpt><trkpt lat="45.35416080338133" lon="9.365402119465596"><ele>86.0</ele><time>2026-04-06T09:02:08Z</time></trkpt><trkpt lat="45.35417967395868" lon="9.365233896059154"><ele>86.5</ele><time>2026-04-06T09:02:10Z</time></trkpt><trkpt lat="45.35419913058785" lon="9.36507101633528"><ele>87.0</ele><time>2026-04-06T09:02:12Z</time></trkpt><trkpt lat="45.35422117761494" lon="9.364908138970678"><ele>87.0</ele><time>2026-04-06T09:02:14Z</time></trkpt><trkpt lat="45.354241987153316" lon="9.364747054987182"><ele>87.0</ele><time>2026-04-06T09:02:16Z</time></trkpt><trkpt lat="45.35425542502694" lon="9.364588159244178"><ele>87.0</ele><time>2026-04-06T09:02:18Z</time></trkpt><trkpt lat="45.35427602986884" lon="9.364427544299257"><ele>87.0</ele><time>2026-04-06T09:02:20Z</time></trkpt><trkpt lat="45.3542991741327" lon="9.36426808989084"><ele>87.0</ele><time>2026-04-06T09:02:22Z</time></trkpt><trkpt lat="45.35430502070144" lon="9.36410821437359"><ele>87.0</ele><time>2026-04-06T09:02:24Z</time></trkpt><trkpt lat="45.3543309080127" lon="9.363955612086205"><ele>87.0</ele><time>2026-04-06T09:02:26Z</time></trkpt><trkpt lat="45.35433582178057" lon="9.363797458787342"><ele>87.0</ele><time>2026-04-06T09:02:28Z</time></trkpt><trkpt lat="45.35434789728396" lon="9.363637739016612"><ele>87.0</ele><time>2026-04-06T09:02:30Z</time></trkpt><trkpt lat="45.354366281037045" lon="9.363477808850618"><ele>86.8</ele><time>2026-04-06T09:02:32Z</time></trkpt><trkpt lat="45.354378107817816" lon="9.363314195220925"><ele>86.6</ele><time>2026-04-06T09:02:34Z</time></trkpt><trkpt lat="45.35438195071626" lon="9.363155129861104"><ele>86.39999999999999</ele><time>2026-04-06T09:02:36.001Z</time></trkpt><trkpt lat="45.35438705434143" lon="9.363007128004902"><ele>86.19999999999999</ele><time>2026-04-06T09:02:38Z</time></trkpt><trkpt lat="45.35439311088091" lon="9.36286622352343"><ele>86.0</ele><time>2026-04-06T09:02:40Z</time></trkpt><trkpt lat="45.35439891878743" lon="9.362730106358827"><ele>86.0</ele><time>2026-04-06T09:02:42Z</time></trkpt><trkpt lat="45.35439866610644" lon="9.362601761383303"><ele>86.0</ele><time>2026-04-06T09:02:44Z</time></trkpt><trkpt lat="45.35440200927014" lon="9.362477782011027"><ele>86.0</ele><time>2026-04-06T09:02:46Z</time></trkpt><trkpt lat="45.35440247785818" lon="9.362361369047974"><ele>86.0</ele><time>2026-04-06T09:02:48Z</time></trkpt><trkpt lat="45.354396375360785" lon="9.36224572859107"><ele>86.0</ele><time>2026-04-06T09:02:50Z</time></trkpt><trkpt lat="45.35439557200919" lon="9.3621351288891"><ele>86.0</ele><time>2026-04-06T09:02:52Z</time></trkpt><trkpt lat="45.35439574743229" lon="9.36202519336416"><ele>86.00000000000001</ele><time>2026-04-06T09:02:54Z</time></trkpt><trkpt lat="45.354388493207246" lon="9.361923809823265"><ele>86.0</ele><time>2026-04-06T09:02:56Z</time></trkpt><trkpt lat="45.35438793446337" lon="9.361827744711839"><ele>86.0</ele><time>2026-04-06T09:02:58Z</time></trkpt><trkpt lat="45.35438648780034" lon="9.361733034233461"><ele>86.0</ele><time>2026-04-06T09:03:00Z</time></trkpt><trkpt lat="45.35438328842712" lon="9.361638523462782"><ele>86.0</ele><time>2026-04-06T09:03:02Z</time></trkpt><trkpt lat="45.35438186195837" lon="9.361539166842757"><ele>86.00000000000001</ele><time>2026-04-06T09:03:04Z</time></trkpt><trkpt lat="45.35437325009575" lon="9.361438674350033"><ele>86.0</ele><time>2026-04-06T09:03:06Z</time></trkpt><trkpt lat="45.354371091758196" lon="9.36134669672989"><ele>86.16666666666667</ele><time>2026-04-06T09:03:08Z</time></trkpt><trkpt lat="45.35436063905979" lon="9.361219122019254"><ele>86.33333333333334</ele><time>2026-04-06T09:03:11Z</time></trkpt><trkpt lat="45.354357877072125" lon="9.361091363482057"><ele>86.5</ele><time>2026-04-06T09:03:14Z</time></trkpt><trkpt lat="45.35435085659746" lon="9.361000799761081"><ele>86.66666666666667</ele><time>2026-04-06T09:03:16Z</time></trkpt><trkpt lat="45.35434171507462" lon="9.360875576307231"><ele>86.83333333333333</ele><time>2026-04-06T09:03:19Z</time></trkpt><trkpt lat="45.35433210333927" lon="9.360756437969377"><ele>87.0</ele><time>2026-04-06T09:03:22Z</time></trkpt><trkpt lat="45.354326947877674" lon="9.360643512029313"><ele>87.16666666666667</ele><time>2026-04-06T09:03:25Z</time></trkpt><trkpt lat="45.35431438918345" lon="9.360528921000496"><ele>87.33333333333333</ele><time>2026-04-06T09:03:28Z</time></trkpt><trkpt lat="45.35430520213488" lon="9.360411031269594"><ele>87.5</ele><time>2026-04-06T09:03:31Z</time></trkpt><trkpt lat="45.354307964849525" lon="9.360300223387721"><ele>87.66666666666666</ele><time>2026-04-06T09:03:34Z</time></trkpt><trkpt lat="45.35430618003952" lon="9.360189209652583"><ele>87.83333333333333</ele><time>2026-04-06T09:03:37Z</time></trkpt><trkpt lat="45.354305960731566" lon="9.36006574864691"><ele>88.0</ele><time>2026-04-06T09:03:40Z</time></trkpt><trkpt lat="45.354311402356245" lon="9.359940642991319"><ele>88.0</ele><time>2026-04-06T09:03:43Z</time></trkpt><trkpt lat="45.3543257805657" lon="9.359821589795589"><ele>88.0</ele><time>2026-04-06T09:03:46Z</time></trkpt><trkpt lat="45.35433804640693" lon="9.359704466056664"><ele>88.0</ele><time>2026-04-06T09:03:49Z</time></trkpt><trkpt lat="45.3543536183864" lon="9.359586895218285"><ele>88.0</ele><time>2026-04-06T09:03:52Z</time></trkpt><trkpt lat="45.35437657983583" lon="9.35946970638139"><ele>88.0</ele><time>2026-04-06T09:03:55Z</time></trkpt><trkpt lat="45.35439732453027" lon="9.359346954469176"><ele>88.0</ele><time>2026-04-06T09:03:58Z</time></trkpt><trkpt lat="45.354437847844814" lon="9.359238597458535"><ele>88.0</ele><time>2026-04-06T09:04:01Z</time></trkpt><trkpt lat="45.35447818688004" lon="9.35912841881922"><ele>88.0</ele><time>2026-04-06T09:04:04Z</time></trkpt><trkpt lat="45.354518343968756" lon="9.359023984979714"><ele>88.0</ele><time>2026-04-06T09:04:07Z</time></trkpt><trkpt lat="45.35455680530471" lon="9.35892006499971"><ele>88.0</ele><time>2026-04-06T09:04:10Z</time></trkpt><trkpt lat="45.354599213281965" lon="9.358826266041593"><ele>88.0</ele><time>2026-04-06T09:04:13Z</time></trkpt><trkpt lat="45.354647993452744" lon="9.35872668641675"><ele>88.0</ele><time>2026-04-06T09:04:16Z</time></trkpt><trkpt lat="45.354701421339975" lon="9.358611971445145"><ele>88.0</ele><time>2026-04-06T09:04:19Z</time></trkpt><trkpt lat="45.35473945094299" lon="9.358517350047968"><ele>88.0</ele><time>2026-04-06T09:04:21Z</time></trkpt><trkpt lat="45.3547890128654" lon="9.35841668051319"><ele>88.0</ele><time>2026-04-06T09:04:23Z</time></trkpt><trkpt lat="45.35482988348316" lon="9.35832506345807"><ele>88.0</ele><time>2026-04-06T09:04:25Z</time></trkpt><trkpt lat="45.35487789954318" lon="9.358225268186866"><ele>88.0</ele><time>2026-04-06T09:04:27Z</time></trkpt><trkpt lat="45.354930030773396" lon="9.35812379692764"><ele>88.0</ele><time>2026-04-06T09:04:29Z</time></trkpt><trkpt lat="45.3549694854621" lon="9.358010889033531"><ele>88.2</ele><time>2026-04-06T09:04:31Z</time></trkpt><trkpt lat="45.355012480915946" lon="9.357895815869707"><ele>88.4</ele><time>2026-04-06T09:04:33Z</time></trkpt><trkpt lat="45.355042211836036" lon="9.357770848084408"><ele>88.60000000000001</ele><time>2026-04-06T09:04:35Z</time></trkpt><trkpt lat="45.355072167542026" lon="9.3576359067586"><ele>88.80000000000001</ele><time>2026-04-06T09:04:37Z</time></trkpt><trkpt lat="45.35509459158889" lon="9.357496456805757"><ele>89.0</ele><time>2026-04-06T09:04:39Z</time></trkpt><trkpt lat="45.35510484815299" lon="9.357356916216403"><ele>89.0</ele><time>2026-04-06T09:04:41Z</time></trkpt><trkpt lat="45.35510499107658" lon="9.357211724887023"><ele>89.0</ele><time>2026-04-06T09:04:43Z</time></trkpt><trkpt lat="45.35509637590969" lon="9.357063787838406"><ele>89.0</ele><time>2026-04-06T09:04:45Z</time></trkpt><trkpt lat="45.3550775202226" lon="9.356909337942986"><ele>89.0</ele><time>2026-04-06T09:04:47Z</time></trkpt><trkpt lat="45.35504224870742" lon="9.356759872722915"><ele>89.0</ele><time>2026-04-06T09:04:49Z</time></trkpt><trkpt lat="45.35500120610883" lon="9.356609734259136"><ele>88.80000000000001</ele><time>2026-04-06T09:04:51Z</time></trkpt><trkpt lat="45.35494195858215" lon="9.356470275968372"><ele>88.60000000000001</ele><time>2026-04-06T09:04:53Z</time></trkpt><trkpt lat="45.354876954890884" lon="9.356335683239251"><ele>88.4</ele><time>2026-04-06T09:04:55Z</time></trkpt><trkpt lat="45.35483853400133" lon="9.356263243501925"><ele>88.2</ele><time>2026-04-06T09:04:56Z</time></trkpt><trkpt lat="45.354796987200274" lon="9.356191992315157"><ele>88.0</ele><time>2026-04-06T09:04:57Z</time></trkpt><trkpt lat="45.354711597271155" lon="9.356054935843275"><ele>87.83333333333333</ele><time>2026-04-06T09:04:59Z</time></trkpt><trkpt lat="45.354668418094214" lon="9.355984653331674"><ele>87.66666666666666</ele><time>2026-04-06T09:05:00Z</time></trkpt><trkpt lat="45.354627651249245" lon="9.355909869639884"><ele>87.5</ele><time>2026-04-06T09:05:01Z</time></trkpt><trkpt lat="45.354583575185465" lon="9.355843643694568"><ele>87.33333333333333</ele><time>2026-04-06T09:05:02Z</time></trkpt><trkpt lat="45.354540444325515" lon="9.35577253965837"><ele>87.16666666666667</ele><time>2026-04-06T09:05:03Z</time></trkpt><trkpt lat="45.3544601054937" lon="9.355631469545408"><ele>87.0</ele><time>2026-04-06T09:05:05Z</time></trkpt><trkpt lat="45.35441830686468" lon="9.355562809675632"><ele>87.16666666666667</ele><time>2026-04-06T09:05:06Z</time></trkpt><trkpt lat="45.35437584760021" lon="9.355494964856872"><ele>87.33333333333333</ele><time>2026-04-06T09:05:07Z</time></trkpt><trkpt lat="45.35433365924532" lon="9.355427760958245"><ele>87.5</ele><time>2026-04-06T09:05:08Z</time></trkpt><trkpt lat="45.35429610280165" lon="9.355352295910828"><ele>87.66666666666666</ele><time>2026-04-06T09:05:09Z</time></trkpt><trkpt lat="45.35422298498453" lon="9.355215982089709"><ele>87.83333333333333</ele><time>2026-04-06T09:05:11Z</time></trkpt><trkpt lat="45.35419063165921" lon="9.35513684501227"><ele>88.0</ele><time>2026-04-06T09:05:12Z</time></trkpt><trkpt lat="45.35412746259762" lon="9.354990401444892"><ele>88.0</ele><time>2026-04-06T09:05:14Z</time></trkpt><trkpt lat="45.35407233265925" lon="9.354841611717339"><ele>88.0</ele><time>2026-04-06T09:05:16Z</time></trkpt><trkpt lat="45.354027922592145" lon="9.354694705708278"><ele>88.0</ele><time>2026-04-06T09:05:18Z</time></trkpt><trkpt lat="45.35398823799665" lon="9.354552836259126"><ele>88.0</ele><time>2026-04-06T09:05:20Z</time></trkpt><trkpt lat="45.35395182112041" lon="9.354418784843038"><ele>88.0</ele><time>2026-04-06T09:05:22Z</time></trkpt><trkpt lat="45.353928545415805" lon="9.354294457250466"><ele>88.0</ele><time>2026-04-06T09:05:24Z</time></trkpt><trkpt lat="45.35390338009966" lon="9.354178405612897"><ele>88.0</ele><time>2026-04-06T09:05:26Z</time></trkpt><trkpt lat="45.35388576564632" lon="9.354063967629603"><ele>88.0</ele><time>2026-04-06T09:05:28Z</time></trkpt><trkpt lat="45.353875153034956" lon="9.353949715640553"><ele>88.0</ele><time>2026-04-06T09:05:30Z</time></trkpt><trkpt lat="45.353858150505815" lon="9.353834293352635"><ele>88.0</ele><time>2026-04-06T09:05:32Z</time></trkpt><trkpt lat="45.35384603186556" lon="9.353710156493339"><ele>88.0</ele><time>2026-04-06T09:05:34Z</time></trkpt><trkpt lat="45.353838836943375" lon="9.35358933857524"><ele>87.80000000000001</ele><time>2026-04-06T09:05:36Z</time></trkpt><trkpt lat="45.35380946795078" lon="9.35348200605859"><ele>87.6</ele><time>2026-04-06T09:05:38Z</time></trkpt><trkpt lat="45.353803776214306" lon="9.353333781040327"><ele>87.4</ele><time>2026-04-06T09:05:40Z</time></trkpt><trkpt lat="45.35379742803145" lon="9.353198532827507"><ele>87.19999999999999</ele><time>2026-04-06T09:05:42Z</time></trkpt><trkpt lat="45.35379026849858" lon="9.35306760459217"><ele>87.0</ele><time>2026-04-06T09:05:44Z</time></trkpt><trkpt lat="45.353795087304974" lon="9.352927295932833"><ele>87.0</ele><time>2026-04-06T09:05:46Z</time></trkpt><trkpt lat="45.35379138152359" lon="9.352788705422872"><ele>87.0</ele><time>2026-04-06T09:05:48Z</time></trkpt><trkpt lat="45.353813106796295" lon="9.35264048584797"><ele>87.0</ele><time>2026-04-06T09:05:50Z</time></trkpt><trkpt lat="45.3538798637928" lon="9.35252341526723"><ele>87.0</ele><time>2026-04-06T09:05:52Z</time></trkpt><trkpt lat="45.353940900529906" lon="9.35249709550744"><ele>87.0</ele><time>2026-04-06T09:05:53Z</time></trkpt><trkpt lat="45.354004110991816" lon="9.352478850618633"><ele>87.0</ele><time>2026-04-06T09:05:54Z</time></trkpt><trkpt lat="45.35410952616856" lon="9.352436655502377"><ele>87.0</ele><time>2026-04-06T09:05:56Z</time></trkpt><trkpt lat="45.354219292199886" lon="9.352412272333853"><ele>87.0</ele><time>2026-04-06T09:05:58Z</time></trkpt><trkpt lat="45.35432721103368" lon="9.35238042965247"><ele>87.0</ele><time>2026-04-06T09:06:00Z</time></trkpt><trkpt lat="45.35443389308617" lon="9.352352493349406"><ele>87.0</ele><time>2026-04-06T09:06:02Z</time></trkpt><trkpt lat="45.35454483849738" lon="9.3523309826129"><ele>87.0</ele><time>2026-04-06T09:06:04Z</time></trkpt><trkpt lat="45.35465477700705" lon="9.352305971066647"><ele>87.0</ele><time>2026-04-06T09:06:06Z</time></trkpt><trkpt lat="45.35476925358907" lon="9.352275396082801"><ele>87.0</ele><time>2026-04-06T09:06:08Z</time></trkpt><trkpt lat="45.35489474182899" lon="9.352252785674473"><ele>87.0</ele><time>2026-04-06T09:06:10Z</time></trkpt><trkpt lat="45.354962171534964" lon="9.352243428391057"><ele>87.0</ele><time>2026-04-06T09:06:11Z</time></trkpt><trkpt lat="45.3550839662208" lon="9.352218532957412"><ele>87.0</ele><time>2026-04-06T09:06:13Z</time></trkpt><trkpt lat="45.355199088064644" lon="9.352192299141066"><ele>87.16666666666667</ele><time>2026-04-06T09:06:15Z</time></trkpt><trkpt lat="45.35530658112878" lon="9.352162662737081"><ele>87.33333333333333</ele><time>2026-04-06T09:06:17Z</time></trkpt><trkpt lat="45.355407457582224" lon="9.352136782266223"><ele>87.5</ele><time>2026-04-06T09:06:19Z</time></trkpt><trkpt lat="45.35549864180054" lon="9.352110923352713"><ele>87.66666666666666</ele><time>2026-04-06T09:06:21Z</time></trkpt><trkpt lat="45.355560581238684" lon="9.352072573113198"><ele>87.83333333333333</ele><time>2026-04-06T09:06:23Z</time></trkpt><trkpt lat="45.35561805063272" lon="9.352004100465798"><ele>88.0</ele><time>2026-04-06T09:06:27Z</time></trkpt><trkpt lat="45.35570009128955" lon="9.351982294487614"><ele>88.0</ele><time>2026-04-06T09:06:29Z</time></trkpt><trkpt lat="45.35578679372386" lon="9.351937583260293"><ele>88.0</ele><time>2026-04-06T09:06:31Z</time></trkpt><trkpt lat="45.355875491077434" lon="9.351876826583682"><ele>88.0</ele><time>2026-04-06T09:06:33Z</time></trkpt><trkpt lat="45.35596441889262" lon="9.351798385570898"><ele>88.0</ele><time>2026-04-06T09:06:35Z</time></trkpt><trkpt lat="45.35606411673329" lon="9.351729958319975"><ele>88.0</ele><time>2026-04-06T09:06:37Z</time></trkpt><trkpt lat="45.35616481180518" lon="9.35166493822169"><ele>88.0</ele><time>2026-04-06T09:06:39Z</time></trkpt><trkpt lat="45.3562551527681" lon="9.3515675676996"><ele>88.0</ele><time>2026-04-06T09:06:41Z</time></trkpt><trkpt lat="45.35631369922251" lon="9.351418075034262"><ele>88.0</ele><time>2026-04-06T09:06:43Z</time></trkpt><trkpt lat="45.356303299551875" lon="9.351243488047796"><ele>88.0</ele><time>2026-04-06T09:06:45Z</time></trkpt><trkpt lat="45.35626935688407" lon="9.35108696818564"><ele>88.2</ele><time>2026-04-06T09:06:47Z</time></trkpt><trkpt lat="45.35620133502886" lon="9.350951034590485"><ele>88.4</ele><time>2026-04-06T09:06:49Z</time></trkpt><trkpt lat="45.35610366841037" lon="9.35083197361336"><ele>88.60000000000001</ele><time>2026-04-06T09:06:51Z</time></trkpt><trkpt lat="45.356011580448715" lon="9.350711634049722"><ele>88.80000000000001</ele><time>2026-04-06T09:06:53Z</time></trkpt><trkpt lat="45.35598055645117" lon="9.350632210597778"><ele>89.0</ele><time>2026-04-06T09:06:54Z</time></trkpt><trkpt lat="45.3559566698016" lon="9.350545595942828"><ele>89.0</ele><time>2026-04-06T09:06:55Z</time></trkpt><trkpt lat="45.3559327519421" lon="9.350459677883894"><ele>89.0</ele><time>2026-04-06T09:06:56Z</time></trkpt><trkpt lat="45.35590856498767" lon="9.350376598740754"><ele>89.0</ele><time>2026-04-06T09:06:57Z</time></trkpt><trkpt lat="45.35585661348627" lon="9.350211699732515"><ele>89.0</ele><time>2026-04-06T09:06:59Z</time></trkpt><trkpt lat="45.355800280761876" lon="9.350053280978312"><ele>89.0</ele><time>2026-04-06T09:07:01Z</time></trkpt><trkpt lat="45.355771412649275" lon="9.349973181720387"><ele>89.0</ele><time>2026-04-06T09:07:02Z</time></trkpt><trkpt lat="45.355716209467985" lon="9.349814587098168"><ele>89.0</ele><time>2026-04-06T09:07:04Z</time></trkpt><trkpt lat="45.355686455874746" lon="9.349733505091056"><ele>89.0</ele><time>2026-04-06T09:07:05Z</time></trkpt><trkpt lat="45.355659953778016" lon="9.349650550484647"><ele>89.0</ele><time>2026-04-06T09:07:06Z</time></trkpt><trkpt lat="45.35562976980507" lon="9.349477262196485"><ele>89.0</ele><time>2026-04-06T09:07:08Z</time></trkpt><trkpt lat="45.355628525301384" lon="9.34938671274574"><ele>89.0</ele><time>2026-04-06T09:07:09Z</time></trkpt><trkpt lat="45.35562329401008" lon="9.349208720088306"><ele>89.0</ele><time>2026-04-06T09:07:11Z</time></trkpt><trkpt lat="45.355608257216126" lon="9.349030520373443"><ele>88.99999999999999</ele><time>2026-04-06T09:07:13Z</time></trkpt><trkpt lat="45.35560083670605" lon="9.348940582784284"><ele>89.0</ele><time>2026-04-06T09:07:14Z</time></trkpt><trkpt lat="45.35558744849891" lon="9.348851517003713"><ele>89.0</ele><time>2026-04-06T09:07:15Z</time></trkpt><trkpt lat="45.355575645735996" lon="9.348763285246106"><ele>89.0</ele><time>2026-04-06T09:07:16Z</time></trkpt><trkpt lat="45.355569935112015" lon="9.348670517149609"><ele>89.0</ele><time>2026-04-06T09:07:17Z</time></trkpt><trkpt lat="45.35556444375396" lon="9.348573839185118"><ele>88.99999999999999</ele><time>2026-04-06T09:07:18Z</time></trkpt><trkpt lat="45.35555710376351" lon="9.348480680774832"><ele>89.0</ele><time>2026-04-06T09:07:19Z</time></trkpt><trkpt lat="45.355550922030524" lon="9.348381327769525"><ele>89.0</ele><time>2026-04-06T09:07:20Z</time></trkpt><trkpt lat="45.355543210576826" lon="9.348288944669576"><ele>89.0</ele><time>2026-04-06T09:07:21Z</time></trkpt><trkpt lat="45.35553558320253" lon="9.348193844509506"><ele>89.0</ele><time>2026-04-06T09:07:22Z</time></trkpt><trkpt lat="45.35552767417556" lon="9.34810041651471"><ele>89.0</ele><time>2026-04-06T09:07:23Z</time></trkpt><trkpt lat="45.355535435410395" lon="9.347920631697068"><ele>89.0</ele><time>2026-04-06T09:07:25Z</time></trkpt><trkpt lat="45.355541809238936" lon="9.347752566482724"><ele>89.0</ele><time>2026-04-06T09:07:27Z</time></trkpt><trkpt lat="45.35555551812545" lon="9.347610221462967"><ele>89.4</ele><time>2026-04-06T09:07:29Z</time></trkpt><trkpt lat="45.35565758350865" lon="9.347528998427508"><ele>89.80000000000001</ele><time>2026-04-06T09:07:31Z</time></trkpt><trkpt lat="45.35575913357123" lon="9.347496535730563"><ele>90.19999999999999</ele><time>2026-04-06T09:07:33Z</time></trkpt><trkpt lat="45.3558242147823" lon="9.347503699688149"><ele>90.6</ele><time>2026-04-06T09:07:34Z</time></trkpt><trkpt lat="45.35589628746581" lon="9.347435738701398"><ele>91.0</ele><time>2026-04-06T09:07:37Z</time></trkpt><trkpt lat="45.35593052515828" lon="9.347330403497889"><ele>91.0</ele><time>2026-04-06T09:07:40Z</time></trkpt><trkpt lat="45.3559030480423" lon="9.347229457096596"><ele>91.0</ele><time>2026-04-06T09:07:42Z</time></trkpt><trkpt lat="45.355869662458026" lon="9.347108173262177"><ele>91.0</ele><time>2026-04-06T09:07:44Z</time></trkpt><trkpt lat="45.35584661774139" lon="9.346982432964415"><ele>91.0</ele><time>2026-04-06T09:07:46Z</time></trkpt><trkpt lat="45.35583194478096" lon="9.346832626703721"><ele>91.0</ele><time>2026-04-06T09:07:48Z</time></trkpt><trkpt lat="45.35582453606959" lon="9.346739039287378"><ele>91.0</ele><time>2026-04-06T09:07:49Z</time></trkpt><trkpt lat="45.35581448412265" lon="9.346599356566912"><ele>90.8</ele><time>2026-04-06T09:07:51Z</time></trkpt><trkpt lat="45.355801536117966" lon="9.34645365410663"><ele>90.6</ele><time>2026-04-06T09:07:53Z</time></trkpt><trkpt lat="45.35578046207379" lon="9.346305939870955"><ele>90.4</ele><time>2026-04-06T09:07:55Z</time></trkpt><trkpt lat="45.35576329078706" lon="9.34616466470882"><ele>90.2</ele><time>2026-04-06T09:07:57Z</time></trkpt><trkpt lat="45.355753381920074" lon="9.346018043501097"><ele>90.0</ele><time>2026-04-06T09:07:59Z</time></trkpt><trkpt lat="45.35573230382669" lon="9.345874434716926"><ele>90.0</ele><time>2026-04-06T09:08:01Z</time></trkpt><trkpt lat="45.35571945506662" lon="9.345726735055784"><ele>90.0</ele><time>2026-04-06T09:08:03Z</time></trkpt><trkpt lat="45.35570611934833" lon="9.345585515071184"><ele>90.0</ele><time>2026-04-06T09:08:05Z</time></trkpt><trkpt lat="45.35569426307037" lon="9.345445244416544"><ele>90.0</ele><time>2026-04-06T09:08:07Z</time></trkpt><trkpt lat="45.355698356499346" lon="9.345305773684071"><ele>90.0</ele><time>2026-04-06T09:08:09Z</time></trkpt><trkpt lat="45.355690948881076" lon="9.34516519237747"><ele>89.8</ele><time>2026-04-06T09:08:11Z</time></trkpt><trkpt lat="45.355674183782256" lon="9.345025237632129"><ele>89.6</ele><time>2026-04-06T09:08:13Z</time></trkpt><trkpt lat="45.35565390296189" lon="9.344888158915587"><ele>89.4</ele><time>2026-04-06T09:08:15Z</time></trkpt><trkpt lat="45.35564923461665" lon="9.344738008334032"><ele>89.2</ele><time>2026-04-06T09:08:17Z</time></trkpt><trkpt lat="45.355631682150594" lon="9.34458995711573"><ele>89.0</ele><time>2026-04-06T09:08:19Z</time></trkpt><trkpt lat="45.35561111322673" lon="9.344444085354846"><ele>89.0</ele><time>2026-04-06T09:08:21Z</time></trkpt><trkpt lat="45.35559189831106" lon="9.344291383533209"><ele>89.0</ele><time>2026-04-06T09:08:23Z</time></trkpt><trkpt lat="45.35557159547559" lon="9.344133433230326"><ele>89.0</ele><time>2026-04-06T09:08:25Z</time></trkpt><trkpt lat="45.35555654387383" lon="9.343972899343672"><ele>89.0</ele><time>2026-04-06T09:08:27Z</time></trkpt><trkpt lat="45.355535451783915" lon="9.343814061787095"><ele>89.0</ele><time>2026-04-06T09:08:29Z</time></trkpt><trkpt lat="45.35549923112695" lon="9.343651160126678"><ele>88.99999999999999</ele><time>2026-04-06T09:08:31Z</time></trkpt><trkpt lat="45.355468912990304" lon="9.343568500632497"><ele>89.0</ele><time>2026-04-06T09:08:32Z</time></trkpt><trkpt lat="45.35543886324431" lon="9.34348828470931"><ele>89.0</ele><time>2026-04-06T09:08:33Z</time></trkpt><trkpt lat="45.3554143750321" lon="9.343401044696106"><ele>89.0</ele><time>2026-04-06T09:08:34Z</time></trkpt><trkpt lat="45.35539020276674" lon="9.343311373240049"><ele>89.0</ele><time>2026-04-06T09:08:35Z</time></trkpt><trkpt lat="45.35536731649331" lon="9.343225698735642"><ele>88.99999999999999</ele><time>2026-04-06T09:08:36Z</time></trkpt><trkpt lat="45.355343217961554" lon="9.343128637479735"><ele>89.0</ele><time>2026-04-06T09:08:37Z</time></trkpt><trkpt lat="45.355325360986065" lon="9.343034060078006"><ele>88.83333333333334</ele><time>2026-04-06T09:08:38Z</time></trkpt><trkpt lat="45.3553128555147" lon="9.342938595890416"><ele>88.66666666666667</ele><time>2026-04-06T09:08:39Z</time></trkpt><trkpt lat="45.35530256088407" lon="9.342848837443627"><ele>88.5</ele><time>2026-04-06T09:08:40Z</time></trkpt><trkpt lat="45.35529307503268" lon="9.342674328857107"><ele>88.33333333333333</ele><time>2026-04-06T09:08:42Z</time></trkpt><trkpt lat="45.35531228535053" lon="9.342582793539524"><ele>88.16666666666666</ele><time>2026-04-06T09:08:43Z</time></trkpt><trkpt lat="45.35532156811756" lon="9.34240512910825"><ele>88.0</ele><time>2026-04-06T09:08:45Z</time></trkpt><trkpt lat="45.35531930395539" lon="9.342313176240136"><ele>88.0</ele><time>2026-04-06T09:08:46Z</time></trkpt><trkpt lat="45.35532083790879" lon="9.34222006630128"><ele>88.0</ele><time>2026-04-06T09:08:47Z</time></trkpt><trkpt lat="45.35531224164065" lon="9.342041324546313"><ele>88.0</ele><time>2026-04-06T09:08:49Z</time></trkpt><trkpt lat="45.35531099386151" lon="9.341949102398583"><ele>88.0</ele><time>2026-04-06T09:08:50Z</time></trkpt><trkpt lat="45.35531221970105" lon="9.341853110110419"><ele>88.0</ele><time>2026-04-06T09:08:51Z</time></trkpt><trkpt lat="45.355312647127604" lon="9.341758501589883"><ele>88.0</ele><time>2026-04-06T09:08:52Z</time></trkpt><trkpt lat="45.355308544870326" lon="9.341658269491427"><ele>88.0</ele><time>2026-04-06T09:08:53Z</time></trkpt><trkpt lat="45.35530565267748" lon="9.3415642248575"><ele>88.0</ele><time>2026-04-06T09:08:54Z</time></trkpt><trkpt lat="45.35530870818422" lon="9.341465013515943"><ele>88.0</ele><time>2026-04-06T09:08:55Z</time></trkpt><trkpt lat="45.35531531353082" lon="9.341366359061977"><ele>88.0</ele><time>2026-04-06T09:08:56Z</time></trkpt><trkpt lat="45.35531381065322" lon="9.34126201071303"><ele>88.0</ele><time>2026-04-06T09:08:57Z</time></trkpt><trkpt lat="45.35530767734095" lon="9.341162660071424"><ele>88.0</ele><time>2026-04-06T09:08:58Z</time></trkpt><trkpt lat="45.35530400893148" lon="9.341064292195927"><ele>88.0</ele><time>2026-04-06T09:08:59Z</time></trkpt><trkpt lat="45.3553013246265" lon="9.340967106584216"><ele>88.14285714285714</ele><time>2026-04-06T09:09:00Z</time></trkpt><trkpt lat="45.35529895157405" lon="9.34086780120449"><ele>88.28571428571428</ele><time>2026-04-06T09:09:01Z</time></trkpt><trkpt lat="45.35529853298056" lon="9.340776920737305"><ele>88.42857142857142</ele><time>2026-04-06T09:09:02Z</time></trkpt><trkpt lat="45.355308848622855" lon="9.340679958868105"><ele>88.57142857142857</ele><time>2026-04-06T09:09:03Z</time></trkpt><trkpt lat="45.35530244252152" lon="9.340578774195757"><ele>88.71428571428571</ele><time>2026-04-06T09:09:04Z</time></trkpt><trkpt lat="45.35529852704908" lon="9.340488461245304"><ele>88.85714285714285</ele><time>2026-04-06T09:09:05Z</time></trkpt><trkpt lat="45.35530374810188" lon="9.340330010178302"><ele>89.0</ele><time>2026-04-06T09:09:07Z</time></trkpt><trkpt lat="45.35530580734394" lon="9.340208860095881"><ele>88.6</ele><time>2026-04-06T09:09:09Z</time></trkpt><trkpt lat="45.35532058377552" lon="9.340094147111618"><ele>88.2</ele><time>2026-04-06T09:09:15Z</time></trkpt><trkpt lat="45.35541583642385" lon="9.340066393203408"><ele>87.8</ele><time>2026-04-06T09:09:18Z</time></trkpt><trkpt lat="45.35550350749896" lon="9.340028770063954"><ele>87.39999999999999</ele><time>2026-04-06T09:09:20Z</time></trkpt><trkpt lat="45.35559773603536" lon="9.339967398934519"><ele>87.0</ele><time>2026-04-06T09:09:22Z</time></trkpt><trkpt lat="45.355705995750775" lon="9.339928424573442"><ele>87.0</ele><time>2026-04-06T09:09:24Z</time></trkpt><trkpt lat="45.35580809290466" lon="9.339868735138056"><ele>87.0</ele><time>2026-04-06T09:09:26Z</time></trkpt><trkpt lat="45.35589261787318" lon="9.339768332891403"><ele>87.0</ele><time>2026-04-06T09:09:28Z</time></trkpt><trkpt lat="45.355930791896704" lon="9.339636610626107"><ele>87.0</ele><time>2026-04-06T09:09:30Z</time></trkpt><trkpt lat="45.35590794751119" lon="9.339481632405537"><ele>87.0</ele><time>2026-04-06T09:09:32Z</time></trkpt><trkpt lat="45.35586651178913" lon="9.3393420996867"><ele>87.0</ele><time>2026-04-06T09:09:34Z</time></trkpt><trkpt lat="45.355827909591355" lon="9.339198404342183"><ele>87.0</ele><time>2026-04-06T09:09:36Z</time></trkpt><trkpt lat="45.35578268007678" lon="9.339045585578186"><ele>87.0</ele><time>2026-04-06T09:09:38Z</time></trkpt><trkpt lat="45.35574557275673" lon="9.338895054670985"><ele>87.0</ele><time>2026-04-06T09:09:40Z</time></trkpt><trkpt lat="45.35572545735632" lon="9.338763736070092"><ele>87.0</ele><time>2026-04-06T09:09:42Z</time></trkpt><trkpt lat="45.35575001875423" lon="9.338657201384027"><ele>87.0</ele><time>2026-04-06T09:09:44Z</time></trkpt><trkpt lat="45.355817287697676" lon="9.338594329911412"><ele>87.0</ele><time>2026-04-06T09:09:46Z</time></trkpt><trkpt lat="45.3559033271946" lon="9.33851724585769"><ele>87.0</ele><time>2026-04-06T09:09:48Z</time></trkpt><trkpt lat="45.355987769280944" lon="9.338433241516068"><ele>87.0</ele><time>2026-04-06T09:09:50Z</time></trkpt><trkpt lat="45.356072711983636" lon="9.33835706453396"><ele>87.0</ele><time>2026-04-06T09:09:52Z</time></trkpt><trkpt lat="45.35616071303999" lon="9.33827239468202"><ele>87.0</ele><time>2026-04-06T09:09:54Z</time></trkpt><trkpt lat="45.356240496619726" lon="9.338189751236754"><ele>87.0</ele><time>2026-04-06T09:09:56Z</time></trkpt><trkpt lat="45.35630158492985" lon="9.338122008150382"><ele>87.0</ele><time>2026-04-06T09:09:58Z</time></trkpt><trkpt lat="45.35630982138069" lon="9.338029035748404"><ele>87.0</ele><time>2026-04-06T09:10:00Z</time></trkpt><trkpt lat="45.35627638582812" lon="9.337942730479694"><ele>87.0</ele><time>2026-04-06T09:10:02Z</time></trkpt><trkpt lat="45.35624810618488" lon="9.337821465802646"><ele>87.0</ele><time>2026-04-06T09:10:04Z</time></trkpt><trkpt lat="45.356227682458375" lon="9.33767631412396"><ele>87.0</ele><time>2026-04-06T09:10:06Z</time></trkpt><trkpt lat="45.35621913753023" lon="9.337530214754796"><ele>87.0</ele><time>2026-04-06T09:10:08Z</time></trkpt><trkpt lat="45.35624011501356" lon="9.337388653089004"><ele>87.0</ele><time>2026-04-06T09:10:10Z</time></trkpt><trkpt lat="45.35625787035338" lon="9.337251488181744"><ele>87.0</ele><time>2026-04-06T09:10:12Z</time></trkpt><trkpt lat="45.356259419013185" lon="9.337113353353208"><ele>87.0</ele><time>2026-04-06T09:10:14Z</time></trkpt><trkpt lat="45.356272032113274" lon="9.336982973689228"><ele>86.8</ele><time>2026-04-06T09:10:16Z</time></trkpt><trkpt lat="45.356280526963936" lon="9.33684701280195"><ele>86.6</ele><time>2026-04-06T09:10:18Z</time></trkpt><trkpt lat="45.35629136730538" lon="9.336704020720303"><ele>86.39999999999999</ele><time>2026-04-06T09:10:20Z</time></trkpt><trkpt lat="45.35630515303373" lon="9.3365740501969"><ele>86.19999999999999</ele><time>2026-04-06T09:10:22Z</time></trkpt><trkpt lat="45.356312848703276" lon="9.336435564476194"><ele>86.0</ele><time>2026-04-06T09:10:24Z</time></trkpt><trkpt lat="45.35635040564768" lon="9.336303388379504"><ele>86.0</ele><time>2026-04-06T09:10:26Z</time></trkpt><trkpt lat="45.3563676423751" lon="9.336154280967417"><ele>86.0</ele><time>2026-04-06T09:10:28Z</time></trkpt><trkpt lat="45.35639594968982" lon="9.336016950048716"><ele>86.0</ele><time>2026-04-06T09:10:30Z</time></trkpt><trkpt lat="45.35648428034982" lon="9.335925335932096"><ele>86.0</ele><time>2026-04-06T09:10:32Z</time></trkpt><trkpt lat="45.35657454691468" lon="9.335843225962524"><ele>86.0</ele><time>2026-04-06T09:10:34Z</time></trkpt><trkpt lat="45.356660367534445" lon="9.335754010574789"><ele>86.0</ele><time>2026-04-06T09:10:36Z</time></trkpt><trkpt lat="45.356746368365975" lon="9.335671760040459"><ele>86.0</ele><time>2026-04-06T09:10:38Z</time></trkpt><trkpt lat="45.35683286728335" lon="9.335571028547058"><ele>86.0</ele><time>2026-04-06T09:10:40Z</time></trkpt><trkpt lat="45.35692180614133" lon="9.335476932815075"><ele>86.0</ele><time>2026-04-06T09:10:42Z</time></trkpt><trkpt lat="45.35701243281086" lon="9.335370745004143"><ele>86.0</ele><time>2026-04-06T09:10:44Z</time></trkpt><trkpt lat="45.35709552781627" lon="9.335257920171525"><ele>85.8</ele><time>2026-04-06T09:10:46Z</time></trkpt><trkpt lat="45.35718376117973" lon="9.33515130260478"><ele>85.6</ele><time>2026-04-06T09:10:48Z</time></trkpt><trkpt lat="45.357262350012775" lon="9.335044169697428"><ele>85.4</ele><time>2026-04-06T09:10:50Z</time></trkpt><trkpt lat="45.35735990140268" lon="9.33498971058166"><ele>85.2</ele><time>2026-04-06T09:10:52Z</time></trkpt><trkpt lat="45.357445664470745" lon="9.334898641287843"><ele>85.0</ele><time>2026-04-06T09:10:54Z</time></trkpt><trkpt lat="45.35749035871319" lon="9.334757584587967"><ele>84.83333333333333</ele><time>2026-04-06T09:10:56Z</time></trkpt><trkpt lat="45.357563816254846" lon="9.334657016397577"><ele>84.66666666666666</ele><time>2026-04-06T09:10:58Z</time></trkpt><trkpt lat="45.35766273879356" lon="9.334614357868077"><ele>84.5</ele><time>2026-04-06T09:11:00Z</time></trkpt><trkpt lat="45.35773559454488" lon="9.334584633630733"><ele>84.33333333333333</ele><time>2026-04-06T09:11:02Z</time></trkpt><trkpt lat="45.35775631436177" lon="9.334461802557337"><ele>84.16666666666667</ele><time>2026-04-06T09:11:05Z</time></trkpt><trkpt lat="45.35773207425617" lon="9.334367752024443"><ele>84.0</ele><time>2026-04-06T09:11:07Z</time></trkpt><trkpt lat="45.35769057390789" lon="9.33426282850207"><ele>84.0</ele><time>2026-04-06T09:11:11Z</time></trkpt><trkpt lat="45.35772765243295" lon="9.334133923257674"><ele>84.0</ele><time>2026-04-06T09:11:14Z</time></trkpt><trkpt lat="45.357796985576144" lon="9.334070667045735"><ele>84.0</ele><time>2026-04-06T09:11:16Z</time></trkpt><trkpt lat="45.35784640426978" lon="9.33399679152274"><ele>84.0</ele><time>2026-04-06T09:11:18Z</time></trkpt><trkpt lat="45.357894678146266" lon="9.333919353167648"><ele>84.0</ele><time>2026-04-06T09:11:20Z</time></trkpt><trkpt lat="45.357948653011" lon="9.333845852031136"><ele>84.0</ele><time>2026-04-06T09:11:23Z</time></trkpt><trkpt lat="45.35801381421378" lon="9.333767714981661"><ele>84.28571428571429</ele><time>2026-04-06T09:11:26Z</time></trkpt><trkpt lat="45.358062092714974" lon="9.333702217825971"><ele>84.57142857142857</ele><time>2026-04-06T09:11:28Z</time></trkpt><trkpt lat="45.358109632602236" lon="9.333639005937014"><ele>84.85714285714286</ele><time>2026-04-06T09:11:30Z</time></trkpt><trkpt lat="45.35817257387152" lon="9.333557788325788"><ele>85.14285714285714</ele><time>2026-04-06T09:11:33Z</time></trkpt><trkpt lat="45.358224746337996" lon="9.333492508345396"><ele>85.42857142857143</ele><time>2026-04-06T09:11:37Z</time></trkpt><trkpt lat="45.35827123172631" lon="9.33341500038037"><ele>85.71428571428572</ele><time>2026-04-06T09:12:02Z</time></trkpt><trkpt lat="45.35828560227364" lon="9.333307103158512"><ele>86.0</ele><time>2026-04-06T09:12:05Z</time></trkpt><trkpt lat="45.35828325525518" lon="9.33319455512794"><ele>86.0</ele><time>2026-04-06T09:12:07Z</time></trkpt><trkpt lat="45.358300325278236" lon="9.333066563855546"><ele>86.0</ele><time>2026-04-06T09:12:09Z</time></trkpt><trkpt lat="45.35830587099372" lon="9.332925687496468"><ele>86.0</ele><time>2026-04-06T09:12:11Z</time></trkpt><trkpt lat="45.35828681110152" lon="9.332792561076504"><ele>86.0</ele><time>2026-04-06T09:12:13Z</time></trkpt><trkpt lat="45.358261912366395" lon="9.332675532370285"><ele>86.0</ele><time>2026-04-06T09:12:15Z</time></trkpt><trkpt lat="45.35822142272261" lon="9.33254903335606"><ele>86.19999999999999</ele><time>2026-04-06T09:12:17Z</time></trkpt><trkpt lat="45.35819672785245" lon="9.332410616472908"><ele>86.39999999999999</ele><time>2026-04-06T09:12:19Z</time></trkpt><trkpt lat="45.358163289289244" lon="9.332276158676164"><ele>86.6</ele><time>2026-04-06T09:12:21Z</time></trkpt><trkpt lat="45.35813592460265" lon="9.332139304958831"><ele>86.8</ele><time>2026-04-06T09:12:23Z</time></trkpt><trkpt lat="45.358112836856506" lon="9.332001500160194"><ele>87.0</ele><time>2026-04-06T09:12:25Z</time></trkpt><trkpt lat="45.35807948005427" lon="9.331861588239112"><ele>87.0</ele><time>2026-04-06T09:12:27Z</time></trkpt><trkpt lat="45.358047982952606" lon="9.331716889023987"><ele>87.0</ele><time>2026-04-06T09:12:29Z</time></trkpt><trkpt lat="45.358015453073655" lon="9.331574333622243"><ele>87.0</ele><time>2026-04-06T09:12:31Z</time></trkpt><trkpt lat="45.35798537468343" lon="9.33142931454637"><ele>87.0</ele><time>2026-04-06T09:12:33Z</time></trkpt><trkpt lat="45.35795516044546" lon="9.331276111084861"><ele>87.0</ele><time>2026-04-06T09:12:35Z</time></trkpt><trkpt lat="45.35792076125229" lon="9.331127208037437"><ele>87.0</ele><time>2026-04-06T09:12:37Z</time></trkpt><trkpt lat="45.35788146731997" lon="9.330979447009778"><ele>87.0</ele><time>2026-04-06T09:12:39Z</time></trkpt><trkpt lat="45.35785012512094" lon="9.330831870356063"><ele>87.0</ele><time>2026-04-06T09:12:41Z</time></trkpt><trkpt lat="45.35781580333333" lon="9.330690325094265"><ele>87.0</ele><time>2026-04-06T09:12:43Z</time></trkpt><trkpt lat="45.35778599531288" lon="9.330559693995417"><ele>87.0</ele><time>2026-04-06T09:12:45Z</time></trkpt><trkpt lat="45.357776013622384" lon="9.330432773976792"><ele>87.0</ele><time>2026-04-06T09:12:47Z</time></trkpt><trkpt lat="45.357828099397544" lon="9.330320490918774"><ele>87.0</ele><time>2026-04-06T09:12:49Z</time></trkpt><trkpt lat="45.35788040174922" lon="9.330218071418532"><ele>87.0</ele><time>2026-04-06T09:12:51Z</time></trkpt><trkpt lat="45.357944883970035" lon="9.330111089960193"><ele>87.0</ele><time>2026-04-06T09:12:53Z</time></trkpt><trkpt lat="45.358008011247634" lon="9.330002695077514"><ele>87.0</ele><time>2026-04-06T09:12:55Z</time></trkpt><trkpt lat="45.35807397579" lon="9.329888952146083"><ele>87.0</ele><time>2026-04-06T09:12:57Z</time></trkpt><trkpt lat="45.35814174032139" lon="9.329779299135927"><ele>87.0</ele><time>2026-04-06T09:12:59Z</time></trkpt><trkpt lat="45.358199448806474" lon="9.32966180229948"><ele>87.0</ele><time>2026-04-06T09:13:01Z</time></trkpt><trkpt lat="45.35826771338396" lon="9.329534477034562"><ele>87.0</ele><time>2026-04-06T09:13:03Z</time></trkpt><trkpt lat="45.358336344656024" lon="9.32941431883658"><ele>87.0</ele><time>2026-04-06T09:13:05Z</time></trkpt><trkpt lat="45.35839931411017" lon="9.329294031652834"><ele>87.19999999999999</ele><time>2026-04-06T09:13:07Z</time></trkpt><trkpt lat="45.35846611163116" lon="9.329194968795466"><ele>87.4</ele><time>2026-04-06T09:13:09Z</time></trkpt><trkpt lat="45.35850924447966" lon="9.329119207447992"><ele>87.6</ele><time>2026-04-06T09:13:12Z</time></trkpt><trkpt lat="45.358493544862185" lon="9.328996486832587"><ele>87.80000000000001</ele><time>2026-04-06T09:13:17Z</time></trkpt><trkpt lat="45.35844235145849" lon="9.328857343552064"><ele>88.0</ele><time>2026-04-06T09:13:20Z</time></trkpt><trkpt lat="45.358403265868176" lon="9.328741454515233"><ele>87.60000000000001</ele><time>2026-04-06T09:13:22Z</time></trkpt><trkpt lat="45.358349790259574" lon="9.328617211921477"><ele>87.2</ele><time>2026-04-06T09:13:24Z</time></trkpt><trkpt lat="45.35829246187978" lon="9.328491439696013"><ele>86.8</ele><time>2026-04-06T09:13:26Z</time></trkpt><trkpt lat="45.35823071852933" lon="9.328365386863043"><ele>86.4</ele><time>2026-04-06T09:13:28Z</time></trkpt><trkpt lat="45.35817414254413" lon="9.328235800745457"><ele>86.0</ele><time>2026-04-06T09:13:30Z</time></trkpt><trkpt lat="45.358118923395004" lon="9.32810166520279"><ele>86.0</ele><time>2026-04-06T09:13:32Z</time></trkpt><trkpt lat="45.35806026837698" lon="9.327975479992135"><ele>86.0</ele><time>2026-04-06T09:13:34Z</time></trkpt><trkpt lat="45.358006226816926" lon="9.32784453522943"><ele>86.0</ele><time>2026-04-06T09:13:36Z</time></trkpt><trkpt lat="45.3579503311478" lon="9.32771605126169"><ele>86.0</ele><time>2026-04-06T09:13:38Z</time></trkpt><trkpt lat="45.35789889456505" lon="9.327581526054416"><ele>86.0</ele><time>2026-04-06T09:13:40Z</time></trkpt><trkpt lat="45.35784197223944" lon="9.327452693703613"><ele>86.0</ele><time>2026-04-06T09:13:42Z</time></trkpt><trkpt lat="45.35778375814325" lon="9.327325443488524"><ele>86.0</ele><time>2026-04-06T09:13:44Z</time></trkpt><trkpt lat="45.35773179615079" lon="9.327198335195332"><ele>86.0</ele><time>2026-04-06T09:13:46Z</time></trkpt><trkpt lat="45.35767831974052" lon="9.327084289840395"><ele>86.0</ele><time>2026-04-06T09:13:48Z</time></trkpt><trkpt lat="45.35762966730747" lon="9.326954825253662"><ele>86.0</ele><time>2026-04-06T09:13:50Z</time></trkpt><trkpt lat="45.357583204841674" lon="9.326825796715625"><ele>85.5</ele><time>2026-04-06T09:13:52Z</time></trkpt><trkpt lat="45.35754676164986" lon="9.326695012411646"><ele>85.0</ele><time>2026-04-06T09:13:54Z</time></trkpt><trkpt lat="45.357527257746554" lon="9.3265682098793"><ele>84.5</ele><time>2026-04-06T09:13:56Z</time></trkpt><trkpt lat="45.35753432196534" lon="9.326451496506792"><ele>84.0</ele><time>2026-04-06T09:13:58Z</time></trkpt><trkpt lat="45.3575329764754" lon="9.326327990422254"><ele>83.5</ele><time>2026-04-06T09:14:00Z</time></trkpt><trkpt lat="45.35753264569825" lon="9.326199570911841"><ele>83.0</ele><time>2026-04-06T09:14:02Z</time></trkpt><trkpt lat="45.357529681276276" lon="9.326086594446778"><ele>83.0</ele><time>2026-04-06T09:14:04Z</time></trkpt><trkpt lat="45.357529495729835" lon="9.325983787634913"><ele>83.0</ele><time>2026-04-06T09:14:06Z</time></trkpt><trkpt lat="45.35751925194316" lon="9.325886370107405"><ele>83.0</ele><time>2026-04-06T09:14:08Z</time></trkpt><trkpt lat="45.35751095020292" lon="9.325758763140366"><ele>83.0</ele><time>2026-04-06T09:14:11Z</time></trkpt><trkpt lat="45.357513122745075" lon="9.32565664308531"><ele>83.0</ele><time>2026-04-06T09:14:14Z</time></trkpt><trkpt lat="45.357526259350905" lon="9.32555899010103"><ele>83.0</ele><time>2026-04-06T09:14:19Z</time></trkpt><trkpt lat="45.357552585642075" lon="9.325448065907791"><ele>87.0</ele><time>2026-04-06T09:14:22Z</time></trkpt><trkpt lat="45.357565593888694" lon="9.325357191867843"><ele>91.0</ele><time>2026-04-06T09:14:44Z</time></trkpt><trkpt lat="45.358652495844275" lon="9.325033601029872"><ele>91.0</ele><time>2026-04-06T09:22:23.001Z</time></trkpt><trkpt lat="45.35874095302467" lon="9.324965833771119"><ele>91.0</ele><time>2026-04-06T09:22:26.001Z</time></trkpt><trkpt lat="45.35880302439595" lon="9.324917287577641"><ele>91.0</ele><time>2026-04-06T09:22:28.001Z</time></trkpt><trkpt lat="45.35887046195866" lon="9.32488546343936"><ele>91.0</ele><time>2026-04-06T09:22:30.001Z</time></trkpt><trkpt lat="45.3589351520206" lon="9.32485716938721"><ele>91.0</ele><time>2026-04-06T09:22:32.001Z</time></trkpt><trkpt lat="45.35901659089682" lon="9.324797260055215"><ele>91.0</ele><time>2026-04-06T09:22:34.999Z</time></trkpt><trkpt lat="45.35907694769258" lon="9.324753018462296"><ele>91.5</ele><time>2026-04-06T09:22:36.999Z</time></trkpt><trkpt lat="45.359158899685106" lon="9.324692146770618"><ele>92.0</ele><time>2026-04-06T09:22:39.999Z</time></trkpt><trkpt lat="45.35924194256676" lon="9.324628477747906"><ele>92.5</ele><time>2026-04-06T09:22:43Z</time></trkpt><trkpt lat="45.35931923657721" lon="9.32459455612103"><ele>93.0</ele><time>2026-04-06T09:22:45Z</time></trkpt><trkpt lat="45.359392154291996" lon="9.324541115273142"><ele>93.5</ele><time>2026-04-06T09:22:47Z</time></trkpt><trkpt lat="45.35945649356842" lon="9.32447555777313"><ele>94.0</ele><time>2026-04-06T09:22:49Z</time></trkpt><trkpt lat="45.35952494431933" lon="9.324429523119557"><ele>94.0</ele><time>2026-04-06T09:22:51Z</time></trkpt><trkpt lat="45.35959814502027" lon="9.324391664207972"><ele>94.0</ele><time>2026-04-06T09:22:53Z</time></trkpt><trkpt lat="45.35966611524898" lon="9.324343409988481"><ele>94.0</ele><time>2026-04-06T09:22:55Z</time></trkpt><trkpt lat="45.35974114921581" lon="9.324289295320726"><ele>94.0</ele><time>2026-04-06T09:22:57Z</time></trkpt><trkpt lat="45.35981326652596" lon="9.324258980510995"><ele>94.0</ele><time>2026-04-06T09:22:59Z</time></trkpt><trkpt lat="45.359887128124974" lon="9.324225440128878"><ele>94.0</ele><time>2026-04-06T09:23:01Z</time></trkpt><trkpt lat="45.35995903035695" lon="9.324191396167675"><ele>94.0</ele><time>2026-04-06T09:23:03Z</time></trkpt><trkpt lat="45.36002982453917" lon="9.324157406384462"><ele>94.0</ele><time>2026-04-06T09:23:05Z</time></trkpt><trkpt lat="45.36009965089218" lon="9.324106609052675"><ele>94.0</ele><time>2026-04-06T09:23:07Z</time></trkpt><trkpt lat="45.36016883075458" lon="9.324055913029673"><ele>94.0</ele><time>2026-04-06T09:23:09Z</time></trkpt><trkpt lat="45.36023673336292" lon="9.324002765049"><ele>94.0</ele><time>2026-04-06T09:23:11Z</time></trkpt><trkpt lat="45.360299560235006" lon="9.32394922899157"><ele>94.0</ele><time>2026-04-06T09:23:13Z</time></trkpt><trkpt lat="45.360353963188984" lon="9.32387678950811"><ele>94.0</ele><time>2026-04-06T09:23:16Z</time></trkpt><trkpt lat="45.36041701112828" lon="9.323852259195814"><ele>94.0</ele><time>2026-04-06T09:23:23Z</time></trkpt><trkpt lat="45.36049498435152" lon="9.323883134896096"><ele>94.0</ele><time>2026-04-06T09:23:26Z</time></trkpt><trkpt lat="45.360557233307894" lon="9.323932788419432"><ele>94.0</ele><time>2026-04-06T09:23:28Z</time></trkpt><trkpt lat="45.360626741969384" lon="9.323980906694409"><ele>94.0</ele><time>2026-04-06T09:23:30Z</time></trkpt><trkpt lat="45.36069780731306" lon="9.324025076087144"><ele>94.0</ele><time>2026-04-06T09:23:32Z</time></trkpt><trkpt lat="45.360764037437505" lon="9.32406648744733"><ele>94.0</ele><time>2026-04-06T09:23:34Z</time></trkpt><trkpt lat="45.360832339640524" lon="9.324117925632367"><ele>93.85714285714286</ele><time>2026-04-06T09:23:36Z</time></trkpt><trkpt lat="45.36090475686045" lon="9.324163571117895"><ele>93.71428571428571</ele><time>2026-04-06T09:23:38Z</time></trkpt><trkpt lat="45.36097815024042" lon="9.324206953169432"><ele>93.57142857142858</ele><time>2026-04-06T09:23:40Z</time></trkpt><trkpt lat="45.36104111847636" lon="9.324262242341367"><ele>93.42857142857143</ele><time>2026-04-06T09:23:42Z</time></trkpt><trkpt lat="45.361111911550786" lon="9.324258247505705"><ele>93.28571428571429</ele><time>2026-04-06T09:23:45.001Z</time></trkpt><trkpt lat="45.3611747981607" lon="9.324241304889446"><ele>93.14285714285715</ele><time>2026-04-06T09:23:47.001Z</time></trkpt><trkpt lat="45.36123914648235" lon="9.324174053292042"><ele>93.0</ele><time>2026-04-06T09:23:49.001Z</time></trkpt><trkpt lat="45.36129980069503" lon="9.324097290115189"><ele>93.0</ele><time>2026-04-06T09:23:51.001Z</time></trkpt><trkpt lat="45.36136412002909" lon="9.324022164182965"><ele>93.0</ele><time>2026-04-06T09:23:53.001Z</time></trkpt><trkpt lat="45.3614280772495" lon="9.323941224612263"><ele>93.0</ele><time>2026-04-06T09:23:55.001Z</time></trkpt><trkpt lat="45.361490544385624" lon="9.323869083989836"><ele>93.0</ele><time>2026-04-06T09:23:57.001Z</time></trkpt><trkpt lat="45.36156043247828" lon="9.32378566281833"><ele>93.0</ele><time>2026-04-06T09:23:59.001Z</time></trkpt><trkpt lat="45.36162903268658" lon="9.323702373417932"><ele>93.0</ele><time>2026-04-06T09:24:01.001Z</time></trkpt><trkpt lat="45.361705945744156" lon="9.32362196833301"><ele>93.0</ele><time>2026-04-06T09:24:03.001Z</time></trkpt><trkpt lat="45.3617707176008" lon="9.32353701562785"><ele>93.0</ele><time>2026-04-06T09:24:05.001Z</time></trkpt><trkpt lat="45.361832818910266" lon="9.32346930892278"><ele>93.0</ele><time>2026-04-06T09:24:07.001Z</time></trkpt><trkpt lat="45.361894534673134" lon="9.323388684495827"><ele>93.0</ele><time>2026-04-06T09:24:09.001Z</time></trkpt><trkpt lat="45.361958230740164" lon="9.323309686359547"><ele>93.0</ele><time>2026-04-06T09:24:11.001Z</time></trkpt><trkpt lat="45.36203308741568" lon="9.323235083133044"><ele>93.0</ele><time>2026-04-06T09:24:13.001Z</time></trkpt><trkpt lat="45.362102026740345" lon="9.323152159692656"><ele>93.0</ele><time>2026-04-06T09:24:15.001Z</time></trkpt><trkpt lat="45.36218098299265" lon="9.323078457712608"><ele>93.0</ele><time>2026-04-06T09:24:17.001Z</time></trkpt><trkpt lat="45.362253818560234" lon="9.323001068823583"><ele>93.0</ele><time>2026-04-06T09:24:19.001Z</time></trkpt><trkpt lat="45.36233921292763" lon="9.322912461815067"><ele>93.0</ele><time>2026-04-06T09:24:21.001Z</time></trkpt><trkpt lat="45.3624160799617" lon="9.322819898936377"><ele>93.0</ele><time>2026-04-06T09:24:23.001Z</time></trkpt><trkpt lat="45.362498878248694" lon="9.322740242495557"><ele>93.2</ele><time>2026-04-06T09:24:25.001Z</time></trkpt><trkpt lat="45.36257560878526" lon="9.32265999296477"><ele>93.4</ele><time>2026-04-06T09:24:27.001Z</time></trkpt><trkpt lat="45.36264599179297" lon="9.322574719843013"><ele>93.60000000000001</ele><time>2026-04-06T09:24:29.001Z</time></trkpt><trkpt lat="45.362717828202214" lon="9.322491801696621"><ele>93.80000000000001</ele><time>2026-04-06T09:24:31.001Z</time></trkpt><trkpt lat="45.362794246131806" lon="9.322406646565518"><ele>94.0</ele><time>2026-04-06T09:24:33.001Z</time></trkpt><trkpt lat="45.36287702726051" lon="9.322315976788833"><ele>94.2</ele><time>2026-04-06T09:24:35.001Z</time></trkpt><trkpt lat="45.36294932796272" lon="9.322225909555547"><ele>94.4</ele><time>2026-04-06T09:24:37.001Z</time></trkpt><trkpt lat="45.363037384593376" lon="9.32214028719376"><ele>94.6</ele><time>2026-04-06T09:24:39Z</time></trkpt><trkpt lat="45.363109214630235" lon="9.32204692129796"><ele>94.8</ele><time>2026-04-06T09:24:41Z</time></trkpt><trkpt lat="45.36319241664287" lon="9.321960466798384"><ele>95.0</ele><time>2026-04-06T09:24:43Z</time></trkpt><trkpt lat="45.36326933905869" lon="9.321869760832131"><ele>94.6</ele><time>2026-04-06T09:24:45Z</time></trkpt><trkpt lat="45.36334679479063" lon="9.321778165153013"><ele>94.2</ele><time>2026-04-06T09:24:47Z</time></trkpt><trkpt lat="45.363429068859446" lon="9.321682875348461"><ele>93.80000000000001</ele><time>2026-04-06T09:24:49Z</time></trkpt><trkpt lat="45.36350836771108" lon="9.321594254936057"><ele>93.4</ele><time>2026-04-06T09:24:51Z</time></trkpt><trkpt lat="45.363584896730394" lon="9.32149877513359"><ele>93.0</ele><time>2026-04-06T09:24:53Z</time></trkpt><trkpt lat="45.36366205810375" lon="9.321407882289481"><ele>92.60000000000001</ele><time>2026-04-06T09:24:55Z</time></trkpt><trkpt lat="45.36373347119003" lon="9.321313975633199"><ele>92.2</ele><time>2026-04-06T09:24:57Z</time></trkpt><trkpt lat="45.36381603982636" lon="9.321230436775368"><ele>91.8</ele><time>2026-04-06T09:24:59Z</time></trkpt><trkpt lat="45.36388894640226" lon="9.321135640717978"><ele>91.4</ele><time>2026-04-06T09:25:01Z</time></trkpt><trkpt lat="45.36394822521463" lon="9.321036612851554"><ele>91.0</ele><time>2026-04-06T09:25:03Z</time></trkpt><trkpt lat="45.363960488374936" lon="9.320938590333302"><ele>91.0</ele><time>2026-04-06T09:25:05Z</time></trkpt><trkpt lat="45.363943013248104" lon="9.320823524905698"><ele>91.0</ele><time>2026-04-06T09:25:08Z</time></trkpt><trkpt lat="45.36391678585435" lon="9.320726941117272"><ele>91.0</ele><time>2026-04-06T09:25:11Z</time></trkpt><trkpt lat="45.36391811102079" lon="9.320630457249404"><ele>91.0</ele><time>2026-04-06T09:25:13Z</time></trkpt><trkpt lat="45.36384582189286" lon="9.320536106580114"><ele>91.0</ele><time>2026-04-06T09:25:15Z</time></trkpt><trkpt lat="45.36379572745964" lon="9.32041679984653"><ele>91.0</ele><time>2026-04-06T09:25:17Z</time></trkpt><trkpt lat="45.363731577477196" lon="9.320314690646228"><ele>92.6</ele><time>2026-04-06T09:25:19Z</time></trkpt><trkpt lat="45.363674561063604" lon="9.320192103686518"><ele>94.19999999999999</ele><time>2026-04-06T09:25:21.001Z</time></trkpt><trkpt lat="45.36361271720112" lon="9.320070979918356"><ele>95.80000000000001</ele><time>2026-04-06T09:25:23.001Z</time></trkpt><trkpt lat="45.363532673488436" lon="9.319970500738304"><ele>97.4</ele><time>2026-04-06T09:25:25.001Z</time></trkpt><trkpt lat="45.36342286833719" lon="9.319931890064398"><ele>99.0</ele><time>2026-04-06T09:25:27.001Z</time></trkpt><trkpt lat="45.363314359580485" lon="9.319970720720631"><ele>99.0</ele><time>2026-04-06T09:25:29.001Z</time></trkpt><trkpt lat="45.363208340411205" lon="9.320004981023352"><ele>99.0</ele><time>2026-04-06T09:25:31.001Z</time></trkpt><trkpt lat="45.36309942901797" lon="9.32004011301931"><ele>99.0</ele><time>2026-04-06T09:25:33.001Z</time></trkpt><trkpt lat="45.36300134645739" lon="9.320051855926701"><ele>99.0</ele><time>2026-04-06T09:25:35.001Z</time></trkpt><trkpt lat="45.362913404193314" lon="9.32007559554537"><ele>99.0</ele><time>2026-04-06T09:25:37.001Z</time></trkpt><trkpt lat="45.362822343647316" lon="9.320118852500677"><ele>98.0</ele><time>2026-04-06T09:25:39.001Z</time></trkpt><trkpt lat="45.362722321966245" lon="9.320159666268404"><ele>97.0</ele><time>2026-04-06T09:25:41.001Z</time></trkpt><trkpt lat="45.362625086580124" lon="9.320180645398608"><ele>96.0</ele><time>2026-04-06T09:25:43.001Z</time></trkpt><trkpt lat="45.36252469489693" lon="9.320212888603796"><ele>95.0</ele><time>2026-04-06T09:25:45.001Z</time></trkpt><trkpt lat="45.36242059946515" lon="9.320251165184871"><ele>94.0</ele><time>2026-04-06T09:25:47.001Z</time></trkpt><trkpt lat="45.36232021647151" lon="9.320273784286796"><ele>94.0</ele><time>2026-04-06T09:25:49.001Z</time></trkpt><trkpt lat="45.362214420832586" lon="9.320310727439903"><ele>94.0</ele><time>2026-04-06T09:25:51.001Z</time></trkpt><trkpt lat="45.36210697625729" lon="9.320350439381242"><ele>94.0</ele><time>2026-04-06T09:25:53.001Z</time></trkpt><trkpt lat="45.362003740843086" lon="9.32038361956161"><ele>94.0</ele><time>2026-04-06T09:25:55.001Z</time></trkpt><trkpt lat="45.361898491392495" lon="9.320407532858757"><ele>94.0</ele><time>2026-04-06T09:25:57.001Z</time></trkpt><trkpt lat="45.36179705264649" lon="9.320426516005883"><ele>93.80000000000001</ele><time>2026-04-06T09:25:59.001Z</time></trkpt><trkpt lat="45.36170029873205" lon="9.320435423925487"><ele>93.60000000000001</ele><time>2026-04-06T09:26:01.001Z</time></trkpt><trkpt lat="45.36162245233539" lon="9.320351356028839"><ele>93.4</ele><time>2026-04-06T09:26:03.001Z</time></trkpt><trkpt lat="45.36157995215659" lon="9.320216806030036"><ele>93.2</ele><time>2026-04-06T09:26:05.001Z</time></trkpt><trkpt lat="45.36152706393194" lon="9.320096467072997"><ele>93.0</ele><time>2026-04-06T09:26:07.001Z</time></trkpt><trkpt lat="45.361478834115836" lon="9.31997495132628"><ele>93.0</ele><time>2026-04-06T09:26:09.001Z</time></trkpt><trkpt lat="45.3614360244414" lon="9.319842179514765"><ele>93.0</ele><time>2026-04-06T09:26:11.001Z</time></trkpt><trkpt lat="45.36138277346749" lon="9.31972321378247"><ele>93.0</ele><time>2026-04-06T09:26:13.001Z</time></trkpt><trkpt lat="45.36133568099072" lon="9.319593299845897"><ele>93.0</ele><time>2026-04-06T09:26:15.001Z</time></trkpt><trkpt lat="45.36128771289506" lon="9.319468002200816"><ele>93.0</ele><time>2026-04-06T09:26:17.001Z</time></trkpt><trkpt lat="45.361251233854404" lon="9.31932482664903"><ele>93.0</ele><time>2026-04-06T09:26:19.001Z</time></trkpt><trkpt lat="45.361249925448924" lon="9.319172344399215"><ele>93.0</ele><time>2026-04-06T09:26:21.001Z</time></trkpt><trkpt lat="45.361200237717966" lon="9.31904001446921"><ele>93.0</ele><time>2026-04-06T09:26:23.001Z</time></trkpt><trkpt lat="45.36110495782493" lon="9.318957660829676"><ele>93.0</ele><time>2026-04-06T09:26:25.001Z</time></trkpt><trkpt lat="45.3610367135451" lon="9.318844216295322"><ele>93.0</ele><time>2026-04-06T09:26:27.001Z</time></trkpt><trkpt lat="45.3609786265919" lon="9.318715284625297"><ele>93.0</ele><time>2026-04-06T09:26:29.001Z</time></trkpt><trkpt lat="45.36092637814429" lon="9.318586112982668"><ele>93.0</ele><time>2026-04-06T09:26:31.001Z</time></trkpt><trkpt lat="45.360872349816646" lon="9.318457949209844"><ele>93.0</ele><time>2026-04-06T09:26:33.001Z</time></trkpt><trkpt lat="45.36081655397224" lon="9.318334401851057"><ele>93.0</ele><time>2026-04-06T09:26:35.001Z</time></trkpt><trkpt lat="45.360765689180994" lon="9.318207113331322"><ele>93.0</ele><time>2026-04-06T09:26:37.002Z</time></trkpt><trkpt lat="45.36071495722825" lon="9.318077694931558"><ele>93.2</ele><time>2026-04-06T09:26:39.002Z</time></trkpt><trkpt lat="45.36066065937883" lon="9.317950231104886"><ele>93.4</ele><time>2026-04-06T09:26:41.002Z</time></trkpt><trkpt lat="45.36060189712355" lon="9.31782001067344"><ele>93.60000000000001</ele><time>2026-04-06T09:26:43.002Z</time></trkpt><trkpt lat="45.36054613063091" lon="9.3176921961177"><ele>93.80000000000001</ele><time>2026-04-06T09:26:45.001Z</time></trkpt><trkpt lat="45.36049160418973" lon="9.317560143860106"><ele>94.0</ele><time>2026-04-06T09:26:47.001Z</time></trkpt><trkpt lat="45.3604371227639" lon="9.317434199598857"><ele>94.0</ele><time>2026-04-06T09:26:49.001Z</time></trkpt><trkpt lat="45.360405329223376" lon="9.317314355971861"><ele>94.0</ele><time>2026-04-06T09:26:51.001Z</time></trkpt><trkpt lat="45.36043580163378" lon="9.317224533591693"><ele>94.0</ele><time>2026-04-06T09:26:56.001Z</time></trkpt><trkpt lat="45.36052290956317" lon="9.317166528438143"><ele>94.0</ele><time>2026-04-06T09:26:59.001Z</time></trkpt><trkpt lat="45.360608862218434" lon="9.317117953862558"><ele>94.0</ele><time>2026-04-06T09:27:01.001Z</time></trkpt><trkpt lat="45.36070708187846" lon="9.31705962732982"><ele>93.80000000000001</ele><time>2026-04-06T09:27:03.001Z</time></trkpt><trkpt lat="45.36079678471318" lon="9.316980901583326"><ele>93.60000000000001</ele><time>2026-04-06T09:27:05.001Z</time></trkpt><trkpt lat="45.36088739543456" lon="9.316906756877675"><ele>93.4</ele><time>2026-04-06T09:27:07.001Z</time></trkpt><trkpt lat="45.36097616197768" lon="9.316837499104192"><ele>93.2</ele><time>2026-04-06T09:27:09.001Z</time></trkpt><trkpt lat="45.36106431325" lon="9.316772885276164"><ele>93.0</ele><time>2026-04-06T09:27:11.001Z</time></trkpt><trkpt lat="45.361148412841594" lon="9.316703749816023"><ele>93.0</ele><time>2026-04-06T09:27:13.001Z</time></trkpt><trkpt lat="45.3612247873082" lon="9.316637105405194"><ele>93.0</ele><time>2026-04-06T09:27:15.001Z</time></trkpt><trkpt lat="45.36129643307161" lon="9.316573673056011"><ele>93.0</ele><time>2026-04-06T09:27:17.001Z</time></trkpt><trkpt lat="45.361366090695036" lon="9.316523127404572"><ele>93.0</ele><time>2026-04-06T09:27:19.001Z</time></trkpt><trkpt lat="45.36144183526831" lon="9.316481327153367"><ele>93.0</ele><time>2026-04-06T09:27:21.001Z</time></trkpt><trkpt lat="45.36152546035916" lon="9.316413243612441"><ele>93.0</ele><time>2026-04-06T09:27:23.001Z</time></trkpt><trkpt lat="45.36162318079986" lon="9.316329322227576"><ele>92.80000000000001</ele><time>2026-04-06T09:27:25.001Z</time></trkpt><trkpt lat="45.361730516161" lon="9.316258200535735"><ele>92.6</ele><time>2026-04-06T09:27:27.001Z</time></trkpt><trkpt lat="45.361837142431966" lon="9.316204359168577"><ele>92.4</ele><time>2026-04-06T09:27:29.001Z</time></trkpt><trkpt lat="45.361953404896894" lon="9.316171903725865"><ele>92.19999999999999</ele><time>2026-04-06T09:27:31.001Z</time></trkpt><trkpt lat="45.36201844045165" lon="9.316152220303353"><ele>92.0</ele><time>2026-04-06T09:27:32.001Z</time></trkpt><trkpt lat="45.362081511835825" lon="9.316140947131153"><ele>92.0</ele><time>2026-04-06T09:27:33.001Z</time></trkpt><trkpt lat="45.36214584239467" lon="9.316118739077549"><ele>92.0</ele><time>2026-04-06T09:27:34.001Z</time></trkpt><trkpt lat="45.36221124992312" lon="9.316097649369615"><ele>92.0</ele><time>2026-04-06T09:27:35.001Z</time></trkpt><trkpt lat="45.36227828761624" lon="9.316079301135385"><ele>92.0</ele><time>2026-04-06T09:27:36.001Z</time></trkpt><trkpt lat="45.36234699452342" lon="9.316060821598953"><ele>92.0</ele><time>2026-04-06T09:27:37.001Z</time></trkpt><trkpt lat="45.362417574774256" lon="9.316039282417384"><ele>92.0</ele><time>2026-04-06T09:27:38.001Z</time></trkpt><trkpt lat="45.362483977058524" lon="9.316019291663627"><ele>92.0</ele><time>2026-04-06T09:27:39.001Z</time></trkpt><trkpt lat="45.362553932841045" lon="9.315999000636914"><ele>92.16666666666667</ele><time>2026-04-06T09:27:40.001Z</time></trkpt><trkpt lat="45.36264133051262" lon="9.315939753512806"><ele>92.33333333333334</ele><time>2026-04-06T09:27:42.001Z</time></trkpt><trkpt lat="45.362712373963845" lon="9.315868816685411"><ele>92.5</ele><time>2026-04-06T09:27:44.001Z</time></trkpt><trkpt lat="45.36275390353584" lon="9.315778684920856"><ele>92.66666666666667</ele><time>2026-04-06T09:27:46.001Z</time></trkpt><trkpt lat="45.36281345716461" lon="9.31567836924614"><ele>92.83333333333333</ele><time>2026-04-06T09:27:50.001Z</time></trkpt><trkpt lat="45.36280380303632" lon="9.31554277743789"><ele>93.0</ele><time>2026-04-06T09:27:52.001Z</time></trkpt><trkpt lat="45.36275268300399" lon="9.315413036962587"><ele>92.60000000000001</ele><time>2026-04-06T09:27:54.001Z</time></trkpt><trkpt lat="45.362710132891245" lon="9.315296156719484"><ele>92.2</ele><time>2026-04-06T09:27:56.001Z</time></trkpt><trkpt lat="45.36266330439462" lon="9.315183922024316"><ele>91.8</ele><time>2026-04-06T09:27:58.001Z</time></trkpt><trkpt lat="45.362639459277254" lon="9.3150510854588"><ele>91.4</ele><time>2026-04-06T09:28:00.001Z</time></trkpt><trkpt lat="45.36260497594805" lon="9.314919228175446"><ele>91.0</ele><time>2026-04-06T09:28:02.001Z</time></trkpt><trkpt lat="45.36257437983223" lon="9.314801706060825"><ele>90.66666666666666</ele><time>2026-04-06T09:28:04.001Z</time></trkpt><trkpt lat="45.362536738080244" lon="9.314694254340255"><ele>90.33333333333333</ele><time>2026-04-06T09:28:06.001Z</time></trkpt><trkpt lat="45.362501411766985" lon="9.314589739128156"><ele>90.0</ele><time>2026-04-06T09:28:08.001Z</time></trkpt><trkpt lat="45.362461191144085" lon="9.314485216968654"><ele>89.66666666666667</ele><time>2026-04-06T09:28:10.001Z</time></trkpt><trkpt lat="45.362418704546265" lon="9.314371447400761"><ele>89.33333333333334</ele><time>2026-04-06T09:28:12.001Z</time></trkpt><trkpt lat="45.36236069152609" lon="9.31425794211933"><ele>89.0</ele><time>2026-04-06T09:28:14.001Z</time></trkpt><trkpt lat="45.362300827918894" lon="9.31414662250973"><ele>89.0</ele><time>2026-04-06T09:28:16.001Z</time></trkpt><trkpt lat="45.3622405298845" lon="9.314032804800071"><ele>89.0</ele><time>2026-04-06T09:28:18.001Z</time></trkpt><trkpt lat="45.36218061069319" lon="9.313916039751492"><ele>89.0</ele><time>2026-04-06T09:28:20.001Z</time></trkpt><trkpt lat="45.36211830824421" lon="9.313798317319785"><ele>89.0</ele><time>2026-04-06T09:28:22.001Z</time></trkpt><trkpt lat="45.36204150930123" lon="9.313682991238085"><ele>89.0</ele><time>2026-04-06T09:28:24.001Z</time></trkpt><trkpt lat="45.361978784759394" lon="9.313573551064009"><ele>89.6</ele><time>2026-04-06T09:28:26.001Z</time></trkpt><trkpt lat="45.361926886843" lon="9.31345235320456"><ele>90.2</ele><time>2026-04-06T09:28:28.001Z</time></trkpt><trkpt lat="45.36188615730922" lon="9.313319820908562"><ele>90.8</ele><time>2026-04-06T09:28:30.001Z</time></trkpt><trkpt lat="45.361861309805235" lon="9.313179791424472"><ele>91.39999999999999</ele><time>2026-04-06T09:28:32.001Z</time></trkpt><trkpt lat="45.36183653983884" lon="9.313044404256186"><ele>92.0</ele><time>2026-04-06T09:28:34.001Z</time></trkpt><trkpt lat="45.361851270407655" lon="9.312908129459219"><ele>92.0</ele><time>2026-04-06T09:28:36.002Z</time></trkpt><trkpt lat="45.3618377105597" lon="9.312716148737909"><ele>92.0</ele><time>2026-04-06T09:28:38.002Z</time></trkpt><trkpt lat="45.36184218409074" lon="9.312594599127618"><ele>92.0</ele><time>2026-04-06T09:28:40.002Z</time></trkpt><trkpt lat="45.361852538228405" lon="9.312452197880285"><ele>92.0</ele><time>2026-04-06T09:28:42.002Z</time></trkpt><trkpt lat="45.36185955500859" lon="9.312302463421881"><ele>92.0</ele><time>2026-04-06T09:28:44.002Z</time></trkpt><trkpt lat="45.361861446275114" lon="9.312151029630666"><ele>92.0</ele><time>2026-04-06T09:28:46.002Z</time></trkpt><trkpt lat="45.36186131618687" lon="9.311997737121853"><ele>92.0</ele><time>2026-04-06T09:28:48.002Z</time></trkpt><trkpt lat="45.3618557697433" lon="9.311845054277383"><ele>92.0</ele><time>2026-04-06T09:28:50.002Z</time></trkpt><trkpt lat="45.3618507337064" lon="9.311698156006779"><ele>92.0</ele><time>2026-04-06T09:28:52.001Z</time></trkpt><trkpt lat="45.36185151343013" lon="9.311549669747619"><ele>92.0</ele><time>2026-04-06T09:28:54.001Z</time></trkpt><trkpt lat="45.36184491477944" lon="9.31140479559893"><ele>92.0</ele><time>2026-04-06T09:28:56.001Z</time></trkpt><trkpt lat="45.361844872915476" lon="9.311248569402645"><ele>92.0</ele><time>2026-04-06T09:28:58.001Z</time></trkpt><trkpt lat="45.36183742878638" lon="9.311092582709888"><ele>92.0</ele><time>2026-04-06T09:29:00.001Z</time></trkpt><trkpt lat="45.3618409860602" lon="9.310931127159016"><ele>92.0</ele><time>2026-04-06T09:29:02.001Z</time></trkpt><trkpt lat="45.36185798848227" lon="9.310777275001163"><ele>92.0</ele><time>2026-04-06T09:29:04.001Z</time></trkpt><trkpt lat="45.36189020254155" lon="9.310625318395294"><ele>91.8</ele><time>2026-04-06T09:29:06.001Z</time></trkpt><trkpt lat="45.36194856696964" lon="9.31049080085117"><ele>91.6</ele><time>2026-04-06T09:29:08.001Z</time></trkpt><trkpt lat="45.36200226540822" lon="9.310355073194607"><ele>91.39999999999999</ele><time>2026-04-06T09:29:10.001Z</time></trkpt><trkpt lat="45.36205490408601" lon="9.310220442357837"><ele>91.19999999999999</ele><time>2026-04-06T09:29:12.001Z</time></trkpt><trkpt lat="45.36210496468751" lon="9.31008549922922"><ele>91.0</ele><time>2026-04-06T09:29:14.001Z</time></trkpt><trkpt lat="45.36215332872213" lon="9.309938845152473"><ele>91.19999999999999</ele><time>2026-04-06T09:29:16.001Z</time></trkpt><trkpt lat="45.36221194005194" lon="9.309807960540436"><ele>91.39999999999999</ele><time>2026-04-06T09:29:18.001Z</time></trkpt><trkpt lat="45.362276503283866" lon="9.309689633506178"><ele>91.6</ele><time>2026-04-06T09:29:20.001Z</time></trkpt><trkpt lat="45.3623531051117" lon="9.309588509655276"><ele>91.8</ele><time>2026-04-06T09:29:22.001Z</time></trkpt><trkpt lat="45.36244490611497" lon="9.30950655137183"><ele>92.0</ele><time>2026-04-06T09:29:24.001Z</time></trkpt><trkpt lat="45.362541553607485" lon="9.309437921650591"><ele>92.0</ele><time>2026-04-06T09:29:26.001Z</time></trkpt><trkpt lat="45.362640440019035" lon="9.309383183363472"><ele>92.0</ele><time>2026-04-06T09:29:28.001Z</time></trkpt><trkpt lat="45.36274070915532" lon="9.309336834952335"><ele>92.0</ele><time>2026-04-06T09:29:30.001Z</time></trkpt><trkpt lat="45.362845993620134" lon="9.309288835359034"><ele>92.0</ele><time>2026-04-06T09:29:32.001Z</time></trkpt><trkpt lat="45.36295409684388" lon="9.30924340865984"><ele>92.0</ele><time>2026-04-06T09:29:34.001Z</time></trkpt><trkpt lat="45.363061120444556" lon="9.309198856598256"><ele>92.0</ele><time>2026-04-06T09:29:36.001Z</time></trkpt><trkpt lat="45.36316605568389" lon="9.309156024817545"><ele>92.0</ele><time>2026-04-06T09:29:38.001Z</time></trkpt><trkpt lat="45.36327335526683" lon="9.309096899743418"><ele>92.0</ele><time>2026-04-06T09:29:40.001Z</time></trkpt><trkpt lat="45.36335284871166" lon="9.308973130797124"><ele>92.0</ele><time>2026-04-06T09:29:42.001Z</time></trkpt><trkpt lat="45.363418411589336" lon="9.308835904996467"><ele>92.0</ele><time>2026-04-06T09:29:44.001Z</time></trkpt><trkpt lat="45.36348421533009" lon="9.308702194444587"><ele>92.0</ele><time>2026-04-06T09:29:46.001Z</time></trkpt><trkpt lat="45.3635504037053" lon="9.30856916057188"><ele>92.0</ele><time>2026-04-06T09:29:48.001Z</time></trkpt><trkpt lat="45.363612943185956" lon="9.308437274949956"><ele>92.0</ele><time>2026-04-06T09:29:50.001Z</time></trkpt><trkpt lat="45.36368329463526" lon="9.308318501626585"><ele>92.0</ele><time>2026-04-06T09:29:52.001Z</time></trkpt><trkpt lat="45.36375727673602" lon="9.308206583681049"><ele>92.0</ele><time>2026-04-06T09:29:54.001Z</time></trkpt><trkpt lat="45.36384086138648" lon="9.308115977811028"><ele>92.0</ele><time>2026-04-06T09:29:56.001Z</time></trkpt><trkpt lat="45.36392235102954" lon="9.307984367592693"><ele>92.0</ele><time>2026-04-06T09:29:58.001Z</time></trkpt><trkpt lat="45.36398674058439" lon="9.30787879747"><ele>92.0</ele><time>2026-04-06T09:30:00.001Z</time></trkpt><trkpt lat="45.364061761584246" lon="9.307772549752814"><ele>92.0</ele><time>2026-04-06T09:30:02.001Z</time></trkpt><trkpt lat="45.36415931828949" lon="9.307704729158539"><ele>92.0</ele><time>2026-04-06T09:30:04.001Z</time></trkpt><trkpt lat="45.36425511415381" lon="9.307635663117464"><ele>92.0</ele><time>2026-04-06T09:30:06.001Z</time></trkpt><trkpt lat="45.36434929589218" lon="9.307557134019573"><ele>92.0</ele><time>2026-04-06T09:30:08.001Z</time></trkpt><trkpt lat="45.364448035526515" lon="9.307492341640804"><ele>92.0</ele><time>2026-04-06T09:30:10.001Z</time></trkpt><trkpt lat="45.36454400031508" lon="9.307417305910157"><ele>92.0</ele><time>2026-04-06T09:30:12.001Z</time></trkpt><trkpt lat="45.364636802529276" lon="9.307336030599744"><ele>92.0</ele><time>2026-04-06T09:30:14.001Z</time></trkpt><trkpt lat="45.364722480589286" lon="9.307242337369575"><ele>92.0</ele><time>2026-04-06T09:30:16.001Z</time></trkpt><trkpt lat="45.36480221474347" lon="9.307142952957431"><ele>92.0</ele><time>2026-04-06T09:30:18.001Z</time></trkpt><trkpt lat="45.364877283437636" lon="9.307039392177249"><ele>92.0</ele><time>2026-04-06T09:30:20.001Z</time></trkpt><trkpt lat="45.36495713411356" lon="9.306945402177245"><ele>91.6</ele><time>2026-04-06T09:30:22.001Z</time></trkpt><trkpt lat="45.36503517751695" lon="9.306849348306416"><ele>91.19999999999999</ele><time>2026-04-06T09:30:24.001Z</time></trkpt><trkpt lat="45.36511075527989" lon="9.306751929880491"><ele>90.8</ele><time>2026-04-06T09:30:26.001Z</time></trkpt><trkpt lat="45.36518652768236" lon="9.306654046437622"><ele>90.4</ele><time>2026-04-06T09:30:28.001Z</time></trkpt><trkpt lat="45.36526480879505" lon="9.306562472732297"><ele>90.0</ele><time>2026-04-06T09:30:30.001Z</time></trkpt><trkpt lat="45.36533215571248" lon="9.306459257107905"><ele>90.0</ele><time>2026-04-06T09:30:32.001Z</time></trkpt><trkpt lat="45.36539844167558" lon="9.306360681180454"><ele>90.0</ele><time>2026-04-06T09:30:34.001Z</time></trkpt><trkpt lat="45.365457454228704" lon="9.306253172925276"><ele>90.0</ele><time>2026-04-06T09:30:36.001Z</time></trkpt><trkpt lat="45.3655160590865" lon="9.30615014541614"><ele>90.0</ele><time>2026-04-06T09:30:38.001Z</time></trkpt><trkpt lat="45.36557058114872" lon="9.306042277863659"><ele>90.0</ele><time>2026-04-06T09:30:40.001Z</time></trkpt><trkpt lat="45.365625690947425" lon="9.305930342194323"><ele>90.0</ele><time>2026-04-06T09:30:42.001Z</time></trkpt><trkpt lat="45.36568382064592" lon="9.305828139045868"><ele>90.0</ele><time>2026-04-06T09:30:44.001Z</time></trkpt><trkpt lat="45.3657383103468" lon="9.305717557547815"><ele>90.0</ele><time>2026-04-06T09:30:46.001Z</time></trkpt><trkpt lat="45.36578789494559" lon="9.305604581302427"><ele>90.0</ele><time>2026-04-06T09:30:48.001Z</time></trkpt><trkpt lat="45.36584154395547" lon="9.305494897184367"><ele>90.0</ele><time>2026-04-06T09:30:50.001Z</time></trkpt><trkpt lat="45.36589390377838" lon="9.305383918996112"><ele>90.0</ele><time>2026-04-06T09:30:52.002Z</time></trkpt><trkpt lat="45.36594077906401" lon="9.30526786648548"><ele>90.0</ele><time>2026-04-06T09:30:54.002Z</time></trkpt><trkpt lat="45.36599237424572" lon="9.305156464222268"><ele>90.0</ele><time>2026-04-06T09:30:56.002Z</time></trkpt><trkpt lat="45.366042173127525" lon="9.30503916004567"><ele>90.0</ele><time>2026-04-06T09:30:58.001Z</time></trkpt><trkpt lat="45.366088736181744" lon="9.30492728928057"><ele>90.0</ele><time>2026-04-06T09:31:00.001Z</time></trkpt><trkpt lat="45.366135435665385" lon="9.304813607468253"><ele>90.6</ele><time>2026-04-06T09:31:02.001Z</time></trkpt><trkpt lat="45.36617447296348" lon="9.304693313482414"><ele>91.2</ele><time>2026-04-06T09:31:04.001Z</time></trkpt><trkpt lat="45.36621563821752" lon="9.304569297112693"><ele>91.80000000000001</ele><time>2026-04-06T09:31:06.001Z</time></trkpt><trkpt lat="45.36625527885759" lon="9.304441286557559"><ele>92.4</ele><time>2026-04-06T09:31:08.001Z</time></trkpt><trkpt lat="45.366297119899066" lon="9.304315053903652"><ele>93.0</ele><time>2026-04-06T09:31:10.001Z</time></trkpt><trkpt lat="45.366328847293545" lon="9.30418148692843"><ele>93.0</ele><time>2026-04-06T09:31:12.001Z</time></trkpt><trkpt lat="45.36636509134226" lon="9.30405012532343"><ele>93.0</ele><time>2026-04-06T09:31:14.001Z</time></trkpt><trkpt lat="45.36640785277728" lon="9.303915037213649"><ele>93.0</ele><time>2026-04-06T09:31:16.001Z</time></trkpt><trkpt lat="45.366454876515675" lon="9.303785403827861"><ele>93.0</ele><time>2026-04-06T09:31:18.001Z</time></trkpt><trkpt lat="45.36651104624999" lon="9.30366915157404"><ele>93.0</ele><time>2026-04-06T09:31:20.001Z</time></trkpt><trkpt lat="45.36657794752225" lon="9.30356133066266"><ele>93.0</ele><time>2026-04-06T09:31:22.001Z</time></trkpt><trkpt lat="45.36665528428556" lon="9.303465130324449"><ele>93.0</ele><time>2026-04-06T09:31:24.001Z</time></trkpt><trkpt lat="45.366730225965114" lon="9.303363149426804"><ele>93.0</ele><time>2026-04-06T09:31:26.001Z</time></trkpt><trkpt lat="45.36679689754412" lon="9.303256272543662"><ele>93.0</ele><time>2026-04-06T09:31:28.001Z</time></trkpt><trkpt lat="45.36685229116494" lon="9.303133634160915"><ele>93.0</ele><time>2026-04-06T09:31:30.001Z</time></trkpt><trkpt lat="45.36690326924015" lon="9.303010872086814"><ele>92.60000000000001</ele><time>2026-04-06T09:31:32.001Z</time></trkpt><trkpt lat="45.3669496491625" lon="9.30288898952965"><ele>92.2</ele><time>2026-04-06T09:31:34.001Z</time></trkpt><trkpt lat="45.36700053645582" lon="9.30276207384142"><ele>91.8</ele><time>2026-04-06T09:31:36.001Z</time></trkpt><trkpt lat="45.36705540810242" lon="9.302641491474631"><ele>91.4</ele><time>2026-04-06T09:31:38.001Z</time></trkpt><trkpt lat="45.367115851130364" lon="9.302533567636166"><ele>91.0</ele><time>2026-04-06T09:31:40.001Z</time></trkpt><trkpt lat="45.36717522224083" lon="9.302418114121641"><ele>91.0</ele><time>2026-04-06T09:31:42.001Z</time></trkpt><trkpt lat="45.367230156506615" lon="9.302325991354282"><ele>91.0</ele><time>2026-04-06T09:31:44.001Z</time></trkpt><trkpt lat="45.36729533981906" lon="9.302195386651034"><ele>91.0</ele><time>2026-04-06T09:31:46.001Z</time></trkpt><trkpt lat="45.36736132903351" lon="9.302088488182822"><ele>91.0</ele><time>2026-04-06T09:31:48.001Z</time></trkpt><trkpt lat="45.36742523118403" lon="9.301969164456361"><ele>91.0</ele><time>2026-04-06T09:31:50.001Z</time></trkpt><trkpt lat="45.36747398216041" lon="9.301845321746141"><ele>91.0</ele><time>2026-04-06T09:31:52.001Z</time></trkpt><trkpt lat="45.36754686285608" lon="9.301739293673768"><ele>91.0</ele><time>2026-04-06T09:31:54.001Z</time></trkpt><trkpt lat="45.36760301373854" lon="9.301618517927869"><ele>91.0</ele><time>2026-04-06T09:31:56.001Z</time></trkpt><trkpt lat="45.367665043596155" lon="9.301509605541966"><ele>91.0</ele><time>2026-04-06T09:31:58.001Z</time></trkpt><trkpt lat="45.36773950491531" lon="9.301406846605827"><ele>91.0</ele><time>2026-04-06T09:32:00.001Z</time></trkpt><trkpt lat="45.367817227407045" lon="9.301316966739023"><ele>91.19999999999999</ele><time>2026-04-06T09:32:02.001Z</time></trkpt><trkpt lat="45.36790811664654" lon="9.301248923738981"><ele>91.39999999999999</ele><time>2026-04-06T09:32:04.001Z</time></trkpt><trkpt lat="45.36800266942996" lon="9.301200183628021"><ele>91.6</ele><time>2026-04-06T09:32:06.001Z</time></trkpt><trkpt lat="45.36809733145172" lon="9.301157961248071"><ele>91.8</ele><time>2026-04-06T09:32:08.001Z</time></trkpt><trkpt lat="45.36818596954438" lon="9.301107775040068"><ele>92.0</ele><time>2026-04-06T09:32:10.001Z</time></trkpt><trkpt lat="45.36827930337308" lon="9.301057208284233"><ele>92.6</ele><time>2026-04-06T09:32:12.001Z</time></trkpt><trkpt lat="45.368372133547325" lon="9.301008029746724"><ele>93.19999999999999</ele><time>2026-04-06T09:32:14.001Z</time></trkpt><trkpt lat="45.36846392369438" lon="9.30096450247704"><ele>93.8</ele><time>2026-04-06T09:32:16.001Z</time></trkpt><trkpt lat="45.36855092018745" lon="9.300912265534047"><ele>94.4</ele><time>2026-04-06T09:32:18.001Z</time></trkpt><trkpt lat="45.36863201460382" lon="9.300864774396368"><ele>95.0</ele><time>2026-04-06T09:32:20.001Z</time></trkpt><trkpt lat="45.36870844326032" lon="9.300813904325006"><ele>95.0</ele><time>2026-04-06T09:32:22.001Z</time></trkpt><trkpt lat="45.36878605330816" lon="9.300766051397623"><ele>95.0</ele><time>2026-04-06T09:32:24.001Z</time></trkpt><trkpt lat="45.36887266961337" lon="9.300715833469502"><ele>95.0</ele><time>2026-04-06T09:32:26.001Z</time></trkpt><trkpt lat="45.36894804281194" lon="9.300657005237367"><ele>95.0</ele><time>2026-04-06T09:32:28.001Z</time></trkpt><trkpt lat="45.369011955656674" lon="9.300590905662398"><ele>95.0</ele><time>2026-04-06T09:32:30.001Z</time></trkpt><trkpt lat="45.369068798156405" lon="9.300530815523835"><ele>95.0</ele><time>2026-04-06T09:32:32.001Z</time></trkpt><trkpt lat="45.369135081879485" lon="9.300421440147618"><ele>94.5</ele><time>2026-04-06T09:32:35.001Z</time></trkpt><trkpt lat="45.369179255607584" lon="9.30034982842387"><ele>94.0</ele><time>2026-04-06T09:32:37.001Z</time></trkpt><trkpt lat="45.36922913058507" lon="9.300284362976527"><ele>93.5</ele><time>2026-04-06T09:32:39.001Z</time></trkpt><trkpt lat="45.36928380072515" lon="9.30022304655465"><ele>93.0</ele><time>2026-04-06T09:32:41.001Z</time></trkpt><trkpt lat="45.36932598249152" lon="9.300128890427107"><ele>92.5</ele><time>2026-04-06T09:32:43.001Z</time></trkpt><trkpt lat="45.369373969040794" lon="9.300039389477789"><ele>92.0</ele><time>2026-04-06T09:32:46.001Z</time></trkpt><trkpt lat="45.36945445195668" lon="9.299947338759843"><ele>92.0</ele><time>2026-04-06T09:32:48.001Z</time></trkpt><trkpt lat="45.369492412017266" lon="9.299839263825021"><ele>92.0</ele><time>2026-04-06T09:32:50.001Z</time></trkpt><trkpt lat="45.36954510754793" lon="9.299726807041582"><ele>92.0</ele><time>2026-04-06T09:32:52.001Z</time></trkpt><trkpt lat="45.369609403091346" lon="9.299623361897156"><ele>92.0</ele><time>2026-04-06T09:32:54.001Z</time></trkpt><trkpt lat="45.36965084503378" lon="9.299514423712354"><ele>92.0</ele><time>2026-04-06T09:32:56.001Z</time></trkpt><trkpt lat="45.36970434906368" lon="9.29941658890435"><ele>92.0</ele><time>2026-04-06T09:32:58.001Z</time></trkpt><trkpt lat="45.36974954833551" lon="9.299309214601502"><ele>92.0</ele><time>2026-04-06T09:33:00.001Z</time></trkpt><trkpt lat="45.36977089836676" lon="9.299194583316815"><ele>92.0</ele><time>2026-04-06T09:33:02.001Z</time></trkpt><trkpt lat="45.36979059014066" lon="9.299090298959008"><ele>92.0</ele><time>2026-04-06T09:33:04.001Z</time></trkpt><trkpt lat="45.3698236798405" lon="9.298996606594992"><ele>92.0</ele><time>2026-04-06T09:33:06.001Z</time></trkpt><trkpt lat="45.369843206802955" lon="9.298904714244077"><ele>92.0</ele><time>2026-04-06T09:33:08.001Z</time></trkpt><trkpt lat="45.369874655540784" lon="9.298814280294007"><ele>92.0</ele><time>2026-04-06T09:33:10Z</time></trkpt><trkpt lat="45.36991155487327" lon="9.298711660583036"><ele>92.0</ele><time>2026-04-06T09:33:12Z</time></trkpt><trkpt lat="45.36993109312192" lon="9.298610574983236"><ele>92.0</ele><time>2026-04-06T09:33:14Z</time></trkpt><trkpt lat="45.36993841684625" lon="9.298520096954471"><ele>92.0</ele><time>2026-04-06T09:33:16Z</time></trkpt><trkpt lat="45.36996960175402" lon="9.298399397386657"><ele>92.0</ele><time>2026-04-06T09:33:19Z</time></trkpt><trkpt lat="45.369991675158445" lon="9.2982757937906"><ele>92.0</ele><time>2026-04-06T09:33:22Z</time></trkpt><trkpt lat="45.370028907247736" lon="9.29814741042809"><ele>92.0</ele><time>2026-04-06T09:33:25Z</time></trkpt><trkpt lat="45.37004690929752" lon="9.298036922261762"><ele>92.0</ele><time>2026-04-06T09:33:27Z</time></trkpt><trkpt lat="45.37005672093923" lon="9.297918550869493"><ele>92.0</ele><time>2026-04-06T09:33:29Z</time></trkpt><trkpt lat="45.370066190579834" lon="9.297792094252124"><ele>92.0</ele><time>2026-04-06T09:33:31Z</time></trkpt><trkpt lat="45.37007698150928" lon="9.297661950060569"><ele>92.0</ele><time>2026-04-06T09:33:33Z</time></trkpt><trkpt lat="45.37008796164245" lon="9.297536749290071"><ele>92.0</ele><time>2026-04-06T09:33:35Z</time></trkpt><trkpt lat="45.37010181322613" lon="9.297412271844715"><ele>92.0</ele><time>2026-04-06T09:33:37Z</time></trkpt><trkpt lat="45.37011032055397" lon="9.297276552635186"><ele>92.0</ele><time>2026-04-06T09:33:39Z</time></trkpt><trkpt lat="45.37012344984786" lon="9.297163649945903"><ele>92.0</ele><time>2026-04-06T09:33:41Z</time></trkpt><trkpt lat="45.37013575692851" lon="9.297060658728375"><ele>92.0</ele><time>2026-04-06T09:33:43Z</time></trkpt><trkpt lat="45.37015032689115" lon="9.296962492512948"><ele>92.0</ele><time>2026-04-06T09:33:45Z</time></trkpt><trkpt lat="45.37015789377152" lon="9.29685344808983"><ele>92.0</ele><time>2026-04-06T09:33:47Z</time></trkpt><trkpt lat="45.37016278941285" lon="9.296750033241555"><ele>92.0</ele><time>2026-04-06T09:33:49.001Z</time></trkpt><trkpt lat="45.37016087590116" lon="9.296646871843027"><ele>92.0</ele><time>2026-04-06T09:33:51.001Z</time></trkpt><trkpt lat="45.37015287631135" lon="9.296549372202938"><ele>92.0</ele><time>2026-04-06T09:33:53.001Z</time></trkpt><trkpt lat="45.37014487929734" lon="9.29644107899959"><ele>92.0</ele><time>2026-04-06T09:33:55.001Z</time></trkpt><trkpt lat="45.3701324701787" lon="9.296337263457655"><ele>92.0</ele><time>2026-04-06T09:33:57.001Z</time></trkpt><trkpt lat="45.37012014036697" lon="9.296188788457862"><ele>92.0</ele><time>2026-04-06T09:34:00.001Z</time></trkpt><trkpt lat="45.37011310917887" lon="9.296073237604677"><ele>92.16666666666667</ele><time>2026-04-06T09:34:02.001Z</time></trkpt><trkpt lat="45.37010442491632" lon="9.29595726564076"><ele>92.33333333333334</ele><time>2026-04-06T09:34:04.001Z</time></trkpt><trkpt lat="45.370104698467046" lon="9.295830268123659"><ele>92.5</ele><time>2026-04-06T09:34:06.001Z</time></trkpt><trkpt lat="45.37009573191615" lon="9.29572286615033"><ele>92.66666666666667</ele><time>2026-04-06T09:34:08.001Z</time></trkpt><trkpt lat="45.37008420041701" lon="9.295618058431403"><ele>92.83333333333333</ele><time>2026-04-06T09:34:10.001Z</time></trkpt><trkpt lat="45.37007580422069" lon="9.295503564481791"><ele>93.0</ele><time>2026-04-06T09:34:12.001Z</time></trkpt><trkpt lat="45.37007031828208" lon="9.295386637035017"><ele>93.16666666666667</ele><time>2026-04-06T09:34:14.001Z</time></trkpt><trkpt lat="45.370066854762015" lon="9.295279360566472"><ele>93.33333333333333</ele><time>2026-04-06T09:34:16.001Z</time></trkpt><trkpt lat="45.37005874764283" lon="9.29516385040765"><ele>93.5</ele><time>2026-04-06T09:34:18.001Z</time></trkpt><trkpt lat="45.370055169506976" lon="9.295049026103158"><ele>93.66666666666666</ele><time>2026-04-06T09:34:20.001Z</time></trkpt><trkpt lat="45.370049685316985" lon="9.294947914309123"><ele>93.83333333333333</ele><time>2026-04-06T09:34:22.001Z</time></trkpt><trkpt lat="45.37004514777765" lon="9.294840232801798"><ele>94.0</ele><time>2026-04-06T09:34:24.001Z</time></trkpt><trkpt lat="45.370037962670494" lon="9.294737144644"><ele>93.66666666666666</ele><time>2026-04-06T09:34:26.001Z</time></trkpt><trkpt lat="45.37003117879862" lon="9.294628377403713"><ele>93.33333333333333</ele><time>2026-04-06T09:34:28.001Z</time></trkpt><trkpt lat="45.370022975179424" lon="9.294510351694656"><ele>93.0</ele><time>2026-04-06T09:34:30.001Z</time></trkpt><trkpt lat="45.37001661476506" lon="9.294380210702966"><ele>92.66666666666667</ele><time>2026-04-06T09:34:32.001Z</time></trkpt><trkpt lat="45.3700075114821" lon="9.294252054016168"><ele>92.33333333333334</ele><time>2026-04-06T09:34:34.001Z</time></trkpt><trkpt lat="45.37000071398656" lon="9.29411959900654"><ele>92.0</ele><time>2026-04-06T09:34:36.001Z</time></trkpt><trkpt lat="45.36999066242998" lon="9.29399091356538"><ele>92.0</ele><time>2026-04-06T09:34:38.001Z</time></trkpt><trkpt lat="45.36997661125239" lon="9.293843842550032"><ele>92.0</ele><time>2026-04-06T09:34:40.001Z</time></trkpt><trkpt lat="45.36996375954703" lon="9.293706526399896"><ele>92.0</ele><time>2026-04-06T09:34:42.001Z</time></trkpt><trkpt lat="45.36995728689085" lon="9.293568455686984"><ele>92.0</ele><time>2026-04-06T09:34:44.001Z</time></trkpt><trkpt lat="45.36994770800587" lon="9.293431979088421"><ele>92.0</ele><time>2026-04-06T09:34:46.001Z</time></trkpt><trkpt lat="45.36993837916882" lon="9.293297123715382"><ele>92.0</ele><time>2026-04-06T09:34:48.001Z</time></trkpt><trkpt lat="45.36993354478325" lon="9.293166490687103"><ele>92.0</ele><time>2026-04-06T09:34:50.001Z</time></trkpt><trkpt lat="45.369920406796055" lon="9.29303709389716"><ele>92.0</ele><time>2026-04-06T09:34:52.001Z</time></trkpt><trkpt lat="45.369910891187956" lon="9.292905208305053"><ele>92.0</ele><time>2026-04-06T09:34:54.001Z</time></trkpt><trkpt lat="45.3699030971535" lon="9.292772949980122"><ele>92.0</ele><time>2026-04-06T09:34:56.001Z</time></trkpt><trkpt lat="45.36989960684072" lon="9.292641191265922"><ele>91.8</ele><time>2026-04-06T09:34:58.001Z</time></trkpt><trkpt lat="45.369886231073444" lon="9.292514841450355"><ele>91.6</ele><time>2026-04-06T09:35:00.001Z</time></trkpt><trkpt lat="45.36987511134377" lon="9.292387041855127"><ele>91.39999999999999</ele><time>2026-04-06T09:35:02.001Z</time></trkpt><trkpt lat="45.36987238746153" lon="9.292255892650813"><ele>91.19999999999999</ele><time>2026-04-06T09:35:04.001Z</time></trkpt><trkpt lat="45.36986562116386" lon="9.29212588991491"><ele>91.0</ele><time>2026-04-06T09:35:06.001Z</time></trkpt><trkpt lat="45.36985281093022" lon="9.291996561798586"><ele>91.0</ele><time>2026-04-06T09:35:08.001Z</time></trkpt><trkpt lat="45.36984637155569" lon="9.291867923769143"><ele>91.0</ele><time>2026-04-06T09:35:10Z</time></trkpt><trkpt lat="45.36983893016002" lon="9.291740390951464"><ele>91.0</ele><time>2026-04-06T09:35:12Z</time></trkpt><trkpt lat="45.36982987587845" lon="9.291616115894534"><ele>91.0</ele><time>2026-04-06T09:35:14Z</time></trkpt><trkpt lat="45.36982607100713" lon="9.291491041673597"><ele>91.0</ele><time>2026-04-06T09:35:16Z</time></trkpt><trkpt lat="45.3698131754741" lon="9.291366031112721"><ele>91.0</ele><time>2026-04-06T09:35:18Z</time></trkpt><trkpt lat="45.36980855285177" lon="9.291241726558626"><ele>91.0</ele><time>2026-04-06T09:35:20Z</time></trkpt><trkpt lat="45.369796711658026" lon="9.291131318620929"><ele>91.0</ele><time>2026-04-06T09:35:22Z</time></trkpt><trkpt lat="45.36978891430777" lon="9.291002713291599"><ele>91.0</ele><time>2026-04-06T09:35:24Z</time></trkpt><trkpt lat="45.3697795507701" lon="9.290878303549123"><ele>91.0</ele><time>2026-04-06T09:35:26Z</time></trkpt><trkpt lat="45.36977487207334" lon="9.29074883994206"><ele>91.0</ele><time>2026-04-06T09:35:28Z</time></trkpt><trkpt lat="45.36976320328208" lon="9.290620655820808"><ele>91.0</ele><time>2026-04-06T09:35:30Z</time></trkpt><trkpt lat="45.36975732060771" lon="9.29049819234511"><ele>91.33333333333333</ele><time>2026-04-06T09:35:32Z</time></trkpt><trkpt lat="45.3697515122392" lon="9.290386853975546"><ele>91.66666666666666</ele><time>2026-04-06T09:35:34Z</time></trkpt><trkpt lat="45.36975194269147" lon="9.290282847468609"><ele>92.0</ele><time>2026-04-06T09:35:36Z</time></trkpt><trkpt lat="45.369746884350945" lon="9.29016814989446"><ele>92.33333333333333</ele><time>2026-04-06T09:35:38Z</time></trkpt><trkpt lat="45.369740378764334" lon="9.290049367547356"><ele>92.66666666666667</ele><time>2026-04-06T09:35:40Z</time></trkpt><trkpt lat="45.36973077379482" lon="9.289933044114694"><ele>93.0</ele><time>2026-04-06T09:35:42Z</time></trkpt><trkpt lat="45.36972567888069" lon="9.289815870263519"><ele>92.60000000000001</ele><time>2026-04-06T09:35:44Z</time></trkpt><trkpt lat="45.36972449686315" lon="9.289703603330576"><ele>92.2</ele><time>2026-04-06T09:35:46Z</time></trkpt><trkpt lat="45.3697399585127" lon="9.28959425916864"><ele>91.8</ele><time>2026-04-06T09:35:48Z</time></trkpt><trkpt lat="45.36983183939862" lon="9.289540195280582"><ele>91.4</ele><time>2026-04-06T09:35:50Z</time></trkpt><trkpt lat="45.36993435974435" lon="9.289499472915429"><ele>91.0</ele><time>2026-04-06T09:35:52Z</time></trkpt><trkpt lat="45.370034130926726" lon="9.289448592449082"><ele>91.0</ele><time>2026-04-06T09:35:54Z</time></trkpt><trkpt lat="45.3701347373724" lon="9.289398248900198"><ele>91.0</ele><time>2026-04-06T09:35:56Z</time></trkpt><trkpt lat="45.370231847737855" lon="9.289352777896642"><ele>91.0</ele><time>2026-04-06T09:35:58Z</time></trkpt><trkpt lat="45.37032995572474" lon="9.28929609796187"><ele>91.0</ele><time>2026-04-06T09:36:00Z</time></trkpt><trkpt lat="45.37042749832818" lon="9.28923107208948"><ele>91.0</ele><time>2026-04-06T09:36:02Z</time></trkpt><trkpt lat="45.37049773003781" lon="9.289116593991613"><ele>91.0</ele><time>2026-04-06T09:36:04Z</time></trkpt><trkpt lat="45.37049564183727" lon="9.288959835831717"><ele>91.0</ele><time>2026-04-06T09:36:06Z</time></trkpt><trkpt lat="45.37042080936321" lon="9.288831693113991"><ele>91.0</ele><time>2026-04-06T09:36:08Z</time></trkpt><trkpt lat="45.37036227624864" lon="9.288713723224122"><ele>91.0</ele><time>2026-04-06T09:36:10Z</time></trkpt><trkpt lat="45.37028843763741" lon="9.288564045749517"><ele>91.33333333333333</ele><time>2026-04-06T09:36:12Z</time></trkpt><trkpt lat="45.37023679588974" lon="9.28848607180203"><ele>91.66666666666666</ele><time>2026-04-06T09:36:14Z</time></trkpt><trkpt lat="45.37014771176352" lon="9.288414836976914"><ele>92.0</ele><time>2026-04-06T09:36:16Z</time></trkpt><trkpt lat="45.37006335598708" lon="9.288344830458069"><ele>92.33333333333333</ele><time>2026-04-06T09:36:18Z</time></trkpt><trkpt lat="45.37000278419175" lon="9.288261394210819"><ele>92.66666666666667</ele><time>2026-04-06T09:36:20Z</time></trkpt><trkpt lat="45.36994976598526" lon="9.288178223388812"><ele>93.0</ele><time>2026-04-06T09:36:22Z</time></trkpt><trkpt lat="45.36989408990069" lon="9.288079361723415"><ele>93.0</ele><time>2026-04-06T09:36:25.001Z</time></trkpt><trkpt lat="45.36983583620995" lon="9.287976000837325"><ele>93.0</ele><time>2026-04-06T09:36:28.001Z</time></trkpt><trkpt lat="45.36976858190698" lon="9.287885949273436"><ele>93.0</ele><time>2026-04-06T09:36:31.001Z</time></trkpt><trkpt lat="45.36971982199733" lon="9.28780477455229"><ele>93.0</ele><time>2026-04-06T09:36:34.001Z</time></trkpt><trkpt lat="45.36968035110407" lon="9.28772552141644"><ele>93.0</ele><time>2026-04-06T09:36:36.001Z</time></trkpt><trkpt lat="45.36963359641028" lon="9.287640805907879"><ele>93.0</ele><time>2026-04-06T09:36:39.001Z</time></trkpt><trkpt lat="45.369589020557484" lon="9.287558929332256"><ele>93.0</ele><time>2026-04-06T09:36:42.001Z</time></trkpt><trkpt lat="45.36953627574081" lon="9.287478793217373"><ele>93.0</ele><time>2026-04-06T09:36:45.001Z</time></trkpt><trkpt lat="45.369492519967224" lon="9.287389444807568"><ele>93.0</ele><time>2026-04-06T09:36:48.001Z</time></trkpt><trkpt lat="45.369441047315156" lon="9.287312746578985"><ele>93.0</ele><time>2026-04-06T09:36:51.001Z</time></trkpt><trkpt lat="45.36940042750557" lon="9.287225278602591"><ele>93.0</ele><time>2026-04-06T09:36:54.001Z</time></trkpt><trkpt lat="45.369344847574695" lon="9.287147994992964"><ele>93.0</ele><time>2026-04-06T09:36:57.001Z</time></trkpt><trkpt lat="45.369299076115325" lon="9.287061710232926"><ele>93.0</ele><time>2026-04-06T09:37:00.001Z</time></trkpt><trkpt lat="45.369253330802856" lon="9.286974544638156"><ele>93.0</ele><time>2026-04-06T09:37:03.001Z</time></trkpt><trkpt lat="45.369199486431775" lon="9.286891681333287"><ele>93.0</ele><time>2026-04-06T09:37:06.001Z</time></trkpt><trkpt lat="45.369142540755995" lon="9.286797586952865"><ele>93.0</ele><time>2026-04-06T09:37:09.001Z</time></trkpt><trkpt lat="45.36909428797024" lon="9.286716373303296"><ele>93.0</ele><time>2026-04-06T09:37:11.001Z</time></trkpt><trkpt lat="45.369045691179636" lon="9.286631382241055"><ele>93.0</ele><time>2026-04-06T09:37:13.001Z</time></trkpt><trkpt lat="45.368989029073006" lon="9.286530713718365"><ele>93.0</ele><time>2026-04-06T09:37:15Z</time></trkpt><trkpt lat="45.36893017127583" lon="9.286432034595137"><ele>93.0</ele><time>2026-04-06T09:37:17Z</time></trkpt><trkpt lat="45.368861237922886" lon="9.28632564417868"><ele>93.0</ele><time>2026-04-06T09:37:19Z</time></trkpt><trkpt lat="45.368798384431315" lon="9.286230160937631"><ele>93.0</ele><time>2026-04-06T09:37:21Z</time></trkpt><trkpt lat="45.368723344522984" lon="9.286130212597675"><ele>93.0</ele><time>2026-04-06T09:37:23Z</time></trkpt><trkpt lat="45.36864040560879" lon="9.286012755575365"><ele>93.0</ele><time>2026-04-06T09:37:25Z</time></trkpt><trkpt lat="45.36854481907267" lon="9.285896845181908"><ele>93.0</ele><time>2026-04-06T09:37:27Z</time></trkpt><trkpt lat="45.36849482092548" lon="9.285841367351996"><ele>93.0</ele><time>2026-04-06T09:37:28Z</time></trkpt><trkpt lat="45.36844191166457" lon="9.285784865831102"><ele>93.0</ele><time>2026-04-06T09:37:29Z</time></trkpt><trkpt lat="45.36837800652668" lon="9.285687988679628"><ele>93.0</ele><time>2026-04-06T09:37:30Z</time></trkpt><trkpt lat="45.368276390984896" lon="9.285582782876144"><ele>92.66666666666667</ele><time>2026-04-06T09:37:32Z</time></trkpt><trkpt lat="45.368219971559704" lon="9.285515845163935"><ele>92.33333333333333</ele><time>2026-04-06T09:37:33Z</time></trkpt><trkpt lat="45.36816143223563" lon="9.285443859293219"><ele>92.0</ele><time>2026-04-06T09:37:34Z</time></trkpt><trkpt lat="45.368101755563636" lon="9.285368004472849"><ele>91.66666666666666</ele><time>2026-04-06T09:37:35Z</time></trkpt><trkpt lat="45.368048880473744" lon="9.285288471286735"><ele>91.33333333333333</ele><time>2026-04-06T09:37:36Z</time></trkpt><trkpt lat="45.36800585745463" lon="9.285204644682533"><ele>91.0</ele><time>2026-04-06T09:37:37Z</time></trkpt><trkpt lat="45.36799069869855" lon="9.285103365065199"><ele>91.0</ele><time>2026-04-06T09:37:38Z</time></trkpt><trkpt lat="45.368002933089755" lon="9.28498784284614"><ele>91.0</ele><time>2026-04-06T09:37:39Z</time></trkpt><trkpt lat="45.36803401322321" lon="9.284885215237047"><ele>91.0</ele><time>2026-04-06T09:37:40Z</time></trkpt><trkpt lat="45.3680814349238" lon="9.284805925710957"><ele>91.0</ele><time>2026-04-06T09:37:41Z</time></trkpt><trkpt lat="45.36812863010946" lon="9.284740671321154"><ele>91.0</ele><time>2026-04-06T09:37:42Z</time></trkpt><trkpt lat="45.36823375711576" lon="9.284643525997351"><ele>91.0</ele><time>2026-04-06T09:37:44Z</time></trkpt><trkpt lat="45.36833937517855" lon="9.284563807366329"><ele>91.0</ele><time>2026-04-06T09:37:46Z</time></trkpt><trkpt lat="45.368429401033524" lon="9.284490270704444"><ele>91.0</ele><time>2026-04-06T09:37:48Z</time></trkpt><trkpt lat="45.368520228134486" lon="9.28442398168696"><ele>91.0</ele><time>2026-04-06T09:37:50Z</time></trkpt><trkpt lat="45.36860974373033" lon="9.284358685750535"><ele>91.0</ele><time>2026-04-06T09:37:52Z</time></trkpt><trkpt lat="45.368696634893666" lon="9.284293113825449"><ele>91.0</ele><time>2026-04-06T09:37:54Z</time></trkpt><trkpt lat="45.36878324695246" lon="9.284229802882288"><ele>91.19999999999999</ele><time>2026-04-06T09:37:56Z</time></trkpt><trkpt lat="45.36886662599783" lon="9.284163871012245"><ele>91.39999999999999</ele><time>2026-04-06T09:37:58Z</time></trkpt><trkpt lat="45.368949302136095" lon="9.284104994869043"><ele>91.6</ele><time>2026-04-06T09:38:00Z</time></trkpt><trkpt lat="45.369032481636864" lon="9.284037038843994"><ele>91.8</ele><time>2026-04-06T09:38:02Z</time></trkpt><trkpt lat="45.36911516840277" lon="9.283973119610106"><ele>92.0</ele><time>2026-04-06T09:38:04Z</time></trkpt><trkpt lat="45.36919751346796" lon="9.283910217724673"><ele>92.0</ele><time>2026-04-06T09:38:06Z</time></trkpt><trkpt lat="45.3692818547914" lon="9.28384810661272"><ele>92.0</ele><time>2026-04-06T09:38:08Z</time></trkpt><trkpt lat="45.36936991572636" lon="9.283783993547837"><ele>92.0</ele><time>2026-04-06T09:38:10Z</time></trkpt><trkpt lat="45.36945828973507" lon="9.28371420406104"><ele>92.0</ele><time>2026-04-06T09:38:12Z</time></trkpt><trkpt lat="45.369549702163404" lon="9.28364680634055"><ele>92.0</ele><time>2026-04-06T09:38:14Z</time></trkpt><trkpt lat="45.369636960110746" lon="9.283579319579715"><ele>91.8</ele><time>2026-04-06T09:38:16Z</time></trkpt><trkpt lat="45.36971300261542" lon="9.283525840231245"><ele>91.6</ele><time>2026-04-06T09:38:18Z</time></trkpt><trkpt lat="45.369788691721425" lon="9.28346072820214"><ele>91.39999999999999</ele><time>2026-04-06T09:38:20Z</time></trkpt><trkpt lat="45.36986861486665" lon="9.283395346739296"><ele>91.19999999999999</ele><time>2026-04-06T09:38:22Z</time></trkpt><trkpt lat="45.36995180253723" lon="9.283326129581134"><ele>91.0</ele><time>2026-04-06T09:38:24Z</time></trkpt><trkpt lat="45.3700446997139" lon="9.28325412194775"><ele>91.0</ele><time>2026-04-06T09:38:26Z</time></trkpt><trkpt lat="45.370134619488155" lon="9.28318254958966"><ele>91.0</ele><time>2026-04-06T09:38:28Z</time></trkpt><trkpt lat="45.3702214281767" lon="9.283115088092014"><ele>91.0</ele><time>2026-04-06T09:38:30Z</time></trkpt><trkpt lat="45.37030279887791" lon="9.283049392694396"><ele>91.0</ele><time>2026-04-06T09:38:32Z</time></trkpt><trkpt lat="45.37038098151755" lon="9.282990886390948"><ele>91.0</ele><time>2026-04-06T09:38:34Z</time></trkpt><trkpt lat="45.370463246626265" lon="9.2829300455357"><ele>91.19999999999999</ele><time>2026-04-06T09:38:36Z</time></trkpt><trkpt lat="45.37054479643341" lon="9.282861860987868"><ele>91.39999999999999</ele><time>2026-04-06T09:38:38Z</time></trkpt><trkpt lat="45.37063077708829" lon="9.282795082205476"><ele>91.6</ele><time>2026-04-06T09:38:40Z</time></trkpt><trkpt lat="45.37071615727015" lon="9.282733517986022"><ele>91.8</ele><time>2026-04-06T09:38:42Z</time></trkpt><trkpt lat="45.37080019077462" lon="9.282664249140751"><ele>92.0</ele><time>2026-04-06T09:38:44Z</time></trkpt><trkpt lat="45.370882746438916" lon="9.28259877807519"><ele>92.0</ele><time>2026-04-06T09:38:46Z</time></trkpt><trkpt lat="45.37096797877683" lon="9.282531803588581"><ele>92.0</ele><time>2026-04-06T09:38:48Z</time></trkpt><trkpt lat="45.37105440566004" lon="9.28247244082614"><ele>92.0</ele><time>2026-04-06T09:38:50Z</time></trkpt><trkpt lat="45.371137830103365" lon="9.282404515329587"><ele>92.0</ele><time>2026-04-06T09:38:52.001Z</time></trkpt><trkpt lat="45.37121952634266" lon="9.282336758131386"><ele>92.0</ele><time>2026-04-06T09:38:54.001Z</time></trkpt><trkpt lat="45.371305224718235" lon="9.28228229065098"><ele>92.0</ele><time>2026-04-06T09:38:56.001Z</time></trkpt><trkpt lat="45.37138317599464" lon="9.282202310122317"><ele>92.0</ele><time>2026-04-06T09:38:58.001Z</time></trkpt><trkpt lat="45.37147549992209" lon="9.282144060303185"><ele>92.0</ele><time>2026-04-06T09:39:00.001Z</time></trkpt><trkpt lat="45.37155946609715" lon="9.282074869558379"><ele>92.0</ele><time>2026-04-06T09:39:02.001Z</time></trkpt><trkpt lat="45.37164688875583" lon="9.28202158143594"><ele>92.0</ele><time>2026-04-06T09:39:04.001Z</time></trkpt><trkpt lat="45.37172873301567" lon="9.281951965797779"><ele>92.0</ele><time>2026-04-06T09:39:06.001Z</time></trkpt><trkpt lat="45.371812827711985" lon="9.281884312405268"><ele>92.0</ele><time>2026-04-06T09:39:08.001Z</time></trkpt><trkpt lat="45.37189659393751" lon="9.281821960556046"><ele>92.0</ele><time>2026-04-06T09:39:10.001Z</time></trkpt><trkpt lat="45.37198057116319" lon="9.281756761066866"><ele>92.0</ele><time>2026-04-06T09:39:12.001Z</time></trkpt><trkpt lat="45.37206372089547" lon="9.281689068372339"><ele>92.0</ele><time>2026-04-06T09:39:14.001Z</time></trkpt><trkpt lat="45.37214963211295" lon="9.281632891794734"><ele>92.0</ele><time>2026-04-06T09:39:16.001Z</time></trkpt><trkpt lat="45.37223342279904" lon="9.281569007805588"><ele>92.0</ele><time>2026-04-06T09:39:18.001Z</time></trkpt><trkpt lat="45.3723138967117" lon="9.281501341520602"><ele>92.0</ele><time>2026-04-06T09:39:20.001Z</time></trkpt><trkpt lat="45.372394521078874" lon="9.28143956948252"><ele>92.0</ele><time>2026-04-06T09:39:22Z</time></trkpt><trkpt lat="45.372477389191104" lon="9.281383660968668"><ele>92.0</ele><time>2026-04-06T09:39:24Z</time></trkpt><trkpt lat="45.37255249302181" lon="9.281316523604108"><ele>92.19999999999999</ele><time>2026-04-06T09:39:26Z</time></trkpt><trkpt lat="45.37263518061684" lon="9.281263339708646"><ele>92.4</ele><time>2026-04-06T09:39:28Z</time></trkpt><trkpt lat="45.37271602867265" lon="9.281195571232523"><ele>92.6</ele><time>2026-04-06T09:39:30Z</time></trkpt><trkpt lat="45.372797535403976" lon="9.281125922807583"><ele>92.80000000000001</ele><time>2026-04-06T09:39:32Z</time></trkpt><trkpt lat="45.37289137087601" lon="9.281058255082119"><ele>93.0</ele><time>2026-04-06T09:39:34Z</time></trkpt><trkpt lat="45.37296337084434" lon="9.280995654911129"><ele>93.2</ele><time>2026-04-06T09:39:36Z</time></trkpt><trkpt lat="45.37304608408384" lon="9.280932997130943"><ele>93.4</ele><time>2026-04-06T09:39:38Z</time></trkpt><trkpt lat="45.37312450524913" lon="9.280866651387937"><ele>93.60000000000001</ele><time>2026-04-06T09:39:40Z</time></trkpt><trkpt lat="45.37320001822139" lon="9.28079417406714"><ele>93.80000000000001</ele><time>2026-04-06T09:39:42Z</time></trkpt><trkpt lat="45.373271098133024" lon="9.280713309486515"><ele>94.0</ele><time>2026-04-06T09:39:44Z</time></trkpt><trkpt lat="45.37333730316339" lon="9.280629392250221"><ele>94.2</ele><time>2026-04-06T09:39:46Z</time></trkpt><trkpt lat="45.37341238088782" lon="9.280554065206255"><ele>94.4</ele><time>2026-04-06T09:39:48Z</time></trkpt><trkpt lat="45.373497976068386" lon="9.280503865881816"><ele>94.6</ele><time>2026-04-06T09:39:50Z</time></trkpt><trkpt lat="45.37358699367635" lon="9.280453254375086"><ele>94.8</ele><time>2026-04-06T09:39:52Z</time></trkpt><trkpt lat="45.37367505797279" lon="9.280396924891525"><ele>95.0</ele><time>2026-04-06T09:39:54Z</time></trkpt><trkpt lat="45.37376758980005" lon="9.280349710619655"><ele>95.0</ele><time>2026-04-06T09:39:56Z</time></trkpt><trkpt lat="45.37385722607508" lon="9.280301422731672"><ele>95.0</ele><time>2026-04-06T09:39:58Z</time></trkpt><trkpt lat="45.37394228628831" lon="9.28024852287257"><ele>95.0</ele><time>2026-04-06T09:40:00Z</time></trkpt><trkpt lat="45.374026995803966" lon="9.280186307580388"><ele>95.0</ele><time>2026-04-06T09:40:02Z</time></trkpt><trkpt lat="45.37411074830848" lon="9.28012196684908"><ele>95.0</ele><time>2026-04-06T09:40:04Z</time></trkpt><trkpt lat="45.37419091847087" lon="9.2800545389566"><ele>95.0</ele><time>2026-04-06T09:40:06Z</time></trkpt><trkpt lat="45.37426582313835" lon="9.279971848073341"><ele>95.0</ele><time>2026-04-06T09:40:08Z</time></trkpt><trkpt lat="45.37434171068091" lon="9.279887430585084"><ele>95.0</ele><time>2026-04-06T09:40:10Z</time></trkpt><trkpt lat="45.37441836775279" lon="9.279799523678252"><ele>95.0</ele><time>2026-04-06T09:40:12Z</time></trkpt><trkpt lat="45.37449369622799" lon="9.279706809407505"><ele>95.0</ele><time>2026-04-06T09:40:14Z</time></trkpt><trkpt lat="45.374571263828315" lon="9.279613979485484"><ele>95.0</ele><time>2026-04-06T09:40:16Z</time></trkpt><trkpt lat="45.3746455900341" lon="9.279520996944544"><ele>95.0</ele><time>2026-04-06T09:40:18Z</time></trkpt><trkpt lat="45.37472212163177" lon="9.279431462816218"><ele>95.0</ele><time>2026-04-06T09:40:20Z</time></trkpt><trkpt lat="45.37479401885403" lon="9.279340144068435"><ele>95.0</ele><time>2026-04-06T09:40:22Z</time></trkpt><trkpt lat="45.37487193005411" lon="9.27924484605477"><ele>95.0</ele><time>2026-04-06T09:40:24Z</time></trkpt><trkpt lat="45.37494590367665" lon="9.279163661060759"><ele>95.0</ele><time>2026-04-06T09:40:26Z</time></trkpt><trkpt lat="45.37502006908609" lon="9.279078838488136"><ele>95.0</ele><time>2026-04-06T09:40:28Z</time></trkpt><trkpt lat="45.37510102136646" lon="9.279005122146119"><ele>95.0</ele><time>2026-04-06T09:40:30Z</time></trkpt><trkpt lat="45.37518812156556" lon="9.278950259009639"><ele>95.0</ele><time>2026-04-06T09:40:32Z</time></trkpt><trkpt lat="45.375276445349435" lon="9.278905749850551"><ele>95.0</ele><time>2026-04-06T09:40:34Z</time></trkpt><trkpt lat="45.37536546475893" lon="9.278862790867024"><ele>94.8</ele><time>2026-04-06T09:40:36Z</time></trkpt><trkpt lat="45.37544946453335" lon="9.278813532774054"><ele>94.6</ele><time>2026-04-06T09:40:38Z</time></trkpt><trkpt lat="45.375527197181306" lon="9.278745972114658"><ele>94.4</ele><time>2026-04-06T09:40:40Z</time></trkpt><trkpt lat="45.375599767420525" lon="9.278667387153146"><ele>94.2</ele><time>2026-04-06T09:40:42Z</time></trkpt><trkpt lat="45.375664090230266" lon="9.278577429762308"><ele>94.0</ele><time>2026-04-06T09:40:44Z</time></trkpt><trkpt lat="45.37573430067401" lon="9.278498032518812"><ele>94.0</ele><time>2026-04-06T09:40:46Z</time></trkpt><trkpt lat="45.37580315181894" lon="9.278400045134287"><ele>94.0</ele><time>2026-04-06T09:40:48Z</time></trkpt><trkpt lat="45.37587447151239" lon="9.278305231234409"><ele>94.0</ele><time>2026-04-06T09:40:50Z</time></trkpt><trkpt lat="45.37594770133269" lon="9.278213727970362"><ele>94.0</ele><time>2026-04-06T09:40:52Z</time></trkpt><trkpt lat="45.376017494940456" lon="9.278104962171467"><ele>94.0</ele><time>2026-04-06T09:40:54Z</time></trkpt><trkpt lat="45.376102178423906" lon="9.278015041197731"><ele>94.4</ele><time>2026-04-06T09:40:56Z</time></trkpt><trkpt lat="45.376180059862214" lon="9.277921985218432"><ele>94.80000000000001</ele><time>2026-04-06T09:40:58Z</time></trkpt><trkpt lat="45.37626115466269" lon="9.27782320035357"><ele>95.19999999999999</ele><time>2026-04-06T09:41:00Z</time></trkpt><trkpt lat="45.37633366342935" lon="9.277727372254002"><ele>95.6</ele><time>2026-04-06T09:41:02Z</time></trkpt><trkpt lat="45.37641778327863" lon="9.277633909387955"><ele>96.0</ele><time>2026-04-06T09:41:04Z</time></trkpt><trkpt lat="45.3764889388792" lon="9.277529688666307"><ele>96.0</ele><time>2026-04-06T09:41:06Z</time></trkpt><trkpt lat="45.376563966305675" lon="9.277443197089516"><ele>96.0</ele><time>2026-04-06T09:41:08Z</time></trkpt><trkpt lat="45.37663544087732" lon="9.277341517846102"><ele>96.0</ele><time>2026-04-06T09:41:10.001Z</time></trkpt><trkpt lat="45.37671162576722" lon="9.27724960904991"><ele>96.0</ele><time>2026-04-06T09:41:12.001Z</time></trkpt><trkpt lat="45.376779403936695" lon="9.277156924449269"><ele>96.0</ele><time>2026-04-06T09:41:14.001Z</time></trkpt><trkpt lat="45.37684835824174" lon="9.277071681889776"><ele>96.0</ele><time>2026-04-06T09:41:16.001Z</time></trkpt><trkpt lat="45.376925210640856" lon="9.276984090934292"><ele>96.0</ele><time>2026-04-06T09:41:18.001Z</time></trkpt><trkpt lat="45.37699622840736" lon="9.276888968047315"><ele>96.0</ele><time>2026-04-06T09:41:20.001Z</time></trkpt><trkpt lat="45.37707274386606" lon="9.276798188804216"><ele>96.0</ele><time>2026-04-06T09:41:22.001Z</time></trkpt><trkpt lat="45.377146959218756" lon="9.276705368442604"><ele>96.0</ele><time>2026-04-06T09:41:24.001Z</time></trkpt><trkpt lat="45.37721473522555" lon="9.276603283875804"><ele>96.0</ele><time>2026-04-06T09:41:26.001Z</time></trkpt><trkpt lat="45.37728304904302" lon="9.276495869858616"><ele>96.0</ele><time>2026-04-06T09:41:28Z</time></trkpt><trkpt lat="45.377346261408576" lon="9.276370435615108"><ele>96.0</ele><time>2026-04-06T09:41:30Z</time></trkpt><trkpt lat="45.37738862258415" lon="9.276233366440751"><ele>96.0</ele><time>2026-04-06T09:41:32Z</time></trkpt><trkpt lat="45.377385118502595" lon="9.276073706965821"><ele>96.0</ele><time>2026-04-06T09:41:34Z</time></trkpt><trkpt lat="45.37735727871431" lon="9.275912646074255"><ele>95.75</ele><time>2026-04-06T09:41:36Z</time></trkpt><trkpt lat="45.37731059227824" lon="9.275764706805177"><ele>95.5</ele><time>2026-04-06T09:41:38Z</time></trkpt><trkpt lat="45.37725928986829" lon="9.275624779231872"><ele>95.25</ele><time>2026-04-06T09:41:40Z</time></trkpt><trkpt lat="45.3772130881204" lon="9.275479168743058"><ele>95.0</ele><time>2026-04-06T09:41:42Z</time></trkpt><trkpt lat="45.37714610617299" lon="9.275334000135244"><ele>94.5</ele><time>2026-04-06T09:41:44Z</time></trkpt><trkpt lat="45.377117313598575" lon="9.275171798184244"><ele>94.0</ele><time>2026-04-06T09:41:46Z</time></trkpt><trkpt lat="45.37706244013876" lon="9.27502073287672"><ele>93.5</ele><time>2026-04-06T09:41:48Z</time></trkpt><trkpt lat="45.37701116514523" lon="9.274873419001679"><ele>93.0</ele><time>2026-04-06T09:41:50Z</time></trkpt><trkpt lat="45.376962535414705" lon="9.274713364358302"><ele>93.0</ele><time>2026-04-06T09:41:52Z</time></trkpt><trkpt lat="45.37690602866547" lon="9.27455947400403"><ele>93.0</ele><time>2026-04-06T09:41:54Z</time></trkpt><trkpt lat="45.376890834132496" lon="9.274470741032403"><ele>93.0</ele><time>2026-04-06T09:41:55Z</time></trkpt><trkpt lat="45.37690683156529" lon="9.274297238689824"><ele>93.0</ele><time>2026-04-06T09:41:57Z</time></trkpt><trkpt lat="45.37695536568041" lon="9.274141108098028"><ele>93.0</ele><time>2026-04-06T09:41:59Z</time></trkpt><trkpt lat="45.37699843789698" lon="9.273999384310603"><ele>93.0</ele><time>2026-04-06T09:42:01Z</time></trkpt><trkpt lat="45.377033026720206" lon="9.273865175249606"><ele>93.0</ele><time>2026-04-06T09:42:03Z</time></trkpt><trkpt lat="45.37704072639073" lon="9.273711605227936"><ele>93.0</ele><time>2026-04-06T09:42:05Z</time></trkpt><trkpt lat="45.37701282400972" lon="9.273566943352291"><ele>93.0</ele><time>2026-04-06T09:42:07Z</time></trkpt><trkpt lat="45.376965784152986" lon="9.27342306405173"><ele>93.0</ele><time>2026-04-06T09:42:09Z</time></trkpt><trkpt lat="45.37691725821201" lon="9.273289316814788"><ele>93.0</ele><time>2026-04-06T09:42:11Z</time></trkpt><trkpt lat="45.37687042976525" lon="9.273159369521931"><ele>93.0</ele><time>2026-04-06T09:42:13Z</time></trkpt><trkpt lat="45.37682739082404" lon="9.273029736325155"><ele>93.0</ele><time>2026-04-06T09:42:15Z</time></trkpt><trkpt lat="45.376784502357204" lon="9.272903500620053"><ele>93.0</ele><time>2026-04-06T09:42:17Z</time></trkpt><trkpt lat="45.376753778431166" lon="9.272791285639657"><ele>93.0</ele><time>2026-04-06T09:42:19Z</time></trkpt><trkpt lat="45.376719426245714" lon="9.272687639823804"><ele>93.33333333333333</ele><time>2026-04-06T09:42:21Z</time></trkpt><trkpt lat="45.37668723112107" lon="9.272574271647905"><ele>93.66666666666667</ele><time>2026-04-06T09:42:23Z</time></trkpt><trkpt lat="45.3766545013262" lon="9.27246934794431"><ele>94.0</ele><time>2026-04-06T09:42:25Z</time></trkpt><trkpt lat="45.37661829300246" lon="9.272362796180229"><ele>94.33333333333334</ele><time>2026-04-06T09:42:27Z</time></trkpt><trkpt lat="45.37658368543358" lon="9.272242181345453"><ele>94.66666666666667</ele><time>2026-04-06T09:42:29Z</time></trkpt><trkpt lat="45.3765492593798" lon="9.272127797289606"><ele>95.0</ele><time>2026-04-06T09:42:31Z</time></trkpt><trkpt lat="45.37651099396253" lon="9.27201157369448"><ele>95.0</ele><time>2026-04-06T09:42:33Z</time></trkpt><trkpt lat="45.37647996673908" lon="9.271889949087415"><ele>95.0</ele><time>2026-04-06T09:42:35Z</time></trkpt><trkpt lat="45.376465673039725" lon="9.271754123510345"><ele>95.0</ele><time>2026-04-06T09:42:37Z</time></trkpt><trkpt lat="45.376455192520915" lon="9.271619502963187"><ele>95.0</ele><time>2026-04-06T09:42:39Z</time></trkpt><trkpt lat="45.37648013214089" lon="9.271482320720159"><ele>95.0</ele><time>2026-04-06T09:42:41Z</time></trkpt><trkpt lat="45.376523942915775" lon="9.271354122919927"><ele>95.0</ele><time>2026-04-06T09:42:43Z</time></trkpt><trkpt lat="45.376580591486714" lon="9.27123968097976"><ele>95.0</ele><time>2026-04-06T09:42:45Z</time></trkpt><trkpt lat="45.376661868401584" lon="9.27115446850526"><ele>95.0</ele><time>2026-04-06T09:42:47Z</time></trkpt><trkpt lat="45.376744616305444" lon="9.271088308127007"><ele>95.0</ele><time>2026-04-06T09:42:49Z</time></trkpt><trkpt lat="45.37682656559306" lon="9.271029526948462"><ele>95.0</ele><time>2026-04-06T09:42:51Z</time></trkpt><trkpt lat="45.3769098319884" lon="9.27097629236589"><ele>95.0</ele><time>2026-04-06T09:42:53Z</time></trkpt><trkpt lat="45.37699453958185" lon="9.270918351071286"><ele>95.0</ele><time>2026-04-06T09:42:55Z</time></trkpt><trkpt lat="45.37707992565469" lon="9.270854191492756"><ele>95.0</ele><time>2026-04-06T09:42:57Z</time></trkpt><trkpt lat="45.37717124065767" lon="9.270800965718736"><ele>95.0</ele><time>2026-04-06T09:42:59Z</time></trkpt><trkpt lat="45.377263029258515" lon="9.270746355502517"><ele>95.0</ele><time>2026-04-06T09:43:01Z</time></trkpt><trkpt lat="45.37735312245528" lon="9.270695974211465"><ele>94.8</ele><time>2026-04-06T09:43:03Z</time></trkpt><trkpt lat="45.377441315127385" lon="9.270632058845534"><ele>94.6</ele><time>2026-04-06T09:43:05Z</time></trkpt><trkpt lat="45.37752801222722" lon="9.270570187309161"><ele>94.4</ele><time>2026-04-06T09:43:07Z</time></trkpt><trkpt lat="45.37761711568655" lon="9.270520851438112"><ele>94.2</ele><time>2026-04-06T09:43:09Z</time></trkpt><trkpt lat="45.37770317568155" lon="9.270461713460415"><ele>94.0</ele><time>2026-04-06T09:43:11Z</time></trkpt><trkpt lat="45.37779150103069" lon="9.270401264567973"><ele>94.4</ele><time>2026-04-06T09:43:13Z</time></trkpt><trkpt lat="45.37787839583855" lon="9.270344891935567"><ele>94.80000000000001</ele><time>2026-04-06T09:43:15.001Z</time></trkpt><trkpt lat="45.37796262579391" lon="9.270286164421789"><ele>95.19999999999999</ele><time>2026-04-06T09:43:17.001Z</time></trkpt><trkpt lat="45.3780483718283" lon="9.270236583832483"><ele>95.6</ele><time>2026-04-06T09:43:19.001Z</time></trkpt><trkpt lat="45.37813241809822" lon="9.27017932935755"><ele>96.0</ele><time>2026-04-06T09:43:21.001Z</time></trkpt><trkpt lat="45.37821644591005" lon="9.270120657665386"><ele>96.0</ele><time>2026-04-06T09:43:23.001Z</time></trkpt><trkpt lat="45.37830137010302" lon="9.270072224901748"><ele>96.0</ele><time>2026-04-06T09:43:25.001Z</time></trkpt><trkpt lat="45.37838555592252" lon="9.270011741732382"><ele>96.0</ele><time>2026-04-06T09:43:27.001Z</time></trkpt><trkpt lat="45.3784698166755" lon="9.26995274394269"><ele>96.0</ele><time>2026-04-06T09:43:29.001Z</time></trkpt><trkpt lat="45.37855105423977" lon="9.269892953797768"><ele>96.0</ele><time>2026-04-06T09:43:31.001Z</time></trkpt><trkpt lat="45.378627568139635" lon="9.269826328194208"><ele>96.0</ele><time>2026-04-06T09:43:33Z</time></trkpt><trkpt lat="45.37870301440546" lon="9.269755972183093"><ele>96.0</ele><time>2026-04-06T09:43:35Z</time></trkpt><trkpt lat="45.37876851579731" lon="9.26966654825457"><ele>96.0</ele><time>2026-04-06T09:43:37Z</time></trkpt><trkpt lat="45.37883246550074" lon="9.269575642825874"><ele>96.0</ele><time>2026-04-06T09:43:39Z</time></trkpt><trkpt lat="45.37888967301403" lon="9.269471845757112"><ele>96.0</ele><time>2026-04-06T09:43:41Z</time></trkpt><trkpt lat="45.37895318890371" lon="9.269377778441035"><ele>96.0</ele><time>2026-04-06T09:43:43Z</time></trkpt><trkpt lat="45.3790105558431" lon="9.2692777790271"><ele>96.0</ele><time>2026-04-06T09:43:45Z</time></trkpt><trkpt lat="45.379070300084734" lon="9.269178328899574"><ele>96.0</ele><time>2026-04-06T09:43:47Z</time></trkpt><trkpt lat="45.37913310866684" lon="9.269081155616478"><ele>96.0</ele><time>2026-04-06T09:43:49Z</time></trkpt><trkpt lat="45.37918715641315" lon="9.268982758523151"><ele>96.0</ele><time>2026-04-06T09:43:51Z</time></trkpt><trkpt lat="45.37926699939572" lon="9.268895741464526"><ele>95.83333333333333</ele><time>2026-04-06T09:43:53Z</time></trkpt><trkpt lat="45.37931016204601" lon="9.268803729146452"><ele>95.66666666666667</ele><time>2026-04-06T09:43:55Z</time></trkpt><trkpt lat="45.37936938535766" lon="9.268704566074419"><ele>95.5</ele><time>2026-04-06T09:43:57Z</time></trkpt><trkpt lat="45.379431143267595" lon="9.268611664944295"><ele>95.33333333333334</ele><time>2026-04-06T09:43:59Z</time></trkpt><trkpt lat="45.37949206376635" lon="9.268511468086212"><ele>95.16666666666667</ele><time>2026-04-06T09:44:01Z</time></trkpt><trkpt lat="45.37955548579933" lon="9.26841469384877"><ele>95.0</ele><time>2026-04-06T09:44:03Z</time></trkpt><trkpt lat="45.379617226311254" lon="9.26831834645599"><ele>95.0</ele><time>2026-04-06T09:44:05Z</time></trkpt><trkpt lat="45.37967772571921" lon="9.268227009827799"><ele>95.0</ele><time>2026-04-06T09:44:07Z</time></trkpt><trkpt lat="45.37973953053537" lon="9.268131578336526"><ele>95.0</ele><time>2026-04-06T09:44:09Z</time></trkpt><trkpt lat="45.379799516462285" lon="9.268034393876635"><ele>95.0</ele><time>2026-04-06T09:44:11Z</time></trkpt><trkpt lat="45.37986290879166" lon="9.26793677002191"><ele>95.0</ele><time>2026-04-06T09:44:13Z</time></trkpt><trkpt lat="45.37992696152671" lon="9.267842427596715"><ele>94.8</ele><time>2026-04-06T09:44:15Z</time></trkpt><trkpt lat="45.37998886308082" lon="9.267742152082404"><ele>94.6</ele><time>2026-04-06T09:44:17Z</time></trkpt><trkpt lat="45.38004898572758" lon="9.267643873857184"><ele>94.4</ele><time>2026-04-06T09:44:19Z</time></trkpt><trkpt lat="45.38011383599342" lon="9.267543208782023"><ele>94.2</ele><time>2026-04-06T09:44:21Z</time></trkpt><trkpt lat="45.38018026244071" lon="9.267446174120314"><ele>94.0</ele><time>2026-04-06T09:44:23Z</time></trkpt><trkpt lat="45.38024416866662" lon="9.267349783913312"><ele>94.2</ele><time>2026-04-06T09:44:25Z</time></trkpt><trkpt lat="45.38030438828893" lon="9.267251307321652"><ele>94.4</ele><time>2026-04-06T09:44:27Z</time></trkpt><trkpt lat="45.38036695797085" lon="9.267154274998235"><ele>94.6</ele><time>2026-04-06T09:44:29Z</time></trkpt><trkpt lat="45.38043002731575" lon="9.267057394825555"><ele>94.8</ele><time>2026-04-06T09:44:31Z</time></trkpt><trkpt lat="45.380477739652356" lon="9.26695957212267"><ele>95.0</ele><time>2026-04-06T09:44:33Z</time></trkpt><trkpt lat="45.380548041214276" lon="9.266863944973071"><ele>95.2</ele><time>2026-04-06T09:44:35Z</time></trkpt><trkpt lat="45.38060614961934" lon="9.266769016543876"><ele>95.4</ele><time>2026-04-06T09:44:37Z</time></trkpt><trkpt lat="45.38066971413595" lon="9.266670521293461"><ele>95.6</ele><time>2026-04-06T09:44:39Z</time></trkpt><trkpt lat="45.38073084111974" lon="9.26657127409756"><ele>95.8</ele><time>2026-04-06T09:44:41Z</time></trkpt><trkpt lat="45.38079084177163" lon="9.266472410342459"><ele>96.0</ele><time>2026-04-06T09:44:43Z</time></trkpt><trkpt lat="45.380845877638976" lon="9.266369847830848"><ele>96.19999999999999</ele><time>2026-04-06T09:44:45Z</time></trkpt><trkpt lat="45.38089123153632" lon="9.266260794162513"><ele>96.39999999999999</ele><time>2026-04-06T09:44:47Z</time></trkpt><trkpt lat="45.38091048558264" lon="9.266133753142679"><ele>96.6</ele><time>2026-04-06T09:44:49Z</time></trkpt><trkpt lat="45.38089620978353" lon="9.266007211160288"><ele>96.8</ele><time>2026-04-06T09:44:51Z</time></trkpt><trkpt lat="45.38083933265581" lon="9.265900900161911"><ele>97.0</ele><time>2026-04-06T09:44:53Z</time></trkpt><trkpt lat="45.380778422431966" lon="9.265799834009789"><ele>97.0</ele><time>2026-04-06T09:44:55Z</time></trkpt><trkpt lat="45.380716506100875" lon="9.265704750255404"><ele>97.0</ele><time>2026-04-06T09:44:57Z</time></trkpt><trkpt lat="45.38065087261715" lon="9.265610777971055"><ele>97.0</ele><time>2026-04-06T09:44:59Z</time></trkpt><trkpt lat="45.380582383800785" lon="9.26551507814075"><ele>97.0</ele><time>2026-04-06T09:45:01Z</time></trkpt><trkpt lat="45.38050916449763" lon="9.265418796186902"><ele>97.0</ele><time>2026-04-06T09:45:03Z</time></trkpt><trkpt lat="45.38043909773278" lon="9.265316625718834"><ele>97.19999999999999</ele><time>2026-04-06T09:45:05Z</time></trkpt><trkpt lat="45.38036443612097" lon="9.265222658372332"><ele>97.4</ele><time>2026-04-06T09:45:07Z</time></trkpt><trkpt lat="45.3803060536617" lon="9.265124240381045"><ele>97.6</ele><time>2026-04-06T09:45:09Z</time></trkpt><trkpt lat="45.38023537664283" lon="9.265008373338125"><ele>97.80000000000001</ele><time>2026-04-06T09:45:11Z</time></trkpt><trkpt lat="45.38017559036762" lon="9.26489109076679"><ele>98.0</ele><time>2026-04-06T09:45:13Z</time></trkpt><trkpt lat="45.38012319311836" lon="9.264771578680856"><ele>98.0</ele><time>2026-04-06T09:45:15Z</time></trkpt><trkpt lat="45.380095077360345" lon="9.264628766768011"><ele>98.0</ele><time>2026-04-06T09:45:17Z</time></trkpt><trkpt lat="45.380042402261246" lon="9.264520175086764"><ele>98.0</ele><time>2026-04-06T09:45:19Z</time></trkpt><trkpt lat="45.37999776122888" lon="9.26440447863802"><ele>98.0</ele><time>2026-04-06T09:45:21Z</time></trkpt><trkpt lat="45.37995038100052" lon="9.264287736022665"><ele>98.0</ele><time>2026-04-06T09:45:23Z</time></trkpt><trkpt lat="45.37989616940632" lon="9.264173579997992"><ele>98.0</ele><time>2026-04-06T09:45:25Z</time></trkpt><trkpt lat="45.37984663543358" lon="9.264056199477723"><ele>98.0</ele><time>2026-04-06T09:45:27Z</time></trkpt><trkpt lat="45.37979500545761" lon="9.263927409584019"><ele>98.0</ele><time>2026-04-06T09:45:29Z</time></trkpt><trkpt lat="45.37974694247549" lon="9.26380043220882"><ele>98.0</ele><time>2026-04-06T09:45:31Z</time></trkpt><trkpt lat="45.37968935244977" lon="9.263675414043387"><ele>98.0</ele><time>2026-04-06T09:45:33Z</time></trkpt><trkpt lat="45.379637002935944" lon="9.263544601168029"><ele>97.60000000000001</ele><time>2026-04-06T09:45:35Z</time></trkpt><trkpt lat="45.379576861755346" lon="9.263419205024794"><ele>97.2</ele><time>2026-04-06T09:45:37Z</time></trkpt><trkpt lat="45.37952518211848" lon="9.263291052067549"><ele>96.8</ele><time>2026-04-06T09:45:38.999Z</time></trkpt><trkpt lat="45.3794828947016" lon="9.263170835349328"><ele>96.4</ele><time>2026-04-06T09:45:40.999Z</time></trkpt><trkpt lat="45.37942828555605" lon="9.263041550182335"><ele>96.0</ele><time>2026-04-06T09:45:42.999Z</time></trkpt><trkpt lat="45.379374839231694" lon="9.262912953293421"><ele>96.0</ele><time>2026-04-06T09:45:44.999Z</time></trkpt><trkpt lat="45.37932017959952" lon="9.26279053510818"><ele>96.0</ele><time>2026-04-06T09:45:46.999Z</time></trkpt><trkpt lat="45.37926457922334" lon="9.262665387567669"><ele>96.0</ele><time>2026-04-06T09:45:49Z</time></trkpt><trkpt lat="45.37921524351759" lon="9.262543851122649"><ele>96.0</ele><time>2026-04-06T09:45:51Z</time></trkpt><trkpt lat="45.37916745845577" lon="9.26242621938072"><ele>96.0</ele><time>2026-04-06T09:45:53Z</time></trkpt><trkpt lat="45.37912139066382" lon="9.262305414987134"><ele>96.0</ele><time>2026-04-06T09:45:55Z</time></trkpt><trkpt lat="45.37907578682386" lon="9.262201171231562"><ele>96.0</ele><time>2026-04-06T09:45:57Z</time></trkpt><trkpt lat="45.379019568066916" lon="9.262110484354169"><ele>96.0</ele><time>2026-04-06T09:45:59Z</time></trkpt><trkpt lat="45.3789651075696" lon="9.262004038350156"><ele>96.0</ele><time>2026-04-06T09:46:01Z</time></trkpt><trkpt lat="45.378899531793195" lon="9.261911359653933"><ele>96.0</ele><time>2026-04-06T09:46:03Z</time></trkpt><trkpt lat="45.37882762983216" lon="9.261819258353057"><ele>96.0</ele><time>2026-04-06T09:46:05Z</time></trkpt><trkpt lat="45.378786197005816" lon="9.261745506536386"><ele>96.0</ele><time>2026-04-06T09:46:06Z</time></trkpt><trkpt lat="45.378714908365936" lon="9.261676424381106"><ele>96.0</ele><time>2026-04-06T09:46:08Z</time></trkpt><trkpt lat="45.37864608181849" lon="9.261574193271972"><ele>96.0</ele><time>2026-04-06T09:46:10Z</time></trkpt><trkpt lat="45.37856531657193" lon="9.26148447300478"><ele>96.0</ele><time>2026-04-06T09:46:12Z</time></trkpt><trkpt lat="45.378490927891804" lon="9.261381345001972"><ele>96.0</ele><time>2026-04-06T09:46:14Z</time></trkpt><trkpt lat="45.3784181887346" lon="9.26127942642276"><ele>96.0</ele><time>2026-04-06T09:46:16Z</time></trkpt><trkpt lat="45.37834331672959" lon="9.261182048558446"><ele>96.0</ele><time>2026-04-06T09:46:18Z</time></trkpt><trkpt lat="45.378274639589634" lon="9.261071560449016"><ele>96.0</ele><time>2026-04-06T09:46:20Z</time></trkpt><trkpt lat="45.378207929147486" lon="9.260953430583644"><ele>96.0</ele><time>2026-04-06T09:46:22Z</time></trkpt><trkpt lat="45.37814437260029" lon="9.26083702143419"><ele>96.0</ele><time>2026-04-06T09:46:24Z</time></trkpt><trkpt lat="45.37806547875624" lon="9.260728336329374"><ele>96.0</ele><time>2026-04-06T09:46:26Z</time></trkpt><trkpt lat="45.377984160285386" lon="9.260615521408987"><ele>96.0</ele><time>2026-04-06T09:46:28Z</time></trkpt><trkpt lat="45.37792830776712" lon="9.260485923743191"><ele>96.0</ele><time>2026-04-06T09:46:30Z</time></trkpt><trkpt lat="45.377840413425005" lon="9.260376014043976"><ele>96.0</ele><time>2026-04-06T09:46:32Z</time></trkpt><trkpt lat="45.37776847386818" lon="9.260250457980536"><ele>96.0</ele><time>2026-04-06T09:46:34Z</time></trkpt><trkpt lat="45.377691440218804" lon="9.260135520473117"><ele>96.0</ele><time>2026-04-06T09:46:36Z</time></trkpt><trkpt lat="45.37760996012132" lon="9.26001147473632"><ele>96.0</ele><time>2026-04-06T09:46:38Z</time></trkpt><trkpt lat="45.3775355498001" lon="9.25988058278087"><ele>96.0</ele><time>2026-04-06T09:46:40Z</time></trkpt><trkpt lat="45.37746025830039" lon="9.259751935401363"><ele>96.0</ele><time>2026-04-06T09:46:42Z</time></trkpt><trkpt lat="45.37738363733175" lon="9.259630663651032"><ele>96.0</ele><time>2026-04-06T09:46:44Z</time></trkpt><trkpt lat="45.37730486907699" lon="9.259512492008204"><ele>96.0</ele><time>2026-04-06T09:46:46Z</time></trkpt><trkpt lat="45.3772170657219" lon="9.259397493722526"><ele>96.0</ele><time>2026-04-06T09:46:48Z</time></trkpt><trkpt lat="45.37713277604014" lon="9.259282898009726"><ele>96.0</ele><time>2026-04-06T09:46:50Z</time></trkpt><trkpt lat="45.377044992012756" lon="9.2591727024341"><ele>96.0</ele><time>2026-04-06T09:46:52Z</time></trkpt><trkpt lat="45.37695275607751" lon="9.259073704818638"><ele>96.0</ele><time>2026-04-06T09:46:54Z</time></trkpt><trkpt lat="45.376855213903355" lon="9.25898121772973"><ele>96.0</ele><time>2026-04-06T09:46:56Z</time></trkpt><trkpt lat="45.376758730654785" lon="9.258887916324905"><ele>95.8</ele><time>2026-04-06T09:46:58Z</time></trkpt><trkpt lat="45.37666543494505" lon="9.258788206646061"><ele>95.6</ele><time>2026-04-06T09:47:00Z</time></trkpt><trkpt lat="45.37656399667289" lon="9.258714447774228"><ele>95.4</ele><time>2026-04-06T09:47:02Z</time></trkpt><trkpt lat="45.37650104738857" lon="9.258699507908355"><ele>95.2</ele><time>2026-04-06T09:47:03Z</time></trkpt><trkpt lat="45.376387599551435" lon="9.258687282707271"><ele>95.0</ele><time>2026-04-06T09:47:05Z</time></trkpt><trkpt lat="45.37626802022465" lon="9.258667118338572"><ele>95.4</ele><time>2026-04-06T09:47:07Z</time></trkpt><trkpt lat="45.37614794591527" lon="9.25865129243296"><ele>95.8</ele><time>2026-04-06T09:47:09Z</time></trkpt><trkpt lat="45.37603453817073" lon="9.25864034025482"><ele>96.19999999999999</ele><time>2026-04-06T09:47:11Z</time></trkpt><trkpt lat="45.37591236299129" lon="9.258650097453083"><ele>96.6</ele><time>2026-04-06T09:47:13Z</time></trkpt><trkpt lat="45.3758486990453" lon="9.258648764671891"><ele>97.0</ele><time>2026-04-06T09:47:14Z</time></trkpt><trkpt lat="45.375728418463694" lon="9.258644883349206"><ele>97.00000000000001</ele><time>2026-04-06T09:47:16Z</time></trkpt><trkpt lat="45.37560683932662" lon="9.258639510070415"><ele>97.0</ele><time>2026-04-06T09:47:18Z</time></trkpt><trkpt lat="45.375543009646606" lon="9.258634587054138"><ele>97.0</ele><time>2026-04-06T09:47:19Z</time></trkpt><trkpt lat="45.375419109091176" lon="9.258628506821216"><ele>97.0</ele><time>2026-04-06T09:47:21Z</time></trkpt><trkpt lat="45.3753523415496" lon="9.258626179434522"><ele>97.00000000000001</ele><time>2026-04-06T09:47:22Z</time></trkpt><trkpt lat="45.375280935712084" lon="9.258632385957108"><ele>97.0</ele><time>2026-04-06T09:47:23Z</time></trkpt><trkpt lat="45.37520972707717" lon="9.258624016494604"><ele>96.85714285714285</ele><time>2026-04-06T09:47:24Z</time></trkpt><trkpt lat="45.37513957500289" lon="9.25861502143189"><ele>96.71428571428572</ele><time>2026-04-06T09:47:25Z</time></trkpt><trkpt lat="45.37507031291993" lon="9.25861015040943"><ele>96.57142857142857</ele><time>2026-04-06T09:47:26Z</time></trkpt><trkpt lat="45.37500449873507" lon="9.25861457240336"><ele>96.42857142857142</ele><time>2026-04-06T09:47:27Z</time></trkpt><trkpt lat="45.374935059129534" lon="9.258607813094255"><ele>96.28571428571428</ele><time>2026-04-06T09:47:28Z</time></trkpt><trkpt lat="45.374867200481795" lon="9.25860658876759"><ele>96.14285714285714</ele><time>2026-04-06T09:47:29Z</time></trkpt><trkpt lat="45.37480143565861" lon="9.258601353835985"><ele>96.0</ele><time>2026-04-06T09:47:30.001Z</time></trkpt><trkpt lat="45.37473382513231" lon="9.25859965767493"><ele>95.71428571428571</ele><time>2026-04-06T09:47:31.001Z</time></trkpt><trkpt lat="45.37466851630668" lon="9.258593300028549"><ele>95.42857142857143</ele><time>2026-04-06T09:47:32.001Z</time></trkpt><trkpt lat="45.37460372875201" lon="9.258583201976434"><ele>95.14285714285714</ele><time>2026-04-06T09:47:33.001Z</time></trkpt><trkpt lat="45.374536359986635" lon="9.258577553327582"><ele>94.85714285714286</ele><time>2026-04-06T09:47:34.001Z</time></trkpt><trkpt lat="45.37446783862254" lon="9.258578181818159"><ele>94.57142857142857</ele><time>2026-04-06T09:47:35.001Z</time></trkpt><trkpt lat="45.37440256937114" lon="9.258576651166287"><ele>94.28571428571428</ele><time>2026-04-06T09:47:36.001Z</time></trkpt><trkpt lat="45.37433685989035" lon="9.25857237105516"><ele>94.0</ele><time>2026-04-06T09:47:37.001Z</time></trkpt><trkpt lat="45.3742708967565" lon="9.258566083526654"><ele>94.0</ele><time>2026-04-06T09:47:38.001Z</time></trkpt><trkpt lat="45.374203777080226" lon="9.258559547416661"><ele>94.0</ele><time>2026-04-06T09:47:39.001Z</time></trkpt><trkpt lat="45.37413394513232" lon="9.258548101275007"><ele>94.0</ele><time>2026-04-06T09:47:40.001Z</time></trkpt><trkpt lat="45.37406030987929" lon="9.258542246647245"><ele>94.0</ele><time>2026-04-06T09:47:41.001Z</time></trkpt><trkpt lat="45.37394013129649" lon="9.258520012902363"><ele>94.0</ele><time>2026-04-06T09:47:43.001Z</time></trkpt><trkpt lat="45.37387446861361" lon="9.258503208928591"><ele>94.0</ele><time>2026-04-06T09:47:44.001Z</time></trkpt><trkpt lat="45.37380628694269" lon="9.258491178647976"><ele>94.0</ele><time>2026-04-06T09:47:45Z</time></trkpt><trkpt lat="45.37367784684691" lon="9.258497369345747"><ele>94.0</ele><time>2026-04-06T09:47:47Z</time></trkpt><trkpt lat="45.37354627161244" lon="9.258509355123872"><ele>94.0</ele><time>2026-04-06T09:47:49Z</time></trkpt><trkpt lat="45.373478710693036" lon="9.258521975245356"><ele>94.0</ele><time>2026-04-06T09:47:50Z</time></trkpt><trkpt lat="45.37341503237843" lon="9.258540681214892"><ele>94.0</ele><time>2026-04-06T09:47:51Z</time></trkpt><trkpt lat="45.373353886370715" lon="9.258564050867818"><ele>94.0</ele><time>2026-04-06T09:47:52Z</time></trkpt><trkpt lat="45.373287747585856" lon="9.258585486464199"><ele>94.0</ele><time>2026-04-06T09:47:53Z</time></trkpt><trkpt lat="45.37322551681319" lon="9.258602730217417"><ele>94.0</ele><time>2026-04-06T09:47:54Z</time></trkpt><trkpt lat="45.37310370387353" lon="9.258647044715117"><ele>94.0</ele><time>2026-04-06T09:47:56Z</time></trkpt><trkpt lat="45.37299188106977" lon="9.258724463193563"><ele>94.0</ele><time>2026-04-06T09:47:58Z</time></trkpt><trkpt lat="45.37293821227528" lon="9.25877227870319"><ele>94.0</ele><time>2026-04-06T09:47:59Z</time></trkpt><trkpt lat="45.372881559881975" lon="9.258815761238772"><ele>94.4</ele><time>2026-04-06T09:48:00Z</time></trkpt><trkpt lat="45.37282332404267" lon="9.25885556433872"><ele>94.80000000000001</ele><time>2026-04-06T09:48:01Z</time></trkpt><trkpt lat="45.372716976862186" lon="9.258948011603996"><ele>95.19999999999999</ele><time>2026-04-06T09:48:03Z</time></trkpt><trkpt lat="45.372664232116946" lon="9.258997274218158"><ele>95.6</ele><time>2026-04-06T09:48:04Z</time></trkpt><trkpt lat="45.37256103450179" lon="9.259083263035677"><ele>96.0</ele><time>2026-04-06T09:48:06Z</time></trkpt><trkpt lat="45.37244145149977" lon="9.25906551347438"><ele>96.0</ele><time>2026-04-06T09:48:08Z</time></trkpt><trkpt lat="45.37240260642991" lon="9.258992816713883"><ele>96.0</ele><time>2026-04-06T09:48:09Z</time></trkpt><trkpt lat="45.372370216717826" lon="9.258899766732966"><ele>96.0</ele><time>2026-04-06T09:48:10Z</time></trkpt><trkpt lat="45.37234762239794" lon="9.258810777688819"><ele>96.0</ele><time>2026-04-06T09:48:11Z</time></trkpt><trkpt lat="45.372324600465106" lon="9.25872546535268"><ele>96.0</ele><time>2026-04-06T09:48:12Z</time></trkpt><trkpt lat="45.37226636000673" lon="9.258565972945126"><ele>96.0</ele><time>2026-04-06T09:48:14Z</time></trkpt><trkpt lat="45.37223792325377" lon="9.258484016080036"><ele>95.8</ele><time>2026-04-06T09:48:15Z</time></trkpt><trkpt lat="45.37217008658743" lon="9.25833722895375"><ele>95.6</ele><time>2026-04-06T09:48:17Z</time></trkpt><trkpt lat="45.37213418536817" lon="9.258260794972305"><ele>95.4</ele><time>2026-04-06T09:48:18Z</time></trkpt><trkpt lat="45.37206296415289" lon="9.25811596653821"><ele>95.2</ele><time>2026-04-06T09:48:20Z</time></trkpt><trkpt lat="45.37199716559517" lon="9.257985119394368"><ele>95.0</ele><time>2026-04-06T09:48:22Z</time></trkpt><trkpt lat="45.37195959368227" lon="9.257893629388478"><ele>94.85714285714286</ele><time>2026-04-06T09:48:23Z</time></trkpt><trkpt lat="45.37192021722097" lon="9.25781903182286"><ele>94.71428571428572</ele><time>2026-04-06T09:48:24Z</time></trkpt><trkpt lat="45.3718850417731" lon="9.257739451334304"><ele>94.57142857142857</ele><time>2026-04-06T09:48:25Z</time></trkpt><trkpt lat="45.371846329833936" lon="9.257667793671015"><ele>94.42857142857143</ele><time>2026-04-06T09:48:26Z</time></trkpt><trkpt lat="45.371799979572124" lon="9.257585192290646"><ele>94.28571428571428</ele><time>2026-04-06T09:48:27Z</time></trkpt><trkpt lat="45.371761810884415" lon="9.25750206048141"><ele>94.14285714285714</ele><time>2026-04-06T09:48:28Z</time></trkpt><trkpt lat="45.371727379372274" lon="9.25741874015925"><ele>94.0</ele><time>2026-04-06T09:48:29Z</time></trkpt><trkpt lat="45.371687041997035" lon="9.257336581549326"><ele>93.85714285714286</ele><time>2026-04-06T09:48:30Z</time></trkpt><trkpt lat="45.37164504411726" lon="9.257252078537814"><ele>93.71428571428571</ele><time>2026-04-06T09:48:31Z</time></trkpt><trkpt lat="45.371603641130356" lon="9.257167921115212"><ele>93.57142857142858</ele><time>2026-04-06T09:48:32Z</time></trkpt><trkpt lat="45.37156319383383" lon="9.257084403861379"><ele>93.42857142857143</ele><time>2026-04-06T09:48:33Z</time></trkpt><trkpt lat="45.37152284732735" lon="9.257002141001323"><ele>93.28571428571429</ele><time>2026-04-06T09:48:34Z</time></trkpt><trkpt lat="45.37147266643348" lon="9.256919133690213"><ele>93.14285714285715</ele><time>2026-04-06T09:48:35Z</time></trkpt><trkpt lat="45.37142703395284" lon="9.25683767005849"><ele>93.0</ele><time>2026-04-06T09:48:36Z</time></trkpt><trkpt lat="45.371393944904824" lon="9.256758187108424"><ele>93.14285714285715</ele><time>2026-04-06T09:48:37Z</time></trkpt><trkpt lat="45.37135239548513" lon="9.256669979702757"><ele>93.28571428571429</ele><time>2026-04-06T09:48:38Z</time></trkpt><trkpt lat="45.37130091801898" lon="9.25659697338267"><ele>93.42857142857143</ele><time>2026-04-06T09:48:39Z</time></trkpt><trkpt lat="45.37125956472374" lon="9.256516647338504"><ele>93.57142857142858</ele><time>2026-04-06T09:48:40Z</time></trkpt><trkpt lat="45.37121596381808" lon="9.256436129475844"><ele>93.71428571428571</ele><time>2026-04-06T09:48:41Z</time></trkpt><trkpt lat="45.37117392875035" lon="9.256358180946776"><ele>93.85714285714286</ele><time>2026-04-06T09:48:42Z</time></trkpt><trkpt lat="45.371125805016995" lon="9.256278431669955"><ele>94.0</ele><time>2026-04-06T09:48:43Z</time></trkpt><trkpt lat="45.371085218315145" lon="9.25620377286434"><ele>94.0</ele><time>2026-04-06T09:48:44Z</time></trkpt><trkpt lat="45.371042518796635" lon="9.256129847316744"><ele>94.0</ele><time>2026-04-06T09:48:45Z</time></trkpt><trkpt lat="45.37097128121099" lon="9.255989590492907"><ele>94.0</ele><time>2026-04-06T09:48:47Z</time></trkpt><trkpt lat="45.37090212684568" lon="9.255861741483782"><ele>94.0</ele><time>2026-04-06T09:48:49Z</time></trkpt><trkpt lat="45.3708417311549" lon="9.25574158677172"><ele>94.0</ele><time>2026-04-06T09:48:51Z</time></trkpt><trkpt lat="45.3707816725014" lon="9.255627981284354"><ele>94.0</ele><time>2026-04-06T09:48:53Z</time></trkpt><trkpt lat="45.3707237743765" lon="9.255521982195576"><ele>94.0</ele><time>2026-04-06T09:48:55Z</time></trkpt><trkpt lat="45.370668744327524" lon="9.255424542550244"><ele>94.0</ele><time>2026-04-06T09:48:57Z</time></trkpt><trkpt lat="45.37060919931477" lon="9.255348339134986"><ele>94.0</ele><time>2026-04-06T09:48:59Z</time></trkpt><trkpt lat="45.370559392871016" lon="9.255284659299493"><ele>94.0</ele><time>2026-04-06T09:49:01Z</time></trkpt><trkpt lat="45.370478900051815" lon="9.255234958751112"><ele>94.0</ele><time>2026-04-06T09:49:04Z</time></trkpt><trkpt lat="45.370388200075794" lon="9.255280443184851"><ele>94.0</ele><time>2026-04-06T09:49:06Z</time></trkpt><trkpt lat="45.37030618167851" lon="9.255314263582553"><ele>94.0</ele><time>2026-04-06T09:49:08Z</time></trkpt><trkpt lat="45.370218715352244" lon="9.25534746482234"><ele>94.0</ele><time>2026-04-06T09:49:10Z</time></trkpt><trkpt lat="45.370129554532205" lon="9.255382135385062"><ele>94.0</ele><time>2026-04-06T09:49:12Z</time></trkpt><trkpt lat="45.37004110518614" lon="9.255418761195616"><ele>94.0</ele><time>2026-04-06T09:49:14Z</time></trkpt><trkpt lat="45.36994443301375" lon="9.25544825303756"><ele>94.0</ele><time>2026-04-06T09:49:16Z</time></trkpt><trkpt lat="45.36985224621437" lon="9.255481294009547"><ele>94.0</ele><time>2026-04-06T09:49:18Z</time></trkpt><trkpt lat="45.36975572855367" lon="9.255523653602374"><ele>94.0</ele><time>2026-04-06T09:49:20Z</time></trkpt><trkpt lat="45.36965447026006" lon="9.255559981028261"><ele>94.0</ele><time>2026-04-06T09:49:22Z</time></trkpt><trkpt lat="45.36955904623542" lon="9.255608791281253"><ele>94.0</ele><time>2026-04-06T09:49:24Z</time></trkpt><trkpt lat="45.369462903966806" lon="9.255648724258247"><ele>94.0</ele><time>2026-04-06T09:49:26Z</time></trkpt><trkpt lat="45.36936907286747" lon="9.25570420569104"><ele>94.0</ele><time>2026-04-06T09:49:28Z</time></trkpt><trkpt lat="45.369269279013906" lon="9.255724375154198"><ele>94.0</ele><time>2026-04-06T09:49:30Z</time></trkpt><trkpt lat="45.36917422128902" lon="9.255661666924716"><ele>94.0</ele><time>2026-04-06T09:49:32Z</time></trkpt><trkpt lat="45.36911779525086" lon="9.25552603549298"><ele>94.0</ele><time>2026-04-06T09:49:34Z</time></trkpt><trkpt lat="45.369069008254876" lon="9.255391773897886"><ele>94.0</ele><time>2026-04-06T09:49:36Z</time></trkpt><trkpt lat="45.36901345922783" lon="9.255265880949267"><ele>94.0</ele><time>2026-04-06T09:49:38Z</time></trkpt><trkpt lat="45.36896776037297" lon="9.255128854569612"><ele>94.0</ele><time>2026-04-06T09:49:40Z</time></trkpt><trkpt lat="45.368914576504935" lon="9.255002746361336"><ele>94.0</ele><time>2026-04-06T09:49:42Z</time></trkpt><trkpt lat="45.36886026211772" lon="9.254876969280394"><ele>94.0</ele><time>2026-04-06T09:49:44Z</time></trkpt><trkpt lat="45.36880256853226" lon="9.254750068872061"><ele>94.0</ele><time>2026-04-06T09:49:46Z</time></trkpt><trkpt lat="45.36875000056302" lon="9.254629632731517"><ele>94.0</ele><time>2026-04-06T09:49:48Z</time></trkpt><trkpt lat="45.368697053629454" lon="9.254506318487874"><ele>94.0</ele><time>2026-04-06T09:49:50.001Z</time></trkpt><trkpt lat="45.36864594710177" lon="9.254389641362213"><ele>94.0</ele><time>2026-04-06T09:49:52Z</time></trkpt><trkpt lat="45.368597164916274" lon="9.254275452922936"><ele>94.0</ele><time>2026-04-06T09:49:54Z</time></trkpt><trkpt lat="45.36854277108835" lon="9.254168693746397"><ele>94.0</ele><time>2026-04-06T09:49:56Z</time></trkpt><trkpt lat="45.36849441672594" lon="9.254049123860305"><ele>94.0</ele><time>2026-04-06T09:49:58Z</time></trkpt><trkpt lat="45.36844429640518" lon="9.253929867954476"><ele>94.0</ele><time>2026-04-06T09:50:00Z</time></trkpt><trkpt lat="45.36839223593784" lon="9.253812937915088"><ele>94.0</ele><time>2026-04-06T09:50:02Z</time></trkpt><trkpt lat="45.36834222643829" lon="9.25369406437663"><ele>94.0</ele><time>2026-04-06T09:50:04Z</time></trkpt><trkpt lat="45.36829164259903" lon="9.253579457707502"><ele>94.0</ele><time>2026-04-06T09:50:06Z</time></trkpt><trkpt lat="45.36824315960327" lon="9.253465191530548"><ele>94.0</ele><time>2026-04-06T09:50:08Z</time></trkpt><trkpt lat="45.368194395440185" lon="9.253348071512082"><ele>94.0</ele><time>2026-04-06T09:50:10Z</time></trkpt><trkpt lat="45.36814093332723" lon="9.253223681992965"><ele>94.0</ele><time>2026-04-06T09:50:12Z</time></trkpt><trkpt lat="45.368086503147815" lon="9.253098770395102"><ele>94.0</ele><time>2026-04-06T09:50:14Z</time></trkpt><trkpt lat="45.36803240509239" lon="9.252974055874871"><ele>93.80000000000001</ele><time>2026-04-06T09:50:16Z</time></trkpt><trkpt lat="45.367983184526196" lon="9.252850986845283"><ele>93.60000000000001</ele><time>2026-04-06T09:50:18Z</time></trkpt><trkpt lat="45.367932867277645" lon="9.252737037777184"><ele>93.4</ele><time>2026-04-06T09:50:20Z</time></trkpt><trkpt lat="45.36788377780971" lon="9.252614623536584"><ele>93.2</ele><time>2026-04-06T09:50:22Z</time></trkpt><trkpt lat="45.36783320221638" lon="9.252487346032611"><ele>93.0</ele><time>2026-04-06T09:50:24Z</time></trkpt><trkpt lat="45.367781331152656" lon="9.252375005863398"><ele>93.4</ele><time>2026-04-06T09:50:26Z</time></trkpt><trkpt lat="45.36772961929171" lon="9.252260147581037"><ele>93.80000000000001</ele><time>2026-04-06T09:50:28Z</time></trkpt><trkpt lat="45.3676827326429" lon="9.252138689744847"><ele>94.2</ele><time>2026-04-06T09:50:30Z</time></trkpt><trkpt lat="45.36763220093278" lon="9.252021450693036"><ele>94.6</ele><time>2026-04-06T09:50:32Z</time></trkpt><trkpt lat="45.36757912661313" lon="9.251907742323995"><ele>95.0</ele><time>2026-04-06T09:50:34Z</time></trkpt><trkpt lat="45.36752261749409" lon="9.251800103158823"><ele>95.0</ele><time>2026-04-06T09:50:36Z</time></trkpt><trkpt lat="45.367544866955114" lon="9.251669275948933"><ele>95.0</ele><time>2026-04-06T09:50:38Z</time></trkpt><trkpt lat="45.36765384462998" lon="9.251621152714502"><ele>95.0</ele><time>2026-04-06T09:50:40Z</time></trkpt><trkpt lat="45.367753540395206" lon="9.25161117410104"><ele>95.0</ele><time>2026-04-06T09:50:42Z</time></trkpt><trkpt lat="45.367832327435636" lon="9.251515441262466"><ele>95.0</ele><time>2026-04-06T09:50:44Z</time></trkpt><trkpt lat="45.367876289007114" lon="9.251381309270267"><ele>95.4</ele><time>2026-04-06T09:50:46Z</time></trkpt><trkpt lat="45.367874924978196" lon="9.251230792997337"><ele>95.8</ele><time>2026-04-06T09:50:48Z</time></trkpt><trkpt lat="45.36785465122541" lon="9.25108531357678"><ele>96.19999999999999</ele><time>2026-04-06T09:50:50Z</time></trkpt><trkpt lat="45.3678217435494" lon="9.25094491808803"><ele>96.6</ele><time>2026-04-06T09:50:52Z</time></trkpt><trkpt lat="45.36777932134922" lon="9.250815195978246"><ele>97.0</ele><time>2026-04-06T09:50:54Z</time></trkpt><trkpt lat="45.3677433638747" lon="9.250679878695285"><ele>96.8</ele><time>2026-04-06T09:50:56Z</time></trkpt><trkpt lat="45.367695942467584" lon="9.250547637833852"><ele>96.6</ele><time>2026-04-06T09:50:58Z</time></trkpt><trkpt lat="45.36764480868149" lon="9.25042543654315"><ele>96.39999999999999</ele><time>2026-04-06T09:51:00Z</time></trkpt><trkpt lat="45.36759996993429" lon="9.250298964446038"><ele>96.19999999999999</ele><time>2026-04-06T09:51:02Z</time></trkpt><trkpt lat="45.36754445560338" lon="9.250178682717227"><ele>96.0</ele><time>2026-04-06T09:51:04Z</time></trkpt><trkpt lat="45.36750240724712" lon="9.250060977720086"><ele>96.0</ele><time>2026-04-06T09:51:06Z</time></trkpt><trkpt lat="45.367461493744656" lon="9.249952242995594"><ele>96.0</ele><time>2026-04-06T09:51:08Z</time></trkpt><trkpt lat="45.367438405043686" lon="9.249854491352055"><ele>96.0</ele><time>2026-04-06T09:51:10Z</time></trkpt><trkpt lat="45.367406035238545" lon="9.249770257909093"><ele>96.0</ele><time>2026-04-06T09:51:12Z</time></trkpt><trkpt lat="45.36738314120832" lon="9.249684965599071"><ele>96.0</ele><time>2026-04-06T09:51:14Z</time></trkpt><trkpt lat="45.36738219783152" lon="9.249569293046067"><ele>96.0</ele><time>2026-04-06T09:51:17Z</time></trkpt><trkpt lat="45.367381498713144" lon="9.24944403899214"><ele>96.0</ele><time>2026-04-06T09:51:19Z</time></trkpt><trkpt lat="45.36736519407666" lon="9.249320177286023"><ele>96.0</ele><time>2026-04-06T09:51:21Z</time></trkpt><trkpt lat="45.367355822658226" lon="9.249206488539105"><ele>96.0</ele><time>2026-04-06T09:51:24Z</time></trkpt><trkpt lat="45.36728611078167" lon="9.249116020426829"><ele>96.0</ele><time>2026-04-06T09:51:27Z</time></trkpt><trkpt lat="45.36721823274689" lon="9.249047850597574"><ele>96.0</ele><time>2026-04-06T09:51:29Z</time></trkpt><trkpt lat="45.36715293691703" lon="9.24896814312696"><ele>96.0</ele><time>2026-04-06T09:51:31Z</time></trkpt><trkpt lat="45.36708984083378" lon="9.24889677491006"><ele>95.42857142857142</ele><time>2026-04-06T09:51:33Z</time></trkpt><trkpt lat="45.36703321092276" lon="9.248823654732195"><ele>94.85714285714286</ele><time>2026-04-06T09:51:35Z</time></trkpt><trkpt lat="45.36698317803039" lon="9.24874890652657"><ele>94.28571428571428</ele><time>2026-04-06T09:51:37Z</time></trkpt><trkpt lat="45.36692922863817" lon="9.248685856989567"><ele>93.71428571428571</ele><time>2026-04-06T09:51:39Z</time></trkpt><trkpt lat="45.366876832044014" lon="9.248615248110365"><ele>93.14285714285714</ele><time>2026-04-06T09:51:41Z</time></trkpt><trkpt lat="45.366818254546" lon="9.248556363892392"><ele>92.57142857142857</ele><time>2026-04-06T09:51:43Z</time></trkpt><trkpt lat="45.36675825331391" lon="9.248499266390878"><ele>92.0</ele><time>2026-04-06T09:51:45Z</time></trkpt><trkpt lat="45.36668618726164" lon="9.248465350023354"><ele>92.0</ele><time>2026-04-06T09:51:47Z</time></trkpt><trkpt lat="45.366615061272256" lon="9.248428296784752"><ele>92.0</ele><time>2026-04-06T09:51:49Z</time></trkpt><trkpt lat="45.366541665103526" lon="9.2484144516128"><ele>92.0</ele><time>2026-04-06T09:51:51Z</time></trkpt><trkpt lat="45.36647058362253" lon="9.24846109267571"><ele>92.0</ele><time>2026-04-06T09:51:53Z</time></trkpt><trkpt lat="45.36638874236657" lon="9.24848709704609"><ele>92.0</ele><time>2026-04-06T09:51:55Z</time></trkpt><trkpt lat="45.366307472366685" lon="9.248482308365958"><ele>92.0</ele><time>2026-04-06T09:51:57Z</time></trkpt><trkpt lat="45.366235062093715" lon="9.248414910600523"><ele>92.0</ele><time>2026-04-06T09:51:59Z</time></trkpt><trkpt lat="45.366159643584396" lon="9.248348591473569"><ele>92.0</ele><time>2026-04-06T09:52:01Z</time></trkpt><trkpt lat="45.366093322215676" lon="9.2482641134472"><ele>92.0</ele><time>2026-04-06T09:52:03Z</time></trkpt><trkpt lat="45.3660236232914" lon="9.24818795030476"><ele>92.0</ele><time>2026-04-06T09:52:05Z</time></trkpt><trkpt lat="45.3659567434908" lon="9.248114391246403"><ele>92.0</ele><time>2026-04-06T09:52:07Z</time></trkpt><trkpt lat="45.36588536285898" lon="9.248039469879746"><ele>92.0</ele><time>2026-04-06T09:52:09Z</time></trkpt><trkpt lat="45.36581911669065" lon="9.247962367050071"><ele>92.0</ele><time>2026-04-06T09:52:11Z</time></trkpt><trkpt lat="45.365750990768724" lon="9.247911104379746"><ele>92.0</ele><time>2026-04-06T09:52:13Z</time></trkpt><trkpt lat="45.365690387212176" lon="9.247873836801668"><ele>92.0</ele><time>2026-04-06T09:52:15Z</time></trkpt><trkpt lat="45.365605690743195" lon="9.247848562754687"><ele>92.0</ele><time>2026-04-06T09:52:18Z</time></trkpt><trkpt lat="45.36553268049988" lon="9.247861119952626"><ele>92.0</ele><time>2026-04-06T09:52:20Z</time></trkpt><trkpt lat="45.36544791198085" lon="9.247873182593263"><ele>92.0</ele><time>2026-04-06T09:52:22Z</time></trkpt><trkpt lat="45.3653765771861" lon="9.247879302370507"><ele>92.5</ele><time>2026-04-06T09:52:24Z</time></trkpt><trkpt lat="45.36528781705439" lon="9.247873726146972"><ele>93.0</ele><time>2026-04-06T09:52:27Z</time></trkpt><trkpt lat="45.365225754371735" lon="9.247806341111321"><ele>93.5</ele><time>2026-04-06T09:52:32Z</time></trkpt><trkpt lat="45.36516319202655" lon="9.247772762048102"><ele>94.0</ele><time>2026-04-06T09:52:34Z</time></trkpt><trkpt lat="45.365070224537234" lon="9.247716113829878"><ele>94.5</ele><time>2026-04-06T09:52:37Z</time></trkpt><trkpt lat="45.36499551321817" lon="9.247663640335235"><ele>95.0</ele><time>2026-04-06T09:52:39Z</time></trkpt><trkpt lat="45.36492685059341" lon="9.24761990946646"><ele>95.0</ele><time>2026-04-06T09:52:41Z</time></trkpt><trkpt lat="45.36485851166291" lon="9.247565991932472"><ele>95.0</ele><time>2026-04-06T09:52:43Z</time></trkpt><trkpt lat="45.36478025545468" lon="9.247508750731333"><ele>95.0</ele><time>2026-04-06T09:52:45Z</time></trkpt><trkpt lat="45.36470557631543" lon="9.247440055047326"><ele>95.0</ele><time>2026-04-06T09:52:47Z</time></trkpt><trkpt lat="45.36462946571081" lon="9.247373418500045"><ele>95.0</ele><time>2026-04-06T09:52:49Z</time></trkpt><trkpt lat="45.364560326977504" lon="9.247301151395359"><ele>95.0</ele><time>2026-04-06T09:52:51Z</time></trkpt><trkpt lat="45.364497214390845" lon="9.247227427541114"><ele>94.66666666666667</ele><time>2026-04-06T09:52:53Z</time></trkpt><trkpt lat="45.3644377047008" lon="9.2471570996732"><ele>94.33333333333334</ele><time>2026-04-06T09:52:55Z</time></trkpt><trkpt lat="45.36438324960593" lon="9.247078838884267"><ele>94.0</ele><time>2026-04-06T09:52:57Z</time></trkpt><trkpt lat="45.36432894326945" lon="9.247004854563933"><ele>93.66666666666667</ele><time>2026-04-06T09:52:59Z</time></trkpt><trkpt lat="45.36426936112398" lon="9.246924537497431"><ele>93.33333333333333</ele><time>2026-04-06T09:53:01Z</time></trkpt><trkpt lat="45.36421024703164" lon="9.246837679166928"><ele>93.0</ele><time>2026-04-06T09:53:03Z</time></trkpt><trkpt lat="45.36414682815012" lon="9.246756522017327"><ele>93.0</ele><time>2026-04-06T09:53:05Z</time></trkpt><trkpt lat="45.364086902854744" lon="9.246672372747822"><ele>93.0</ele><time>2026-04-06T09:53:07Z</time></trkpt><trkpt lat="45.364030374659215" lon="9.246581674558964"><ele>93.0</ele><time>2026-04-06T09:53:09Z</time></trkpt><trkpt lat="45.36397426699486" lon="9.246490353644896"><ele>93.0</ele><time>2026-04-06T09:53:11Z</time></trkpt><trkpt lat="45.36391297973944" lon="9.246404107980245"><ele>93.0</ele><time>2026-04-06T09:53:13Z</time></trkpt><trkpt lat="45.36386303178166" lon="9.246319721358214"><ele>93.0</ele><time>2026-04-06T09:53:15Z</time></trkpt><trkpt lat="45.36380444138884" lon="9.2462305248402"><ele>93.0</ele><time>2026-04-06T09:53:17Z</time></trkpt><trkpt lat="45.363740827275336" lon="9.24614503442166"><ele>93.0</ele><time>2026-04-06T09:53:19Z</time></trkpt><trkpt lat="45.3636835929479" lon="9.246052222674418"><ele>93.0</ele><time>2026-04-06T09:53:21Z</time></trkpt><trkpt lat="45.36363090593696" lon="9.24595266817099"><ele>93.0</ele><time>2026-04-06T09:53:23Z</time></trkpt><trkpt lat="45.36357470620741" lon="9.245852854685156"><ele>93.0</ele><time>2026-04-06T09:53:25Z</time></trkpt><trkpt lat="45.363519093197745" lon="9.245753659383462"><ele>93.0</ele><time>2026-04-06T09:53:27Z</time></trkpt><trkpt lat="45.36346981789603" lon="9.24564884130982"><ele>93.0</ele><time>2026-04-06T09:53:29Z</time></trkpt><trkpt lat="45.36342279859628" lon="9.245545481906982"><ele>93.0</ele><time>2026-04-06T09:53:31Z</time></trkpt><trkpt lat="45.363386287685906" lon="9.24543304460475"><ele>93.0</ele><time>2026-04-06T09:53:33Z</time></trkpt><trkpt lat="45.363362252478055" lon="9.24531632118479"><ele>93.0</ele><time>2026-04-06T09:53:35Z</time></trkpt><trkpt lat="45.363341788095624" lon="9.245199978159675"><ele>93.0</ele><time>2026-04-06T09:53:37Z</time></trkpt><trkpt lat="45.36332223575059" lon="9.24508532283207"><ele>93.0</ele><time>2026-04-06T09:53:39Z</time></trkpt><trkpt lat="45.363297958991325" lon="9.24497979088434"><ele>93.0</ele><time>2026-04-06T09:53:41Z</time></trkpt><trkpt lat="45.363286989948634" lon="9.244868884906289"><ele>93.0</ele><time>2026-04-06T09:53:43Z</time></trkpt><trkpt lat="45.3632659471939" lon="9.24475941974394"><ele>93.0</ele><time>2026-04-06T09:53:45Z</time></trkpt><trkpt lat="45.36324517646081" lon="9.244643964190725"><ele>93.0</ele><time>2026-04-06T09:53:47Z</time></trkpt><trkpt lat="45.363229299580844" lon="9.244522505585717"><ele>93.0</ele><time>2026-04-06T09:53:49Z</time></trkpt><trkpt lat="45.36321376825319" lon="9.244398590676054"><ele>93.0</ele><time>2026-04-06T09:53:51Z</time></trkpt><trkpt lat="45.363189700440834" lon="9.244282970291028"><ele>93.16666666666667</ele><time>2026-04-06T09:53:53Z</time></trkpt><trkpt lat="45.363173329997096" lon="9.244165085240875"><ele>93.33333333333333</ele><time>2026-04-06T09:53:55Z</time></trkpt><trkpt lat="45.363157086233876" lon="9.244047027340919"><ele>93.5</ele><time>2026-04-06T09:53:57Z</time></trkpt><trkpt lat="45.363140127365455" lon="9.243924997289445"><ele>93.66666666666666</ele><time>2026-04-06T09:53:59Z</time></trkpt><trkpt lat="45.363118179755105" lon="9.243817268536603"><ele>93.83333333333333</ele><time>2026-04-06T09:54:01Z</time></trkpt><trkpt lat="45.36309356621282" lon="9.243700739763526"><ele>94.0</ele><time>2026-04-06T09:54:03Z</time></trkpt><trkpt lat="45.363068563656626" lon="9.24358434312303"><ele>94.0</ele><time>2026-04-06T09:54:05Z</time></trkpt><trkpt lat="45.36304468263165" lon="9.243463409492067"><ele>94.0</ele><time>2026-04-06T09:54:07Z</time></trkpt><trkpt lat="45.36301764791983" lon="9.243348436535976"><ele>94.0</ele><time>2026-04-06T09:54:09Z</time></trkpt><trkpt lat="45.3629874888148" lon="9.243233399726952"><ele>94.0</ele><time>2026-04-06T09:54:11Z</time></trkpt><trkpt lat="45.36296732576815" lon="9.243120429834581"><ele>94.0</ele><time>2026-04-06T09:54:13Z</time></trkpt><trkpt lat="45.3629395564911" lon="9.243015451034541"><ele>94.0</ele><time>2026-04-06T09:54:15Z</time></trkpt><trkpt lat="45.36291202547916" lon="9.24292283346438"><ele>93.85714285714286</ele><time>2026-04-06T09:54:17Z</time></trkpt><trkpt lat="45.36289686478906" lon="9.242811579734159"><ele>93.71428571428571</ele><time>2026-04-06T09:54:19Z</time></trkpt><trkpt lat="45.36287197056307" lon="9.242708307423715"><ele>93.57142857142858</ele><time>2026-04-06T09:54:21Z</time></trkpt><trkpt lat="45.362842805798735" lon="9.242618528189494"><ele>93.42857142857143</ele><time>2026-04-06T09:54:23Z</time></trkpt><trkpt lat="45.362822935737626" lon="9.242525914693843"><ele>93.28571428571429</ele><time>2026-04-06T09:54:25Z</time></trkpt><trkpt lat="45.36277541020518" lon="9.242444155207036"><ele>93.14285714285715</ele><time>2026-04-06T09:54:27Z</time></trkpt><trkpt lat="45.36270285279405" lon="9.242417416915766"><ele>93.0</ele><time>2026-04-06T09:54:29Z</time></trkpt><trkpt lat="45.36261916740385" lon="9.242431597548169"><ele>93.0</ele><time>2026-04-06T09:54:31Z</time></trkpt><trkpt lat="45.36254920093501" lon="9.242373267007878"><ele>93.0</ele><time>2026-04-06T09:54:33Z</time></trkpt><trkpt lat="45.36251020001371" lon="9.24223317204974"><ele>93.0</ele><time>2026-04-06T09:54:35Z</time></trkpt><trkpt lat="45.36245468454782" lon="9.242131621377807"><ele>93.0</ele><time>2026-04-06T09:54:37Z</time></trkpt><trkpt lat="45.36241114841011" lon="9.24200931463371"><ele>93.0</ele><time>2026-04-06T09:54:39Z</time></trkpt><trkpt lat="45.36237046941001" lon="9.24190136604586"><ele>93.33333333333333</ele><time>2026-04-06T09:54:41Z</time></trkpt><trkpt lat="45.36232977191774" lon="9.241782804505116"><ele>93.66666666666667</ele><time>2026-04-06T09:54:43Z</time></trkpt><trkpt lat="45.362297482649545" lon="9.241683859564233"><ele>94.0</ele><time>2026-04-06T09:54:45Z</time></trkpt><trkpt lat="45.36226032898756" lon="9.241588248432029"><ele>94.33333333333334</ele><time>2026-04-06T09:54:47Z</time></trkpt><trkpt lat="45.362221204928154" lon="9.241494806510234"><ele>94.66666666666667</ele><time>2026-04-06T09:54:49Z</time></trkpt><trkpt lat="45.362189224971495" lon="9.241391679603653"><ele>95.0</ele><time>2026-04-06T09:54:51Z</time></trkpt><trkpt lat="45.362148204105864" lon="9.241285712106539"><ele>95.0</ele><time>2026-04-06T09:54:53Z</time></trkpt><trkpt lat="45.3621130860119" lon="9.241184933371036"><ele>95.0</ele><time>2026-04-06T09:54:55Z</time></trkpt><trkpt lat="45.36207549184337" lon="9.241084376912257"><ele>95.0</ele><time>2026-04-06T09:54:57Z</time></trkpt><trkpt lat="45.362042648817514" lon="9.240978092737564"><ele>95.0</ele><time>2026-04-06T09:54:59Z</time></trkpt><trkpt lat="45.362010173498284" lon="9.240871990967495"><ele>95.0</ele><time>2026-04-06T09:55:01Z</time></trkpt><trkpt lat="45.36196767522632" lon="9.24077577592399"><ele>95.0</ele><time>2026-04-06T09:55:03Z</time></trkpt><trkpt lat="45.3619385538649" lon="9.240681493542096"><ele>94.83333333333334</ele><time>2026-04-06T09:55:05Z</time></trkpt><trkpt lat="45.36191226386513" lon="9.240577969506964"><ele>94.66666666666667</ele><time>2026-04-06T09:55:07Z</time></trkpt><trkpt lat="45.36187726968943" lon="9.240483839814317"><ele>94.5</ele><time>2026-04-06T09:55:09Z</time></trkpt><trkpt lat="45.36185324592966" lon="9.24037807839311"><ele>94.33333333333333</ele><time>2026-04-06T09:55:11Z</time></trkpt><trkpt lat="45.36183680566198" lon="9.240269409964169"><ele>94.16666666666666</ele><time>2026-04-06T09:55:13Z</time></trkpt><trkpt lat="45.361814480853425" lon="9.240160424206183"><ele>94.0</ele><time>2026-04-06T09:55:15Z</time></trkpt><trkpt lat="45.36180644069425" lon="9.240046735697707"><ele>94.0</ele><time>2026-04-06T09:55:17Z</time></trkpt><trkpt lat="45.3617847812905" lon="9.239935298357436"><ele>94.0</ele><time>2026-04-06T09:55:19Z</time></trkpt><trkpt lat="45.36177025775617" lon="9.23982167468019"><ele>94.0</ele><time>2026-04-06T09:55:21Z</time></trkpt><trkpt lat="45.361756481681745" lon="9.239709971804862"><ele>94.0</ele><time>2026-04-06T09:55:23Z</time></trkpt><trkpt lat="45.36174477251679" lon="9.239595669464403"><ele>94.0</ele><time>2026-04-06T09:55:25Z</time></trkpt><trkpt lat="45.36172850702786" lon="9.239487639135238"><ele>94.0</ele><time>2026-04-06T09:55:27Z</time></trkpt><trkpt lat="45.36172082920763" lon="9.23938102458168"><ele>93.83333333333333</ele><time>2026-04-06T09:55:29Z</time></trkpt><trkpt lat="45.36170472416398" lon="9.239273776821676"><ele>93.66666666666666</ele><time>2026-04-06T09:55:31Z</time></trkpt><trkpt lat="45.361695462253195" lon="9.239165319038205"><ele>93.5</ele><time>2026-04-06T09:55:33Z</time></trkpt><trkpt lat="45.3616882500201" lon="9.239055555207221"><ele>93.33333333333333</ele><time>2026-04-06T09:55:35Z</time></trkpt><trkpt lat="45.361680888019436" lon="9.238943122750483"><ele>93.16666666666667</ele><time>2026-04-06T09:55:37Z</time></trkpt><trkpt lat="45.361663596783856" lon="9.23883548997863"><ele>93.0</ele><time>2026-04-06T09:55:39Z</time></trkpt><trkpt lat="45.36164929230338" lon="9.23871677221715"><ele>92.83333333333333</ele><time>2026-04-06T09:55:41Z</time></trkpt><trkpt lat="45.361635950865264" lon="9.238604242824538"><ele>92.66666666666667</ele><time>2026-04-06T09:55:43Z</time></trkpt><trkpt lat="45.36162400023173" lon="9.23848675331861"><ele>92.5</ele><time>2026-04-06T09:55:45Z</time></trkpt><trkpt lat="45.36161136958654" lon="9.238375615951226"><ele>92.33333333333334</ele><time>2026-04-06T09:55:47Z</time></trkpt><trkpt lat="45.361610964329834" lon="9.23827379837172"><ele>92.16666666666667</ele><time>2026-04-06T09:55:50Z</time></trkpt><trkpt lat="45.361579024133164" lon="9.238178978764157"><ele>92.0</ele><time>2026-04-06T09:55:54Z</time></trkpt><trkpt lat="45.361576530425516" lon="9.238079187435746"><ele>92.0</ele><time>2026-04-06T09:55:56Z</time></trkpt><trkpt lat="45.36158632443765" lon="9.237947930268952"><ele>92.0</ele><time>2026-04-06T09:55:58Z</time></trkpt><trkpt lat="45.361591117855625" lon="9.237827313882889"><ele>92.0</ele><time>2026-04-06T09:56:00Z</time></trkpt><trkpt lat="45.36160235427627" lon="9.23771198462153"><ele>92.0</ele><time>2026-04-06T09:56:02Z</time></trkpt><trkpt lat="45.361613846273485" lon="9.23760604247399"><ele>92.0</ele><time>2026-04-06T09:56:04Z</time></trkpt><trkpt lat="45.361619921670275" lon="9.23750660896946"><ele>92.0</ele><time>2026-04-06T09:56:06Z</time></trkpt><trkpt lat="45.36162788407411" lon="9.237395038956208"><ele>92.33333333333334</ele><time>2026-04-06T09:56:08Z</time></trkpt><trkpt lat="45.36163973292933" lon="9.237278896388666"><ele>92.66666666666667</ele><time>2026-04-06T09:56:10Z</time></trkpt><trkpt lat="45.361650948606105" lon="9.237152770447688"><ele>93.0</ele><time>2026-04-06T09:56:12Z</time></trkpt><trkpt lat="45.36166542179756" lon="9.237028244174292"><ele>93.33333333333333</ele><time>2026-04-06T09:56:14Z</time></trkpt><trkpt lat="45.36167782582838" lon="9.236901438900814"><ele>93.66666666666666</ele><time>2026-04-06T09:56:16Z</time></trkpt><trkpt lat="45.361688503030386" lon="9.236769268283402"><ele>94.0</ele><time>2026-04-06T09:56:18Z</time></trkpt><trkpt lat="45.36171007502659" lon="9.236642806844685"><ele>94.0</ele><time>2026-04-06T09:56:20Z</time></trkpt><trkpt lat="45.36175403935591" lon="9.236528329572868"><ele>94.0</ele><time>2026-04-06T09:56:22Z</time></trkpt><trkpt lat="45.36181706029895" lon="9.236433926112102"><ele>94.0</ele><time>2026-04-06T09:56:24Z</time></trkpt><trkpt lat="45.361902345517464" lon="9.236374561692672"><ele>94.0</ele><time>2026-04-06T09:56:26Z</time></trkpt><trkpt lat="45.3619893405284" lon="9.236325395165439"><ele>94.0</ele><time>2026-04-06T09:56:28Z</time></trkpt><trkpt lat="45.36206107108737" lon="9.236227907338836"><ele>94.0</ele><time>2026-04-06T09:56:30Z</time></trkpt><trkpt lat="45.3621050515541" lon="9.23610548244443"><ele>94.0</ele><time>2026-04-06T09:56:32Z</time></trkpt><trkpt lat="45.36210507993884" lon="9.235965589764334"><ele>94.0</ele><time>2026-04-06T09:56:34Z</time></trkpt><trkpt lat="45.3620848104882" lon="9.235829162421515"><ele>94.0</ele><time>2026-04-06T09:56:36Z</time></trkpt><trkpt lat="45.36208439748876" lon="9.235688571246671"><ele>94.0</ele><time>2026-04-06T09:56:38Z</time></trkpt><trkpt lat="45.36208917602275" lon="9.235541445444596"><ele>94.0</ele><time>2026-04-06T09:56:40Z</time></trkpt><trkpt lat="45.36210787413933" lon="9.235402142839664"><ele>94.0</ele><time>2026-04-06T09:56:42Z</time></trkpt><trkpt lat="45.362108113474186" lon="9.235261508170879"><ele>94.0</ele><time>2026-04-06T09:56:44Z</time></trkpt><trkpt lat="45.36209926774762" lon="9.235117558551057"><ele>94.0</ele><time>2026-04-06T09:56:46Z</time></trkpt><trkpt lat="45.362088002308134" lon="9.23497054116657"><ele>94.0</ele><time>2026-04-06T09:56:48Z</time></trkpt><trkpt lat="45.36207545472902" lon="9.234821914603172"><ele>93.80000000000001</ele><time>2026-04-06T09:56:50Z</time></trkpt><trkpt lat="45.36206049543586" lon="9.234667561111035"><ele>93.60000000000001</ele><time>2026-04-06T09:56:52Z</time></trkpt><trkpt lat="45.36204738475131" lon="9.23451054504383"><ele>93.4</ele><time>2026-04-06T09:56:54Z</time></trkpt><trkpt lat="45.36203349451388" lon="9.234357851936082"><ele>93.2</ele><time>2026-04-06T09:56:56Z</time></trkpt><trkpt lat="45.3620174545081" lon="9.23420297866803"><ele>93.0</ele><time>2026-04-06T09:56:58Z</time></trkpt><trkpt lat="45.36200142868161" lon="9.23405439804482"><ele>93.4</ele><time>2026-04-06T09:57:00Z</time></trkpt><trkpt lat="45.3619816581639" lon="9.233907145621592"><ele>93.80000000000001</ele><time>2026-04-06T09:57:02Z</time></trkpt><trkpt lat="45.361964678752734" lon="9.233759401508388"><ele>94.2</ele><time>2026-04-06T09:57:04Z</time></trkpt><trkpt lat="45.361945315170374" lon="9.233611923617579"><ele>94.6</ele><time>2026-04-06T09:57:06Z</time></trkpt><trkpt lat="45.361928376476584" lon="9.233470596134353"><ele>95.0</ele><time>2026-04-06T09:57:08Z</time></trkpt><trkpt lat="45.361908757070815" lon="9.233328759172531"><ele>95.0</ele><time>2026-04-06T09:57:10Z</time></trkpt><trkpt lat="45.36188931847606" lon="9.233201342093734"><ele>95.0</ele><time>2026-04-06T09:57:12Z</time></trkpt><trkpt lat="45.361869183879" lon="9.233082060283538"><ele>95.0</ele><time>2026-04-06T09:57:14Z</time></trkpt><trkpt lat="45.36184808315378" lon="9.2329581982961"><ele>95.0</ele><time>2026-04-06T09:57:16Z</time></trkpt><trkpt lat="45.36182677401889" lon="9.232842980712514"><ele>95.0</ele><time>2026-04-06T09:57:18Z</time></trkpt><trkpt lat="45.361809262011775" lon="9.232736061618981"><ele>95.0</ele><time>2026-04-06T09:57:20Z</time></trkpt><trkpt lat="45.36179105905659" lon="9.232635944066978"><ele>94.85714285714286</ele><time>2026-04-06T09:57:22Z</time></trkpt><trkpt lat="45.36177396505537" lon="9.232536568165035"><ele>94.71428571428572</ele><time>2026-04-06T09:57:24Z</time></trkpt><trkpt lat="45.36175154434827" lon="9.232437998822318"><ele>94.57142857142857</ele><time>2026-04-06T09:57:26Z</time></trkpt><trkpt lat="45.3617307893065" lon="9.232338442887045"><ele>94.42857142857143</ele><time>2026-04-06T09:57:28Z</time></trkpt><trkpt lat="45.36171098656116" lon="9.232246615608496"><ele>94.28571428571428</ele><time>2026-04-06T09:57:30Z</time></trkpt><trkpt lat="45.36169247558817" lon="9.232155383874806"><ele>94.14285714285714</ele><time>2026-04-06T09:57:32Z</time></trkpt><trkpt lat="45.36167874455356" lon="9.232057519035944"><ele>94.0</ele><time>2026-04-06T09:57:34Z</time></trkpt><trkpt lat="45.361656612363575" lon="9.231969192615022"><ele>94.0</ele><time>2026-04-06T09:57:36Z</time></trkpt><trkpt lat="45.36163588899035" lon="9.231880365989317"><ele>94.0</ele><time>2026-04-06T09:57:38Z</time></trkpt><trkpt lat="45.36161515747006" lon="9.231789106836342"><ele>94.0</ele><time>2026-04-06T09:57:40Z</time></trkpt><trkpt lat="45.36159581371895" lon="9.231699745485415"><ele>94.0</ele><time>2026-04-06T09:57:42Z</time></trkpt><trkpt lat="45.361567104547376" lon="9.231575403927712"><ele>94.0</ele><time>2026-04-06T09:57:45Z</time></trkpt><trkpt lat="45.3615432274912" lon="9.231491442630048"><ele>94.0</ele><time>2026-04-06T09:57:47Z</time></trkpt><trkpt lat="45.36151673894933" lon="9.231367577711861"><ele>94.0</ele><time>2026-04-06T09:57:50Z</time></trkpt><trkpt lat="45.36149486425252" lon="9.231280587803438"><ele>94.16666666666666</ele><time>2026-04-06T09:57:52Z</time></trkpt><trkpt lat="45.36147416070271" lon="9.231189994071643"><ele>94.33333333333333</ele><time>2026-04-06T09:57:54Z</time></trkpt><trkpt lat="45.36144960837958" lon="9.23109702345937"><ele>94.5</ele><time>2026-04-06T09:57:56Z</time></trkpt><trkpt lat="45.36142423188029" lon="9.230996662448932"><ele>94.66666666666667</ele><time>2026-04-06T09:57:58Z</time></trkpt><trkpt lat="45.36139810636355" lon="9.230878316701206"><ele>94.83333333333334</ele><time>2026-04-06T09:58:00Z</time></trkpt><trkpt lat="45.361364967813046" lon="9.23074595357226"><ele>95.0</ele><time>2026-04-06T09:58:02Z</time></trkpt><trkpt lat="45.361322644627165" lon="9.230595128582276"><ele>95.16666666666667</ele><time>2026-04-06T09:58:04Z</time></trkpt><trkpt lat="45.36128438231454" lon="9.230431929069377"><ele>95.33333333333334</ele><time>2026-04-06T09:58:06Z</time></trkpt><trkpt lat="45.36125989315075" lon="9.23034804877581"><ele>95.5</ele><time>2026-04-06T09:58:07Z</time></trkpt><trkpt lat="45.361235925419706" lon="9.230260364827163"><ele>95.66666666666667</ele><time>2026-04-06T09:58:08Z</time></trkpt><trkpt lat="45.361213119442944" lon="9.230167231646082"><ele>95.83333333333333</ele><time>2026-04-06T09:58:09Z</time></trkpt><trkpt lat="45.36119275909375" lon="9.23006721059978"><ele>96.0</ele><time>2026-04-06T09:58:10Z</time></trkpt><trkpt lat="45.3611739580447" lon="9.22996026435728"><ele>96.0</ele><time>2026-04-06T09:58:11Z</time></trkpt><trkpt lat="45.36115931766501" lon="9.229846599834561"><ele>96.0</ele><time>2026-04-06T09:58:12Z</time></trkpt><trkpt lat="45.361148342059934" lon="9.229739495844402"><ele>96.0</ele><time>2026-04-06T09:58:13Z</time></trkpt><trkpt lat="45.36114493582511" lon="9.229649393765467"><ele>96.0</ele><time>2026-04-06T09:58:14Z</time></trkpt><trkpt lat="45.361163132635234" lon="9.229481117387008"><ele>96.0</ele><time>2026-04-06T09:58:16Z</time></trkpt><trkpt lat="45.36119742643491" lon="9.229346705644835"><ele>96.0</ele><time>2026-04-06T09:58:18Z</time></trkpt><trkpt lat="45.361249562149524" lon="9.229235033999313"><ele>95.6</ele><time>2026-04-06T09:58:20Z</time></trkpt><trkpt lat="45.36133794970738" lon="9.229190424343265"><ele>95.19999999999999</ele><time>2026-04-06T09:58:22Z</time></trkpt><trkpt lat="45.36143507672352" lon="9.22913028769457"><ele>94.80000000000001</ele><time>2026-04-06T09:58:24Z</time></trkpt><trkpt lat="45.361498260471194" lon="9.229004035064229"><ele>94.4</ele><time>2026-04-06T09:58:26Z</time></trkpt><trkpt lat="45.3615237847426" lon="9.228848533621345"><ele>94.0</ele><time>2026-04-06T09:58:28Z</time></trkpt><trkpt lat="45.361497309917105" lon="9.228689083722552"><ele>94.0</ele><time>2026-04-06T09:58:30Z</time></trkpt><trkpt lat="45.36142334280724" lon="9.228568243876557"><ele>94.0</ele><time>2026-04-06T09:58:32Z</time></trkpt><trkpt lat="45.36132037427087" lon="9.228513450124964"><ele>94.0</ele><time>2026-04-06T09:58:34Z</time></trkpt><trkpt lat="45.36120998571375" lon="9.228533878588992"><ele>94.0</ele><time>2026-04-06T09:58:36Z</time></trkpt><trkpt lat="45.36111247986395" lon="9.228588789630054"><ele>94.0</ele><time>2026-04-06T09:58:38Z</time></trkpt><trkpt lat="45.36102415331477" lon="9.228670108134601"><ele>94.0</ele><time>2026-04-06T09:58:40Z</time></trkpt><trkpt lat="45.36091394256226" lon="9.228683951370986"><ele>94.0</ele><time>2026-04-06T09:58:42Z</time></trkpt><trkpt lat="45.36084931735648" lon="9.228675959817672"><ele>94.0</ele><time>2026-04-06T09:58:43Z</time></trkpt><trkpt lat="45.36073407666476" lon="9.228675585317115"><ele>94.0</ele><time>2026-04-06T09:58:45Z</time></trkpt><trkpt lat="45.36062821107936" lon="9.228725399164132"><ele>94.0</ele><time>2026-04-06T09:58:47Z</time></trkpt><trkpt lat="45.36052846634003" lon="9.228791962863596"><ele>94.25</ele><time>2026-04-06T09:58:49Z</time></trkpt><trkpt lat="45.360422325164805" lon="9.22883361262933"><ele>94.5</ele><time>2026-04-06T09:58:51Z</time></trkpt><trkpt lat="45.3603096886147" lon="9.228783518519414"><ele>94.75</ele><time>2026-04-06T09:58:53Z</time></trkpt><trkpt lat="45.360193007414416" lon="9.228759740941358"><ele>95.0</ele><time>2026-04-06T09:58:55Z</time></trkpt><trkpt lat="45.36008277371636" lon="9.228697280117284"><ele>95.0</ele><time>2026-04-06T09:58:57Z</time></trkpt><trkpt lat="45.35999149545475" lon="9.22859215454285"><ele>95.0</ele><time>2026-04-06T09:58:59Z</time></trkpt><trkpt lat="45.359916639686894" lon="9.228459509933757"><ele>95.0</ele><time>2026-04-06T09:59:01Z</time></trkpt><trkpt lat="45.35986962654111" lon="9.228314521300295"><ele>95.0</ele><time>2026-04-06T09:59:03Z</time></trkpt><trkpt lat="45.35985264351398" lon="9.228227746947764"><ele>95.0</ele><time>2026-04-06T09:59:04Z</time></trkpt><trkpt lat="45.35981020200752" lon="9.228072021797953"><ele>95.2</ele><time>2026-04-06T09:59:06Z</time></trkpt><trkpt lat="45.35976637326716" lon="9.227930594214763"><ele>95.4</ele><time>2026-04-06T09:59:08Z</time></trkpt><trkpt lat="45.35973387615981" lon="9.227777515014347"><ele>95.6</ele><time>2026-04-06T09:59:10Z</time></trkpt><trkpt lat="45.359690286659365" lon="9.227646182565449"><ele>95.8</ele><time>2026-04-06T09:59:12Z</time></trkpt><trkpt lat="45.35965997273572" lon="9.227517863892963"><ele>96.0</ele><time>2026-04-06T09:59:14Z</time></trkpt><trkpt lat="45.35965113607264" lon="9.227379614266672"><ele>96.19999999999999</ele><time>2026-04-06T09:59:16Z</time></trkpt><trkpt lat="45.35967240715612" lon="9.227237630065494"><ele>96.39999999999999</ele><time>2026-04-06T09:59:18Z</time></trkpt><trkpt lat="45.359702923241755" lon="9.227094731052313"><ele>96.6</ele><time>2026-04-06T09:59:20Z</time></trkpt><trkpt lat="45.35971860978548" lon="9.226946954501846"><ele>96.8</ele><time>2026-04-06T09:59:22Z</time></trkpt><trkpt lat="45.359740350889155" lon="9.226803395877834"><ele>97.0</ele><time>2026-04-06T09:59:24Z</time></trkpt><trkpt lat="45.35977233210043" lon="9.226657959536807"><ele>97.0</ele><time>2026-04-06T09:59:26Z</time></trkpt><trkpt lat="45.35978878055862" lon="9.226502287979661"><ele>97.0</ele><time>2026-04-06T09:59:28Z</time></trkpt><trkpt lat="45.359733286282136" lon="9.226362283665475"><ele>97.0</ele><time>2026-04-06T09:59:30Z</time></trkpt><trkpt lat="45.35964335979133" lon="9.226271878735066"><ele>97.0</ele><time>2026-04-06T09:59:32Z</time></trkpt><trkpt lat="45.35963229769727" lon="9.226182901032303"><ele>97.0</ele><time>2026-04-06T09:59:33Z</time></trkpt><trkpt lat="45.359643736842095" lon="9.226080031322635"><ele>97.39999999999999</ele><time>2026-04-06T09:59:34Z</time></trkpt><trkpt lat="45.35959356015776" lon="9.22593817436451"><ele>97.8</ele><time>2026-04-06T09:59:36Z</time></trkpt><trkpt lat="45.359553870241776" lon="9.22578670681805"><ele>98.2</ele><time>2026-04-06T09:59:38Z</time></trkpt><trkpt lat="45.35951772045489" lon="9.225640378238856"><ele>98.6</ele><time>2026-04-06T09:59:40Z</time></trkpt><trkpt lat="45.35947431753921" lon="9.225499498661833"><ele>99.0</ele><time>2026-04-06T09:59:42Z</time></trkpt><trkpt lat="45.35943937176872" lon="9.225359698014696"><ele>99.0</ele><time>2026-04-06T09:59:44Z</time></trkpt><trkpt lat="45.35940491778151" lon="9.225224298638459"><ele>99.0</ele><time>2026-04-06T09:59:46Z</time></trkpt><trkpt lat="45.359371300689716" lon="9.22510420464175"><ele>99.0</ele><time>2026-04-06T09:59:48Z</time></trkpt><trkpt lat="45.35936214016814" lon="9.224987674725742"><ele>99.0</ele><time>2026-04-06T09:59:50Z</time></trkpt><trkpt lat="45.35942636966302" lon="9.22491105621628"><ele>99.0</ele><time>2026-04-06T09:59:52Z</time></trkpt><trkpt lat="45.35952250376189" lon="9.224868918807827"><ele>99.0</ele><time>2026-04-06T09:59:54Z</time></trkpt><trkpt lat="45.35960901019746" lon="9.224818392608553"><ele>99.0</ele><time>2026-04-06T09:59:56Z</time></trkpt><trkpt lat="45.35969996157156" lon="9.22477319161249"><ele>99.0</ele><time>2026-04-06T09:59:58Z</time></trkpt><trkpt lat="45.359796627654546" lon="9.224733322721168"><ele>99.0</ele><time>2026-04-06T10:00:00Z</time></trkpt><trkpt lat="45.35989399603354" lon="9.224680585284103"><ele>99.0</ele><time>2026-04-06T10:00:02Z</time></trkpt><trkpt lat="45.35999601092398" lon="9.224627340638618"><ele>98.6</ele><time>2026-04-06T10:00:04Z</time></trkpt><trkpt lat="45.3600885700567" lon="9.224575902915458"><ele>98.2</ele><time>2026-04-06T10:00:06Z</time></trkpt><trkpt lat="45.36018667131477" lon="9.224540442887077"><ele>97.8</ele><time>2026-04-06T10:00:08Z</time></trkpt><trkpt lat="45.36028319119703" lon="9.224471350241847"><ele>97.39999999999999</ele><time>2026-04-06T10:00:10Z</time></trkpt><trkpt lat="45.36038689541355" lon="9.224412835148726"><ele>97.0</ele><time>2026-04-06T10:00:12Z</time></trkpt><trkpt lat="45.36050125914485" lon="9.224368447150809"><ele>96.6</ele><time>2026-04-06T10:00:14Z</time></trkpt><trkpt lat="45.360603808715595" lon="9.224307183857762"><ele>96.19999999999999</ele><time>2026-04-06T10:00:16Z</time></trkpt><trkpt lat="45.36070481726613" lon="9.224248456443778"><ele>95.8</ele><time>2026-04-06T10:00:18Z</time></trkpt><trkpt lat="45.360801645424466" lon="9.224180925674172"><ele>95.4</ele><time>2026-04-06T10:00:20Z</time></trkpt><trkpt lat="45.360900977571085" lon="9.224127074604048"><ele>95.0</ele><time>2026-04-06T10:00:21.999Z</time></trkpt><trkpt lat="45.36098188281439" lon="9.224014896628187"><ele>95.0</ele><time>2026-04-06T10:00:23.999Z</time></trkpt><trkpt lat="45.36103705532949" lon="9.223875188169481"><ele>95.0</ele><time>2026-04-06T10:00:25.999Z</time></trkpt><trkpt lat="45.361093664820494" lon="9.223759026215982"><ele>95.0</ele><time>2026-04-06T10:00:27.999Z</time></trkpt><trkpt lat="45.36114593843581" lon="9.223626802060096"><ele>95.0</ele><time>2026-04-06T10:00:29.999Z</time></trkpt><trkpt lat="45.361190082321635" lon="9.223498182970092"><ele>95.0</ele><time>2026-04-06T10:00:31.999Z</time></trkpt><trkpt lat="45.36121850307745" lon="9.223409912364765"><ele>95.0</ele><time>2026-04-06T10:00:32.999Z</time></trkpt><trkpt lat="45.36125706956432" lon="9.223275099125537"><ele>95.0</ele><time>2026-04-06T10:00:34.999Z</time></trkpt><trkpt lat="45.361269140042396" lon="9.2231329288739"><ele>95.0</ele><time>2026-04-06T10:00:36.999Z</time></trkpt><trkpt lat="45.3611972905023" lon="9.223002900593592"><ele>95.0</ele><time>2026-04-06T10:00:38.999Z</time></trkpt><trkpt lat="45.36110613789153" lon="9.222927136511686"><ele>95.0</ele><time>2026-04-06T10:00:40.999Z</time></trkpt><trkpt lat="45.36101142075489" lon="9.22285067840088"><ele>95.0</ele><time>2026-04-06T10:00:42.999Z</time></trkpt><trkpt lat="45.36092170716071" lon="9.222759238621023"><ele>95.0</ele><time>2026-04-06T10:00:44.999Z</time></trkpt><trkpt lat="45.360825568458786" lon="9.22266830752038"><ele>95.0</ele><time>2026-04-06T10:00:46.999Z</time></trkpt><trkpt lat="45.36072345472082" lon="9.222569165896076"><ele>95.0</ele><time>2026-04-06T10:00:48.999Z</time></trkpt><trkpt lat="45.3606662712703" lon="9.222524563526795"><ele>95.0</ele><time>2026-04-06T10:00:49.999Z</time></trkpt><trkpt lat="45.36060881589482" lon="9.222472908014524"><ele>95.0</ele><time>2026-04-06T10:00:50.999Z</time></trkpt><trkpt lat="45.360554980968665" lon="9.222421506599593"><ele>95.0</ele><time>2026-04-06T10:00:51.999Z</time></trkpt><trkpt lat="45.360505076219155" lon="9.222363511593223"><ele>95.0</ele><time>2026-04-06T10:00:52.999Z</time></trkpt><trkpt lat="45.36044414251914" lon="9.2223222830878"><ele>95.0</ele><time>2026-04-06T10:00:53.999Z</time></trkpt><trkpt lat="45.36038735383888" lon="9.222270602200428"><ele>95.0</ele><time>2026-04-06T10:00:54.999Z</time></trkpt><trkpt lat="45.36033076577975" lon="9.22222078484455"><ele>95.0</ele><time>2026-04-06T10:00:55.999Z</time></trkpt><trkpt lat="45.360274232425375" lon="9.222175903886818"><ele>95.0</ele><time>2026-04-06T10:00:56.999Z</time></trkpt><trkpt lat="45.36017212315905" lon="9.22208610025124"><ele>95.33333333333334</ele><time>2026-04-06T10:00:58.999Z</time></trkpt><trkpt lat="45.36011994534544" lon="9.222033614281214"><ele>95.66666666666667</ele><time>2026-04-06T10:00:59.998Z</time></trkpt><trkpt lat="45.36003990780362" lon="9.221930080384533"><ele>96.0</ele><time>2026-04-06T10:01:01.998Z</time></trkpt><trkpt lat="45.359940102874965" lon="9.221890146113"><ele>96.33333333333334</ele><time>2026-04-06T10:01:03.998Z</time></trkpt><trkpt lat="45.35986921272361" lon="9.221829538869589"><ele>96.66666666666667</ele><time>2026-04-06T10:01:05.998Z</time></trkpt><trkpt lat="45.359812106230834" lon="9.22176990346257"><ele>97.0</ele><time>2026-04-06T10:01:07.998Z</time></trkpt><trkpt lat="45.35974865828496" lon="9.221723217800841"><ele>97.0</ele><time>2026-04-06T10:01:09.998Z</time></trkpt><trkpt lat="45.359703923333576" lon="9.221653568627838"><ele>97.0</ele><time>2026-04-06T10:01:11.998Z</time></trkpt><trkpt lat="45.35970201677728" lon="9.221562486938595"><ele>97.0</ele><time>2026-04-06T10:01:13.998Z</time></trkpt><trkpt lat="45.35963314255066" lon="9.221532447374512"><ele>97.0</ele><time>2026-04-06T10:01:15.998Z</time></trkpt><trkpt lat="45.35955776032451" lon="9.221476327750246"><ele>97.0</ele><time>2026-04-06T10:01:18.998Z</time></trkpt><trkpt lat="45.35949076247631" lon="9.221435246749337"><ele>97.0</ele><time>2026-04-06T10:01:20.998Z</time></trkpt><trkpt lat="45.35941150329077" lon="9.22138060196252"><ele>97.0</ele><time>2026-04-06T10:01:22.998Z</time></trkpt><trkpt lat="45.35932890774595" lon="9.221315525368924"><ele>97.0</ele><time>2026-04-06T10:01:24.998Z</time></trkpt><trkpt lat="45.359259297736315" lon="9.221244253018853"><ele>97.0</ele><time>2026-04-06T10:01:26.998Z</time></trkpt><trkpt lat="45.35919230522324" lon="9.22119545304605"><ele>97.0</ele><time>2026-04-06T10:01:28.999Z</time></trkpt><trkpt lat="45.35917463288058" lon="9.221105113095149"><ele>97.0</ele><time>2026-04-06T10:01:32.998Z</time></trkpt><trkpt lat="45.35922589114371" lon="9.221162145854539"><ele>97.0</ele><time>2026-04-06T10:01:36.998Z</time></trkpt><trkpt lat="45.359284024776755" lon="9.221213846721657"><ele>97.0</ele><time>2026-04-06T10:01:38.998Z</time></trkpt><trkpt lat="45.35934492152576" lon="9.221268335450063"><ele>97.0</ele><time>2026-04-06T10:01:40.999Z</time></trkpt><trkpt lat="45.35942413913868" lon="9.221350365663145"><ele>97.00000000000001</ele><time>2026-04-06T10:01:42.999Z</time></trkpt><trkpt lat="45.3594875157705" lon="9.221399410991078"><ele>97.0</ele><time>2026-04-06T10:01:44.999Z</time></trkpt><trkpt lat="45.35942446936856" lon="9.221296183423966"><ele>97.0</ele><time>2026-04-06T10:01:49.999Z</time></trkpt><trkpt lat="45.359357437542236" lon="9.221255022888773"><ele>97.0</ele><time>2026-04-06T10:01:51.999Z</time></trkpt><trkpt lat="45.35934310598187" lon="9.221157493118625"><ele>97.00000000000001</ele><time>2026-04-06T10:01:58.999Z</time></trkpt><trkpt lat="45.35942368297688" lon="9.221045331551487"><ele>97.0</ele><time>2026-04-06T10:02:01.999Z</time></trkpt><trkpt lat="45.35953157762308" lon="9.220918058552572"><ele>97.0</ele><time>2026-04-06T10:02:02.999Z</time></trkpt><trkpt lat="45.359593194355156" lon="9.22081860956825"><ele>97.0</ele><time>2026-04-06T10:02:03.999Z</time></trkpt><trkpt lat="45.359650674468256" lon="9.220735409184876"><ele>97.0</ele><time>2026-04-06T10:02:05.999Z</time></trkpt><trkpt lat="45.35970079801893" lon="9.220661493191917"><ele>97.0</ele><time>2026-04-06T10:02:09.999Z</time></trkpt><trkpt lat="45.359640038017496" lon="9.220700019139988"><ele>97.0</ele><time>2026-04-06T10:02:12.999Z</time></trkpt><trkpt lat="45.35958598429082" lon="9.220746882334296"><ele>97.0</ele><time>2026-04-06T10:02:15.999Z</time></trkpt><trkpt lat="45.35956298588943" lon="9.220654827555325"><ele>97.0</ele><time>2026-04-06T10:02:17.999Z</time></trkpt><trkpt lat="45.35951313474204" lon="9.220566847984912"><ele>97.00000000000001</ele><time>2026-04-06T10:02:19.999Z</time></trkpt><trkpt lat="45.35947004844527" lon="9.22045795767361"><ele>97.0</ele><time>2026-04-06T10:02:22.999Z</time></trkpt><trkpt lat="45.35953154266529" lon="9.220394153510004"><ele>97.0</ele><time>2026-04-06T10:02:24.999Z</time></trkpt><trkpt lat="45.35960309139574" lon="9.220351884917106"><ele>97.0</ele><time>2026-04-06T10:02:26.998Z</time></trkpt><trkpt lat="45.35966886634726" lon="9.22030433367373"><ele>97.00000000000001</ele><time>2026-04-06T10:02:28.998Z</time></trkpt><trkpt lat="45.35973193246866" lon="9.220250635013603"><ele>97.0</ele><time>2026-04-06T10:02:30.999Z</time></trkpt><trkpt lat="45.359790952598956" lon="9.220188978832631"><ele>97.16666666666667</ele><time>2026-04-06T10:02:32.999Z</time></trkpt><trkpt lat="45.359852803736295" lon="9.22012372424222"><ele>97.33333333333334</ele><time>2026-04-06T10:02:34.999Z</time></trkpt><trkpt lat="45.359922420511246" lon="9.220069233133215"><ele>97.5</ele><time>2026-04-06T10:02:37Z</time></trkpt><trkpt lat="45.35998567892349" lon="9.219991185504103"><ele>97.66666666666666</ele><time>2026-04-06T10:02:39Z</time></trkpt><trkpt lat="45.360045121381056" lon="9.219916730744353"><ele>97.83333333333333</ele><time>2026-04-06T10:02:41Z</time></trkpt><trkpt lat="45.3601126060953" lon="9.219858767191676"><ele>98.0</ele><time>2026-04-06T10:02:43Z</time></trkpt><trkpt lat="45.360177356709805" lon="9.219794109528655"><ele>97.99999999999999</ele><time>2026-04-06T10:02:45Z</time></trkpt><trkpt lat="45.36024317036842" lon="9.219724946083277"><ele>98.0</ele><time>2026-04-06T10:02:47Z</time></trkpt><trkpt lat="45.36032074010608" lon="9.219671738752805"><ele>98.0</ele><time>2026-04-06T10:02:49Z</time></trkpt><trkpt lat="45.360392086861665" lon="9.219616911633612"><ele>98.0</ele><time>2026-04-06T10:02:51Z</time></trkpt><trkpt lat="45.36045894190692" lon="9.219564884762308"><ele>97.99999999999999</ele><time>2026-04-06T10:02:53Z</time></trkpt><trkpt lat="45.360524255183385" lon="9.219513119591838"><ele>98.0</ele><time>2026-04-06T10:02:55Z</time></trkpt><trkpt lat="45.36058593367333" lon="9.219470338331972"><ele>97.66666666666666</ele><time>2026-04-06T10:02:57Z</time></trkpt><trkpt lat="45.36066336018682" lon="9.21941280638036"><ele>97.33333333333333</ele><time>2026-04-06T10:03:00Z</time></trkpt><trkpt lat="45.360717274379326" lon="9.219340613591395"><ele>97.0</ele><time>2026-04-06T10:03:04.001Z</time></trkpt><trkpt lat="45.36081288052373" lon="9.21930577722779"><ele>96.66666666666666</ele><time>2026-04-06T10:03:07.001Z</time></trkpt><trkpt lat="45.36089039527665" lon="9.219301220931063"><ele>96.33333333333333</ele><time>2026-04-06T10:03:09.001Z</time></trkpt><trkpt lat="45.360970863556915" lon="9.219286978238562"><ele>96.0</ele><time>2026-04-06T10:03:11.001Z</time></trkpt><trkpt lat="45.36105041217832" lon="9.219291215317172"><ele>96.0</ele><time>2026-04-06T10:03:13.001Z</time></trkpt><trkpt lat="45.36113968967251" lon="9.219256410003664"><ele>96.0</ele><time>2026-04-06T10:03:15.001Z</time></trkpt><trkpt lat="45.36123194206061" lon="9.219231581750774"><ele>96.0</ele><time>2026-04-06T10:03:17.001Z</time></trkpt><trkpt lat="45.36132548512319" lon="9.219208474124338"><ele>96.0</ele><time>2026-04-06T10:03:19.001Z</time></trkpt><trkpt lat="45.361417336396116" lon="9.219181772174007"><ele>96.0</ele><time>2026-04-06T10:03:21.001Z</time></trkpt><trkpt lat="45.361509165039955" lon="9.21916106254067"><ele>96.16666666666667</ele><time>2026-04-06T10:03:23.001Z</time></trkpt><trkpt lat="45.36159863484924" lon="9.219141645622134"><ele>96.33333333333334</ele><time>2026-04-06T10:03:25.001Z</time></trkpt><trkpt lat="45.36168872452238" lon="9.219113921436572"><ele>96.5</ele><time>2026-04-06T10:03:27.001Z</time></trkpt><trkpt lat="45.361778340177544" lon="9.219094241808495"><ele>96.66666666666667</ele><time>2026-04-06T10:03:29.001Z</time></trkpt><trkpt lat="45.36186547299464" lon="9.219072125611818"><ele>96.83333333333334</ele><time>2026-04-06T10:03:31.001Z</time></trkpt><trkpt lat="45.36194714636221" lon="9.21905384860332"><ele>97.0</ele><time>2026-04-06T10:03:33.001Z</time></trkpt><trkpt lat="45.362028350612526" lon="9.219027065266616"><ele>97.00000000000001</ele><time>2026-04-06T10:03:35.001Z</time></trkpt><trkpt lat="45.362110272545316" lon="9.219007417803345"><ele>97.0</ele><time>2026-04-06T10:03:37.001Z</time></trkpt><trkpt lat="45.362183922812335" lon="9.218986995538613"><ele>97.0</ele><time>2026-04-06T10:03:39.001Z</time></trkpt><trkpt lat="45.36224999813735" lon="9.21896956883024"><ele>97.0</ele><time>2026-04-06T10:03:41.001Z</time></trkpt><trkpt lat="45.36234223591561" lon="9.218982368760361"><ele>97.00000000000001</ele><time>2026-04-06T10:03:44.001Z</time></trkpt><trkpt lat="45.36238800690681" lon="9.219056965021032"><ele>97.0</ele><time>2026-04-06T10:03:46.001Z</time></trkpt><trkpt lat="45.36243705836414" lon="9.219141279402685"><ele>96.50000000000001</ele><time>2026-04-06T10:03:48.001Z</time></trkpt><trkpt lat="45.362492267119" lon="9.2191947991087"><ele>96.0</ele><time>2026-04-06T10:03:50.001Z</time></trkpt><trkpt lat="45.3625701310543" lon="9.219147839154555"><ele>95.5</ele><time>2026-04-06T10:03:52.001Z</time></trkpt><trkpt lat="45.362649507761255" lon="9.219122919125823"><ele>95.0</ele><time>2026-04-06T10:03:54.001Z</time></trkpt><trkpt lat="45.36273757461684" lon="9.219110633905368"><ele>94.5</ele><time>2026-04-06T10:03:56.001Z</time></trkpt><trkpt lat="45.362824573635706" lon="9.219088696288914"><ele>94.0</ele><time>2026-04-06T10:03:58.001Z</time></trkpt><trkpt lat="45.36290818183616" lon="9.219068380425343"><ele>94.0</ele><time>2026-04-06T10:04:00.001Z</time></trkpt><trkpt lat="45.36298670652498" lon="9.219058137020802"><ele>94.0</ele><time>2026-04-06T10:04:02.001Z</time></trkpt><trkpt lat="45.36306648427191" lon="9.219032273501357"><ele>94.0</ele><time>2026-04-06T10:04:04.001Z</time></trkpt><trkpt lat="45.363152060831325" lon="9.219002551715263"><ele>94.0</ele><time>2026-04-06T10:04:06.001Z</time></trkpt><trkpt lat="45.36323979843923" lon="9.218980415597198"><ele>94.0</ele><time>2026-04-06T10:04:08.001Z</time></trkpt><trkpt lat="45.36332899584848" lon="9.218955332969427"><ele>94.0</ele><time>2026-04-06T10:04:10.001Z</time></trkpt><trkpt lat="45.363421120343496" lon="9.21893547661484"><ele>94.4</ele><time>2026-04-06T10:04:12.001Z</time></trkpt><trkpt lat="45.36351788646602" lon="9.218904068045909"><ele>94.80000000000001</ele><time>2026-04-06T10:04:14.001Z</time></trkpt><trkpt lat="45.36361267039471" lon="9.218874028140933"><ele>95.19999999999999</ele><time>2026-04-06T10:04:16.001Z</time></trkpt><trkpt lat="45.36371150282265" lon="9.218850295436585"><ele>95.6</ele><time>2026-04-06T10:04:18.001Z</time></trkpt><trkpt lat="45.36381007649218" lon="9.218820438431472"><ele>96.0</ele><time>2026-04-06T10:04:20.001Z</time></trkpt><trkpt lat="45.36390695162509" lon="9.218791813286774"><ele>96.0</ele><time>2026-04-06T10:04:22.001Z</time></trkpt><trkpt lat="45.363999924723544" lon="9.218764953037383"><ele>96.0</ele><time>2026-04-06T10:04:24.001Z</time></trkpt><trkpt lat="45.36408946270907" lon="9.218747740832598"><ele>96.0</ele><time>2026-04-06T10:04:26.001Z</time></trkpt><trkpt lat="45.36417551347657" lon="9.218719315599474"><ele>96.0</ele><time>2026-04-06T10:04:28.001Z</time></trkpt><trkpt lat="45.36425782060984" lon="9.218701104067172"><ele>96.0</ele><time>2026-04-06T10:04:30.001Z</time></trkpt><trkpt lat="45.36433944909769" lon="9.21868392889524"><ele>96.0</ele><time>2026-04-06T10:04:32.001Z</time></trkpt><trkpt lat="45.364423971728215" lon="9.21866857152295"><ele>96.0</ele><time>2026-04-06T10:04:34Z</time></trkpt><trkpt lat="45.364507684075505" lon="9.218718076482677"><ele>96.0</ele><time>2026-04-06T10:04:36Z</time></trkpt><trkpt lat="45.36457609730418" lon="9.218804194634453"><ele>96.0</ele><time>2026-04-06T10:04:38Z</time></trkpt><trkpt lat="45.36466962347189" lon="9.218821487515958"><ele>96.0</ele><time>2026-04-06T10:04:40Z</time></trkpt><trkpt lat="45.364763753860274" lon="9.218767087810168"><ele>96.0</ele><time>2026-04-06T10:04:42Z</time></trkpt><trkpt lat="45.36483425689198" lon="9.218663775402806"><ele>95.4</ele><time>2026-04-06T10:04:44Z</time></trkpt><trkpt lat="45.364886453834224" lon="9.218540888999463"><ele>94.8</ele><time>2026-04-06T10:04:46Z</time></trkpt><trkpt lat="45.36495543428232" lon="9.218443148661862"><ele>94.2</ele><time>2026-04-06T10:04:48Z</time></trkpt><trkpt lat="45.365054523157305" lon="9.21839194869936"><ele>93.60000000000001</ele><time>2026-04-06T10:04:50Z</time></trkpt><trkpt lat="45.36515516280656" lon="9.218342061617525"><ele>93.0</ele><time>2026-04-06T10:04:52Z</time></trkpt><trkpt lat="45.365251535139414" lon="9.21828502742231"><ele>93.0</ele><time>2026-04-06T10:04:54.001Z</time></trkpt><trkpt lat="45.3653487881885" lon="9.218231411277477"><ele>93.0</ele><time>2026-04-06T10:04:56.001Z</time></trkpt><trkpt lat="45.36544491934421" lon="9.21817282226663"><ele>93.0</ele><time>2026-04-06T10:04:58.001Z</time></trkpt><trkpt lat="45.36554125745005" lon="9.218117411791209"><ele>93.0</ele><time>2026-04-06T10:05:00.001Z</time></trkpt><trkpt lat="45.36563769879861" lon="9.218061956893076"><ele>93.0</ele><time>2026-04-06T10:05:02.001Z</time></trkpt><trkpt lat="45.36573499262519" lon="9.218006500955918"><ele>93.4</ele><time>2026-04-06T10:05:04.001Z</time></trkpt><trkpt lat="45.36583230561254" lon="9.217951280922927"><ele>93.80000000000001</ele><time>2026-04-06T10:05:06.001Z</time></trkpt><trkpt lat="45.36593162488551" lon="9.217894371339511"><ele>94.2</ele><time>2026-04-06T10:05:08.001Z</time></trkpt><trkpt lat="45.36603235286092" lon="9.217836539870248"><ele>94.6</ele><time>2026-04-06T10:05:10.001Z</time></trkpt><trkpt lat="45.36613182683545" lon="9.21778187128743"><ele>95.0</ele><time>2026-04-06T10:05:12.001Z</time></trkpt><trkpt lat="45.36623146365946" lon="9.217724397282375"><ele>95.0</ele><time>2026-04-06T10:05:14.001Z</time></trkpt><trkpt lat="45.36633229998581" lon="9.217664979817092"><ele>95.0</ele><time>2026-04-06T10:05:16.001Z</time></trkpt><trkpt lat="45.36642863501771" lon="9.217595713382824"><ele>95.0</ele><time>2026-04-06T10:05:18.001Z</time></trkpt><trkpt lat="45.366524717616635" lon="9.217520109216608"><ele>95.0</ele><time>2026-04-06T10:05:20.001Z</time></trkpt><trkpt lat="45.36661644938576" lon="9.217440829100749"><ele>95.0</ele><time>2026-04-06T10:05:22.001Z</time></trkpt><trkpt lat="45.366704212668466" lon="9.21734624882878"><ele>94.8</ele><time>2026-04-06T10:05:24.001Z</time></trkpt><trkpt lat="45.3667943119914" lon="9.21725844850014"><ele>94.6</ele><time>2026-04-06T10:05:26.001Z</time></trkpt><trkpt lat="45.36689544943455" lon="9.217186029639329"><ele>94.4</ele><time>2026-04-06T10:05:28.001Z</time></trkpt><trkpt lat="45.36698214366482" lon="9.21709039012368"><ele>94.2</ele><time>2026-04-06T10:05:30.001Z</time></trkpt><trkpt lat="45.36707002295109" lon="9.216992635831586"><ele>94.0</ele><time>2026-04-06T10:05:32.001Z</time></trkpt><trkpt lat="45.36716021583722" lon="9.216895451708929"><ele>94.0</ele><time>2026-04-06T10:05:34.001Z</time></trkpt><trkpt lat="45.367249709164426" lon="9.216797309047564"><ele>94.0</ele><time>2026-04-06T10:05:36.001Z</time></trkpt><trkpt lat="45.367336785247815" lon="9.216700179316934"><ele>94.0</ele><time>2026-04-06T10:05:38.001Z</time></trkpt><trkpt lat="45.36742735840527" lon="9.216611598849063"><ele>94.0</ele><time>2026-04-06T10:05:40.001Z</time></trkpt><trkpt lat="45.367515608830615" lon="9.216513188796062"><ele>94.0</ele><time>2026-04-06T10:05:42.001Z</time></trkpt><trkpt lat="45.36760822013871" lon="9.216425544853188"><ele>94.0</ele><time>2026-04-06T10:05:44.001Z</time></trkpt><trkpt lat="45.36769778138179" lon="9.216333765828075"><ele>94.0</ele><time>2026-04-06T10:05:46.001Z</time></trkpt><trkpt lat="45.36779124511107" lon="9.21625020598288"><ele>94.0</ele><time>2026-04-06T10:05:48.001Z</time></trkpt><trkpt lat="45.36787883570707" lon="9.216160565426799"><ele>94.0</ele><time>2026-04-06T10:05:50.001Z</time></trkpt><trkpt lat="45.36796768486341" lon="9.216077240010582"><ele>94.0</ele><time>2026-04-06T10:05:52.001Z</time></trkpt><trkpt lat="45.36805318091126" lon="9.215988095027543"><ele>94.6</ele><time>2026-04-06T10:05:54.001Z</time></trkpt><trkpt lat="45.368142102646864" lon="9.215906381160558"><ele>95.2</ele><time>2026-04-06T10:05:56.001Z</time></trkpt><trkpt lat="45.36823000174119" lon="9.215818414653535"><ele>95.8</ele><time>2026-04-06T10:05:58.001Z</time></trkpt><trkpt lat="45.3683094803036" lon="9.215719242390776"><ele>96.39999999999999</ele><time>2026-04-06T10:06:00.001Z</time></trkpt><trkpt lat="45.36837474002198" lon="9.215598631124683"><ele>97.0</ele><time>2026-04-06T10:06:02.001Z</time></trkpt><trkpt lat="45.36843695085615" lon="9.21547698987063"><ele>97.0</ele><time>2026-04-06T10:06:04.001Z</time></trkpt><trkpt lat="45.36850356891458" lon="9.215356319066188"><ele>97.0</ele><time>2026-04-06T10:06:06.001Z</time></trkpt><trkpt lat="45.36857021129779" lon="9.215234037700336"><ele>97.0</ele><time>2026-04-06T10:06:08.001Z</time></trkpt><trkpt lat="45.368644723434876" lon="9.215118459013965"><ele>97.0</ele><time>2026-04-06T10:06:10.001Z</time></trkpt><trkpt lat="45.36873046571194" lon="9.215020554575716"><ele>97.0</ele><time>2026-04-06T10:06:12.001Z</time></trkpt><trkpt lat="45.36881586440161" lon="9.214923141538796"><ele>97.19999999999999</ele><time>2026-04-06T10:06:14.001Z</time></trkpt><trkpt lat="45.36890628249012" lon="9.214842242227098"><ele>97.4</ele><time>2026-04-06T10:06:16.001Z</time></trkpt><trkpt lat="45.36899583058525" lon="9.214763595795057"><ele>97.6</ele><time>2026-04-06T10:06:18.001Z</time></trkpt><trkpt lat="45.369090155226864" lon="9.214715414670586"><ele>97.80000000000001</ele><time>2026-04-06T10:06:20.001Z</time></trkpt><trkpt lat="45.369183849194414" lon="9.214670221947893"><ele>98.0</ele><time>2026-04-06T10:06:22.001Z</time></trkpt><trkpt lat="45.36926953741316" lon="9.214640186409115"><ele>98.0</ele><time>2026-04-06T10:06:24.001Z</time></trkpt><trkpt lat="45.36933578206486" lon="9.214710276337643"><ele>98.0</ele><time>2026-04-06T10:06:26.001Z</time></trkpt><trkpt lat="45.369371981787104" lon="9.214795631259609"><ele>98.0</ele><time>2026-04-06T10:06:28.001Z</time></trkpt><trkpt lat="45.36944793138188" lon="9.214812335668723"><ele>98.0</ele><time>2026-04-06T10:06:31.001Z</time></trkpt><trkpt lat="45.369482211755084" lon="9.214897618220135"><ele>98.0</ele><time>2026-04-06T10:06:36.001Z</time></trkpt><trkpt lat="45.36948644144881" lon="9.215003758481682"><ele>98.0</ele><time>2026-04-06T10:06:39Z</time></trkpt><trkpt lat="45.3694958524874" lon="9.215102658858061"><ele>98.0</ele><time>2026-04-06T10:06:42Z</time></trkpt><trkpt lat="45.36956101941099" lon="9.215105610811234"><ele>97.99999999999999</ele><time>2026-04-06T10:06:49Z</time></trkpt><trkpt lat="45.36961389286107" lon="9.215016382734968"><ele>98.0</ele><time>2026-04-06T10:06:52Z</time></trkpt><trkpt lat="45.3695990319531" lon="9.214886815856408"><ele>98.0</ele><time>2026-04-06T10:06:55Z</time></trkpt><trkpt lat="45.36961246998" lon="9.214798184010439"><ele>98.0</ele><time>2026-04-06T10:06:57Z</time></trkpt><trkpt lat="45.369653745948945" lon="9.214696846206163"><ele>97.99999999999999</ele><time>2026-04-06T10:07:00Z</time></trkpt><trkpt lat="45.36969913084992" lon="9.214595361723815"><ele>98.0</ele><time>2026-04-06T10:07:03Z</time></trkpt><trkpt lat="45.369752941382075" lon="9.214502644288604"><ele>98.14285714285714</ele><time>2026-04-06T10:07:06.001Z</time></trkpt><trkpt lat="45.369810470651345" lon="9.214424619417713"><ele>98.28571428571428</ele><time>2026-04-06T10:07:09.001Z</time></trkpt><trkpt lat="45.36985661954964" lon="9.214361101611683"><ele>98.42857142857143</ele><time>2026-04-06T10:07:11.001Z</time></trkpt><trkpt lat="45.36990866050988" lon="9.214307677084474"><ele>98.57142857142857</ele><time>2026-04-06T10:07:13.001Z</time></trkpt><trkpt lat="45.36998567142913" lon="9.214229484578734"><ele>98.71428571428571</ele><time>2026-04-06T10:07:16.001Z</time></trkpt><trkpt lat="45.37003721544536" lon="9.214167456485063"><ele>98.85714285714286</ele><time>2026-04-06T10:07:18.001Z</time></trkpt><trkpt lat="45.37010053458208" lon="9.214115093797023"><ele>99.0</ele><time>2026-04-06T10:07:20.001Z</time></trkpt><trkpt lat="45.37018159469006" lon="9.214054636337185"><ele>99.0</ele><time>2026-04-06T10:07:23.001Z</time></trkpt><trkpt lat="45.37025826721553" lon="9.213994687035592"><ele>99.0</ele><time>2026-04-06T10:07:26.001Z</time></trkpt><trkpt lat="45.37034127779779" lon="9.213980798086258"><ele>99.0</ele><time>2026-04-06T10:07:29.001Z</time></trkpt><trkpt lat="45.37042232854949" lon="9.213925409062572"><ele>99.0</ele><time>2026-04-06T10:07:32.001Z</time></trkpt><trkpt lat="45.370508119896606" lon="9.213863918930768"><ele>99.0</ele><time>2026-04-06T10:07:35.001Z</time></trkpt><trkpt lat="45.37059223201754" lon="9.21381306665946"><ele>99.0</ele><time>2026-04-06T10:07:38.001Z</time></trkpt><trkpt lat="45.37065363991097" lon="9.21378788939692"><ele>99.33333333333333</ele><time>2026-04-06T10:07:40.001Z</time></trkpt><trkpt lat="45.370740852310774" lon="9.213778243817332"><ele>99.66666666666666</ele><time>2026-04-06T10:07:43.001Z</time></trkpt><trkpt lat="45.370811462583525" lon="9.213712599408938"><ele>100.0</ele><time>2026-04-06T10:07:46.001Z</time></trkpt><trkpt lat="45.37089647626224" lon="9.213691894178968"><ele>100.33333333333333</ele><time>2026-04-06T10:07:49.001Z</time></trkpt><trkpt lat="45.370960384335355" lon="9.213683146754487"><ele>100.66666666666666</ele><time>2026-04-06T10:07:51.001Z</time></trkpt><trkpt lat="45.37102313109617" lon="9.21366660841508"><ele>101.0</ele><time>2026-04-06T10:07:53.001Z</time></trkpt><trkpt lat="45.37112058562423" lon="9.213641915045116"><ele>101.0</ele><time>2026-04-06T10:07:56.001Z</time></trkpt><trkpt lat="45.37119149555595" lon="9.21362350599944"><ele>101.0</ele><time>2026-04-06T10:07:58.001Z</time></trkpt><trkpt lat="45.371255458763876" lon="9.21361110558708"><ele>101.0</ele><time>2026-04-06T10:08:00.001Z</time></trkpt><trkpt lat="45.37132270458662" lon="9.213599369836343"><ele>101.0</ele><time>2026-04-06T10:08:02.001Z</time></trkpt><trkpt lat="45.37139011870296" lon="9.213581777728965"><ele>101.0</ele><time>2026-04-06T10:08:04.001Z</time></trkpt><trkpt lat="45.37145664086033" lon="9.213565781551727"><ele>101.0</ele><time>2026-04-06T10:08:06.001Z</time></trkpt><trkpt lat="45.371523783515634" lon="9.213549989448182"><ele>101.0</ele><time>2026-04-06T10:08:08.001Z</time></trkpt><trkpt lat="45.3716151108144" lon="9.213525398442592"><ele>100.99999999999999</ele><time>2026-04-06T10:08:11.001Z</time></trkpt><trkpt lat="45.37170543892119" lon="9.213564100997418"><ele>101.0</ele><time>2026-04-06T10:08:14.001Z</time></trkpt><trkpt lat="45.371789267774716" lon="9.213621424439278"><ele>101.0</ele><time>2026-04-06T10:08:17.001Z</time></trkpt><trkpt lat="45.371863453354834" lon="9.213682812133536"><ele>101.0</ele><time>2026-04-06T10:08:20.001Z</time></trkpt><trkpt lat="45.37192346135483" lon="9.213725536813863"><ele>100.99999999999999</ele><time>2026-04-06T10:08:22.001Z</time></trkpt><trkpt lat="45.37198982233867" lon="9.213778083914134"><ele>101.0</ele><time>2026-04-06T10:08:24.001Z</time></trkpt><trkpt lat="45.372036032999134" lon="9.213855730832814"><ele>100.99999999999999</ele><time>2026-04-06T10:08:26.001Z</time></trkpt><trkpt lat="45.37203726984629" lon="9.213968663467105"><ele>101.0</ele><time>2026-04-06T10:08:28.001Z</time></trkpt><trkpt lat="45.37204883782525" lon="9.214078931458792"><ele>101.0</ele><time>2026-04-06T10:08:30.001Z</time></trkpt><trkpt lat="45.372064479886156" lon="9.214188565955233"><ele>101.0</ele><time>2026-04-06T10:08:32.001Z</time></trkpt><trkpt lat="45.37207020444127" lon="9.214302117937116"><ele>100.99999999999999</ele><time>2026-04-06T10:08:34.001Z</time></trkpt><trkpt lat="45.37208302813897" lon="9.214415673028359"><ele>101.0</ele><time>2026-04-06T10:08:36.001Z</time></trkpt><trkpt lat="45.37209683606095" lon="9.214528451334598"><ele>100.83333333333333</ele><time>2026-04-06T10:08:38.001Z</time></trkpt><trkpt lat="45.37211277664354" lon="9.214635613146237"><ele>100.66666666666666</ele><time>2026-04-06T10:08:40.001Z</time></trkpt><trkpt lat="45.372120165925026" lon="9.214752167234655"><ele>100.5</ele><time>2026-04-06T10:08:42.001Z</time></trkpt><trkpt lat="45.372129045192956" lon="9.214854157163957"><ele>100.33333333333334</ele><time>2026-04-06T10:08:44Z</time></trkpt><trkpt lat="45.37214092107595" lon="9.214960318272176"><ele>100.16666666666667</ele><time>2026-04-06T10:08:46Z</time></trkpt><trkpt lat="45.37215355841556" lon="9.215065728462722"><ele>100.0</ele><time>2026-04-06T10:08:48Z</time></trkpt><trkpt lat="45.37216389611023" lon="9.215171778151694"><ele>99.83333333333334</ele><time>2026-04-06T10:08:50Z</time></trkpt><trkpt lat="45.372175331908615" lon="9.21527441392243"><ele>99.66666666666667</ele><time>2026-04-06T10:08:52Z</time></trkpt><trkpt lat="45.37218822806999" lon="9.215381911260915"><ele>99.5</ele><time>2026-04-06T10:08:54Z</time></trkpt><trkpt lat="45.37220312754044" lon="9.21550173650903"><ele>99.33333333333334</ele><time>2026-04-06T10:08:56Z</time></trkpt><trkpt lat="45.37222383489112" lon="9.215616282665877"><ele>99.16666666666667</ele><time>2026-04-06T10:08:58Z</time></trkpt><trkpt lat="45.372229744682315" lon="9.215734811530579"><ele>99.0</ele><time>2026-04-06T10:09:00Z</time></trkpt><trkpt lat="45.37223754391591" lon="9.215860038814125"><ele>98.66666666666667</ele><time>2026-04-06T10:09:02Z</time></trkpt><trkpt lat="45.37225588814829" lon="9.215979637907813"><ele>98.33333333333334</ele><time>2026-04-06T10:09:04Z</time></trkpt><trkpt lat="45.3722633657134" lon="9.216091762696278"><ele>98.0</ele><time>2026-04-06T10:09:06Z</time></trkpt><trkpt lat="45.37227584033308" lon="9.216198830006912"><ele>97.66666666666667</ele><time>2026-04-06T10:09:08Z</time></trkpt><trkpt lat="45.372297604422656" lon="9.216285457383876"><ele>97.33333333333334</ele><time>2026-04-06T10:09:10.001Z</time></trkpt><trkpt lat="45.3723103677941" lon="9.216391222187212"><ele>97.0</ele><time>2026-04-06T10:09:12.001Z</time></trkpt><trkpt lat="45.372322178413526" lon="9.216487329778898"><ele>97.00000000000001</ele><time>2026-04-06T10:09:14.001Z</time></trkpt><trkpt lat="45.37235792661809" lon="9.216572463233188"><ele>97.0</ele><time>2026-04-06T10:09:17.001Z</time></trkpt><trkpt lat="45.37243262607162" lon="9.216619988235648"><ele>97.0</ele><time>2026-04-06T10:09:21.001Z</time></trkpt><trkpt lat="45.372499644689725" lon="9.2166849569084"><ele>97.0</ele><time>2026-04-06T10:09:24.001Z</time></trkpt><trkpt lat="45.372579888170755" lon="9.21674619896817"><ele>97.00000000000001</ele><time>2026-04-06T10:09:27.001Z</time></trkpt><trkpt lat="45.37267033872106" lon="9.216767936640451"><ele>97.0</ele><time>2026-04-06T10:09:30.001Z</time></trkpt><trkpt lat="45.37273563324428" lon="9.21679377370855"><ele>97.0</ele><time>2026-04-06T10:09:32.001Z</time></trkpt><trkpt lat="45.372799504132054" lon="9.216804144589634"><ele>97.0</ele><time>2026-04-06T10:09:34.001Z</time></trkpt><trkpt lat="45.37286409560215" lon="9.216843355270429"><ele>97.0</ele><time>2026-04-06T10:09:36.001Z</time></trkpt><trkpt lat="45.37293953106335" lon="9.216868049429333"><ele>97.0</ele><time>2026-04-06T10:09:38.001Z</time></trkpt><trkpt lat="45.373005257906094" lon="9.216897590033222"><ele>97.0</ele><time>2026-04-06T10:09:40.001Z</time></trkpt><trkpt lat="45.373067360863956" lon="9.21688184165813"><ele>97.0</ele><time>2026-04-06T10:09:42.001Z</time></trkpt><trkpt lat="45.373153063217295" lon="9.21687161079388"><ele>97.0</ele><time>2026-04-06T10:09:45.001Z</time></trkpt><trkpt lat="45.373232375087895" lon="9.21688745617324"><ele>97.0</ele><time>2026-04-06T10:09:48.001Z</time></trkpt><trkpt lat="45.37325611740958" lon="9.216973675051392"><ele>97.0</ele><time>2026-04-06T10:09:51.001Z</time></trkpt><trkpt lat="45.373263247013504" lon="9.217089867580055"><ele>97.0</ele><time>2026-04-06T10:09:54.001Z</time></trkpt><trkpt lat="45.37329901013713" lon="9.217190678387732"><ele>97.0</ele><time>2026-04-06T10:09:57.001Z</time></trkpt><trkpt lat="45.3733673188333" lon="9.217194259319548"><ele>97.0</ele><time>2026-04-06T10:09:59.001Z</time></trkpt><trkpt lat="45.37340933445884" lon="9.217283121895877"><ele>97.0</ele><time>2026-04-06T10:10:02.001Z</time></trkpt><trkpt lat="45.37344663210895" lon="9.217375262938953"><ele>97.0</ele><time>2026-04-06T10:10:05.001Z</time></trkpt><trkpt lat="45.37349512220521" lon="9.217459090246315"><ele>97.16666666666667</ele><time>2026-04-06T10:10:08.001Z</time></trkpt><trkpt lat="45.37356162197611" lon="9.217478307854547"><ele>97.33333333333334</ele><time>2026-04-06T10:10:11.001Z</time></trkpt><trkpt lat="45.37364305448439" lon="9.217454421662408"><ele>97.5</ele><time>2026-04-06T10:11:44.001Z</time></trkpt><trkpt lat="45.373728379222726" lon="9.21744057202311"><ele>97.66666666666666</ele><time>2026-04-06T10:11:48.001Z</time></trkpt><trkpt lat="45.37380900817027" lon="9.2174326016147"><ele>97.83333333333333</ele><time>2026-04-06T10:11:50.001Z</time></trkpt><trkpt lat="45.373882836201666" lon="9.217460159813976"><ele>98.0</ele><time>2026-04-06T10:11:52.001Z</time></trkpt><trkpt lat="45.3739593743889" lon="9.217494928295157"><ele>98.33333333333333</ele><time>2026-04-06T10:11:54.001Z</time></trkpt><trkpt lat="45.374037180024686" lon="9.217500624018346"><ele>98.66666666666666</ele><time>2026-04-06T10:11:56.001Z</time></trkpt><trkpt lat="45.37411372414264" lon="9.217524605987256"><ele>99.0</ele><time>2026-04-06T10:11:58.001Z</time></trkpt><trkpt lat="45.374175064601204" lon="9.21759552033725"><ele>99.33333333333334</ele><time>2026-04-06T10:12:00.001Z</time></trkpt><trkpt lat="45.374208083657265" lon="9.217704330325606"><ele>99.66666666666667</ele><time>2026-04-06T10:12:02.001Z</time></trkpt><trkpt lat="45.37422969456178" lon="9.217796068449129"><ele>100.0</ele><time>2026-04-06T10:12:04.001Z</time></trkpt><trkpt lat="45.374272543138225" lon="9.217895740089048"><ele>100.00000000000001</ele><time>2026-04-06T10:12:06.001Z</time></trkpt><trkpt lat="45.37431167485043" lon="9.217977458766077"><ele>100.0</ele><time>2026-04-06T10:12:08.001Z</time></trkpt><trkpt lat="45.37429495911891" lon="9.218085545903426"><ele>100.0</ele><time>2026-04-06T10:12:10.001Z</time></trkpt><trkpt lat="45.374237406519356" lon="9.218188131311981"><ele>100.0</ele><time>2026-04-06T10:12:12.001Z</time></trkpt><trkpt lat="45.37418253413884" lon="9.218290945203606"><ele>100.00000000000001</ele><time>2026-04-06T10:12:14.001Z</time></trkpt><trkpt lat="45.374120639213665" lon="9.218369994570441"><ele>100.0</ele><time>2026-04-06T10:12:16.001Z</time></trkpt><trkpt lat="45.374066003044604" lon="9.218447408547476"><ele>99.50000000000001</ele><time>2026-04-06T10:12:18.001Z</time></trkpt><trkpt lat="45.37402645049697" lon="9.218550249416804"><ele>99.0</ele><time>2026-04-06T10:12:20.001Z</time></trkpt><trkpt lat="45.37401327780248" lon="9.2186684016488"><ele>98.5</ele><time>2026-04-06T10:12:22.001Z</time></trkpt><trkpt lat="45.37401913076814" lon="9.218784841024213"><ele>98.0</ele><time>2026-04-06T10:12:24.001Z</time></trkpt><trkpt lat="45.37405667967425" lon="9.218884851609344"><ele>97.50000000000001</ele><time>2026-04-06T10:12:26.001Z</time></trkpt><trkpt lat="45.37411486735108" lon="9.218976451234301"><ele>97.0</ele><time>2026-04-06T10:12:28.001Z</time></trkpt><trkpt lat="45.374200910261735" lon="9.218999150433232"><ele>97.00000000000001</ele><time>2026-04-06T10:12:30.001Z</time></trkpt><trkpt lat="45.37428311385001" lon="9.218979329368663"><ele>97.0</ele><time>2026-04-06T10:12:32.001Z</time></trkpt><trkpt lat="45.37436852246415" lon="9.218970348792823"><ele>97.0</ele><time>2026-04-06T10:12:34.001Z</time></trkpt><trkpt lat="45.37445073204571" lon="9.218962817528116"><ele>97.0</ele><time>2026-04-06T10:12:36.001Z</time></trkpt><trkpt lat="45.3745346284189" lon="9.21894785305816"><ele>97.00000000000001</ele><time>2026-04-06T10:12:38.001Z</time></trkpt><trkpt lat="45.374624871193205" lon="9.218937320039243"><ele>97.0</ele><time>2026-04-06T10:12:40.001Z</time></trkpt><trkpt lat="45.374709231384685" lon="9.218932014066818"><ele>97.50000000000001</ele><time>2026-04-06T10:12:42.001Z</time></trkpt><trkpt lat="45.37479263151295" lon="9.218924120393877"><ele>98.0</ele><time>2026-04-06T10:12:44.001Z</time></trkpt><trkpt lat="45.37488021234538" lon="9.218905183826546"><ele>98.5</ele><time>2026-04-06T10:12:46.001Z</time></trkpt><trkpt lat="45.37496617910964" lon="9.218891296724427"><ele>99.0</ele><time>2026-04-06T10:12:48.001Z</time></trkpt><trkpt lat="45.375050892623065" lon="9.21887594955591"><ele>99.50000000000001</ele><time>2026-04-06T10:12:50.001Z</time></trkpt><trkpt lat="45.375128288871146" lon="9.218858548064759"><ele>100.0</ele><time>2026-04-06T10:12:52.001Z</time></trkpt><trkpt lat="45.37522243144967" lon="9.218841711321998"><ele>100.00000000000001</ele><time>2026-04-06T10:12:54.001Z</time></trkpt><trkpt lat="45.37530593961048" lon="9.21881413912462"><ele>100.0</ele><time>2026-04-06T10:12:56Z</time></trkpt><trkpt lat="45.3753924782231" lon="9.218793988683498"><ele>100.0</ele><time>2026-04-06T10:12:58Z</time></trkpt><trkpt lat="45.37548063384234" lon="9.218789641251382"><ele>100.0</ele><time>2026-04-06T10:13:00.001Z</time></trkpt><trkpt lat="45.375510593431855" lon="9.21889688596627"><ele>100.00000000000001</ele><time>2026-04-06T10:13:02Z</time></trkpt><trkpt lat="45.375537641636015" lon="9.219022732738912"><ele>100.0</ele><time>2026-04-06T10:13:04Z</time></trkpt><trkpt lat="45.37560228488307" lon="9.219115304364532"><ele>99.50000000000001</ele><time>2026-04-06T10:13:06Z</time></trkpt><trkpt lat="45.37566991670509" lon="9.219196908307367"><ele>99.0</ele><time>2026-04-06T10:13:08Z</time></trkpt><trkpt lat="45.37574758265516" lon="9.21926752929268"><ele>98.5</ele><time>2026-04-06T10:13:10Z</time></trkpt><trkpt lat="45.37583357685212" lon="9.219315680207007"><ele>98.0</ele><time>2026-04-06T10:13:12Z</time></trkpt><trkpt lat="45.37591604515314" lon="9.219360677832324"><ele>97.50000000000001</ele><time>2026-04-06T10:13:14Z</time></trkpt><trkpt lat="45.376000563644325" lon="9.219376420072"><ele>97.0</ele><time>2026-04-06T10:13:16Z</time></trkpt><trkpt lat="45.37607098208977" lon="9.219375523574175"><ele>97.00000000000001</ele><time>2026-04-06T10:13:18Z</time></trkpt><trkpt lat="45.37613925338775" lon="9.219368396485088"><ele>97.0</ele><time>2026-04-06T10:13:20.001Z</time></trkpt><trkpt lat="45.376224791430744" lon="9.21934514768722"><ele>97.0</ele><time>2026-04-06T10:13:22.001Z</time></trkpt><trkpt lat="45.37630592502914" lon="9.21930619674177"><ele>97.0</ele><time>2026-04-06T10:13:24.001Z</time></trkpt><trkpt lat="45.37639354246598" lon="9.219265803000832"><ele>97.00000000000001</ele><time>2026-04-06T10:13:26.001Z</time></trkpt><trkpt lat="45.37648230565595" lon="9.219260570146542"><ele>97.0</ele><time>2026-04-06T10:13:28.001Z</time></trkpt><trkpt lat="45.37657383222834" lon="9.219268373600809"><ele>97.00000000000001</ele><time>2026-04-06T10:13:30.001Z</time></trkpt><trkpt lat="45.37664635148806" lon="9.219293274624066"><ele>97.0</ele><time>2026-04-06T10:13:32.001Z</time></trkpt><trkpt lat="45.37672325904451" lon="9.21936105723473"><ele>97.0</ele><time>2026-04-06T10:13:34.001Z</time></trkpt><trkpt lat="45.37679149865399" lon="9.21942317431437"><ele>97.0</ele><time>2026-04-06T10:13:36.001Z</time></trkpt><trkpt lat="45.37686158985052" lon="9.219469755640475"><ele>97.00000000000001</ele><time>2026-04-06T10:13:38.001Z</time></trkpt><trkpt lat="45.376941126551124" lon="9.219499442863938"><ele>97.0</ele><time>2026-04-06T10:13:40.001Z</time></trkpt><trkpt lat="45.37699827512423" lon="9.219565801930628"><ele>97.00000000000001</ele><time>2026-04-06T10:13:42.001Z</time></trkpt><trkpt lat="45.377081601605276" lon="9.219580983548612"><ele>97.0</ele><time>2026-04-06T10:13:44.001Z</time></trkpt><trkpt lat="45.37716536792528" lon="9.219586450895065"><ele>97.0</ele><time>2026-04-06T10:13:46.001Z</time></trkpt><trkpt lat="45.37724902818677" lon="9.219605361119388"><ele>97.0</ele><time>2026-04-06T10:13:48.001Z</time></trkpt><trkpt lat="45.37733510260425" lon="9.219598040753418"><ele>97.00000000000001</ele><time>2026-04-06T10:13:50.001Z</time></trkpt><trkpt lat="45.37742433557407" lon="9.219626527123948"><ele>97.0</ele><time>2026-04-06T10:13:52.001Z</time></trkpt><trkpt lat="45.37750705925338" lon="9.219629629683125"><ele>97.33333333333334</ele><time>2026-04-06T10:13:54.001Z</time></trkpt><trkpt lat="45.37759707031733" lon="9.21961403230271"><ele>97.66666666666667</ele><time>2026-04-06T10:13:56.001Z</time></trkpt><trkpt lat="45.377674405702216" lon="9.219609534802524"><ele>98.0</ele><time>2026-04-06T10:13:58.001Z</time></trkpt><trkpt lat="45.37776429360749" lon="9.219576954182855"><ele>98.33333333333334</ele><time>2026-04-06T10:14:00.001Z</time></trkpt><trkpt lat="45.377838940901604" lon="9.219522501302489"><ele>98.66666666666667</ele><time>2026-04-06T10:14:02.001Z</time></trkpt><trkpt lat="45.37792993001173" lon="9.21947465032212"><ele>99.0</ele><time>2026-04-06T10:14:04.001Z</time></trkpt><trkpt lat="45.37800830379554" lon="9.219409821820461"><ele>99.0</ele><time>2026-04-06T10:14:06.001Z</time></trkpt><trkpt lat="45.37809057500701" lon="9.219345402641268"><ele>99.0</ele><time>2026-04-06T10:14:08.001Z</time></trkpt><trkpt lat="45.378161417965096" lon="9.219271385180313"><ele>99.0</ele><time>2026-04-06T10:14:10.001Z</time></trkpt><trkpt lat="45.378226320768576" lon="9.219192265369575"><ele>99.0</ele><time>2026-04-06T10:14:12.001Z</time></trkpt><trkpt lat="45.378295528710794" lon="9.219118265001189"><ele>99.0</ele><time>2026-04-06T10:14:14.001Z</time></trkpt><trkpt lat="45.37835468239491" lon="9.21905124010247"><ele>99.0</ele><time>2026-04-06T10:14:16.001Z</time></trkpt><trkpt lat="45.378438760985645" lon="9.2189682201152"><ele>99.0</ele><time>2026-04-06T10:14:18.001Z</time></trkpt><trkpt lat="45.37850855996127" lon="9.218889838079152"><ele>99.0</ele><time>2026-04-06T10:14:20.001Z</time></trkpt><trkpt lat="45.37858446698684" lon="9.218835358388628"><ele>99.0</ele><time>2026-04-06T10:14:22.001Z</time></trkpt><trkpt lat="45.37866811144391" lon="9.218797984676529"><ele>99.0</ele><time>2026-04-06T10:14:24.001Z</time></trkpt><trkpt lat="45.378741897567366" lon="9.218762589914054"><ele>99.0</ele><time>2026-04-06T10:14:26.001Z</time></trkpt><trkpt lat="45.3788269924044" lon="9.218743224186639"><ele>99.0</ele><time>2026-04-06T10:14:28.001Z</time></trkpt><trkpt lat="45.37891822950042" lon="9.218739363077828"><ele>99.0</ele><time>2026-04-06T10:14:30.001Z</time></trkpt><trkpt lat="45.379007033208815" lon="9.218744645849615"><ele>99.0</ele><time>2026-04-06T10:14:32.001Z</time></trkpt><trkpt lat="45.379082985779995" lon="9.218811629795695"><ele>99.0</ele><time>2026-04-06T10:14:34.001Z</time></trkpt><trkpt lat="45.37914118080383" lon="9.2188591707238"><ele>99.0</ele><time>2026-04-06T10:14:36.001Z</time></trkpt><trkpt lat="45.37916869111512" lon="9.218946753779678"><ele>99.0</ele><time>2026-04-06T10:14:38.001Z</time></trkpt><trkpt lat="45.37923303932572" lon="9.21901239997864"><ele>99.0</ele><time>2026-04-06T10:14:41.001Z</time></trkpt><trkpt lat="45.37926141827839" lon="9.219149732662185"><ele>99.0</ele><time>2026-04-06T10:14:44.001Z</time></trkpt><trkpt lat="45.37934618655405" lon="9.219176545653701"><ele>99.0</ele><time>2026-04-06T10:14:46.001Z</time></trkpt><trkpt lat="45.379415910895695" lon="9.219133423181674"><ele>99.0</ele><time>2026-04-06T10:14:48.001Z</time></trkpt><trkpt lat="45.379478888231795" lon="9.219117876737558"><ele>99.0</ele><time>2026-04-06T10:15:31Z</time></trkpt><trkpt lat="45.379553988453274" lon="9.21911449157298"><ele>99.0</ele><time>2026-04-06T10:15:37.001Z</time></trkpt><trkpt lat="45.37963808319789" lon="9.219099168106917"><ele>99.0</ele><time>2026-04-06T10:15:40.001Z</time></trkpt><trkpt lat="45.379727463380995" lon="9.219079434966453"><ele>99.16666666666667</ele><time>2026-04-06T10:15:43.001Z</time></trkpt><trkpt lat="45.379814744909076" lon="9.219062317980875"><ele>99.33333333333334</ele><time>2026-04-06T10:15:46.001Z</time></trkpt><trkpt lat="45.379881899084836" lon="9.219036475687279"><ele>99.5</ele><time>2026-04-06T10:15:48.001Z</time></trkpt><trkpt lat="45.379956241234574" lon="9.219028297982293"><ele>99.66666666666667</ele><time>2026-04-06T10:15:50.001Z</time></trkpt><trkpt lat="45.38003661374828" lon="9.21902266595487"><ele>99.83333333333334</ele><time>2026-04-06T10:15:52.001Z</time></trkpt><trkpt lat="45.380125787379946" lon="9.219012513989938"><ele>100.0</ele><time>2026-04-06T10:15:54.001Z</time></trkpt><trkpt lat="45.380200897329026" lon="9.218987049359729"><ele>100.00000000000001</ele><time>2026-04-06T10:15:56.001Z</time></trkpt><trkpt lat="45.38028367941957" lon="9.218973528264707"><ele>100.0</ele><time>2026-04-06T10:15:58.001Z</time></trkpt><trkpt lat="45.38036471612067" lon="9.218940831351599"><ele>100.0</ele><time>2026-04-06T10:16:00.001Z</time></trkpt><trkpt lat="45.380447516201585" lon="9.218925579612382"><ele>100.0</ele><time>2026-04-06T10:16:02.001Z</time></trkpt><trkpt lat="45.380532767438005" lon="9.218906757335278"><ele>100.00000000000001</ele><time>2026-04-06T10:16:04.001Z</time></trkpt><trkpt lat="45.380618888498915" lon="9.218878003310847"><ele>100.0</ele><time>2026-04-06T10:16:06.001Z</time></trkpt><trkpt lat="45.380703817515666" lon="9.218865745275792"><ele>100.66666666666667</ele><time>2026-04-06T10:16:08.001Z</time></trkpt><trkpt lat="45.38079093272188" lon="9.218848482121773"><ele>101.33333333333334</ele><time>2026-04-06T10:16:10.001Z</time></trkpt><trkpt lat="45.3808761383624" lon="9.218827671527345"><ele>102.0</ele><time>2026-04-06T10:16:12.001Z</time></trkpt><trkpt lat="45.38096748805908" lon="9.21880751922425"><ele>102.66666666666666</ele><time>2026-04-06T10:16:14.001Z</time></trkpt><trkpt lat="45.381055794646684" lon="9.21878518322776"><ele>103.33333333333333</ele><time>2026-04-06T10:16:16.001Z</time></trkpt><trkpt lat="45.38114715824842" lon="9.218765780714493"><ele>104.0</ele><time>2026-04-06T10:16:18.001Z</time></trkpt><trkpt lat="45.38123041876926" lon="9.218721411981177"><ele>103.99999999999999</ele><time>2026-04-06T10:16:20.001Z</time></trkpt><trkpt lat="45.38131879818246" lon="9.218719748437746"><ele>104.0</ele><time>2026-04-06T10:16:22.001Z</time></trkpt><trkpt lat="45.38140175621442" lon="9.218700797987708"><ele>104.0</ele><time>2026-04-06T10:16:24.001Z</time></trkpt><trkpt lat="45.3814808809931" lon="9.218686580442567"><ele>104.0</ele><time>2026-04-06T10:16:26.001Z</time></trkpt><trkpt lat="45.38155657377462" lon="9.21866573226159"><ele>103.99999999999999</ele><time>2026-04-06T10:16:28.001Z</time></trkpt><trkpt lat="45.38163012593753" lon="9.218642844084192"><ele>104.0</ele><time>2026-04-06T10:16:30.001Z</time></trkpt><trkpt lat="45.38169975906308" lon="9.218633696826169"><ele>103.85714285714285</ele><time>2026-04-06T10:16:32.001Z</time></trkpt><trkpt lat="45.38176783285693" lon="9.218614244945435"><ele>103.71428571428572</ele><time>2026-04-06T10:16:34.001Z</time></trkpt><trkpt lat="45.38183940470803" lon="9.218580348006736"><ele>103.57142857142857</ele><time>2026-04-06T10:16:36.001Z</time></trkpt><trkpt lat="45.381899335174026" lon="9.218534943500782"><ele>103.42857142857142</ele><time>2026-04-06T10:16:38.001Z</time></trkpt><trkpt lat="45.38192197613554" lon="9.21843988837251"><ele>103.28571428571428</ele><time>2026-04-06T10:16:40.001Z</time></trkpt><trkpt lat="45.38190800869475" lon="9.218347613240903"><ele>103.14285714285714</ele><time>2026-04-06T10:16:42.001Z</time></trkpt><trkpt lat="45.38189970203602" lon="9.21825871960577"><ele>103.0</ele><time>2026-04-06T10:16:44.001Z</time></trkpt><trkpt lat="45.38188490598345" lon="9.218146712006261"><ele>101.0</ele><time>2026-04-06T10:16:47.001Z</time></trkpt><trkpt lat="45.381865580191764" lon="9.21804334924883"><ele>101.0</ele><time>2026-04-06T10:16:50.001Z</time></trkpt><trkpt lat="45.38185075437311" lon="9.217948667144883"><ele>101.0</ele><time>2026-04-06T10:16:53.001Z</time></trkpt></trkseg></trk></gpx>